<?xml version='1.0' encoding='UTF-8'?><gpx version="1.1" creator="JPX - https://github.com/jenetics/jpx" xmlns="http://www.topografix.com/GPX/1/1"><trk><trkseg><trkpt lat="50.17276864141489" lon="16.353304560263105"><ele>402.0</ele><time>2026-05-03T07:02:17Z</time></trkpt><trkpt lat="50.17279049856942" lon="16.353172776051796"><ele>402.0</ele><time>2026-05-03T07:02:30Z</time></trkpt><trkpt lat="50.172796942371946" lon="16.353015949480177"><ele>402.0</ele><time>2026-05-03T07:02:32Z</time></trkpt><trkpt lat="50.17278213349362" lon="16.35291698884907"><ele>402.0</ele><time>2026-05-03T07:02:33Z</time></trkpt><trkpt lat="50.172773526472426" lon="16.352809336766025"><ele>402.0</ele><time>2026-05-03T07:02:34Z</time></trkpt><trkpt lat="50.172765193941125" lon="16.35269583504555"><ele>402.0</ele><time>2026-05-03T07:02:35Z</time></trkpt><trkpt lat="50.17274695511703" lon="16.352585024072276"><ele>402.0</ele><time>2026-05-03T07:02:36Z</time></trkpt><trkpt lat="50.17273014176583" lon="16.352470751807143"><ele>402.0</ele><time>2026-05-03T07:02:37Z</time></trkpt><trkpt lat="50.17272050769409" lon="16.352352744837603"><ele>402.0</ele><time>2026-05-03T07:02:38Z</time></trkpt><trkpt lat="50.17270230674903" lon="16.352239988466092"><ele>402.0</ele><time>2026-05-03T07:02:39Z</time></trkpt><trkpt lat="50.172686736818065" lon="16.352124449832488"><ele>402.0</ele><time>2026-05-03T07:02:40Z</time></trkpt><trkpt lat="50.17267547259559" lon="16.352003621009448"><ele>402.0</ele><time>2026-05-03T07:02:41Z</time></trkpt><trkpt lat="50.172657021644326" lon="16.35188475162479"><ele>401.8333333333333</ele><time>2026-05-03T07:02:42Z</time></trkpt><trkpt lat="50.17265176551042" lon="16.35174595374377"><ele>401.66666666666663</ele><time>2026-05-03T07:02:43Z</time></trkpt><trkpt lat="50.17262361196454" lon="16.351605474593576"><ele>401.5</ele><time>2026-05-03T07:02:44Z</time></trkpt><trkpt lat="50.17260578136372" lon="16.351460994977508"><ele>401.3333333333333</ele><time>2026-05-03T07:02:45Z</time></trkpt><trkpt lat="50.172585682407" lon="16.351325358495274"><ele>401.16666666666663</ele><time>2026-05-03T07:02:46Z</time></trkpt><trkpt lat="50.17256488830478" lon="16.35121877942112"><ele>401.0</ele><time>2026-05-03T07:02:47Z</time></trkpt><trkpt lat="50.17254851556453" lon="16.351119304596622"><ele>400.99999999999994</ele><time>2026-05-03T07:02:48Z</time></trkpt><trkpt lat="50.172512132757916" lon="16.35100426378651"><ele>401.0</ele><time>2026-05-03T07:02:49Z</time></trkpt><trkpt lat="50.172473284442276" lon="16.350896762838286"><ele>401.0</ele><time>2026-05-03T07:02:50Z</time></trkpt><trkpt lat="50.172426016872244" lon="16.350778624724136"><ele>401.0</ele><time>2026-05-03T07:02:51Z</time></trkpt><trkpt lat="50.172365342775834" lon="16.35067684355283"><ele>400.99999999999994</ele><time>2026-05-03T07:02:52Z</time></trkpt><trkpt lat="50.172325407252515" lon="16.350545619209804"><ele>401.0</ele><time>2026-05-03T07:02:53Z</time></trkpt><trkpt lat="50.17227412591602" lon="16.35042952576344"><ele>400.3333333333333</ele><time>2026-05-03T07:02:54Z</time></trkpt><trkpt lat="50.17222285918745" lon="16.35031346539356"><ele>399.66666666666663</ele><time>2026-05-03T07:02:55Z</time></trkpt><trkpt lat="50.172171241596836" lon="16.35019661072395"><ele>399.0</ele><time>2026-05-03T07:02:56Z</time></trkpt><trkpt lat="50.172119424892884" lon="16.350079109568117"><ele>398.33333333333337</ele><time>2026-05-03T07:02:57Z</time></trkpt><trkpt lat="50.17206766778315" lon="16.349961693066962"><ele>397.6666666666667</ele><time>2026-05-03T07:02:58Z</time></trkpt><trkpt lat="50.17202052962355" lon="16.349854755144953"><ele>397.0</ele><time>2026-05-03T07:02:59Z</time></trkpt><trkpt lat="50.171976554446324" lon="16.34976685851668"><ele>396.42857142857144</ele><time>2026-05-03T07:03:00Z</time></trkpt><trkpt lat="50.17198207122245" lon="16.349643641169372"><ele>395.85714285714283</ele><time>2026-05-03T07:03:01Z</time></trkpt><trkpt lat="50.171965915978184" lon="16.349526980956806"><ele>395.28571428571433</ele><time>2026-05-03T07:03:02Z</time></trkpt><trkpt lat="50.17195446288522" lon="16.34941777779616"><ele>394.7142857142857</ele><time>2026-05-03T07:03:03Z</time></trkpt><trkpt lat="50.17195003519733" lon="16.349314373029372"><ele>394.14285714285717</ele><time>2026-05-03T07:03:04Z</time></trkpt><trkpt lat="50.17196327856965" lon="16.349206338336792"><ele>393.5714285714286</ele><time>2026-05-03T07:03:05Z</time></trkpt><trkpt lat="50.17196682086541" lon="16.349085030636196"><ele>393.0</ele><time>2026-05-03T07:03:06Z</time></trkpt><trkpt lat="50.17201660335868" lon="16.34900361083608"><ele>393.0</ele><time>2026-05-03T07:03:07Z</time></trkpt><trkpt lat="50.172030501148235" lon="16.348907024665973"><ele>393.0</ele><time>2026-05-03T07:03:08Z</time></trkpt><trkpt lat="50.172016214463476" lon="16.34878724719563"><ele>393.0</ele><time>2026-05-03T07:03:09Z</time></trkpt><trkpt lat="50.1719653691849" lon="16.348678953299945"><ele>393.0</ele><time>2026-05-03T07:03:10Z</time></trkpt><trkpt lat="50.17189274773201" lon="16.34858029740599"><ele>393.0</ele><time>2026-05-03T07:03:11Z</time></trkpt><trkpt lat="50.17183727331925" lon="16.34851479741321"><ele>393.0</ele><time>2026-05-03T07:03:12Z</time></trkpt><trkpt lat="50.1717620854976" lon="16.348439448349627"><ele>393.0</ele><time>2026-05-03T07:03:14Z</time></trkpt><trkpt lat="50.171605249488024" lon="16.348528647660277"><ele>393.0</ele><time>2026-05-03T07:03:17Z</time></trkpt><trkpt lat="50.17152878570125" lon="16.348671729655873"><ele>393.0</ele><time>2026-05-03T07:03:18Z</time></trkpt><trkpt lat="50.171441576023405" lon="16.348848539361722"><ele>393.0</ele><time>2026-05-03T07:03:19Z</time></trkpt><trkpt lat="50.17133657556314" lon="16.34902679631309"><ele>393.25</ele><time>2026-05-03T07:03:20Z</time></trkpt><trkpt lat="50.17125928348745" lon="16.349167043557614"><ele>393.5</ele><time>2026-05-03T07:03:21Z</time></trkpt><trkpt lat="50.171185741419066" lon="16.34926043750963"><ele>393.75</ele><time>2026-05-03T07:03:22Z</time></trkpt><trkpt lat="50.171140579156734" lon="16.349344269634"><ele>394.0</ele><time>2026-05-03T07:03:23Z</time></trkpt><trkpt lat="50.17091368764578" lon="16.349218830136547"><ele>394.0</ele><time>2026-05-03T07:03:25.001Z</time></trkpt><trkpt lat="50.17079458959823" lon="16.349116482834578"><ele>394.0</ele><time>2026-05-03T07:03:26.001Z</time></trkpt><trkpt lat="50.17064749150915" lon="16.348990900613046"><ele>394.0</ele><time>2026-05-03T07:03:27.001Z</time></trkpt><trkpt lat="50.170496728998025" lon="16.34884114942093"><ele>395.33333333333337</ele><time>2026-05-03T07:03:28.001Z</time></trkpt><trkpt lat="50.170395679337155" lon="16.348678178689735"><ele>396.66666666666663</ele><time>2026-05-03T07:03:29.001Z</time></trkpt><trkpt lat="50.17031384743955" lon="16.348478752542395"><ele>398.0</ele><time>2026-05-03T07:03:30.001Z</time></trkpt><trkpt lat="50.17023706024929" lon="16.348219495527708"><ele>400.0</ele><time>2026-05-03T07:03:31.001Z</time></trkpt><trkpt lat="50.17014128485294" lon="16.347890977437114"><ele>402.0</ele><time>2026-05-03T07:03:32.001Z</time></trkpt><trkpt lat="50.170004700846384" lon="16.347563352857417"><ele>402.0</ele><time>2026-05-03T07:03:33.001Z</time></trkpt><trkpt lat="50.16985980966368" lon="16.34724064514994"><ele>402.0</ele><time>2026-05-03T07:03:34.001Z</time></trkpt><trkpt lat="50.16970950945264" lon="16.346961668996418"><ele>403.33333333333337</ele><time>2026-05-03T07:03:35.001Z</time></trkpt><trkpt lat="50.16959799197734" lon="16.346747590723506"><ele>404.6666666666667</ele><time>2026-05-03T07:03:36.001Z</time></trkpt><trkpt lat="50.16949317737844" lon="16.346596479117952"><ele>406.0</ele><time>2026-05-03T07:03:37.001Z</time></trkpt><trkpt lat="50.16934170664991" lon="16.346478872476126"><ele>406.0</ele><time>2026-05-03T07:03:38.001Z</time></trkpt><trkpt lat="50.16914674282059" lon="16.346408366486525"><ele>406.0</ele><time>2026-05-03T07:03:39.001Z</time></trkpt><trkpt lat="50.16892388057462" lon="16.34637803118465"><ele>406.0</ele><time>2026-05-03T07:03:40.001Z</time></trkpt><trkpt lat="50.16864522589499" lon="16.346271014388506"><ele>407.0</ele><time>2026-05-03T07:03:41.001Z</time></trkpt><trkpt lat="50.16832124536" lon="16.346174863240233"><ele>408.0</ele><time>2026-05-03T07:03:42.001Z</time></trkpt><trkpt lat="50.16800066558729" lon="16.346104165407912"><ele>411.0</ele><time>2026-05-03T07:03:43.001Z</time></trkpt><trkpt lat="50.16771761694517" lon="16.34600209757523"><ele>414.0</ele><time>2026-05-03T07:03:44.001Z</time></trkpt><trkpt lat="50.16748136623457" lon="16.34591719464647"><ele>417.33333333333337</ele><time>2026-05-03T07:03:45.001Z</time></trkpt><trkpt lat="50.167261391389005" lon="16.345833202456735"><ele>420.6666666666667</ele><time>2026-05-03T07:03:46Z</time></trkpt><trkpt lat="50.167059646676655" lon="16.34575442040244"><ele>424.0</ele><time>2026-05-03T07:03:47Z</time></trkpt><trkpt lat="50.166904593619364" lon="16.345639514172785"><ele>424.6666666666667</ele><time>2026-05-03T07:03:48Z</time></trkpt><trkpt lat="50.166738384509614" lon="16.34548875829864"><ele>425.33333333333337</ele><time>2026-05-03T07:03:49Z</time></trkpt><trkpt lat="50.16655578383505" lon="16.345291345077566"><ele>426.0</ele><time>2026-05-03T07:03:50Z</time></trkpt><trkpt lat="50.166404322891324" lon="16.345097810620256"><ele>427.33333333333337</ele><time>2026-05-03T07:03:51Z</time></trkpt><trkpt lat="50.166281778054824" lon="16.3448942530696"><ele>428.6666666666667</ele><time>2026-05-03T07:03:52Z</time></trkpt><trkpt lat="50.166185265558866" lon="16.344621318818703"><ele>430.0</ele><time>2026-05-03T07:03:53Z</time></trkpt><trkpt lat="50.16607369125981" lon="16.344301172506494"><ele>430.0</ele><time>2026-05-03T07:03:54Z</time></trkpt><trkpt lat="50.16592671999116" lon="16.343972364150392"><ele>430.0</ele><time>2026-05-03T07:03:55Z</time></trkpt><trkpt lat="50.16577672198612" lon="16.34362715225724"><ele>435.5</ele><time>2026-05-03T07:03:56Z</time></trkpt><trkpt lat="50.16561656989652" lon="16.34324388489561"><ele>441.0</ele><time>2026-05-03T07:03:57Z</time></trkpt><trkpt lat="50.16543807042774" lon="16.342847600534352"><ele>441.0</ele><time>2026-05-03T07:03:58Z</time></trkpt><trkpt lat="50.1652848285809" lon="16.34250569221031"><ele>441.0</ele><time>2026-05-03T07:03:59Z</time></trkpt><trkpt lat="50.165144470075866" lon="16.342240321289918"><ele>441.0</ele><time>2026-05-03T07:04:00Z</time></trkpt><trkpt lat="50.1650302846444" lon="16.341990338601374"><ele>441.0</ele><time>2026-05-03T07:04:01Z</time></trkpt><trkpt lat="50.16496161376391" lon="16.341766569864365"><ele>441.0</ele><time>2026-05-03T07:04:02Z</time></trkpt><trkpt lat="50.16490423137716" lon="16.341558341351124"><ele>441.0</ele><time>2026-05-03T07:04:03Z</time></trkpt><trkpt lat="50.16488380232653" lon="16.34133394169053"><ele>441.0</ele><time>2026-05-03T07:04:04Z</time></trkpt><trkpt lat="50.16491833577864" lon="16.34105631133249"><ele>441.0</ele><time>2026-05-03T07:04:05Z</time></trkpt><trkpt lat="50.16489404158863" lon="16.340725209303496"><ele>442.33333333333337</ele><time>2026-05-03T07:04:06Z</time></trkpt><trkpt lat="50.16486064371121" lon="16.340405275152218"><ele>443.6666666666667</ele><time>2026-05-03T07:04:07Z</time></trkpt><trkpt lat="50.164782963709776" lon="16.340061104574254"><ele>445.0</ele><time>2026-05-03T07:04:08Z</time></trkpt><trkpt lat="50.16467594103671" lon="16.33971855841367"><ele>442.5</ele><time>2026-05-03T07:04:09Z</time></trkpt><trkpt lat="50.16454443846511" lon="16.339386043081294"><ele>440.0</ele><time>2026-05-03T07:04:10Z</time></trkpt><trkpt lat="50.16445669800302" lon="16.33910312638544"><ele>439.66666666666663</ele><time>2026-05-03T07:04:11Z</time></trkpt><trkpt lat="50.16437100438215" lon="16.338870805932107"><ele>439.33333333333337</ele><time>2026-05-03T07:04:12Z</time></trkpt><trkpt lat="50.16430814642625" lon="16.338679207456117"><ele>439.0</ele><time>2026-05-03T07:04:13Z</time></trkpt><trkpt lat="50.16426408597462" lon="16.338446497386798"><ele>439.0</ele><time>2026-05-03T07:04:14Z</time></trkpt><trkpt lat="50.164262339404004" lon="16.338200856081308"><ele>439.0</ele><time>2026-05-03T07:04:15Z</time></trkpt><trkpt lat="50.164323635326035" lon="16.337968127335166"><ele>439.0</ele><time>2026-05-03T07:04:16Z</time></trkpt><trkpt lat="50.16443492034057" lon="16.33773773086005"><ele>441.5</ele><time>2026-05-03T07:04:17Z</time></trkpt><trkpt lat="50.164576916808926" lon="16.3374674450532"><ele>444.0</ele><time>2026-05-03T07:04:18Z</time></trkpt><trkpt lat="50.1647519617402" lon="16.337158894174177"><ele>444.0</ele><time>2026-05-03T07:04:19Z</time></trkpt><trkpt lat="50.16495501954597" lon="16.336896656676696"><ele>444.0</ele><time>2026-05-03T07:04:20Z</time></trkpt><trkpt lat="50.16513048843717" lon="16.33670011764355"><ele>444.0</ele><time>2026-05-03T07:04:21Z</time></trkpt><trkpt lat="50.16526354345933" lon="16.336530402119557"><ele>444.0</ele><time>2026-05-03T07:04:22Z</time></trkpt><trkpt lat="50.165356567500474" lon="16.33634892132733"><ele>444.0</ele><time>2026-05-03T07:04:23Z</time></trkpt><trkpt lat="50.16541089920326" lon="16.336119872176553"><ele>445.33333333333337</ele><time>2026-05-03T07:04:24Z</time></trkpt><trkpt lat="50.16542427604371" lon="16.33585830644228"><ele>446.6666666666667</ele><time>2026-05-03T07:04:25Z</time></trkpt><trkpt lat="50.165390171483864" lon="16.33557928966917"><ele>448.0</ele><time>2026-05-03T07:04:26Z</time></trkpt><trkpt lat="50.16531491106238" lon="16.335265445373018"><ele>449.0</ele><time>2026-05-03T07:04:27Z</time></trkpt><trkpt lat="50.16524555618289" lon="16.33489654134388"><ele>450.0</ele><time>2026-05-03T07:04:28Z</time></trkpt><trkpt lat="50.16516507446091" lon="16.334512347988664"><ele>450.5</ele><time>2026-05-03T07:04:29Z</time></trkpt><trkpt lat="50.16509189181349" lon="16.334161027508518"><ele>451.0</ele><time>2026-05-03T07:04:30Z</time></trkpt><trkpt lat="50.16502195812343" lon="16.33379831320984"><ele>451.6666666666667</ele><time>2026-05-03T07:04:31Z</time></trkpt><trkpt lat="50.16494873341771" lon="16.333440753654877"><ele>452.33333333333337</ele><time>2026-05-03T07:04:32Z</time></trkpt><trkpt lat="50.16488587708178" lon="16.333136526510277"><ele>453.0</ele><time>2026-05-03T07:04:33Z</time></trkpt><trkpt lat="50.16482335379237" lon="16.332873486554675"><ele>453.0</ele><time>2026-05-03T07:04:34Z</time></trkpt><trkpt lat="50.16474892122149" lon="16.33261125595652"><ele>453.0</ele><time>2026-05-03T07:04:35Z</time></trkpt><trkpt lat="50.1646577551269" lon="16.33234101798942"><ele>453.0</ele><time>2026-05-03T07:04:36Z</time></trkpt><trkpt lat="50.1645507293419" lon="16.33208041189387"><ele>453.0</ele><time>2026-05-03T07:04:37Z</time></trkpt><trkpt lat="50.164439092570014" lon="16.331851329664453"><ele>453.0</ele><time>2026-05-03T07:04:38Z</time></trkpt><trkpt lat="50.164341362784306" lon="16.33163153684011"><ele>453.0</ele><time>2026-05-03T07:04:39Z</time></trkpt><trkpt lat="50.16426135942009" lon="16.331396386581513"><ele>452.33333333333337</ele><time>2026-05-03T07:04:40Z</time></trkpt><trkpt lat="50.16415880629598" lon="16.331155581178944"><ele>451.6666666666667</ele><time>2026-05-03T07:04:41Z</time></trkpt><trkpt lat="50.16404628205293" lon="16.330893497343038"><ele>451.0</ele><time>2026-05-03T07:04:42Z</time></trkpt><trkpt lat="50.16391949246861" lon="16.33064624355309"><ele>450.6666666666667</ele><time>2026-05-03T07:04:43Z</time></trkpt><trkpt lat="50.16383096736602" lon="16.330396396769956"><ele>450.33333333333337</ele><time>2026-05-03T07:04:44Z</time></trkpt><trkpt lat="50.16374497713417" lon="16.33017769682368"><ele>450.0</ele><time>2026-05-03T07:04:45Z</time></trkpt><trkpt lat="50.16368613275948" lon="16.329938889189247"><ele>450.33333333333337</ele><time>2026-05-03T07:04:46Z</time></trkpt><trkpt lat="50.16367948646498" lon="16.329689389275483"><ele>450.6666666666667</ele><time>2026-05-03T07:04:47Z</time></trkpt><trkpt lat="50.163679354399655" lon="16.32938709256023"><ele>451.0</ele><time>2026-05-03T07:04:48Z</time></trkpt><trkpt lat="50.16368269379888" lon="16.329072436765454"><ele>452.6666666666667</ele><time>2026-05-03T07:04:49Z</time></trkpt><trkpt lat="50.16367305137167" lon="16.328797490769897"><ele>454.33333333333337</ele><time>2026-05-03T07:04:50Z</time></trkpt><trkpt lat="50.163673407030366" lon="16.32855211904294"><ele>456.0</ele><time>2026-05-03T07:04:51Z</time></trkpt><trkpt lat="50.16369030429952" lon="16.32832188103593"><ele>456.0</ele><time>2026-05-03T07:04:52Z</time></trkpt><trkpt lat="50.16369277297052" lon="16.328070662724"><ele>456.0</ele><time>2026-05-03T07:04:53Z</time></trkpt><trkpt lat="50.16369502965526" lon="16.327793090528342"><ele>456.0</ele><time>2026-05-03T07:04:54Z</time></trkpt><trkpt lat="50.16369688715312" lon="16.327512962320128"><ele>457.0</ele><time>2026-05-03T07:04:55Z</time></trkpt><trkpt lat="50.163699121827904" lon="16.327258907386923"><ele>458.0</ele><time>2026-05-03T07:04:56Z</time></trkpt><trkpt lat="50.163703126815356" lon="16.32702291984012"><ele>459.0</ele><time>2026-05-03T07:04:57Z</time></trkpt><trkpt lat="50.16369294923822" lon="16.326824516844617"><ele>460.0</ele><time>2026-05-03T07:04:58Z</time></trkpt><trkpt lat="50.16371061110082" lon="16.326601655033183"><ele>460.33333333333337</ele><time>2026-05-03T07:04:59Z</time></trkpt><trkpt lat="50.1637658618214" lon="16.326369809482664"><ele>460.66666666666663</ele><time>2026-05-03T07:05:00Z</time></trkpt><trkpt lat="50.16381565267419" lon="16.326112388235682"><ele>461.0</ele><time>2026-05-03T07:05:01Z</time></trkpt><trkpt lat="50.16387284571736" lon="16.325836632570393"><ele>461.0</ele><time>2026-05-03T07:05:02Z</time></trkpt><trkpt lat="50.16391734645093" lon="16.325619056896883"><ele>461.0</ele><time>2026-05-03T07:05:03Z</time></trkpt><trkpt lat="50.16394570994136" lon="16.325394758860927"><ele>461.0</ele><time>2026-05-03T07:05:04Z</time></trkpt><trkpt lat="50.16398810531204" lon="16.325193221579436"><ele>461.0</ele><time>2026-05-03T07:05:05Z</time></trkpt><trkpt lat="50.16402694391994" lon="16.325000631010834"><ele>461.66666666666663</ele><time>2026-05-03T07:05:06Z</time></trkpt><trkpt lat="50.16407495398006" lon="16.324762980066897"><ele>462.33333333333337</ele><time>2026-05-03T07:05:07Z</time></trkpt><trkpt lat="50.16413474800189" lon="16.324493820269456"><ele>463.0</ele><time>2026-05-03T07:05:08Z</time></trkpt><trkpt lat="50.16419725754825" lon="16.324170625686975"><ele>463.0</ele><time>2026-05-03T07:05:09Z</time></trkpt><trkpt lat="50.164262815399326" lon="16.3239021932828"><ele>463.0</ele><time>2026-05-03T07:05:10Z</time></trkpt><trkpt lat="50.16433258122583" lon="16.32357204286853"><ele>463.0</ele><time>2026-05-03T07:05:11Z</time></trkpt><trkpt lat="50.16439737599308" lon="16.323249062078908"><ele>462.0</ele><time>2026-05-03T07:05:12Z</time></trkpt><trkpt lat="50.164460550203636" lon="16.322959590364455"><ele>461.0</ele><time>2026-05-03T07:05:13Z</time></trkpt><trkpt lat="50.16451102789554" lon="16.32268704240686"><ele>460.0</ele><time>2026-05-03T07:05:14Z</time></trkpt><trkpt lat="50.164555633755946" lon="16.32243412489493"><ele>458.0</ele><time>2026-05-03T07:05:15Z</time></trkpt><trkpt lat="50.16459150877234" lon="16.32218867600544"><ele>456.0</ele><time>2026-05-03T07:05:16Z</time></trkpt><trkpt lat="50.164595538925056" lon="16.321920644478347"><ele>454.0</ele><time>2026-05-03T07:05:17Z</time></trkpt><trkpt lat="50.16456504406581" lon="16.321638722970054"><ele>451.0</ele><time>2026-05-03T07:05:18Z</time></trkpt><trkpt lat="50.16448597149187" lon="16.321343746827033"><ele>448.0</ele><time>2026-05-03T07:05:19Z</time></trkpt><trkpt lat="50.16439768002972" lon="16.321050479257586"><ele>445.0</ele><time>2026-05-03T07:05:20Z</time></trkpt><trkpt lat="50.16433480259873" lon="16.32077769797797"><ele>442.33333333333337</ele><time>2026-05-03T07:05:21Z</time></trkpt><trkpt lat="50.164259837481495" lon="16.32052722014898"><ele>439.66666666666663</ele><time>2026-05-03T07:05:22Z</time></trkpt><trkpt lat="50.16418817997516" lon="16.32031171408513"><ele>437.0</ele><time>2026-05-03T07:05:23Z</time></trkpt><trkpt lat="50.16409211571045" lon="16.320106939861095"><ele>436.0</ele><time>2026-05-03T07:05:24Z</time></trkpt><trkpt lat="50.164002700767355" lon="16.319968006142254"><ele>435.00000000000006</ele><time>2026-05-03T07:05:25Z</time></trkpt><trkpt lat="50.16390537182145" lon="16.31986490426145"><ele>434.00000000000006</ele><time>2026-05-03T07:05:26Z</time></trkpt><trkpt lat="50.163835575755826" lon="16.319782449546395"><ele>433.0</ele><time>2026-05-03T07:05:27Z</time></trkpt><trkpt lat="50.163784979576555" lon="16.31970995986455"><ele>432.0</ele><time>2026-05-03T07:05:28Z</time></trkpt><trkpt lat="50.16374028888238" lon="16.31962630792441"><ele>431.25</ele><time>2026-05-03T07:05:29Z</time></trkpt><trkpt lat="50.16368039735866" lon="16.319554836484706"><ele>430.5</ele><time>2026-05-03T07:05:30Z</time></trkpt><trkpt lat="50.1637593947596" lon="16.319371113190552"><ele>429.75</ele><time>2026-05-03T07:05:31Z</time></trkpt><trkpt lat="50.16378913980802" lon="16.319190741298783"><ele>429.0</ele><time>2026-05-03T07:05:32.001Z</time></trkpt><trkpt lat="50.163831950080464" lon="16.31895628201526"><ele>427.5</ele><time>2026-05-03T07:05:33.001Z</time></trkpt><trkpt lat="50.16387507462675" lon="16.31863827901163"><ele>426.0</ele><time>2026-05-03T07:05:34.001Z</time></trkpt><trkpt lat="50.16394049988225" lon="16.318250289776046"><ele>424.5</ele><time>2026-05-03T07:05:35.001Z</time></trkpt><trkpt lat="50.16403523468054" lon="16.317796015297915"><ele>423.0</ele><time>2026-05-03T07:05:36.001Z</time></trkpt><trkpt lat="50.164124823456994" lon="16.31727661651721"><ele>422.0</ele><time>2026-05-03T07:05:37.001Z</time></trkpt><trkpt lat="50.164219799391525" lon="16.31672446134439"><ele>421.0</ele><time>2026-05-03T07:05:38.001Z</time></trkpt><trkpt lat="50.16431619624336" lon="16.31613605397631"><ele>418.5</ele><time>2026-05-03T07:05:39.001Z</time></trkpt><trkpt lat="50.16442076717607" lon="16.315546065851727"><ele>416.0</ele><time>2026-05-03T07:05:40.001Z</time></trkpt><trkpt lat="50.16449550513697" lon="16.315058106916695"><ele>415.0</ele><time>2026-05-03T07:05:41.001Z</time></trkpt><trkpt lat="50.164572823216815" lon="16.314601877241344"><ele>414.0</ele><time>2026-05-03T07:05:42.001Z</time></trkpt><trkpt lat="50.16465881947842" lon="16.314149329585636"><ele>414.5</ele><time>2026-05-03T07:05:43.001Z</time></trkpt><trkpt lat="50.16470983765233" lon="16.31370343317996"><ele>415.0</ele><time>2026-05-03T07:05:44.001Z</time></trkpt><trkpt lat="50.164746339413064" lon="16.31320796566379"><ele>416.0</ele><time>2026-05-03T07:05:45.001Z</time></trkpt><trkpt lat="50.16477140157237" lon="16.31269017206322"><ele>417.0</ele><time>2026-05-03T07:05:46.001Z</time></trkpt><trkpt lat="50.16476347202601" lon="16.31213754563049"><ele>417.5</ele><time>2026-05-03T07:05:47.001Z</time></trkpt><trkpt lat="50.16477100706621" lon="16.311554385886573"><ele>418.0</ele><time>2026-05-03T07:05:48Z</time></trkpt><trkpt lat="50.16478227301342" lon="16.310934080902314"><ele>410.5</ele><time>2026-05-03T07:05:49Z</time></trkpt><trkpt lat="50.164795959698004" lon="16.310374468413055"><ele>403.0</ele><time>2026-05-03T07:05:50Z</time></trkpt><trkpt lat="50.164804758231945" lon="16.30988408058606"><ele>401.5</ele><time>2026-05-03T07:05:51Z</time></trkpt><trkpt lat="50.16481830723219" lon="16.309418953221037"><ele>400.0</ele><time>2026-05-03T07:05:52Z</time></trkpt><trkpt lat="50.16482668381984" lon="16.30896754918452"><ele>399.5</ele><time>2026-05-03T07:05:53Z</time></trkpt><trkpt lat="50.16483361145025" lon="16.308497871090353"><ele>399.0</ele><time>2026-05-03T07:05:54Z</time></trkpt><trkpt lat="50.164844121138785" lon="16.308037841947385"><ele>397.5</ele><time>2026-05-03T07:05:55Z</time></trkpt><trkpt lat="50.16485953641137" lon="16.307615677102554"><ele>396.0</ele><time>2026-05-03T07:05:56Z</time></trkpt><trkpt lat="50.164875345955544" lon="16.307199727673023"><ele>396.0</ele><time>2026-05-03T07:05:57Z</time></trkpt><trkpt lat="50.16488914392337" lon="16.30678036366697"><ele>396.0</ele><time>2026-05-03T07:05:58Z</time></trkpt><trkpt lat="50.16490005890378" lon="16.30638816150995"><ele>394.0</ele><time>2026-05-03T07:05:59Z</time></trkpt><trkpt lat="50.16491063559649" lon="16.30600226564455"><ele>392.0</ele><time>2026-05-03T07:06:00Z</time></trkpt><trkpt lat="50.164922237204514" lon="16.30559676210393"><ele>390.5</ele><time>2026-05-03T07:06:01Z</time></trkpt><trkpt lat="50.164936950755255" lon="16.30519117037132"><ele>389.0</ele><time>2026-05-03T07:06:02Z</time></trkpt><trkpt lat="50.16494992237151" lon="16.304771750386013"><ele>387.5</ele><time>2026-05-03T07:06:03Z</time></trkpt><trkpt lat="50.16496000692637" lon="16.30434628598789"><ele>386.0</ele><time>2026-05-03T07:06:04Z</time></trkpt><trkpt lat="50.16497500948547" lon="16.303879967840007"><ele>385.0</ele><time>2026-05-03T07:06:05Z</time></trkpt><trkpt lat="50.16499557865108" lon="16.303373466966008"><ele>384.0</ele><time>2026-05-03T07:06:06Z</time></trkpt><trkpt lat="50.16500941174516" lon="16.30285123305655"><ele>383.5</ele><time>2026-05-03T07:06:07Z</time></trkpt><trkpt lat="50.16502173680858" lon="16.302389844883788"><ele>383.0</ele><time>2026-05-03T07:06:08Z</time></trkpt><trkpt lat="50.16503175642876" lon="16.3019729467302"><ele>382.5</ele><time>2026-05-03T07:06:09Z</time></trkpt><trkpt lat="50.16504924060315" lon="16.301592810995576"><ele>382.0</ele><time>2026-05-03T07:06:10Z</time></trkpt><trkpt lat="50.16506286164861" lon="16.301206393733498"><ele>381.0</ele><time>2026-05-03T07:06:11Z</time></trkpt><trkpt lat="50.16507367705564" lon="16.300810443780783"><ele>380.0</ele><time>2026-05-03T07:06:12Z</time></trkpt><trkpt lat="50.16508290507516" lon="16.300440080984043"><ele>379.33333333333337</ele><time>2026-05-03T07:06:13Z</time></trkpt><trkpt lat="50.1650874006817" lon="16.300093454756688"><ele>378.6666666666667</ele><time>2026-05-03T07:06:14Z</time></trkpt><trkpt lat="50.16510583087361" lon="16.299763391255354"><ele>378.0</ele><time>2026-05-03T07:06:15Z</time></trkpt><trkpt lat="50.16508862137733" lon="16.299431697924728"><ele>376.5</ele><time>2026-05-03T07:06:16Z</time></trkpt><trkpt lat="50.16508143503157" lon="16.299045943951256"><ele>375.0</ele><time>2026-05-03T07:06:17Z</time></trkpt><trkpt lat="50.16506139645057" lon="16.29861552193603"><ele>373.5</ele><time>2026-05-03T07:06:18Z</time></trkpt><trkpt lat="50.16503302602439" lon="16.298145694501564"><ele>372.0</ele><time>2026-05-03T07:06:19Z</time></trkpt><trkpt lat="50.16499265443729" lon="16.29765146723875"><ele>369.5</ele><time>2026-05-03T07:06:20Z</time></trkpt><trkpt lat="50.16494032645291" lon="16.29714117265688"><ele>367.0</ele><time>2026-05-03T07:06:21Z</time></trkpt><trkpt lat="50.16486958769888" lon="16.29663022570006"><ele>364.5</ele><time>2026-05-03T07:06:22Z</time></trkpt><trkpt lat="50.164785824104975" lon="16.296169492652805"><ele>362.0</ele><time>2026-05-03T07:06:23Z</time></trkpt><trkpt lat="50.16469802854038" lon="16.295718415838692"><ele>361.5</ele><time>2026-05-03T07:06:24Z</time></trkpt><trkpt lat="50.16459116793643" lon="16.29524858380089"><ele>361.0</ele><time>2026-05-03T07:06:25Z</time></trkpt><trkpt lat="50.16448637786102" lon="16.294768242210964"><ele>360.0</ele><time>2026-05-03T07:06:26Z</time></trkpt><trkpt lat="50.16435313885032" lon="16.29433897742168"><ele>359.0</ele><time>2026-05-03T07:06:27Z</time></trkpt><trkpt lat="50.1642498781496" lon="16.29401211965998"><ele>358.6666666666667</ele><time>2026-05-03T07:06:28Z</time></trkpt><trkpt lat="50.16416480876556" lon="16.293766987510832"><ele>358.3333333333333</ele><time>2026-05-03T07:06:29Z</time></trkpt><trkpt lat="50.16407805324575" lon="16.293547046589733"><ele>358.0</ele><time>2026-05-03T07:06:30Z</time></trkpt><trkpt lat="50.163987364117204" lon="16.29331259182365"><ele>357.0</ele><time>2026-05-03T07:06:31Z</time></trkpt><trkpt lat="50.16389627909922" lon="16.293074115946826"><ele>356.0</ele><time>2026-05-03T07:06:32Z</time></trkpt><trkpt lat="50.163798707059144" lon="16.292850808300425"><ele>355.0</ele><time>2026-05-03T07:06:33Z</time></trkpt><trkpt lat="50.163694622086226" lon="16.29262637424644"><ele>355.0</ele><time>2026-05-03T07:06:34Z</time></trkpt><trkpt lat="50.16358224418599" lon="16.29239027112324"><ele>355.0</ele><time>2026-05-03T07:06:35Z</time></trkpt><trkpt lat="50.16346258528556" lon="16.29214704044305"><ele>355.0</ele><time>2026-05-03T07:06:36Z</time></trkpt><trkpt lat="50.16333164097175" lon="16.291905291876166"><ele>355.0</ele><time>2026-05-03T07:06:37Z</time></trkpt><trkpt lat="50.163203927709894" lon="16.291682744523367"><ele>355.0</ele><time>2026-05-03T07:06:38Z</time></trkpt><trkpt lat="50.16308364049585" lon="16.29148397011801"><ele>355.0</ele><time>2026-05-03T07:06:39Z</time></trkpt><trkpt lat="50.16297048656837" lon="16.291292446797243"><ele>353.66666666666663</ele><time>2026-05-03T07:06:40Z</time></trkpt><trkpt lat="50.16285461478375" lon="16.29109468908088"><ele>352.3333333333333</ele><time>2026-05-03T07:06:41Z</time></trkpt><trkpt lat="50.16272377550222" lon="16.290898358115502"><ele>351.0</ele><time>2026-05-03T07:06:42Z</time></trkpt><trkpt lat="50.16257957801881" lon="16.29070430958759"><ele>351.0</ele><time>2026-05-03T07:06:43Z</time></trkpt><trkpt lat="50.16243110711841" lon="16.290506104977062"><ele>351.0</ele><time>2026-05-03T07:06:44Z</time></trkpt><trkpt lat="50.162281839225265" lon="16.290303840588287"><ele>351.0</ele><time>2026-05-03T07:06:45Z</time></trkpt><trkpt lat="50.162131179817045" lon="16.290106426038058"><ele>350.6666666666667</ele><time>2026-05-03T07:06:46Z</time></trkpt><trkpt lat="50.161977774094225" lon="16.289900359917162"><ele>350.33333333333337</ele><time>2026-05-03T07:06:47Z</time></trkpt><trkpt lat="50.161819982124825" lon="16.289698654527225"><ele>350.0</ele><time>2026-05-03T07:06:48Z</time></trkpt><trkpt lat="50.16166427964002" lon="16.289488627373053"><ele>350.0</ele><time>2026-05-03T07:06:49Z</time></trkpt><trkpt lat="50.16150676180616" lon="16.289275894931247"><ele>350.0</ele><time>2026-05-03T07:06:50Z</time></trkpt><trkpt lat="50.16134657290295" lon="16.289058963475068"><ele>350.0</ele><time>2026-05-03T07:06:51Z</time></trkpt><trkpt lat="50.161181471593665" lon="16.28884695255309"><ele>350.0</ele><time>2026-05-03T07:06:52Z</time></trkpt><trkpt lat="50.161018565427504" lon="16.28862981848381"><ele>350.0</ele><time>2026-05-03T07:06:53Z</time></trkpt><trkpt lat="50.16085325498289" lon="16.288409213628753"><ele>350.0</ele><time>2026-05-03T07:06:54Z</time></trkpt><trkpt lat="50.160687018157034" lon="16.28818153661013"><ele>348.0</ele><time>2026-05-03T07:06:55Z</time></trkpt><trkpt lat="50.16052311196167" lon="16.287962032898513"><ele>346.0</ele><time>2026-05-03T07:06:56Z</time></trkpt><trkpt lat="50.160364750234024" lon="16.287751499229785"><ele>344.0</ele><time>2026-05-03T07:06:57Z</time></trkpt><trkpt lat="50.160193031564276" lon="16.28752665266491"><ele>343.0</ele><time>2026-05-03T07:06:58Z</time></trkpt><trkpt lat="50.15998276231985" lon="16.287248289887934"><ele>342.0</ele><time>2026-05-03T07:06:59Z</time></trkpt><trkpt lat="50.15974274257505" lon="16.286936743266466"><ele>339.0</ele><time>2026-05-03T07:07:00Z</time></trkpt><trkpt lat="50.159515672385446" lon="16.286630307114244"><ele>336.0</ele><time>2026-05-03T07:07:01Z</time></trkpt><trkpt lat="50.15933158517154" lon="16.286352007797298"><ele>335.5</ele><time>2026-05-03T07:07:02Z</time></trkpt><trkpt lat="50.15915171363886" lon="16.286114602986043"><ele>335.0</ele><time>2026-05-03T07:07:03Z</time></trkpt><trkpt lat="50.1589796574532" lon="16.28588751535878"><ele>333.6666666666667</ele><time>2026-05-03T07:07:04Z</time></trkpt><trkpt lat="50.15881265727925" lon="16.28569280277167"><ele>332.3333333333333</ele><time>2026-05-03T07:07:05Z</time></trkpt><trkpt lat="50.1586638191445" lon="16.285489840677563"><ele>331.0</ele><time>2026-05-03T07:07:06Z</time></trkpt><trkpt lat="50.15851890751592" lon="16.2852984246566"><ele>330.3333333333333</ele><time>2026-05-03T07:07:07Z</time></trkpt><trkpt lat="50.15837379556635" lon="16.28510805784645"><ele>329.6666666666667</ele><time>2026-05-03T07:07:08Z</time></trkpt><trkpt lat="50.15822180390238" lon="16.284909618535803"><ele>329.0</ele><time>2026-05-03T07:07:09Z</time></trkpt><trkpt lat="50.15806245925603" lon="16.28469684289949"><ele>327.0</ele><time>2026-05-03T07:07:10Z</time></trkpt><trkpt lat="50.157897273713246" lon="16.28447438182903"><ele>325.0</ele><time>2026-05-03T07:07:11Z</time></trkpt><trkpt lat="50.15772974639948" lon="16.284244329678614"><ele>323.0</ele><time>2026-05-03T07:07:12Z</time></trkpt><trkpt lat="50.15755606221895" lon="16.284009461578158"><ele>322.0</ele><time>2026-05-03T07:07:13Z</time></trkpt><trkpt lat="50.15737874792132" lon="16.283775127993668"><ele>321.0</ele><time>2026-05-03T07:07:14Z</time></trkpt><trkpt lat="50.15719898307695" lon="16.283538313202225"><ele>319.0</ele><time>2026-05-03T07:07:15Z</time></trkpt><trkpt lat="50.157015628373124" lon="16.28329540837744"><ele>317.0</ele><time>2026-05-03T07:07:16Z</time></trkpt><trkpt lat="50.15682995750081" lon="16.283053626168368"><ele>316.0</ele><time>2026-05-03T07:07:17Z</time></trkpt><trkpt lat="50.15664758579243" lon="16.282809020391724"><ele>315.0</ele><time>2026-05-03T07:07:18Z</time></trkpt><trkpt lat="50.156477502736976" lon="16.282580035919423"><ele>314.3333333333333</ele><time>2026-05-03T07:07:19Z</time></trkpt><trkpt lat="50.15631584797051" lon="16.28236965948991"><ele>313.66666666666663</ele><time>2026-05-03T07:07:20Z</time></trkpt><trkpt lat="50.15615412375443" lon="16.28215401465909"><ele>313.0</ele><time>2026-05-03T07:07:21Z</time></trkpt><trkpt lat="50.15600591504861" lon="16.281950320161734"><ele>312.66666666666663</ele><time>2026-05-03T07:07:22Z</time></trkpt><trkpt lat="50.155862290200986" lon="16.281755280800954"><ele>312.3333333333333</ele><time>2026-05-03T07:07:23Z</time></trkpt><trkpt lat="50.15572595693273" lon="16.281578614103914"><ele>312.0</ele><time>2026-05-03T07:07:24Z</time></trkpt><trkpt lat="50.15559827533918" lon="16.281414820803224"><ele>310.6666666666667</ele><time>2026-05-03T07:07:25Z</time></trkpt><trkpt lat="50.15547499001947" lon="16.281253062462337"><ele>309.33333333333337</ele><time>2026-05-03T07:07:26Z</time></trkpt><trkpt lat="50.155361305400916" lon="16.281094630973328"><ele>308.0</ele><time>2026-05-03T07:07:27Z</time></trkpt><trkpt lat="50.15525631365199" lon="16.28094778677504"><ele>308.0</ele><time>2026-05-03T07:07:28Z</time></trkpt><trkpt lat="50.155152045220774" lon="16.28081172883877"><ele>308.0</ele><time>2026-05-03T07:07:29Z</time></trkpt><trkpt lat="50.15504196976696" lon="16.280672194377807"><ele>308.0</ele><time>2026-05-03T07:07:30Z</time></trkpt><trkpt lat="50.15493284532998" lon="16.280523837760995"><ele>308.0</ele><time>2026-05-03T07:07:31Z</time></trkpt><trkpt lat="50.154830426788685" lon="16.2803762776812"><ele>307.8</ele><time>2026-05-03T07:07:32Z</time></trkpt><trkpt lat="50.15473557517075" lon="16.28024165946933"><ele>307.6</ele><time>2026-05-03T07:07:33Z</time></trkpt><trkpt lat="50.15464630317887" lon="16.280114585160444"><ele>307.4</ele><time>2026-05-03T07:07:34Z</time></trkpt><trkpt lat="50.15456599263459" lon="16.28000080820282"><ele>307.2</ele><time>2026-05-03T07:07:35Z</time></trkpt><trkpt lat="50.154498890142094" lon="16.279910372158454"><ele>307.0</ele><time>2026-05-03T07:07:36Z</time></trkpt><trkpt lat="50.15444733480061" lon="16.27982849442287"><ele>307.0</ele><time>2026-05-03T07:07:37Z</time></trkpt><trkpt lat="50.15439831826901" lon="16.279677066894955"><ele>307.0</ele><time>2026-05-03T07:07:39Z</time></trkpt><trkpt lat="50.15433531229501" lon="16.279530977130726"><ele>307.0</ele><time>2026-05-03T07:07:41Z</time></trkpt><trkpt lat="50.15421737440613" lon="16.27956209530098"><ele>307.0</ele><time>2026-05-03T07:07:43Z</time></trkpt><trkpt lat="50.154164968316344" lon="16.279666258470723"><ele>307.0</ele><time>2026-05-03T07:07:44Z</time></trkpt><trkpt lat="50.154096305030876" lon="16.279803218812404"><ele>306.66666666666663</ele><time>2026-05-03T07:07:45Z</time></trkpt><trkpt lat="50.153995531483304" lon="16.279935498774204"><ele>306.3333333333333</ele><time>2026-05-03T07:07:46Z</time></trkpt><trkpt lat="50.153846177671035" lon="16.28007414164578"><ele>306.0</ele><time>2026-05-03T07:07:47Z</time></trkpt><trkpt lat="50.15365706894541" lon="16.28026910912181"><ele>306.0</ele><time>2026-05-03T07:07:48Z</time></trkpt><trkpt lat="50.153428266610135" lon="16.280480120443965"><ele>306.0</ele><time>2026-05-03T07:07:49Z</time></trkpt><trkpt lat="50.153170913446566" lon="16.280725562914654"><ele>305.5</ele><time>2026-05-03T07:07:50Z</time></trkpt><trkpt lat="50.152885579708894" lon="16.280999808347094"><ele>305.0</ele><time>2026-05-03T07:07:51Z</time></trkpt><trkpt lat="50.15256110310256" lon="16.28131500658589"><ele>308.5</ele><time>2026-05-03T07:07:52Z</time></trkpt><trkpt lat="50.15225707047604" lon="16.281641916442215"><ele>312.0</ele><time>2026-05-03T07:07:53Z</time></trkpt><trkpt lat="50.15196953002309" lon="16.281896612082754"><ele>312.0</ele><time>2026-05-03T07:07:54Z</time></trkpt><trkpt lat="50.15170020633124" lon="16.28218196998016"><ele>312.0</ele><time>2026-05-03T07:07:55Z</time></trkpt><trkpt lat="50.151375450912816" lon="16.282493259325268"><ele>314.0</ele><time>2026-05-03T07:07:56Z</time></trkpt><trkpt lat="50.151038208306545" lon="16.282805065712875"><ele>316.0</ele><time>2026-05-03T07:07:57Z</time></trkpt><trkpt lat="50.150677738031646" lon="16.283130272004275"><ele>318.5</ele><time>2026-05-03T07:07:58Z</time></trkpt><trkpt lat="50.150318412456855" lon="16.283468486772854"><ele>321.0</ele><time>2026-05-03T07:07:59Z</time></trkpt><trkpt lat="50.14996124863573" lon="16.283820217820356"><ele>324.0</ele><time>2026-05-03T07:08:00Z</time></trkpt><trkpt lat="50.149602556704835" lon="16.284174321604066"><ele>327.0</ele><time>2026-05-03T07:08:01Z</time></trkpt><trkpt lat="50.1492731080861" lon="16.284496137479085"><ele>334.5</ele><time>2026-05-03T07:08:02Z</time></trkpt><trkpt lat="50.14899128441785" lon="16.284768707817857"><ele>342.0</ele><time>2026-05-03T07:08:03Z</time></trkpt><trkpt lat="50.14873753751262" lon="16.28501260467621"><ele>342.0</ele><time>2026-05-03T07:08:04Z</time></trkpt><trkpt lat="50.14850145917263" lon="16.285246495632055"><ele>342.0</ele><time>2026-05-03T07:08:05Z</time></trkpt><trkpt lat="50.14825756413695" lon="16.28546618809303"><ele>349.5</ele><time>2026-05-03T07:08:06Z</time></trkpt><trkpt lat="50.148001645548696" lon="16.285655588229876"><ele>357.0</ele><time>2026-05-03T07:08:07Z</time></trkpt><trkpt lat="50.147748229401834" lon="16.285801905172637"><ele>357.0</ele><time>2026-05-03T07:08:08Z</time></trkpt><trkpt lat="50.14749133040343" lon="16.28590495282508"><ele>357.0</ele><time>2026-05-03T07:08:09Z</time></trkpt><trkpt lat="50.147222825252854" lon="16.28596375291344"><ele>360.0</ele><time>2026-05-03T07:08:10Z</time></trkpt><trkpt lat="50.146945864992205" lon="16.285974245600737"><ele>363.0</ele><time>2026-05-03T07:08:11Z</time></trkpt><trkpt lat="50.146668182965264" lon="16.28593601915622"><ele>363.0</ele><time>2026-05-03T07:08:12Z</time></trkpt><trkpt lat="50.146388113455195" lon="16.285834751973624"><ele>363.0</ele><time>2026-05-03T07:08:13Z</time></trkpt><trkpt lat="50.146127735167106" lon="16.285721132434283"><ele>360.5</ele><time>2026-05-03T07:08:14Z</time></trkpt><trkpt lat="50.145859985795184" lon="16.28556728493032"><ele>358.0</ele><time>2026-05-03T07:08:15Z</time></trkpt><trkpt lat="50.145569948789955" lon="16.285398482404098"><ele>358.0</ele><time>2026-05-03T07:08:16Z</time></trkpt><trkpt lat="50.14526889602307" lon="16.285227737116468"><ele>358.0</ele><time>2026-05-03T07:08:17Z</time></trkpt><trkpt lat="50.14495604868561" lon="16.285051453815626"><ele>359.0</ele><time>2026-05-03T07:08:18Z</time></trkpt><trkpt lat="50.1446418692896" lon="16.28487928486872"><ele>360.0</ele><time>2026-05-03T07:08:19Z</time></trkpt><trkpt lat="50.14436076083175" lon="16.28472538400256"><ele>360.0</ele><time>2026-05-03T07:08:20Z</time></trkpt><trkpt lat="50.14409207684653" lon="16.284584273259906"><ele>360.0</ele><time>2026-05-03T07:08:21Z</time></trkpt><trkpt lat="50.143815909741264" lon="16.28448454593077"><ele>360.0</ele><time>2026-05-03T07:08:22Z</time></trkpt><trkpt lat="50.14353573207434" lon="16.284429353487397"><ele>360.0</ele><time>2026-05-03T07:08:23Z</time></trkpt><trkpt lat="50.14323388712518" lon="16.284413279739507"><ele>358.5</ele><time>2026-05-03T07:08:24Z</time></trkpt><trkpt lat="50.1429294470333" lon="16.284426203823628"><ele>357.0</ele><time>2026-05-03T07:08:25Z</time></trkpt><trkpt lat="50.14265871613643" lon="16.284446685485467"><ele>357.0</ele><time>2026-05-03T07:08:26Z</time></trkpt><trkpt lat="50.142405759730515" lon="16.284462217338646"><ele>357.0</ele><time>2026-05-03T07:08:27Z</time></trkpt><trkpt lat="50.14213966632303" lon="16.28448393289807"><ele>356.0</ele><time>2026-05-03T07:08:28Z</time></trkpt><trkpt lat="50.14184837808768" lon="16.28451142976418"><ele>355.0</ele><time>2026-05-03T07:08:29Z</time></trkpt><trkpt lat="50.14155509402195" lon="16.284503751372682"><ele>353.0</ele><time>2026-05-03T07:08:30Z</time></trkpt><trkpt lat="50.14128518082024" lon="16.284539292919035"><ele>351.0</ele><time>2026-05-03T07:08:31Z</time></trkpt><trkpt lat="50.14103018532822" lon="16.28454752489603"><ele>351.0</ele><time>2026-05-03T07:08:32Z</time></trkpt><trkpt lat="50.140791195215954" lon="16.28456026497342"><ele>351.0</ele><time>2026-05-03T07:08:33Z</time></trkpt><trkpt lat="50.14056970701814" lon="16.284578684100982"><ele>350.0</ele><time>2026-05-03T07:08:34Z</time></trkpt><trkpt lat="50.140359413362155" lon="16.284589800432833"><ele>349.0</ele><time>2026-05-03T07:08:35Z</time></trkpt><trkpt lat="50.14016256927539" lon="16.284596076039175"><ele>348.0</ele><time>2026-05-03T07:08:36Z</time></trkpt><trkpt lat="50.139970394248174" lon="16.284608401300844"><ele>347.6666666666667</ele><time>2026-05-03T07:08:37Z</time></trkpt><trkpt lat="50.13977898645495" lon="16.284631603038253"><ele>347.33333333333337</ele><time>2026-05-03T07:08:38Z</time></trkpt><trkpt lat="50.13958206089514" lon="16.284678071316605"><ele>347.0</ele><time>2026-05-03T07:08:39Z</time></trkpt><trkpt lat="50.139385400367416" lon="16.28474567309249"><ele>346.33333333333337</ele><time>2026-05-03T07:08:40Z</time></trkpt><trkpt lat="50.13920322979705" lon="16.2848205418303"><ele>345.6666666666667</ele><time>2026-05-03T07:08:41Z</time></trkpt><trkpt lat="50.139038539206155" lon="16.284905725683103"><ele>345.0</ele><time>2026-05-03T07:08:42Z</time></trkpt><trkpt lat="50.13889181079293" lon="16.285006182137884"><ele>344.0</ele><time>2026-05-03T07:08:43Z</time></trkpt><trkpt lat="50.13874336909757" lon="16.285112069986734"><ele>343.0</ele><time>2026-05-03T07:08:44Z</time></trkpt><trkpt lat="50.138593490908804" lon="16.28521940744928"><ele>342.0</ele><time>2026-05-03T07:08:45Z</time></trkpt><trkpt lat="50.13844797210647" lon="16.285331366122875"><ele>342.0</ele><time>2026-05-03T07:08:46Z</time></trkpt><trkpt lat="50.13829926848696" lon="16.28544805634568"><ele>342.0</ele><time>2026-05-03T07:08:47Z</time></trkpt><trkpt lat="50.13814361840105" lon="16.285562739223057"><ele>342.0</ele><time>2026-05-03T07:08:48Z</time></trkpt><trkpt lat="50.137984792683156" lon="16.28568024667806"><ele>343.6666666666667</ele><time>2026-05-03T07:08:49Z</time></trkpt><trkpt lat="50.1378390618539" lon="16.28579256710867"><ele>345.33333333333337</ele><time>2026-05-03T07:08:50Z</time></trkpt><trkpt lat="50.13769627239748" lon="16.285903666540044"><ele>347.0</ele><time>2026-05-03T07:08:51Z</time></trkpt><trkpt lat="50.13754848746862" lon="16.286009564957755"><ele>347.0</ele><time>2026-05-03T07:08:52Z</time></trkpt><trkpt lat="50.13739471203632" lon="16.286098654658574"><ele>347.0</ele><time>2026-05-03T07:08:53Z</time></trkpt><trkpt lat="50.137247876492395" lon="16.28617385500436"><ele>347.0</ele><time>2026-05-03T07:08:54Z</time></trkpt><trkpt lat="50.13709968765121" lon="16.28623323961215"><ele>347.0</ele><time>2026-05-03T07:08:55Z</time></trkpt><trkpt lat="50.136943463814504" lon="16.28627459005014"><ele>347.0</ele><time>2026-05-03T07:08:56Z</time></trkpt><trkpt lat="50.13678325109979" lon="16.28629862266785"><ele>347.0</ele><time>2026-05-03T07:08:57Z</time></trkpt><trkpt lat="50.13661929637332" lon="16.286311846954046"><ele>347.0</ele><time>2026-05-03T07:08:58Z</time></trkpt><trkpt lat="50.136451410643375" lon="16.286318781160347"><ele>347.0</ele><time>2026-05-03T07:08:59Z</time></trkpt><trkpt lat="50.13627946485653" lon="16.28633467279476"><ele>347.0</ele><time>2026-05-03T07:09:00Z</time></trkpt><trkpt lat="50.13608490179936" lon="16.286356149554607"><ele>347.0</ele><time>2026-05-03T07:09:01Z</time></trkpt><trkpt lat="50.13585716995078" lon="16.28637964402008"><ele>347.0</ele><time>2026-05-03T07:09:02Z</time></trkpt><trkpt lat="50.13559812736957" lon="16.286392749021427"><ele>347.0</ele><time>2026-05-03T07:09:03Z</time></trkpt><trkpt lat="50.13530935367056" lon="16.28638600388267"><ele>347.0</ele><time>2026-05-03T07:09:04Z</time></trkpt><trkpt lat="50.13499297817609" lon="16.28638903880945"><ele>346.5</ele><time>2026-05-03T07:09:05Z</time></trkpt><trkpt lat="50.13468432878579" lon="16.286405121252862"><ele>346.0</ele><time>2026-05-03T07:09:06Z</time></trkpt><trkpt lat="50.13441735441144" lon="16.286420596892643"><ele>347.0</ele><time>2026-05-03T07:09:07Z</time></trkpt><trkpt lat="50.13415142031263" lon="16.28642813432674"><ele>348.0</ele><time>2026-05-03T07:09:08Z</time></trkpt><trkpt lat="50.13388387911759" lon="16.286433815698352"><ele>349.0</ele><time>2026-05-03T07:09:09Z</time></trkpt><trkpt lat="50.133640090602896" lon="16.286439253805334"><ele>350.0</ele><time>2026-05-03T07:09:10Z</time></trkpt><trkpt lat="50.133421577128935" lon="16.286438694934745"><ele>349.33333333333337</ele><time>2026-05-03T07:09:11Z</time></trkpt><trkpt lat="50.13321212734792" lon="16.2864159587408"><ele>348.6666666666667</ele><time>2026-05-03T07:09:12Z</time></trkpt><trkpt lat="50.132998823076726" lon="16.28635183338199"><ele>348.0</ele><time>2026-05-03T07:09:13Z</time></trkpt><trkpt lat="50.13277052250814" lon="16.28624644169629"><ele>348.0</ele><time>2026-05-03T07:09:14Z</time></trkpt><trkpt lat="50.13251594537171" lon="16.286107909737467"><ele>348.0</ele><time>2026-05-03T07:09:15Z</time></trkpt><trkpt lat="50.13223586067761" lon="16.285943455424672"><ele>348.0</ele><time>2026-05-03T07:09:16Z</time></trkpt><trkpt lat="50.131932602951814" lon="16.285767981644586"><ele>348.0</ele><time>2026-05-03T07:09:17Z</time></trkpt><trkpt lat="50.131604469102506" lon="16.285588964062082"><ele>348.5</ele><time>2026-05-03T07:09:18Z</time></trkpt><trkpt lat="50.13124993103036" lon="16.28540716458892"><ele>349.0</ele><time>2026-05-03T07:09:19Z</time></trkpt><trkpt lat="50.13087478582126" lon="16.28522228856425"><ele>349.5</ele><time>2026-05-03T07:09:20Z</time></trkpt><trkpt lat="50.1304828517761" lon="16.285040054481215"><ele>350.0</ele><time>2026-05-03T07:09:21Z</time></trkpt><trkpt lat="50.13008481299402" lon="16.284864151555027"><ele>350.5</ele><time>2026-05-03T07:09:22Z</time></trkpt><trkpt lat="50.12972411442548" lon="16.28471689544107"><ele>351.0</ele><time>2026-05-03T07:09:23Z</time></trkpt><trkpt lat="50.1294002068253" lon="16.284593877368316"><ele>351.0</ele><time>2026-05-03T07:09:24Z</time></trkpt><trkpt lat="50.12906393846446" lon="16.284462879769283"><ele>351.0</ele><time>2026-05-03T07:09:25Z</time></trkpt><trkpt lat="50.128730870394016" lon="16.28433714047315"><ele>350.5</ele><time>2026-05-03T07:09:26Z</time></trkpt><trkpt lat="50.12842982055155" lon="16.284237671834912"><ele>350.0</ele><time>2026-05-03T07:09:27Z</time></trkpt><trkpt lat="50.12813269423243" lon="16.284147757801442"><ele>348.5</ele><time>2026-05-03T07:09:28Z</time></trkpt><trkpt lat="50.1278295386945" lon="16.28406032350523"><ele>347.0</ele><time>2026-05-03T07:09:29Z</time></trkpt><trkpt lat="50.12752433990435" lon="16.283980795917408"><ele>345.5</ele><time>2026-05-03T07:09:30Z</time></trkpt><trkpt lat="50.12721737245154" lon="16.28390741484994"><ele>344.0</ele><time>2026-05-03T07:09:31Z</time></trkpt><trkpt lat="50.12690586453811" lon="16.28383814041402"><ele>344.0</ele><time>2026-05-03T07:09:32Z</time></trkpt><trkpt lat="50.12658851355582" lon="16.283770469238252"><ele>344.0</ele><time>2026-05-03T07:09:33Z</time></trkpt><trkpt lat="50.12626644104259" lon="16.28371233282402"><ele>342.5</ele><time>2026-05-03T07:09:34Z</time></trkpt><trkpt lat="50.12594541371415" lon="16.283658005832507"><ele>341.0</ele><time>2026-05-03T07:09:35Z</time></trkpt><trkpt lat="50.12561987447933" lon="16.28361248858457"><ele>339.0</ele><time>2026-05-03T07:09:36Z</time></trkpt><trkpt lat="50.12531418972669" lon="16.28357483320696"><ele>337.0</ele><time>2026-05-03T07:09:37Z</time></trkpt><trkpt lat="50.12502406122914" lon="16.283540331863232"><ele>335.5</ele><time>2026-05-03T07:09:38Z</time></trkpt><trkpt lat="50.12474178503806" lon="16.28351213138482"><ele>334.0</ele><time>2026-05-03T07:09:39Z</time></trkpt><trkpt lat="50.12445845402696" lon="16.283490568317948"><ele>334.0</ele><time>2026-05-03T07:09:40Z</time></trkpt><trkpt lat="50.124174041833406" lon="16.283482213060115"><ele>334.0</ele><time>2026-05-03T07:09:41Z</time></trkpt><trkpt lat="50.123895464755606" lon="16.283471211178654"><ele>333.0</ele><time>2026-05-03T07:09:42Z</time></trkpt><trkpt lat="50.12360787046867" lon="16.283459879222722"><ele>332.0</ele><time>2026-05-03T07:09:43Z</time></trkpt><trkpt lat="50.12332893775842" lon="16.28345166719876"><ele>329.5</ele><time>2026-05-03T07:09:44Z</time></trkpt><trkpt lat="50.123069354936035" lon="16.283456041124214"><ele>327.0</ele><time>2026-05-03T07:09:45Z</time></trkpt><trkpt lat="50.12282002645949" lon="16.28346545604551"><ele>327.0</ele><time>2026-05-03T07:09:46Z</time></trkpt><trkpt lat="50.122586558573616" lon="16.283481433732987"><ele>327.0</ele><time>2026-05-03T07:09:47Z</time></trkpt><trkpt lat="50.12236831259226" lon="16.283505341161046"><ele>325.0</ele><time>2026-05-03T07:09:48Z</time></trkpt><trkpt lat="50.12217969204384" lon="16.28355150985907"><ele>323.0</ele><time>2026-05-03T07:09:49Z</time></trkpt><trkpt lat="50.12201178355067" lon="16.283612283668365"><ele>321.0</ele><time>2026-05-03T07:09:50Z</time></trkpt><trkpt lat="50.121851892285584" lon="16.283666174337668"><ele>321.0</ele><time>2026-05-03T07:09:51Z</time></trkpt><trkpt lat="50.12171370004192" lon="16.283729565880858"><ele>321.0</ele><time>2026-05-03T07:09:52Z</time></trkpt><trkpt lat="50.121602268376655" lon="16.28379458105765"><ele>321.0</ele><time>2026-05-03T07:09:53Z</time></trkpt><trkpt lat="50.121519416468594" lon="16.283843134479977"><ele>321.0</ele><time>2026-05-03T07:09:54Z</time></trkpt><trkpt lat="50.12144246857261" lon="16.28388454534761"><ele>321.0</ele><time>2026-05-03T07:09:55Z</time></trkpt><trkpt lat="50.12137047169658" lon="16.283904724378484"><ele>320.0</ele><time>2026-05-03T07:09:56Z</time></trkpt><trkpt lat="50.12130023785416" lon="16.283891905549467"><ele>319.0</ele><time>2026-05-03T07:09:57Z</time></trkpt><trkpt lat="50.12122589875598" lon="16.283855021729092"><ele>318.0</ele><time>2026-05-03T07:09:58Z</time></trkpt><trkpt lat="50.12114017618694" lon="16.283803785698957"><ele>317.0</ele><time>2026-05-03T07:09:59Z</time></trkpt><trkpt lat="50.121058700143834" lon="16.283774506741786"><ele>316.0</ele><time>2026-05-03T07:10:00Z</time></trkpt><trkpt lat="50.120987193585194" lon="16.283631262011372"><ele>315.0</ele><time>2026-05-03T07:10:01Z</time></trkpt><trkpt lat="50.12091637855975" lon="16.283472460774675"><ele>315.0</ele><time>2026-05-03T07:10:02Z</time></trkpt><trkpt lat="50.120856525178986" lon="16.28329068138776"><ele>315.0</ele><time>2026-05-03T07:10:03Z</time></trkpt><trkpt lat="50.12078362401847" lon="16.283119165196634"><ele>315.0</ele><time>2026-05-03T07:10:04Z</time></trkpt><trkpt lat="50.120689708911215" lon="16.282911233894247"><ele>315.0</ele><time>2026-05-03T07:10:05Z</time></trkpt><trkpt lat="50.12058000427928" lon="16.28268367380303"><ele>314.3333333333333</ele><time>2026-05-03T07:10:06Z</time></trkpt><trkpt lat="50.120473011070025" lon="16.282465338629468"><ele>313.66666666666663</ele><time>2026-05-03T07:10:07Z</time></trkpt><trkpt lat="50.12034539817935" lon="16.28221727990938"><ele>313.0</ele><time>2026-05-03T07:10:08Z</time></trkpt><trkpt lat="50.12026940202326" lon="16.28209990197239"><ele>313.0</ele><time>2026-05-03T07:10:09Z</time></trkpt><trkpt lat="50.12013671173663" lon="16.281858763340402"><ele>313.0</ele><time>2026-05-03T07:10:10Z</time></trkpt><trkpt lat="50.11998833003907" lon="16.281616079930107"><ele>313.0</ele><time>2026-05-03T07:10:11Z</time></trkpt><trkpt lat="50.11981589278143" lon="16.28132263928928"><ele>312.0</ele><time>2026-05-03T07:10:12Z</time></trkpt><trkpt lat="50.11959961640795" lon="16.281012293659057"><ele>311.0</ele><time>2026-05-03T07:10:13Z</time></trkpt><trkpt lat="50.11933985754519" lon="16.280667248261565"><ele>310.0</ele><time>2026-05-03T07:10:14Z</time></trkpt><trkpt lat="50.119074450424" lon="16.28031338396233"><ele>309.0</ele><time>2026-05-03T07:10:15Z</time></trkpt><trkpt lat="50.118787177907336" lon="16.27998326343056"><ele>310.0</ele><time>2026-05-03T07:10:16Z</time></trkpt><trkpt lat="50.11847667927157" lon="16.27966659015571"><ele>311.0</ele><time>2026-05-03T07:10:17Z</time></trkpt><trkpt lat="50.11814686047217" lon="16.27933493124032"><ele>311.0</ele><time>2026-05-03T07:10:18Z</time></trkpt><trkpt lat="50.11780179061227" lon="16.278980006744895"><ele>311.0</ele><time>2026-05-03T07:10:19Z</time></trkpt><trkpt lat="50.117444935828736" lon="16.278595996287418"><ele>311.5</ele><time>2026-05-03T07:10:20Z</time></trkpt><trkpt lat="50.11707372550202" lon="16.278211428640777"><ele>312.0</ele><time>2026-05-03T07:10:21Z</time></trkpt><trkpt lat="50.11669584463585" lon="16.27782325292602"><ele>312.0</ele><time>2026-05-03T07:10:22Z</time></trkpt><trkpt lat="50.11632187702253" lon="16.277434267648506"><ele>312.0</ele><time>2026-05-03T07:10:23Z</time></trkpt><trkpt lat="50.11599789364832" lon="16.277103020186765"><ele>310.5</ele><time>2026-05-03T07:10:24Z</time></trkpt><trkpt lat="50.115707127521965" lon="16.276813014278936"><ele>309.0</ele><time>2026-05-03T07:10:25Z</time></trkpt><trkpt lat="50.11543892666811" lon="16.27652701664539"><ele>310.5</ele><time>2026-05-03T07:10:26Z</time></trkpt><trkpt lat="50.11519854032991" lon="16.276268062285023"><ele>312.0</ele><time>2026-05-03T07:10:27Z</time></trkpt><trkpt lat="50.11497368442691" lon="16.276035703078886"><ele>310.5</ele><time>2026-05-03T07:10:28Z</time></trkpt><trkpt lat="50.11475794735754" lon="16.27581690166412"><ele>309.0</ele><time>2026-05-03T07:10:29Z</time></trkpt><trkpt lat="50.11456175976925" lon="16.275607356961846"><ele>309.3333333333333</ele><time>2026-05-03T07:10:30Z</time></trkpt><trkpt lat="50.11438506764163" lon="16.27542170283403"><ele>309.66666666666663</ele><time>2026-05-03T07:10:31Z</time></trkpt><trkpt lat="50.11422014416192" lon="16.275246953124295"><ele>310.0</ele><time>2026-05-03T07:10:32Z</time></trkpt><trkpt lat="50.114066350854415" lon="16.275080924609235"><ele>309.66666666666663</ele><time>2026-05-03T07:10:33Z</time></trkpt><trkpt lat="50.113930065314015" lon="16.274931032040172"><ele>309.3333333333333</ele><time>2026-05-03T07:10:34Z</time></trkpt><trkpt lat="50.113798501093946" lon="16.27479388588859"><ele>309.0</ele><time>2026-05-03T07:10:35Z</time></trkpt><trkpt lat="50.11367930600923" lon="16.27467040656097"><ele>309.0</ele><time>2026-05-03T07:10:36Z</time></trkpt><trkpt lat="50.11356664616491" lon="16.274555807622995"><ele>309.0</ele><time>2026-05-03T07:10:37Z</time></trkpt><trkpt lat="50.11346944197082" lon="16.274438801892785"><ele>309.0</ele><time>2026-05-03T07:10:38Z</time></trkpt><trkpt lat="50.11339725160869" lon="16.274334875703435"><ele>309.0</ele><time>2026-05-03T07:10:39Z</time></trkpt><trkpt lat="50.1133449658345" lon="16.27423787268979"><ele>309.0</ele><time>2026-05-03T07:10:41Z</time></trkpt><trkpt lat="50.11330287344409" lon="16.274120563603088"><ele>309.0</ele><time>2026-05-03T07:10:43Z</time></trkpt><trkpt lat="50.11327320410344" lon="16.274022193471883"><ele>309.0</ele><time>2026-05-03T07:10:44Z</time></trkpt><trkpt lat="50.11323360168135" lon="16.273914315478837"><ele>309.0</ele><time>2026-05-03T07:10:45Z</time></trkpt><trkpt lat="50.11316921204815" lon="16.273815706006786"><ele>309.0</ele><time>2026-05-03T07:10:46Z</time></trkpt><trkpt lat="50.11308966931344" lon="16.273731512972493"><ele>309.0</ele><time>2026-05-03T07:10:47Z</time></trkpt><trkpt lat="50.11301703075581" lon="16.27361595042153"><ele>309.0</ele><time>2026-05-03T07:10:48Z</time></trkpt><trkpt lat="50.11296331257024" lon="16.273419432673688"><ele>309.0</ele><time>2026-05-03T07:10:49Z</time></trkpt><trkpt lat="50.112933572748766" lon="16.27317666918646"><ele>309.0</ele><time>2026-05-03T07:10:50Z</time></trkpt><trkpt lat="50.11289524029662" lon="16.27290478820474"><ele>309.0</ele><time>2026-05-03T07:10:51Z</time></trkpt><trkpt lat="50.112849360855066" lon="16.272602192674363"><ele>309.5</ele><time>2026-05-03T07:10:52Z</time></trkpt><trkpt lat="50.1127918963238" lon="16.272231871856203"><ele>310.0</ele><time>2026-05-03T07:10:53Z</time></trkpt><trkpt lat="50.1127295422905" lon="16.271834233315992"><ele>310.0</ele><time>2026-05-03T07:10:54Z</time></trkpt><trkpt lat="50.11267495935207" lon="16.27148409570046"><ele>310.0</ele><time>2026-05-03T07:10:55Z</time></trkpt><trkpt lat="50.112629439232045" lon="16.27111620288963"><ele>310.0</ele><time>2026-05-03T07:10:56Z</time></trkpt><trkpt lat="50.11258697296243" lon="16.270696594464077"><ele>310.0</ele><time>2026-05-03T07:10:57Z</time></trkpt><trkpt lat="50.11254813605699" lon="16.270245234897136"><ele>310.5</ele><time>2026-05-03T07:10:58Z</time></trkpt><trkpt lat="50.11249951043523" lon="16.269779489499193"><ele>311.0</ele><time>2026-05-03T07:10:59Z</time></trkpt><trkpt lat="50.11248448851528" lon="16.269291721742654"><ele>310.5</ele><time>2026-05-03T07:11:00Z</time></trkpt><trkpt lat="50.11249412479348" lon="16.268811742981953"><ele>310.0</ele><time>2026-05-03T07:11:01Z</time></trkpt><trkpt lat="50.11250092165763" lon="16.268371497871282"><ele>309.5</ele><time>2026-05-03T07:11:02Z</time></trkpt><trkpt lat="50.11251511252133" lon="16.267972460812132"><ele>309.0</ele><time>2026-05-03T07:11:03Z</time></trkpt><trkpt lat="50.11253834263268" lon="16.267598648291727"><ele>308.5</ele><time>2026-05-03T07:11:04Z</time></trkpt><trkpt lat="50.11257042048604" lon="16.26719985331687"><ele>308.0</ele><time>2026-05-03T07:11:05Z</time></trkpt><trkpt lat="50.112612976138635" lon="16.26676447178557"><ele>309.0</ele><time>2026-05-03T07:11:06Z</time></trkpt><trkpt lat="50.11266505300958" lon="16.266289688817515"><ele>310.0</ele><time>2026-05-03T07:11:07Z</time></trkpt><trkpt lat="50.11272263527769" lon="16.265771317069863"><ele>310.0</ele><time>2026-05-03T07:11:08Z</time></trkpt><trkpt lat="50.11278685552532" lon="16.265224544624367"><ele>310.0</ele><time>2026-05-03T07:11:09Z</time></trkpt><trkpt lat="50.11285624008731" lon="16.264630846577752"><ele>308.5</ele><time>2026-05-03T07:11:10Z</time></trkpt><trkpt lat="50.11293096854956" lon="16.263979893695545"><ele>307.0</ele><time>2026-05-03T07:11:11Z</time></trkpt><trkpt lat="50.11299144080172" lon="16.263289590064765"><ele>306.0</ele><time>2026-05-03T07:11:12Z</time></trkpt><trkpt lat="50.11307352842239" lon="16.262588040858756"><ele>303.0</ele><time>2026-05-03T07:11:13Z</time></trkpt><trkpt lat="50.11315892235696" lon="16.26185837187766"><ele>304.0</ele><time>2026-05-03T07:11:14Z</time></trkpt><trkpt lat="50.11324739513681" lon="16.261103594323732"><ele>303.0</ele><time>2026-05-03T07:11:15Z</time></trkpt><trkpt lat="50.11334068095458" lon="16.26033651756964"><ele>304.0</ele><time>2026-05-03T07:11:16Z</time></trkpt><trkpt lat="50.113434418719564" lon="16.259555930406"><ele>306.0</ele><time>2026-05-03T07:11:17Z</time></trkpt><trkpt lat="50.11352566956195" lon="16.25877392826591"><ele>306.0</ele><time>2026-05-03T07:11:18Z</time></trkpt><trkpt lat="50.113608517996326" lon="16.25804647300469"><ele>306.0</ele><time>2026-05-03T07:11:19Z</time></trkpt><trkpt lat="50.11368140015058" lon="16.25738261777993"><ele>306.0</ele><time>2026-05-03T07:11:20Z</time></trkpt><trkpt lat="50.11375877617528" lon="16.256745827259188"><ele>306.0</ele><time>2026-05-03T07:11:21Z</time></trkpt><trkpt lat="50.11382869187682" lon="16.25612821451721"><ele>306.0</ele><time>2026-05-03T07:11:22Z</time></trkpt><trkpt lat="50.11389891308485" lon="16.255519630340398"><ele>306.0</ele><time>2026-05-03T07:11:23Z</time></trkpt><trkpt lat="50.11396423955221" lon="16.254934343377727"><ele>306.0</ele><time>2026-05-03T07:11:24Z</time></trkpt><trkpt lat="50.114023344945224" lon="16.254393522347538"><ele>306.5</ele><time>2026-05-03T07:11:25Z</time></trkpt><trkpt lat="50.11409132916376" lon="16.25385158752999"><ele>307.0</ele><time>2026-05-03T07:11:26Z</time></trkpt><trkpt lat="50.11419162815894" lon="16.253284443967143"><ele>306.5</ele><time>2026-05-03T07:11:27Z</time></trkpt><trkpt lat="50.11426137899703" lon="16.252684120677074"><ele>306.0</ele><time>2026-05-03T07:11:28Z</time></trkpt><trkpt lat="50.11433490094434" lon="16.252041986954715"><ele>306.0</ele><time>2026-05-03T07:11:29Z</time></trkpt><trkpt lat="50.114405239157854" lon="16.25142657106702"><ele>306.0</ele><time>2026-05-03T07:11:30Z</time></trkpt><trkpt lat="50.1144666676809" lon="16.250888541078695"><ele>305.5</ele><time>2026-05-03T07:11:31Z</time></trkpt><trkpt lat="50.11451228680258" lon="16.250395135081664"><ele>305.0</ele><time>2026-05-03T07:11:32Z</time></trkpt><trkpt lat="50.11456575577861" lon="16.249931324600986"><ele>305.0</ele><time>2026-05-03T07:11:33Z</time></trkpt><trkpt lat="50.11461387006622" lon="16.249486628300698"><ele>305.0</ele><time>2026-05-03T07:11:34Z</time></trkpt><trkpt lat="50.114684671561704" lon="16.249053058311286"><ele>304.0</ele><time>2026-05-03T07:11:35Z</time></trkpt><trkpt lat="50.11473941075674" lon="16.248623018598025"><ele>303.0</ele><time>2026-05-03T07:11:36Z</time></trkpt><trkpt lat="50.11479551825702" lon="16.248196275353163"><ele>303.0</ele><time>2026-05-03T07:11:37Z</time></trkpt><trkpt lat="50.114855215620096" lon="16.247745760404083"><ele>303.0</ele><time>2026-05-03T07:11:38Z</time></trkpt><trkpt lat="50.11490591665991" lon="16.24727419711905"><ele>303.0</ele><time>2026-05-03T07:11:39Z</time></trkpt><trkpt lat="50.114976203618966" lon="16.246812838904145"><ele>303.0</ele><time>2026-05-03T07:11:40Z</time></trkpt><trkpt lat="50.1150378037528" lon="16.24629719423868"><ele>302.5</ele><time>2026-05-03T07:11:41Z</time></trkpt><trkpt lat="50.115105675732735" lon="16.24572904901952"><ele>302.0</ele><time>2026-05-03T07:11:42Z</time></trkpt><trkpt lat="50.11517875235507" lon="16.245122634232406"><ele>301.5</ele><time>2026-05-03T07:11:43Z</time></trkpt><trkpt lat="50.115255490432155" lon="16.24453580978403"><ele>301.0</ele><time>2026-05-03T07:11:44Z</time></trkpt><trkpt lat="50.11532566784447" lon="16.24402240336223"><ele>301.0</ele><time>2026-05-03T07:11:45Z</time></trkpt><trkpt lat="50.11539206030856" lon="16.243545969818346"><ele>301.0</ele><time>2026-05-03T07:11:46Z</time></trkpt><trkpt lat="50.1154569486435" lon="16.24306457247388"><ele>301.0</ele><time>2026-05-03T07:11:47Z</time></trkpt><trkpt lat="50.1155291944719" lon="16.242576257188034"><ele>301.0</ele><time>2026-05-03T07:11:48Z</time></trkpt><trkpt lat="50.11560618107918" lon="16.24207478110262"><ele>301.0</ele><time>2026-05-03T07:11:49Z</time></trkpt><trkpt lat="50.115695241510885" lon="16.241544265145624"><ele>301.0</ele><time>2026-05-03T07:11:50Z</time></trkpt><trkpt lat="50.11579916931748" lon="16.240984977559965"><ele>300.0</ele><time>2026-05-03T07:11:51Z</time></trkpt><trkpt lat="50.11591197119263" lon="16.240433687406576"><ele>299.0</ele><time>2026-05-03T07:11:52Z</time></trkpt><trkpt lat="50.11602549741373" lon="16.23991020312656"><ele>298.5</ele><time>2026-05-03T07:11:53Z</time></trkpt><trkpt lat="50.11613992476424" lon="16.239403713101463"><ele>298.0</ele><time>2026-05-03T07:11:54Z</time></trkpt><trkpt lat="50.116262595734746" lon="16.238878092014534"><ele>297.5</ele><time>2026-05-03T07:11:55Z</time></trkpt><trkpt lat="50.11640138373062" lon="16.2383116802939"><ele>297.0</ele><time>2026-05-03T07:11:56Z</time></trkpt><trkpt lat="50.11654903305177" lon="16.237719172155938"><ele>295.5</ele><time>2026-05-03T07:11:57Z</time></trkpt><trkpt lat="50.11667539660025" lon="16.2370906767106"><ele>294.0</ele><time>2026-05-03T07:11:58Z</time></trkpt><trkpt lat="50.11685208805846" lon="16.23647705846246"><ele>293.5</ele><time>2026-05-03T07:11:59Z</time></trkpt><trkpt lat="50.117018718876025" lon="16.23588402889886"><ele>293.0</ele><time>2026-05-03T07:12:00Z</time></trkpt><trkpt lat="50.11716541144867" lon="16.235353654868092"><ele>292.5</ele><time>2026-05-03T07:12:01Z</time></trkpt><trkpt lat="50.11729490495367" lon="16.234865854096682"><ele>292.0</ele><time>2026-05-03T07:12:02Z</time></trkpt><trkpt lat="50.117430457969014" lon="16.234424361839988"><ele>293.0</ele><time>2026-05-03T07:12:03Z</time></trkpt><trkpt lat="50.117543297399436" lon="16.23400292151354"><ele>294.0</ele><time>2026-05-03T07:12:04Z</time></trkpt><trkpt lat="50.11764810073042" lon="16.233611250261756"><ele>294.5</ele><time>2026-05-03T07:12:05Z</time></trkpt><trkpt lat="50.11773292259676" lon="16.233232845345647"><ele>295.0</ele><time>2026-05-03T07:12:06Z</time></trkpt><trkpt lat="50.117830046747635" lon="16.23287795661376"><ele>295.3333333333333</ele><time>2026-05-03T07:12:07Z</time></trkpt><trkpt lat="50.11791933576032" lon="16.23255479206782"><ele>295.6666666666667</ele><time>2026-05-03T07:12:08Z</time></trkpt><trkpt lat="50.11800616096293" lon="16.23224737829883"><ele>296.0</ele><time>2026-05-03T07:12:09Z</time></trkpt><trkpt lat="50.118088048560864" lon="16.23196760271535"><ele>296.0</ele><time>2026-05-03T07:12:10Z</time></trkpt><trkpt lat="50.11816509915571" lon="16.23170386646206"><ele>296.0</ele><time>2026-05-03T07:12:11Z</time></trkpt><trkpt lat="50.11823356589312" lon="16.231452020174068"><ele>296.0</ele><time>2026-05-03T07:12:12Z</time></trkpt><trkpt lat="50.11829897002976" lon="16.231240343211237"><ele>296.0</ele><time>2026-05-03T07:12:13Z</time></trkpt><trkpt lat="50.11834731540554" lon="16.231016663847555"><ele>296.0</ele><time>2026-05-03T07:12:14Z</time></trkpt><trkpt lat="50.11840082967566" lon="16.23081676674791"><ele>296.0</ele><time>2026-05-03T07:12:15Z</time></trkpt><trkpt lat="50.118456585662365" lon="16.230615730662002"><ele>296.0</ele><time>2026-05-03T07:12:16Z</time></trkpt><trkpt lat="50.118509605000966" lon="16.230411341982997"><ele>296.5</ele><time>2026-05-03T07:12:17Z</time></trkpt><trkpt lat="50.11856269784123" lon="16.23020581126913"><ele>297.0</ele><time>2026-05-03T07:12:18Z</time></trkpt><trkpt lat="50.11863674185722" lon="16.230017277392946"><ele>297.5</ele><time>2026-05-03T07:12:19Z</time></trkpt><trkpt lat="50.118678802842894" lon="16.229801466865084"><ele>298.0</ele><time>2026-05-03T07:12:20Z</time></trkpt><trkpt lat="50.11873867586931" lon="16.22959626907239"><ele>298.0</ele><time>2026-05-03T07:12:21Z</time></trkpt><trkpt lat="50.11880438156313" lon="16.229391176406818"><ele>298.0</ele><time>2026-05-03T07:12:22Z</time></trkpt><trkpt lat="50.118862728674415" lon="16.229174438554402"><ele>298.0</ele><time>2026-05-03T07:12:23Z</time></trkpt><trkpt lat="50.1189279726953" lon="16.228932875534912"><ele>298.0</ele><time>2026-05-03T07:12:24Z</time></trkpt><trkpt lat="50.11901416792685" lon="16.228615304066782"><ele>298.0</ele><time>2026-05-03T07:12:25Z</time></trkpt><trkpt lat="50.11911641650438" lon="16.22824116617654"><ele>298.0</ele><time>2026-05-03T07:12:26Z</time></trkpt><trkpt lat="50.119199095724404" lon="16.227912118539013"><ele>298.0</ele><time>2026-05-03T07:12:27Z</time></trkpt><trkpt lat="50.119273243612234" lon="16.227632004322135"><ele>298.0</ele><time>2026-05-03T07:12:28Z</time></trkpt><trkpt lat="50.1193339543117" lon="16.227367848511037"><ele>297.66666666666663</ele><time>2026-05-03T07:12:29Z</time></trkpt><trkpt lat="50.119411117497435" lon="16.227112193522068"><ele>297.3333333333333</ele><time>2026-05-03T07:12:30Z</time></trkpt><trkpt lat="50.11948907814767" lon="16.22685362485353"><ele>297.0</ele><time>2026-05-03T07:12:31Z</time></trkpt><trkpt lat="50.11956188400929" lon="16.226593827559753"><ele>297.3333333333333</ele><time>2026-05-03T07:12:32Z</time></trkpt><trkpt lat="50.11962642406893" lon="16.226323148659514"><ele>297.66666666666663</ele><time>2026-05-03T07:12:33Z</time></trkpt><trkpt lat="50.11969002451982" lon="16.22605678544352"><ele>298.0</ele><time>2026-05-03T07:12:34Z</time></trkpt><trkpt lat="50.119761244896104" lon="16.225791715950887"><ele>298.0</ele><time>2026-05-03T07:12:35Z</time></trkpt><trkpt lat="50.11983689320951" lon="16.225528183945674"><ele>298.0</ele><time>2026-05-03T07:12:36Z</time></trkpt><trkpt lat="50.11991041620437" lon="16.2252595814671"><ele>298.0</ele><time>2026-05-03T07:12:37Z</time></trkpt><trkpt lat="50.11999663437754" lon="16.225000100303056"><ele>296.66666666666663</ele><time>2026-05-03T07:12:38Z</time></trkpt><trkpt lat="50.12006602960334" lon="16.22474356875774"><ele>295.3333333333333</ele><time>2026-05-03T07:12:39Z</time></trkpt><trkpt lat="50.12012749724648" lon="16.224512188879324"><ele>294.0</ele><time>2026-05-03T07:12:40Z</time></trkpt><trkpt lat="50.12018370611508" lon="16.224296381072467"><ele>294.0</ele><time>2026-05-03T07:12:41Z</time></trkpt><trkpt lat="50.12024476520947" lon="16.22406518610304"><ele>294.0</ele><time>2026-05-03T07:12:42Z</time></trkpt><trkpt lat="50.12029650828414" lon="16.223825043531885"><ele>294.0</ele><time>2026-05-03T07:12:43Z</time></trkpt><trkpt lat="50.12036491072787" lon="16.22359747734709"><ele>294.3333333333333</ele><time>2026-05-03T07:12:44Z</time></trkpt><trkpt lat="50.12043277192657" lon="16.223365919272368"><ele>294.66666666666663</ele><time>2026-05-03T07:12:45Z</time></trkpt><trkpt lat="50.120492568129315" lon="16.22312930813819"><ele>295.0</ele><time>2026-05-03T07:12:46Z</time></trkpt><trkpt lat="50.120560859156974" lon="16.222902465201393"><ele>295.0</ele><time>2026-05-03T07:12:47Z</time></trkpt><trkpt lat="50.12062296509774" lon="16.22266757200328"><ele>295.0</ele><time>2026-05-03T07:12:48Z</time></trkpt><trkpt lat="50.12068629220207" lon="16.222427766329155"><ele>295.0</ele><time>2026-05-03T07:12:49Z</time></trkpt><trkpt lat="50.120743050236705" lon="16.222184489016616"><ele>295.3333333333333</ele><time>2026-05-03T07:12:50Z</time></trkpt><trkpt lat="50.12081180289187" lon="16.221944569724876"><ele>295.6666666666667</ele><time>2026-05-03T07:12:51Z</time></trkpt><trkpt lat="50.120868118125955" lon="16.221698091428973"><ele>296.0</ele><time>2026-05-03T07:12:52Z</time></trkpt><trkpt lat="50.120924868193754" lon="16.221474292443357"><ele>295.2</ele><time>2026-05-03T07:12:53Z</time></trkpt><trkpt lat="50.12098449605353" lon="16.221273950069655"><ele>294.40000000000003</ele><time>2026-05-03T07:12:54Z</time></trkpt><trkpt lat="50.12105849997424" lon="16.22111405040762"><ele>293.6</ele><time>2026-05-03T07:12:55Z</time></trkpt><trkpt lat="50.12112283074079" lon="16.22097987335636"><ele>292.8</ele><time>2026-05-03T07:12:56Z</time></trkpt><trkpt lat="50.12115566206089" lon="16.220893315789162"><ele>292.0</ele><time>2026-05-03T07:12:57Z</time></trkpt><trkpt lat="50.12119124497941" lon="16.220758668387163"><ele>292.0</ele><time>2026-05-03T07:12:59Z</time></trkpt><trkpt lat="50.12133169925442" lon="16.220774477308705"><ele>292.0</ele><time>2026-05-03T07:13:00Z</time></trkpt><trkpt lat="50.12137204855081" lon="16.22067426580245"><ele>292.0</ele><time>2026-05-03T07:13:02Z</time></trkpt><trkpt lat="50.12136796730271" lon="16.220575371978107"><ele>292.0</ele><time>2026-05-03T07:14:46Z</time></trkpt><trkpt lat="50.1213299785287" lon="16.220496598954195"><ele>292.0</ele><time>2026-05-03T07:15:05.069Z</time></trkpt><trkpt lat="50.12136387725049" lon="16.220364537163327"><ele>292.0</ele><time>2026-05-03T07:15:09.04Z</time></trkpt><trkpt lat="50.12132642843343" lon="16.220542025443088"><ele>292.25</ele><time>2026-05-03T07:15:22.606Z</time></trkpt><trkpt lat="50.121399208289645" lon="16.220595817387863"><ele>292.5</ele><time>2026-05-03T07:15:35Z</time></trkpt><trkpt lat="50.12153337198375" lon="16.220371674950503"><ele>292.75</ele><time>2026-05-03T07:18:14Z</time></trkpt><trkpt lat="50.121586710599544" lon="16.22021058807642"><ele>293.0</ele><time>2026-05-03T07:18:15Z</time></trkpt><trkpt lat="50.12162023900263" lon="16.22009974404364"><ele>293.0</ele><time>2026-05-03T07:18:16Z</time></trkpt><trkpt lat="50.12168729467131" lon="16.219957458051304"><ele>293.0</ele><time>2026-05-03T07:18:18Z</time></trkpt><trkpt lat="50.121562065454164" lon="16.21988218499788"><ele>293.0</ele><time>2026-05-03T07:18:19Z</time></trkpt><trkpt lat="50.1215042938682" lon="16.219802148610643"><ele>293.0</ele><time>2026-05-03T07:18:21Z</time></trkpt><trkpt lat="50.1214598088439" lon="16.219717866135447"><ele>293.0</ele><time>2026-05-03T07:18:23Z</time></trkpt><trkpt lat="50.12151704987729" lon="16.21948192862323"><ele>292.83333333333337</ele><time>2026-05-03T07:18:25Z</time></trkpt><trkpt lat="50.12157365650943" lon="16.219373702759338"><ele>292.6666666666667</ele><time>2026-05-03T07:18:26Z</time></trkpt><trkpt lat="50.12163342857038" lon="16.219250604566685"><ele>292.5</ele><time>2026-05-03T07:18:27Z</time></trkpt><trkpt lat="50.12167851421509" lon="16.219175583679142"><ele>292.3333333333333</ele><time>2026-05-03T07:18:28Z</time></trkpt><trkpt lat="50.12173713868341" lon="16.219075315661055"><ele>292.16666666666663</ele><time>2026-05-03T07:18:30Z</time></trkpt><trkpt lat="50.12178876109525" lon="16.21896796238761"><ele>292.0</ele><time>2026-05-03T07:18:34Z</time></trkpt><trkpt lat="50.12186527667475" lon="16.21880884161177"><ele>292.0</ele><time>2026-05-03T07:18:36Z</time></trkpt><trkpt lat="50.121960837316294" lon="16.21861011491209"><ele>292.0</ele><time>2026-05-03T07:18:38Z</time></trkpt><trkpt lat="50.12204581272952" lon="16.218421596264342"><ele>292.0</ele><time>2026-05-03T07:18:39Z</time></trkpt><trkpt lat="50.122146231096025" lon="16.218199647069152"><ele>292.0</ele><time>2026-05-03T07:18:40Z</time></trkpt><trkpt lat="50.122270330353835" lon="16.21793258842058"><ele>292.0</ele><time>2026-05-03T07:18:41Z</time></trkpt><trkpt lat="50.12236522717398" lon="16.217682418758304"><ele>292.0</ele><time>2026-05-03T07:18:42Z</time></trkpt><trkpt lat="50.122449494050706" lon="16.217474320216436"><ele>292.0</ele><time>2026-05-03T07:18:43Z</time></trkpt><trkpt lat="50.12251664337958" lon="16.21728248886514"><ele>292.0</ele><time>2026-05-03T07:18:44Z</time></trkpt><trkpt lat="50.122572436564816" lon="16.217112681443478"><ele>292.0</ele><time>2026-05-03T07:18:45Z</time></trkpt><trkpt lat="50.122625514533254" lon="16.21694609816495"><ele>292.0</ele><time>2026-05-03T07:18:46Z</time></trkpt><trkpt lat="50.12267097455782" lon="16.216795714024343"><ele>292.0</ele><time>2026-05-03T07:18:47Z</time></trkpt><trkpt lat="50.12270811464839" lon="16.216666991950152"><ele>292.0</ele><time>2026-05-03T07:18:48Z</time></trkpt><trkpt lat="50.12273872060468" lon="16.216555449039067"><ele>292.0</ele><time>2026-05-03T07:18:49Z</time></trkpt><trkpt lat="50.1227648766742" lon="16.216465466958287"><ele>292.0</ele><time>2026-05-03T07:18:50Z</time></trkpt><trkpt lat="50.12280643300491" lon="16.216289572793563"><ele>292.0</ele><time>2026-05-03T07:18:52Z</time></trkpt><trkpt lat="50.12283481923743" lon="16.21617879983116"><ele>292.0</ele><time>2026-05-03T07:18:53Z</time></trkpt><trkpt lat="50.122904874990624" lon="16.21605756476406"><ele>292.0</ele><time>2026-05-03T07:18:55Z</time></trkpt><trkpt lat="50.122949507862906" lon="16.21593623308291"><ele>292.0</ele><time>2026-05-03T07:18:57Z</time></trkpt><trkpt lat="50.12293835492998" lon="16.215794220467913"><ele>292.0</ele><time>2026-05-03T07:18:59Z</time></trkpt><trkpt lat="50.12292732151271" lon="16.2156747307012"><ele>292.0</ele><time>2026-05-03T07:19:00Z</time></trkpt><trkpt lat="50.12294891210602" lon="16.215514723422935"><ele>292.0</ele><time>2026-05-03T07:19:01Z</time></trkpt><trkpt lat="50.1229909419311" lon="16.215317571094744"><ele>292.0</ele><time>2026-05-03T07:19:02Z</time></trkpt><trkpt lat="50.12304106123768" lon="16.21507081964685"><ele>292.0</ele><time>2026-05-03T07:19:03Z</time></trkpt><trkpt lat="50.1230976058922" lon="16.214796575194995"><ele>292.0</ele><time>2026-05-03T07:19:04Z</time></trkpt><trkpt lat="50.12316555518918" lon="16.214487342229365"><ele>292.0</ele><time>2026-05-03T07:19:05Z</time></trkpt><trkpt lat="50.123236487371834" lon="16.214169915116617"><ele>292.0</ele><time>2026-05-03T07:19:06Z</time></trkpt><trkpt lat="50.12331727949455" lon="16.21389286059454"><ele>292.0</ele><time>2026-05-03T07:19:07Z</time></trkpt><trkpt lat="50.12338893483688" lon="16.213600849640105"><ele>292.0</ele><time>2026-05-03T07:19:08Z</time></trkpt><trkpt lat="50.12346204259962" lon="16.21329800153793"><ele>292.0</ele><time>2026-05-03T07:19:09Z</time></trkpt><trkpt lat="50.12357357381098" lon="16.213020351425925"><ele>292.0</ele><time>2026-05-03T07:19:10Z</time></trkpt><trkpt lat="50.12366706898877" lon="16.21272168230727"><ele>292.0</ele><time>2026-05-03T07:19:11Z</time></trkpt><trkpt lat="50.123777852353584" lon="16.21245324412252"><ele>292.0</ele><time>2026-05-03T07:19:12Z</time></trkpt><trkpt lat="50.123885311547" lon="16.212215396254262"><ele>292.0</ele><time>2026-05-03T07:19:13Z</time></trkpt><trkpt lat="50.12397370637738" lon="16.21198221397567"><ele>291.66666666666663</ele><time>2026-05-03T07:19:14Z</time></trkpt><trkpt lat="50.12405379851743" lon="16.211759242388133"><ele>291.3333333333333</ele><time>2026-05-03T07:19:15Z</time></trkpt><trkpt lat="50.124123264038985" lon="16.211536785589995"><ele>291.0</ele><time>2026-05-03T07:19:16Z</time></trkpt><trkpt lat="50.12415334413943" lon="16.21128267934225"><ele>290.0</ele><time>2026-05-03T07:19:17Z</time></trkpt><trkpt lat="50.12418392146845" lon="16.21103554477737"><ele>289.0</ele><time>2026-05-03T07:19:18Z</time></trkpt><trkpt lat="50.12419961861543" lon="16.21078300296489"><ele>288.0</ele><time>2026-05-03T07:19:19Z</time></trkpt><trkpt lat="50.12420584158047" lon="16.21052575741312"><ele>288.0</ele><time>2026-05-03T07:19:20Z</time></trkpt><trkpt lat="50.124210651832" lon="16.210266095691704"><ele>288.0</ele><time>2026-05-03T07:19:21Z</time></trkpt><trkpt lat="50.12422566016708" lon="16.21000767825982"><ele>288.0</ele><time>2026-05-03T07:19:22Z</time></trkpt><trkpt lat="50.124229410985436" lon="16.209767875930577"><ele>288.0</ele><time>2026-05-03T07:19:23Z</time></trkpt><trkpt lat="50.124232840051135" lon="16.209548643066032"><ele>288.0</ele><time>2026-05-03T07:19:24Z</time></trkpt><trkpt lat="50.12423697699089" lon="16.209357028686757"><ele>288.0</ele><time>2026-05-03T07:19:25Z</time></trkpt><trkpt lat="50.124241596369586" lon="16.209192986869784"><ele>288.0</ele><time>2026-05-03T07:19:26Z</time></trkpt><trkpt lat="50.12424625496913" lon="16.20902244605332"><ele>288.2</ele><time>2026-05-03T07:19:27Z</time></trkpt><trkpt lat="50.12425059656169" lon="16.208863510107523"><ele>288.4</ele><time>2026-05-03T07:19:28Z</time></trkpt><trkpt lat="50.12423842386856" lon="16.208705792353232"><ele>288.59999999999997</ele><time>2026-05-03T07:19:29Z</time></trkpt><trkpt lat="50.124250034624495" lon="16.208535472860778"><ele>288.8</ele><time>2026-05-03T07:19:30Z</time></trkpt><trkpt lat="50.1242522295421" lon="16.208363359345388"><ele>289.0</ele><time>2026-05-03T07:19:31Z</time></trkpt><trkpt lat="50.12425231691085" lon="16.20819698265428"><ele>289.0</ele><time>2026-05-03T07:19:32Z</time></trkpt><trkpt lat="50.1242740593913" lon="16.208026196518038"><ele>289.0</ele><time>2026-05-03T07:19:33Z</time></trkpt><trkpt lat="50.12427997629992" lon="16.20784530814519"><ele>289.0</ele><time>2026-05-03T07:19:34Z</time></trkpt><trkpt lat="50.1242865762928" lon="16.20764353687715"><ele>289.0</ele><time>2026-05-03T07:19:35Z</time></trkpt><trkpt lat="50.12429634289856" lon="16.2073333448806"><ele>289.3333333333333</ele><time>2026-05-03T07:19:36Z</time></trkpt><trkpt lat="50.1243054340303" lon="16.20705006445243"><ele>289.6666666666667</ele><time>2026-05-03T07:19:37Z</time></trkpt><trkpt lat="50.12431285571991" lon="16.20682042405101"><ele>290.0</ele><time>2026-05-03T07:19:38Z</time></trkpt><trkpt lat="50.124308500220806" lon="16.206621971467282"><ele>290.25</ele><time>2026-05-03T07:19:39Z</time></trkpt><trkpt lat="50.12431644747249" lon="16.206440278496903"><ele>290.5</ele><time>2026-05-03T07:19:40Z</time></trkpt><trkpt lat="50.124326306426106" lon="16.206275315156166"><ele>290.75</ele><time>2026-05-03T07:19:41Z</time></trkpt><trkpt lat="50.12433088425822" lon="16.20608112277567"><ele>291.0</ele><time>2026-05-03T07:19:42Z</time></trkpt><trkpt lat="50.124345831123385" lon="16.20585120289221"><ele>291.6666666666667</ele><time>2026-05-03T07:19:43Z</time></trkpt><trkpt lat="50.124355279829025" lon="16.205571903715374"><ele>292.33333333333337</ele><time>2026-05-03T07:19:44Z</time></trkpt><trkpt lat="50.1243536825369" lon="16.205288362007813"><ele>293.0</ele><time>2026-05-03T07:19:45Z</time></trkpt><trkpt lat="50.12436297249187" lon="16.205009172018357"><ele>292.33333333333337</ele><time>2026-05-03T07:19:46Z</time></trkpt><trkpt lat="50.1243885707227" lon="16.204715578810095"><ele>291.6666666666667</ele><time>2026-05-03T07:19:47Z</time></trkpt><trkpt lat="50.12440395271877" lon="16.20440973422731"><ele>291.0</ele><time>2026-05-03T07:19:48Z</time></trkpt><trkpt lat="50.12442018607202" lon="16.20409135997433"><ele>291.3333333333333</ele><time>2026-05-03T07:19:49Z</time></trkpt><trkpt lat="50.12442979758136" lon="16.20375978460024"><ele>291.66666666666663</ele><time>2026-05-03T07:19:50Z</time></trkpt><trkpt lat="50.12445476294206" lon="16.203427821882233"><ele>292.0</ele><time>2026-05-03T07:19:51Z</time></trkpt><trkpt lat="50.124481501615264" lon="16.203089213543294"><ele>292.0</ele><time>2026-05-03T07:19:52Z</time></trkpt><trkpt lat="50.12450399868471" lon="16.202747954211546"><ele>292.0</ele><time>2026-05-03T07:19:53Z</time></trkpt><trkpt lat="50.124529672159575" lon="16.202394847375153"><ele>292.0</ele><time>2026-05-03T07:19:54Z</time></trkpt><trkpt lat="50.12456062406326" lon="16.20204110108461"><ele>292.0</ele><time>2026-05-03T07:19:55Z</time></trkpt><trkpt lat="50.124589631741564" lon="16.2016850547034"><ele>292.0</ele><time>2026-05-03T07:19:56Z</time></trkpt><trkpt lat="50.124618647569314" lon="16.201340643267724"><ele>292.66666666666663</ele><time>2026-05-03T07:19:57Z</time></trkpt><trkpt lat="50.124657820797665" lon="16.201005954889602"><ele>293.3333333333333</ele><time>2026-05-03T07:19:58Z</time></trkpt><trkpt lat="50.12469713566964" lon="16.20066266186959"><ele>294.0</ele><time>2026-05-03T07:19:59Z</time></trkpt><trkpt lat="50.124724880089076" lon="16.200324134205914"><ele>294.3333333333333</ele><time>2026-05-03T07:20:00Z</time></trkpt><trkpt lat="50.12474863185066" lon="16.19998995378177"><ele>294.66666666666663</ele><time>2026-05-03T07:20:01Z</time></trkpt><trkpt lat="50.12481004999132" lon="16.19966219833853"><ele>295.0</ele><time>2026-05-03T07:20:02Z</time></trkpt><trkpt lat="50.12486417450527" lon="16.19935536494653"><ele>293.66666666666663</ele><time>2026-05-03T07:20:03Z</time></trkpt><trkpt lat="50.12491627734505" lon="16.199075075925997"><ele>292.3333333333333</ele><time>2026-05-03T07:20:04Z</time></trkpt><trkpt lat="50.12497565345021" lon="16.198777497682155"><ele>291.0</ele><time>2026-05-03T07:20:05Z</time></trkpt><trkpt lat="50.12504188904483" lon="16.198463195911636"><ele>290.0</ele><time>2026-05-03T07:20:06Z</time></trkpt><trkpt lat="50.12510926088837" lon="16.198142409343983"><ele>289.0</ele><time>2026-05-03T07:20:07Z</time></trkpt><trkpt lat="50.1251593817031" lon="16.197837095421253"><ele>288.0</ele><time>2026-05-03T07:20:08Z</time></trkpt><trkpt lat="50.12521922359139" lon="16.197566816049836"><ele>286.6666666666667</ele><time>2026-05-03T07:20:09Z</time></trkpt><trkpt lat="50.1252743350426" lon="16.197297684124138"><ele>285.33333333333337</ele><time>2026-05-03T07:20:10Z</time></trkpt><trkpt lat="50.125348296720595" lon="16.19703076746403"><ele>284.0</ele><time>2026-05-03T07:20:11Z</time></trkpt><trkpt lat="50.12539329959697" lon="16.196752437614307"><ele>283.6666666666667</ele><time>2026-05-03T07:20:12Z</time></trkpt><trkpt lat="50.125454730957166" lon="16.196484559630797"><ele>283.3333333333333</ele><time>2026-05-03T07:20:13Z</time></trkpt><trkpt lat="50.12551127445579" lon="16.196226444274117"><ele>283.0</ele><time>2026-05-03T07:20:14Z</time></trkpt><trkpt lat="50.12555909556045" lon="16.19600049943651"><ele>283.0</ele><time>2026-05-03T07:20:15Z</time></trkpt><trkpt lat="50.12561993830409" lon="16.195807947128554"><ele>283.0</ele><time>2026-05-03T07:20:16Z</time></trkpt><trkpt lat="50.12564710379392" lon="16.19562126116235"><ele>283.0</ele><time>2026-05-03T07:20:17Z</time></trkpt><trkpt lat="50.125695294857046" lon="16.19547449721865"><ele>283.0</ele><time>2026-05-03T07:20:18Z</time></trkpt><trkpt lat="50.12577052077694" lon="16.195338568658137"><ele>282.75</ele><time>2026-05-03T07:20:19Z</time></trkpt><trkpt lat="50.12583532387538" lon="16.195177898120246"><ele>282.5</ele><time>2026-05-03T07:20:20Z</time></trkpt><trkpt lat="50.125880093792716" lon="16.195002545433358"><ele>282.25</ele><time>2026-05-03T07:20:21Z</time></trkpt><trkpt lat="50.12593954904717" lon="16.1948097376217"><ele>282.0</ele><time>2026-05-03T07:20:22Z</time></trkpt><trkpt lat="50.12600732151788" lon="16.19462028727879"><ele>281.0</ele><time>2026-05-03T07:20:23Z</time></trkpt><trkpt lat="50.1260917524775" lon="16.194401516573876"><ele>280.0</ele><time>2026-05-03T07:20:24Z</time></trkpt><trkpt lat="50.12615237500934" lon="16.19418049554613"><ele>279.0</ele><time>2026-05-03T07:20:25Z</time></trkpt><trkpt lat="50.126229221584055" lon="16.193900113980813"><ele>278.3333333333333</ele><time>2026-05-03T07:20:26Z</time></trkpt><trkpt lat="50.12629608349447" lon="16.193674480352254"><ele>277.66666666666663</ele><time>2026-05-03T07:20:27Z</time></trkpt><trkpt lat="50.12637258161967" lon="16.19345438849412"><ele>277.0</ele><time>2026-05-03T07:20:28Z</time></trkpt><trkpt lat="50.1264512571572" lon="16.19323230157683"><ele>277.0</ele><time>2026-05-03T07:20:29Z</time></trkpt><trkpt lat="50.12652634079018" lon="16.193037968905696"><ele>277.0</ele><time>2026-05-03T07:20:30Z</time></trkpt><trkpt lat="50.126588247269424" lon="16.192858635655718"><ele>277.0</ele><time>2026-05-03T07:20:31Z</time></trkpt><trkpt lat="50.12660696563419" lon="16.192656512714954"><ele>277.0</ele><time>2026-05-03T07:20:32Z</time></trkpt><trkpt lat="50.12666373898175" lon="16.192457822864164"><ele>276.3333333333333</ele><time>2026-05-03T07:20:33Z</time></trkpt><trkpt lat="50.1267462501652" lon="16.192235050146238"><ele>275.6666666666667</ele><time>2026-05-03T07:20:34Z</time></trkpt><trkpt lat="50.126833698492185" lon="16.191981867900456"><ele>275.0</ele><time>2026-05-03T07:20:35Z</time></trkpt><trkpt lat="50.12690960735658" lon="16.19173081772084"><ele>275.0</ele><time>2026-05-03T07:20:36Z</time></trkpt><trkpt lat="50.12699801475424" lon="16.191524405757914"><ele>275.0</ele><time>2026-05-03T07:20:37Z</time></trkpt><trkpt lat="50.127067054612695" lon="16.191336757619162"><ele>275.0</ele><time>2026-05-03T07:20:38Z</time></trkpt><trkpt lat="50.12713002936699" lon="16.191167932674535"><ele>275.0</ele><time>2026-05-03T07:20:39Z</time></trkpt><trkpt lat="50.12719094274141" lon="16.191011155916105"><ele>274.4</ele><time>2026-05-03T07:20:40Z</time></trkpt><trkpt lat="50.127248450871114" lon="16.190872470934806"><ele>273.8</ele><time>2026-05-03T07:20:41Z</time></trkpt><trkpt lat="50.12730361755898" lon="16.19075003879647"><ele>273.2</ele><time>2026-05-03T07:20:42Z</time></trkpt><trkpt lat="50.12735310648291" lon="16.190643565771158"><ele>272.6</ele><time>2026-05-03T07:20:43Z</time></trkpt><trkpt lat="50.127398262996216" lon="16.19055015755949"><ele>272.0</ele><time>2026-05-03T07:20:44Z</time></trkpt><trkpt lat="50.1274581700083" lon="16.19043077732287"><ele>271.6666666666667</ele><time>2026-05-03T07:20:46Z</time></trkpt><trkpt lat="50.12752002098874" lon="16.190313854623614"><ele>271.33333333333337</ele><time>2026-05-03T07:20:48Z</time></trkpt><trkpt lat="50.1275639680366" lon="16.190238971067625"><ele>271.0</ele><time>2026-05-03T07:20:49Z</time></trkpt><trkpt lat="50.127615911947764" lon="16.190145717634817"><ele>270.6666666666667</ele><time>2026-05-03T07:20:50Z</time></trkpt><trkpt lat="50.127672311869716" lon="16.19005381135637"><ele>270.3333333333333</ele><time>2026-05-03T07:20:51Z</time></trkpt><trkpt lat="50.127734920024544" lon="16.18995525674531"><ele>270.0</ele><time>2026-05-03T07:20:52Z</time></trkpt><trkpt lat="50.12780773001274" lon="16.189851012796325"><ele>269.5</ele><time>2026-05-03T07:20:53Z</time></trkpt><trkpt lat="50.12789114228519" lon="16.189733893350677"><ele>269.0</ele><time>2026-05-03T07:20:54Z</time></trkpt><trkpt lat="50.12798083574963" lon="16.189614125392847"><ele>268.5</ele><time>2026-05-03T07:20:55Z</time></trkpt><trkpt lat="50.128068151164435" lon="16.189504902306886"><ele>268.0</ele><time>2026-05-03T07:20:56Z</time></trkpt><trkpt lat="50.12815974285198" lon="16.18939172224563"><ele>268.0</ele><time>2026-05-03T07:20:57Z</time></trkpt><trkpt lat="50.12826005317287" lon="16.18926931173212"><ele>268.0</ele><time>2026-05-03T07:20:58Z</time></trkpt><trkpt lat="50.12836510979421" lon="16.189141109220728"><ele>268.0</ele><time>2026-05-03T07:20:59Z</time></trkpt><trkpt lat="50.12849268448187" lon="16.188984039574883"><ele>268.0</ele><time>2026-05-03T07:21:00Z</time></trkpt><trkpt lat="50.12864056655208" lon="16.188801083670587"><ele>268.0</ele><time>2026-05-03T07:21:01Z</time></trkpt><trkpt lat="50.12880323725119" lon="16.188603198752414"><ele>268.0</ele><time>2026-05-03T07:21:02Z</time></trkpt><trkpt lat="50.12897685138094" lon="16.188390352979823"><ele>268.0</ele><time>2026-05-03T07:21:03Z</time></trkpt><trkpt lat="50.129150596828396" lon="16.188150451198016"><ele>268.0</ele><time>2026-05-03T07:21:04Z</time></trkpt><trkpt lat="50.129332619677996" lon="16.187933593464617"><ele>268.0</ele><time>2026-05-03T07:21:05Z</time></trkpt><trkpt lat="50.12949498887682" lon="16.187753425316338"><ele>268.0</ele><time>2026-05-03T07:21:06Z</time></trkpt><trkpt lat="50.129629647754754" lon="16.1875475062958"><ele>268.0</ele><time>2026-05-03T07:21:07Z</time></trkpt><trkpt lat="50.12975770152589" lon="16.18735825459942"><ele>268.0</ele><time>2026-05-03T07:21:08Z</time></trkpt><trkpt lat="50.129856228751045" lon="16.187150074228686"><ele>268.0</ele><time>2026-05-03T07:21:09Z</time></trkpt><trkpt lat="50.1299281360621" lon="16.186915739776637"><ele>268.3333333333333</ele><time>2026-05-03T07:21:10Z</time></trkpt><trkpt lat="50.12997484001832" lon="16.18665160590495"><ele>268.6666666666667</ele><time>2026-05-03T07:21:11Z</time></trkpt><trkpt lat="50.12999982792602" lon="16.186366448953226"><ele>269.0</ele><time>2026-05-03T07:21:12Z</time></trkpt><trkpt lat="50.130001595114216" lon="16.186109962397815"><ele>269.0</ele><time>2026-05-03T07:21:13Z</time></trkpt><trkpt lat="50.12998012100809" lon="16.185893840541"><ele>269.0</ele><time>2026-05-03T07:21:14Z</time></trkpt><trkpt lat="50.12994640547525" lon="16.18571212113786"><ele>269.0</ele><time>2026-05-03T07:21:15Z</time></trkpt><trkpt lat="50.12991106383939" lon="16.18555844611056"><ele>269.0</ele><time>2026-05-03T07:21:16Z</time></trkpt><trkpt lat="50.12988554985659" lon="16.185423828462458"><ele>269.0</ele><time>2026-05-03T07:21:17Z</time></trkpt><trkpt lat="50.12987957794865" lon="16.18528963669415"><ele>269.0</ele><time>2026-05-03T07:21:18Z</time></trkpt><trkpt lat="50.12989411634899" lon="16.185164911663364"><ele>269.0</ele><time>2026-05-03T07:21:19Z</time></trkpt><trkpt lat="50.1298870396472" lon="16.18505027086812"><ele>269.0</ele><time>2026-05-03T07:21:20Z</time></trkpt><trkpt lat="50.12983650477631" lon="16.184951146384297"><ele>269.0</ele><time>2026-05-03T07:21:21Z</time></trkpt><trkpt lat="50.12975044181664" lon="16.1848603286233"><ele>269.0</ele><time>2026-05-03T07:21:22Z</time></trkpt><trkpt lat="50.129665126891545" lon="16.18473753883615"><ele>268.75</ele><time>2026-05-03T07:21:23Z</time></trkpt><trkpt lat="50.129602639828754" lon="16.18456078101619"><ele>268.5</ele><time>2026-05-03T07:21:24Z</time></trkpt><trkpt lat="50.129542274592204" lon="16.184355464150517"><ele>268.25</ele><time>2026-05-03T07:21:25Z</time></trkpt><trkpt lat="50.12946786127903" lon="16.18414361440584"><ele>268.0</ele><time>2026-05-03T07:21:26Z</time></trkpt><trkpt lat="50.129391322929145" lon="16.183912990530516"><ele>267.66666666666663</ele><time>2026-05-03T07:21:27Z</time></trkpt><trkpt lat="50.12931927714379" lon="16.183666573688164"><ele>267.3333333333333</ele><time>2026-05-03T07:21:28Z</time></trkpt><trkpt lat="50.12926279673579" lon="16.183391610290656"><ele>267.0</ele><time>2026-05-03T07:21:29Z</time></trkpt><trkpt lat="50.129200691992025" lon="16.183115809075442"><ele>266.6666666666667</ele><time>2026-05-03T07:21:30Z</time></trkpt><trkpt lat="50.129149019205975" lon="16.182852774565664"><ele>266.33333333333337</ele><time>2026-05-03T07:21:31Z</time></trkpt><trkpt lat="50.12910529281935" lon="16.182597417829655"><ele>266.0</ele><time>2026-05-03T07:21:32Z</time></trkpt><trkpt lat="50.12906562324764" lon="16.18234642671342"><ele>265.75</ele><time>2026-05-03T07:21:33Z</time></trkpt><trkpt lat="50.12903572058024" lon="16.182114880909104"><ele>265.5</ele><time>2026-05-03T07:21:34Z</time></trkpt><trkpt lat="50.12901739076475" lon="16.18190230192066"><ele>265.25</ele><time>2026-05-03T07:21:35Z</time></trkpt><trkpt lat="50.12900945229567" lon="16.181714253663475"><ele>265.0</ele><time>2026-05-03T07:21:36Z</time></trkpt><trkpt lat="50.129015972017825" lon="16.18149848819769"><ele>265.0</ele><time>2026-05-03T07:21:37Z</time></trkpt><trkpt lat="50.12903534725624" lon="16.181250155543168"><ele>265.0</ele><time>2026-05-03T07:21:38Z</time></trkpt><trkpt lat="50.12907992945116" lon="16.180987804227268"><ele>265.0</ele><time>2026-05-03T07:21:39Z</time></trkpt><trkpt lat="50.12913902446508" lon="16.180711638481633"><ele>265.3333333333333</ele><time>2026-05-03T07:21:40Z</time></trkpt><trkpt lat="50.129190204707626" lon="16.18043270810675"><ele>265.6666666666667</ele><time>2026-05-03T07:21:41Z</time></trkpt><trkpt lat="50.12924330142597" lon="16.18022690234856"><ele>266.0</ele><time>2026-05-03T07:21:42Z</time></trkpt><trkpt lat="50.12929176832691" lon="16.180025588933784"><ele>266.25</ele><time>2026-05-03T07:21:43Z</time></trkpt><trkpt lat="50.12935846069719" lon="16.179824649327156"><ele>266.5</ele><time>2026-05-03T07:21:44Z</time></trkpt><trkpt lat="50.1293974170427" lon="16.179602818898744"><ele>266.75</ele><time>2026-05-03T07:21:45Z</time></trkpt><trkpt lat="50.129453252636274" lon="16.179394555550683"><ele>267.0</ele><time>2026-05-03T07:21:46Z</time></trkpt><trkpt lat="50.12950299626185" lon="16.17917863030837"><ele>267.25</ele><time>2026-05-03T07:21:47Z</time></trkpt><trkpt lat="50.1295494375027" lon="16.178966357656893"><ele>267.5</ele><time>2026-05-03T07:21:48Z</time></trkpt><trkpt lat="50.129587742859904" lon="16.17874931486098"><ele>267.75</ele><time>2026-05-03T07:21:49Z</time></trkpt><trkpt lat="50.12961265223451" lon="16.178543269615915"><ele>268.0</ele><time>2026-05-03T07:21:50Z</time></trkpt><trkpt lat="50.12963451813949" lon="16.178345847268634"><ele>268.25</ele><time>2026-05-03T07:21:51Z</time></trkpt><trkpt lat="50.12965617027571" lon="16.178149820099822"><ele>268.5</ele><time>2026-05-03T07:21:52Z</time></trkpt><trkpt lat="50.12969362902452" lon="16.17795270759559"><ele>268.75</ele><time>2026-05-03T07:21:53Z</time></trkpt><trkpt lat="50.129714754026935" lon="16.177756585360854"><ele>269.0</ele><time>2026-05-03T07:21:54Z</time></trkpt><trkpt lat="50.12972021186714" lon="16.177548554392565"><ele>268.75</ele><time>2026-05-03T07:21:55Z</time></trkpt><trkpt lat="50.129737096914056" lon="16.17733708654387"><ele>268.5</ele><time>2026-05-03T07:21:56Z</time></trkpt><trkpt lat="50.12974950600669" lon="16.177122315068146"><ele>268.25</ele><time>2026-05-03T07:21:57Z</time></trkpt><trkpt lat="50.129751127701304" lon="16.176914110036176"><ele>268.0</ele><time>2026-05-03T07:21:58Z</time></trkpt><trkpt lat="50.12974321916581" lon="16.176694426482996"><ele>268.0</ele><time>2026-05-03T07:21:59Z</time></trkpt><trkpt lat="50.12971953410429" lon="16.176488249018913"><ele>268.0</ele><time>2026-05-03T07:22:00Z</time></trkpt><trkpt lat="50.12971907032346" lon="16.176259740706477"><ele>268.0</ele><time>2026-05-03T07:22:01Z</time></trkpt><trkpt lat="50.1297009835133" lon="16.17603380428025"><ele>268.0</ele><time>2026-05-03T07:22:02Z</time></trkpt><trkpt lat="50.12966954782432" lon="16.175812835704026"><ele>268.25</ele><time>2026-05-03T07:22:03Z</time></trkpt><trkpt lat="50.12965034273166" lon="16.175588475517404"><ele>268.5</ele><time>2026-05-03T07:22:04Z</time></trkpt><trkpt lat="50.12965230705927" lon="16.175354471048344"><ele>268.75</ele><time>2026-05-03T07:22:05Z</time></trkpt><trkpt lat="50.12962772497857" lon="16.17512707689765"><ele>269.0</ele><time>2026-05-03T07:22:06Z</time></trkpt><trkpt lat="50.129589394345935" lon="16.174917716121126"><ele>269.0</ele><time>2026-05-03T07:22:07Z</time></trkpt><trkpt lat="50.12955753634724" lon="16.174720798389654"><ele>269.0</ele><time>2026-05-03T07:22:08Z</time></trkpt><trkpt lat="50.129539925051034" lon="16.17451031368482"><ele>269.0</ele><time>2026-05-03T07:22:09Z</time></trkpt><trkpt lat="50.12950930669854" lon="16.174299704423614"><ele>269.0</ele><time>2026-05-03T07:22:10Z</time></trkpt><trkpt lat="50.12947857863296" lon="16.17408677878508"><ele>268.6666666666667</ele><time>2026-05-03T07:22:11Z</time></trkpt><trkpt lat="50.12945174995318" lon="16.17387966879481"><ele>268.3333333333333</ele><time>2026-05-03T07:22:12Z</time></trkpt><trkpt lat="50.12942720113933" lon="16.173635239048703"><ele>268.0</ele><time>2026-05-03T07:22:13Z</time></trkpt><trkpt lat="50.12938884840913" lon="16.173285875273983"><ele>268.0</ele><time>2026-05-03T07:22:14Z</time></trkpt><trkpt lat="50.12937974136697" lon="16.172850107107465"><ele>268.0</ele><time>2026-05-03T07:22:15Z</time></trkpt><trkpt lat="50.12938090018095" lon="16.17233720977447"><ele>268.0</ele><time>2026-05-03T07:22:16Z</time></trkpt><trkpt lat="50.129393640371816" lon="16.171792335925545"><ele>268.0</ele><time>2026-05-03T07:22:17Z</time></trkpt><trkpt lat="50.12940928813723" lon="16.171262754528257"><ele>269.5</ele><time>2026-05-03T07:22:18Z</time></trkpt><trkpt lat="50.12941203101125" lon="16.170680540340552"><ele>271.0</ele><time>2026-05-03T07:22:19Z</time></trkpt><trkpt lat="50.129397009625315" lon="16.17012215879824"><ele>274.0</ele><time>2026-05-03T07:22:20Z</time></trkpt><trkpt lat="50.12935094795226" lon="16.169581085054805"><ele>277.0</ele><time>2026-05-03T07:22:21Z</time></trkpt><trkpt lat="50.129275230161554" lon="16.169024551650125"><ele>278.0</ele><time>2026-05-03T07:22:22Z</time></trkpt><trkpt lat="50.12918660649835" lon="16.1685503802369"><ele>279.0</ele><time>2026-05-03T07:22:23Z</time></trkpt><trkpt lat="50.129084223422154" lon="16.16814218093433"><ele>274.5</ele><time>2026-05-03T07:22:24Z</time></trkpt><trkpt lat="50.12897050530951" lon="16.167761093506993"><ele>270.0</ele><time>2026-05-03T07:22:25Z</time></trkpt><trkpt lat="50.1288529335951" lon="16.167417426259096"><ele>270.0</ele><time>2026-05-03T07:22:26Z</time></trkpt><trkpt lat="50.12874011837517" lon="16.167106817008186"><ele>270.0</ele><time>2026-05-03T07:22:27Z</time></trkpt><trkpt lat="50.128627950265496" lon="16.16680355666839"><ele>269.5</ele><time>2026-05-03T07:22:28Z</time></trkpt><trkpt lat="50.128502116613845" lon="16.166492408571823"><ele>269.0</ele><time>2026-05-03T07:22:29Z</time></trkpt><trkpt lat="50.128371932204935" lon="16.16615684967158"><ele>269.0</ele><time>2026-05-03T07:22:30Z</time></trkpt><trkpt lat="50.12825030114033" lon="16.16580946916533"><ele>269.0</ele><time>2026-05-03T07:22:31Z</time></trkpt><trkpt lat="50.128166301527884" lon="16.165480837627268"><ele>267.5</ele><time>2026-05-03T07:22:32Z</time></trkpt><trkpt lat="50.128085359579835" lon="16.165162554587592"><ele>266.0</ele><time>2026-05-03T07:22:33Z</time></trkpt><trkpt lat="50.12800655557178" lon="16.164800656225896"><ele>266.0</ele><time>2026-05-03T07:22:34Z</time></trkpt><trkpt lat="50.12794510202459" lon="16.16443871615754"><ele>266.0</ele><time>2026-05-03T07:22:35Z</time></trkpt><trkpt lat="50.12790444052549" lon="16.164061713770796"><ele>265.5</ele><time>2026-05-03T07:22:36Z</time></trkpt><trkpt lat="50.127872125730946" lon="16.16366625402555"><ele>265.0</ele><time>2026-05-03T07:22:37Z</time></trkpt><trkpt lat="50.12785670011254" lon="16.163305029002103"><ele>264.5</ele><time>2026-05-03T07:22:38Z</time></trkpt><trkpt lat="50.127851963848066" lon="16.162872108093975"><ele>264.0</ele><time>2026-05-03T07:22:39Z</time></trkpt><trkpt lat="50.12784052139387" lon="16.162358664349682"><ele>263.5</ele><time>2026-05-03T07:22:40Z</time></trkpt><trkpt lat="50.12782823566795" lon="16.161807381386204"><ele>263.0</ele><time>2026-05-03T07:22:41Z</time></trkpt><trkpt lat="50.12780725638275" lon="16.161214624357985"><ele>262.5</ele><time>2026-05-03T07:22:42Z</time></trkpt><trkpt lat="50.12779847362805" lon="16.160577836693896"><ele>262.0</ele><time>2026-05-03T07:22:43Z</time></trkpt><trkpt lat="50.12779567250008" lon="16.159910875293615"><ele>262.0</ele><time>2026-05-03T07:22:44Z</time></trkpt><trkpt lat="50.127792179664496" lon="16.15921551398639"><ele>262.0</ele><time>2026-05-03T07:22:45Z</time></trkpt><trkpt lat="50.127785548182864" lon="16.158485501993784"><ele>261.0</ele><time>2026-05-03T07:22:46Z</time></trkpt><trkpt lat="50.12777920303359" lon="16.157743442539456"><ele>262.0</ele><time>2026-05-03T07:22:47Z</time></trkpt><trkpt lat="50.12776784973612" lon="16.156989564862187"><ele>262.0</ele><time>2026-05-03T07:22:48Z</time></trkpt><trkpt lat="50.127758146674" lon="16.15622662108916"><ele>262.0</ele><time>2026-05-03T07:22:49Z</time></trkpt><trkpt lat="50.127752402366376" lon="16.155448730662194"><ele>262.0</ele><time>2026-05-03T07:22:50Z</time></trkpt><trkpt lat="50.12774077059142" lon="16.15465948975356"><ele>261.0</ele><time>2026-05-03T07:22:51Z</time></trkpt><trkpt lat="50.127727483106355" lon="16.15386198198742"><ele>261.0</ele><time>2026-05-03T07:22:52Z</time></trkpt><trkpt lat="50.127718157660915" lon="16.153060586043342"><ele>261.0</ele><time>2026-05-03T07:22:53Z</time></trkpt><trkpt lat="50.1277123066951" lon="16.15226185239504"><ele>261.0</ele><time>2026-05-03T07:22:54Z</time></trkpt><trkpt lat="50.12769733019407" lon="16.151558492453557"><ele>260.5</ele><time>2026-05-03T07:22:55Z</time></trkpt><trkpt lat="50.12768518193733" lon="16.150923023134542"><ele>260.0</ele><time>2026-05-03T07:22:56Z</time></trkpt><trkpt lat="50.12767601839368" lon="16.15034454052971"><ele>260.0</ele><time>2026-05-03T07:22:57Z</time></trkpt><trkpt lat="50.127668983093265" lon="16.149814361358757"><ele>260.0</ele><time>2026-05-03T07:22:58Z</time></trkpt><trkpt lat="50.1276639579196" lon="16.149318691866284"><ele>260.0</ele><time>2026-05-03T07:22:59Z</time></trkpt><trkpt lat="50.12766094678828" lon="16.148854627575155"><ele>260.0</ele><time>2026-05-03T07:23:00Z</time></trkpt><trkpt lat="50.12765575970421" lon="16.148444153481808"><ele>260.33333333333337</ele><time>2026-05-03T07:23:01Z</time></trkpt><trkpt lat="50.12765024821107" lon="16.14806929145769"><ele>260.6666666666667</ele><time>2026-05-03T07:23:02Z</time></trkpt><trkpt lat="50.12764748596237" lon="16.14774827785254"><ele>261.0</ele><time>2026-05-03T07:23:03Z</time></trkpt><trkpt lat="50.127649021900616" lon="16.14741697918421"><ele>261.0</ele><time>2026-05-03T07:23:04Z</time></trkpt><trkpt lat="50.12765109610969" lon="16.14710275419952"><ele>261.0</ele><time>2026-05-03T07:23:05Z</time></trkpt><trkpt lat="50.127655212654865" lon="16.146799105021948"><ele>261.0</ele><time>2026-05-03T07:23:06Z</time></trkpt><trkpt lat="50.127666121563536" lon="16.146493164515515"><ele>261.0</ele><time>2026-05-03T07:23:07Z</time></trkpt><trkpt lat="50.127678083653244" lon="16.146219234339025"><ele>261.0</ele><time>2026-05-03T07:23:08Z</time></trkpt><trkpt lat="50.12768505393444" lon="16.145974303249023"><ele>261.0</ele><time>2026-05-03T07:23:09Z</time></trkpt><trkpt lat="50.12770293437767" lon="16.14572475559179"><ele>261.0</ele><time>2026-05-03T07:23:10Z</time></trkpt><trkpt lat="50.127730049405876" lon="16.145459530188845"><ele>261.0</ele><time>2026-05-03T07:23:11Z</time></trkpt><trkpt lat="50.127765121973766" lon="16.145185191362728"><ele>261.0</ele><time>2026-05-03T07:23:12Z</time></trkpt><trkpt lat="50.127800582100136" lon="16.14493236859127"><ele>261.0</ele><time>2026-05-03T07:23:13Z</time></trkpt><trkpt lat="50.1278291394957" lon="16.144688600842954"><ele>261.0</ele><time>2026-05-03T07:23:14Z</time></trkpt><trkpt lat="50.12785709511465" lon="16.14443768134928"><ele>261.0</ele><time>2026-05-03T07:23:15Z</time></trkpt><trkpt lat="50.127884311315924" lon="16.14420679278142"><ele>260.5</ele><time>2026-05-03T07:23:16Z</time></trkpt><trkpt lat="50.12790501521443" lon="16.143987585697044"><ele>260.0</ele><time>2026-05-03T07:23:17Z</time></trkpt><trkpt lat="50.12792658091264" lon="16.143788961914034"><ele>259.5</ele><time>2026-05-03T07:23:18Z</time></trkpt><trkpt lat="50.12795266513638" lon="16.143622439577964"><ele>259.0</ele><time>2026-05-03T07:23:19Z</time></trkpt><trkpt lat="50.127985261703685" lon="16.143465187093984"><ele>259.0</ele><time>2026-05-03T07:23:20Z</time></trkpt><trkpt lat="50.1280380627719" lon="16.14331847018403"><ele>259.0</ele><time>2026-05-03T07:23:21Z</time></trkpt><trkpt lat="50.128101846613816" lon="16.143197935434586"><ele>259.0</ele><time>2026-05-03T07:23:22Z</time></trkpt><trkpt lat="50.12813070892382" lon="16.143068496227322"><ele>259.0</ele><time>2026-05-03T07:23:23Z</time></trkpt><trkpt lat="50.12811858982597" lon="16.142903474397066"><ele>259.0</ele><time>2026-05-03T07:23:24Z</time></trkpt><trkpt lat="50.12810264348405" lon="16.142708963320533"><ele>259.0</ele><time>2026-05-03T07:23:25Z</time></trkpt><trkpt lat="50.12811737173834" lon="16.1424677354873"><ele>259.0</ele><time>2026-05-03T07:23:26Z</time></trkpt><trkpt lat="50.12815685256864" lon="16.142181325633032"><ele>259.0</ele><time>2026-05-03T07:23:27Z</time></trkpt><trkpt lat="50.128208516311695" lon="16.14185572011397"><ele>260.0</ele><time>2026-05-03T07:23:28Z</time></trkpt><trkpt lat="50.12826229609757" lon="16.14148769576395"><ele>261.0</ele><time>2026-05-03T07:23:29Z</time></trkpt><trkpt lat="50.12831838165784" lon="16.141076655429973"><ele>261.0</ele><time>2026-05-03T07:23:30Z</time></trkpt><trkpt lat="50.128382413101555" lon="16.14063488220626"><ele>261.0</ele><time>2026-05-03T07:23:31Z</time></trkpt><trkpt lat="50.1284474453136" lon="16.1401609153572"><ele>260.5</ele><time>2026-05-03T07:23:32Z</time></trkpt><trkpt lat="50.12852063467034" lon="16.139660864891493"><ele>260.0</ele><time>2026-05-03T07:23:33Z</time></trkpt><trkpt lat="50.128592945727796" lon="16.13915388239536"><ele>259.5</ele><time>2026-05-03T07:23:34Z</time></trkpt><trkpt lat="50.12866576947993" lon="16.138628229243928"><ele>259.0</ele><time>2026-05-03T07:23:35Z</time></trkpt><trkpt lat="50.128740870901225" lon="16.13806903770298"><ele>259.0</ele><time>2026-05-03T07:23:36Z</time></trkpt><trkpt lat="50.12882476894081" lon="16.137465345575563"><ele>259.0</ele><time>2026-05-03T07:23:37Z</time></trkpt><trkpt lat="50.12891225202395" lon="16.136818688671106"><ele>259.0</ele><time>2026-05-03T07:23:38Z</time></trkpt><trkpt lat="50.12900282011768" lon="16.13615497740636"><ele>259.0</ele><time>2026-05-03T07:23:39Z</time></trkpt><trkpt lat="50.12909666437892" lon="16.135468780182784"><ele>261.5</ele><time>2026-05-03T07:23:40Z</time></trkpt><trkpt lat="50.12918858118809" lon="16.13479823058116"><ele>264.0</ele><time>2026-05-03T07:23:41Z</time></trkpt><trkpt lat="50.12926982719769" lon="16.134195348931737"><ele>262.5</ele><time>2026-05-03T07:23:42Z</time></trkpt><trkpt lat="50.12934479364635" lon="16.133650015492403"><ele>261.0</ele><time>2026-05-03T07:23:43Z</time></trkpt><trkpt lat="50.12941896022072" lon="16.133137613302267"><ele>260.5</ele><time>2026-05-03T07:23:44Z</time></trkpt><trkpt lat="50.12949007400481" lon="16.132630714741577"><ele>260.0</ele><time>2026-05-03T07:23:45Z</time></trkpt><trkpt lat="50.1295595360337" lon="16.13211968007497"><ele>259.5</ele><time>2026-05-03T07:23:46Z</time></trkpt><trkpt lat="50.12962883306954" lon="16.13160971479825"><ele>259.0</ele><time>2026-05-03T07:23:47Z</time></trkpt><trkpt lat="50.12970008560963" lon="16.131111558141303"><ele>259.0</ele><time>2026-05-03T07:23:48Z</time></trkpt><trkpt lat="50.12976948258547" lon="16.130639908871533"><ele>259.0</ele><time>2026-05-03T07:23:49Z</time></trkpt><trkpt lat="50.12983180081149" lon="16.13018309179842"><ele>260.0</ele><time>2026-05-03T07:23:50Z</time></trkpt><trkpt lat="50.12989562745653" lon="16.129704618199032"><ele>261.0</ele><time>2026-05-03T07:23:51Z</time></trkpt><trkpt lat="50.12996309430215" lon="16.12918660000501"><ele>261.5</ele><time>2026-05-03T07:23:52Z</time></trkpt><trkpt lat="50.13002876878437" lon="16.128633632976463"><ele>262.0</ele><time>2026-05-03T07:23:53Z</time></trkpt><trkpt lat="50.130108772891546" lon="16.128065379288664"><ele>262.0</ele><time>2026-05-03T07:23:54Z</time></trkpt><trkpt lat="50.13019973016534" lon="16.127481428160994"><ele>262.0</ele><time>2026-05-03T07:23:55Z</time></trkpt><trkpt lat="50.130296520745276" lon="16.12687499759355"><ele>260.5</ele><time>2026-05-03T07:23:56Z</time></trkpt><trkpt lat="50.13039120561958" lon="16.126246643602972"><ele>259.0</ele><time>2026-05-03T07:23:57Z</time></trkpt><trkpt lat="50.13047602417239" lon="16.1256287459559"><ele>258.5</ele><time>2026-05-03T07:23:58Z</time></trkpt><trkpt lat="50.1305474011977" lon="16.12507431777276"><ele>258.0</ele><time>2026-05-03T07:23:59Z</time></trkpt><trkpt lat="50.13061805321025" lon="16.124569584755264"><ele>258.0</ele><time>2026-05-03T07:24:00Z</time></trkpt><trkpt lat="50.13068566674965" lon="16.124097040287417"><ele>258.0</ele><time>2026-05-03T07:24:01Z</time></trkpt><trkpt lat="50.13074769147118" lon="16.12364249351608"><ele>258.0</ele><time>2026-05-03T07:24:02Z</time></trkpt><trkpt lat="50.13080887766433" lon="16.123203743893605"><ele>258.0</ele><time>2026-05-03T07:24:03Z</time></trkpt><trkpt lat="50.13087134284148" lon="16.122759626346895"><ele>258.0</ele><time>2026-05-03T07:24:04Z</time></trkpt><trkpt lat="50.13093140267992" lon="16.122331306000724"><ele>258.0</ele><time>2026-05-03T07:24:05Z</time></trkpt><trkpt lat="50.13098510686522" lon="16.121940124108477"><ele>258.0</ele><time>2026-05-03T07:24:06Z</time></trkpt><trkpt lat="50.131033939078286" lon="16.121574664369312"><ele>258.0</ele><time>2026-05-03T07:24:07Z</time></trkpt><trkpt lat="50.13108836460888" lon="16.121220758910685"><ele>257.0</ele><time>2026-05-03T07:24:08Z</time></trkpt><trkpt lat="50.131150711277044" lon="16.120870016867787"><ele>256.0</ele><time>2026-05-03T07:24:09Z</time></trkpt><trkpt lat="50.1312230584085" lon="16.120520966890467"><ele>256.0</ele><time>2026-05-03T07:24:10Z</time></trkpt><trkpt lat="50.1313054793297" lon="16.120176570952996"><ele>256.0</ele><time>2026-05-03T07:24:11Z</time></trkpt><trkpt lat="50.131398268670374" lon="16.119842661764103"><ele>256.0</ele><time>2026-05-03T07:24:12Z</time></trkpt><trkpt lat="50.13150800902545" lon="16.119504709840964"><ele>256.0</ele><time>2026-05-03T07:24:13Z</time></trkpt><trkpt lat="50.13163500536029" lon="16.119152990839368"><ele>257.0</ele><time>2026-05-03T07:24:14Z</time></trkpt><trkpt lat="50.13178610396642" lon="16.11882351438255"><ele>258.0</ele><time>2026-05-03T07:24:15Z</time></trkpt><trkpt lat="50.1319469862704" lon="16.11844310297079"><ele>258.5</ele><time>2026-05-03T07:24:16Z</time></trkpt><trkpt lat="50.1321117549087" lon="16.11800326590064"><ele>259.0</ele><time>2026-05-03T07:24:17Z</time></trkpt><trkpt lat="50.1323153421263" lon="16.11756140050417"><ele>258.5</ele><time>2026-05-03T07:24:18Z</time></trkpt><trkpt lat="50.13252277108415" lon="16.117084536526292"><ele>258.0</ele><time>2026-05-03T07:24:19Z</time></trkpt><trkpt lat="50.13273371757733" lon="16.116574320095506"><ele>257.0</ele><time>2026-05-03T07:24:20Z</time></trkpt><trkpt lat="50.13296329438746" lon="16.116073050724378"><ele>256.0</ele><time>2026-05-03T07:24:21Z</time></trkpt><trkpt lat="50.13318388369938" lon="16.11556926246141"><ele>256.0</ele><time>2026-05-03T07:24:22Z</time></trkpt><trkpt lat="50.13339306924892" lon="16.115088421701238"><ele>256.0</ele><time>2026-05-03T07:24:23Z</time></trkpt><trkpt lat="50.13357933322442" lon="16.114658742410516"><ele>255.0</ele><time>2026-05-03T07:24:24.001Z</time></trkpt><trkpt lat="50.13375080902463" lon="16.11426342771083"><ele>254.0</ele><time>2026-05-03T07:24:25.001Z</time></trkpt><trkpt lat="50.13390611986571" lon="16.113908396490874"><ele>254.0</ele><time>2026-05-03T07:24:26.001Z</time></trkpt><trkpt lat="50.13405061763582" lon="16.113576564164244"><ele>254.0</ele><time>2026-05-03T07:24:27.001Z</time></trkpt><trkpt lat="50.13418450894472" lon="16.113269190318025"><ele>254.5</ele><time>2026-05-03T07:24:28.001Z</time></trkpt><trkpt lat="50.134317474934505" lon="16.112963324552002"><ele>255.0</ele><time>2026-05-03T07:24:29.001Z</time></trkpt><trkpt lat="50.134466893872485" lon="16.112616562576374"><ele>254.5</ele><time>2026-05-03T07:24:30.001Z</time></trkpt><trkpt lat="50.13464486060801" lon="16.11221259330457"><ele>254.0</ele><time>2026-05-03T07:24:31.001Z</time></trkpt><trkpt lat="50.1348375086054" lon="16.111770458032147"><ele>254.0</ele><time>2026-05-03T07:24:32.001Z</time></trkpt><trkpt lat="50.13503929545919" lon="16.11130990480074"><ele>254.0</ele><time>2026-05-03T07:24:33.001Z</time></trkpt><trkpt lat="50.13523724388414" lon="16.110826109264284"><ele>253.5</ele><time>2026-05-03T07:24:34.001Z</time></trkpt><trkpt lat="50.13545620140814" lon="16.110332649820673"><ele>253.0</ele><time>2026-05-03T07:24:35.001Z</time></trkpt><trkpt lat="50.135682935042546" lon="16.109811434831407"><ele>253.0</ele><time>2026-05-03T07:24:36.001Z</time></trkpt><trkpt lat="50.135918647517414" lon="16.109261435023452"><ele>253.0</ele><time>2026-05-03T07:24:37.001Z</time></trkpt><trkpt lat="50.13616350771345" lon="16.10869096103731"><ele>253.0</ele><time>2026-05-03T07:24:38.001Z</time></trkpt><trkpt lat="50.13641602340461" lon="16.108109322505204"><ele>253.0</ele><time>2026-05-03T07:24:39.001Z</time></trkpt><trkpt lat="50.136651067984054" lon="16.107569837858737"><ele>253.0</ele><time>2026-05-03T07:24:40.001Z</time></trkpt><trkpt lat="50.136859555368396" lon="16.107086566531986"><ele>253.0</ele><time>2026-05-03T07:24:41.001Z</time></trkpt><trkpt lat="50.13705320809897" lon="16.106642613653875"><ele>253.0</ele><time>2026-05-03T07:24:42.001Z</time></trkpt><trkpt lat="50.137233676432984" lon="16.10622786431399"><ele>253.0</ele><time>2026-05-03T07:24:43.001Z</time></trkpt><trkpt lat="50.1374056644388" lon="16.10583524483"><ele>253.0</ele><time>2026-05-03T07:24:44.001Z</time></trkpt><trkpt lat="50.13756514947511" lon="16.10547435718771"><ele>252.0</ele><time>2026-05-03T07:24:45.001Z</time></trkpt><trkpt lat="50.13771132031549" lon="16.105142484533143"><ele>251.0</ele><time>2026-05-03T07:24:46.001Z</time></trkpt><trkpt lat="50.13784483021279" lon="16.104832792267853"><ele>251.0</ele><time>2026-05-03T07:24:47.001Z</time></trkpt><trkpt lat="50.13796376641349" lon="16.104541081078175"><ele>251.0</ele><time>2026-05-03T07:24:48.001Z</time></trkpt><trkpt lat="50.13807246583175" lon="16.104264889093177"><ele>251.0</ele><time>2026-05-03T07:24:49.001Z</time></trkpt><trkpt lat="50.138173316337166" lon="16.104008773820894"><ele>252.0</ele><time>2026-05-03T07:24:50.001Z</time></trkpt><trkpt lat="50.13826478551874" lon="16.103759853356806"><ele>253.0</ele><time>2026-05-03T07:24:51.001Z</time></trkpt><trkpt lat="50.13834882584641" lon="16.103514883345788"><ele>254.0</ele><time>2026-05-03T07:24:52.001Z</time></trkpt><trkpt lat="50.13843477025961" lon="16.103270921894367"><ele>253.33333333333334</ele><time>2026-05-03T07:24:53.001Z</time></trkpt><trkpt lat="50.138519387401374" lon="16.103020434865787"><ele>252.66666666666669</ele><time>2026-05-03T07:24:54.001Z</time></trkpt><trkpt lat="50.13860731800952" lon="16.102771694336013"><ele>252.0</ele><time>2026-05-03T07:24:55.001Z</time></trkpt><trkpt lat="50.13869156071091" lon="16.10252503342603"><ele>252.0</ele><time>2026-05-03T07:24:56.001Z</time></trkpt><trkpt lat="50.13876828516815" lon="16.102297846740598"><ele>252.0</ele><time>2026-05-03T07:24:57Z</time></trkpt><trkpt lat="50.13883618035305" lon="16.102084907922148"><ele>252.0</ele><time>2026-05-03T07:24:58Z</time></trkpt><trkpt lat="50.13889746160271" lon="16.10188337481448"><ele>252.0</ele><time>2026-05-03T07:24:59Z</time></trkpt><trkpt lat="50.13897307591956" lon="16.101685004024873"><ele>252.0</ele><time>2026-05-03T07:25:00Z</time></trkpt><trkpt lat="50.13904259217823" lon="16.101478625635437"><ele>252.0</ele><time>2026-05-03T07:25:01Z</time></trkpt><trkpt lat="50.139125071796286" lon="16.101280526906145"><ele>252.0</ele><time>2026-05-03T07:25:02Z</time></trkpt><trkpt lat="50.13919406635595" lon="16.101071882549615"><ele>252.25</ele><time>2026-05-03T07:25:03Z</time></trkpt><trkpt lat="50.139251046051825" lon="16.100846296686566"><ele>252.5</ele><time>2026-05-03T07:25:04Z</time></trkpt><trkpt lat="50.139312774448186" lon="16.100642768141654"><ele>252.75</ele><time>2026-05-03T07:25:05Z</time></trkpt><trkpt lat="50.13937650872124" lon="16.100457666205006"><ele>253.0</ele><time>2026-05-03T07:25:06Z</time></trkpt><trkpt lat="50.13943459912442" lon="16.10027876188818"><ele>253.0</ele><time>2026-05-03T07:25:07Z</time></trkpt><trkpt lat="50.139492809186116" lon="16.100103219093608"><ele>253.0</ele><time>2026-05-03T07:25:08Z</time></trkpt><trkpt lat="50.13955147502549" lon="16.099943154528347"><ele>253.0</ele><time>2026-05-03T07:25:09Z</time></trkpt><trkpt lat="50.13960412503378" lon="16.099785374571756"><ele>253.0</ele><time>2026-05-03T07:25:10Z</time></trkpt><trkpt lat="50.139653039559256" lon="16.099618896947124"><ele>253.0</ele><time>2026-05-03T07:25:11Z</time></trkpt><trkpt lat="50.139723674481814" lon="16.09940680620478"><ele>253.0</ele><time>2026-05-03T07:25:12Z</time></trkpt><trkpt lat="50.13984352570976" lon="16.099081813183297"><ele>253.0</ele><time>2026-05-03T07:25:13Z</time></trkpt><trkpt lat="50.13996897191827" lon="16.09869178890549"><ele>253.0</ele><time>2026-05-03T07:25:14Z</time></trkpt><trkpt lat="50.14011113608775" lon="16.098254765505192"><ele>253.0</ele><time>2026-05-03T07:25:15Z</time></trkpt><trkpt lat="50.140270324074976" lon="16.097774913724322"><ele>253.5</ele><time>2026-05-03T07:25:16Z</time></trkpt><trkpt lat="50.140442779312416" lon="16.097268943554386"><ele>254.0</ele><time>2026-05-03T07:25:17Z</time></trkpt><trkpt lat="50.14062409232921" lon="16.09673793992543"><ele>253.0</ele><time>2026-05-03T07:25:18Z</time></trkpt><trkpt lat="50.14079413325683" lon="16.096219056823735"><ele>252.0</ele><time>2026-05-03T07:25:19Z</time></trkpt><trkpt lat="50.140941834428055" lon="16.09578818706345"><ele>252.0</ele><time>2026-05-03T07:25:20Z</time></trkpt><trkpt lat="50.14109046060975" lon="16.09534587665797"><ele>252.0</ele><time>2026-05-03T07:25:21Z</time></trkpt><trkpt lat="50.14124314864172" lon="16.094895449586215"><ele>251.5</ele><time>2026-05-03T07:25:22Z</time></trkpt><trkpt lat="50.141382669924525" lon="16.09448883632246"><ele>251.0</ele><time>2026-05-03T07:25:22.999Z</time></trkpt><trkpt lat="50.14151995622101" lon="16.094072247037918"><ele>250.5</ele><time>2026-05-03T07:25:23.999Z</time></trkpt><trkpt lat="50.1416706328059" lon="16.09360118919464"><ele>250.0</ele><time>2026-05-03T07:25:24.999Z</time></trkpt><trkpt lat="50.141843318657486" lon="16.093096672208542"><ele>250.0</ele><time>2026-05-03T07:25:25.999Z</time></trkpt><trkpt lat="50.14202770008767" lon="16.092578722352034"><ele>250.0</ele><time>2026-05-03T07:25:26.999Z</time></trkpt><trkpt lat="50.142217448833385" lon="16.092019145645697"><ele>251.0</ele><time>2026-05-03T07:25:27.999Z</time></trkpt><trkpt lat="50.14240930370751" lon="16.091435721898062"><ele>252.0</ele><time>2026-05-03T07:25:28.999Z</time></trkpt><trkpt lat="50.142579626442554" lon="16.090929661567433"><ele>252.0</ele><time>2026-05-03T07:25:29.999Z</time></trkpt><trkpt lat="50.14272761280473" lon="16.09048204945883"><ele>252.0</ele><time>2026-05-03T07:25:30.999Z</time></trkpt><trkpt lat="50.14286118946004" lon="16.090049772501345"><ele>252.0</ele><time>2026-05-03T07:25:31.999Z</time></trkpt><trkpt lat="50.142993818220866" lon="16.089587577046384"><ele>252.0</ele><time>2026-05-03T07:25:32.999Z</time></trkpt><trkpt lat="50.143118682628575" lon="16.08912228533347"><ele>252.5</ele><time>2026-05-03T07:25:33.999Z</time></trkpt><trkpt lat="50.14322853146546" lon="16.088679678121245"><ele>253.0</ele><time>2026-05-03T07:25:34.999Z</time></trkpt><trkpt lat="50.143333505470196" lon="16.088228463809205"><ele>253.0</ele><time>2026-05-03T07:25:35.999Z</time></trkpt><trkpt lat="50.143429204964306" lon="16.087776917727737"><ele>253.0</ele><time>2026-05-03T07:25:36.999Z</time></trkpt><trkpt lat="50.143508474418205" lon="16.087337500541175"><ele>252.0</ele><time>2026-05-03T07:25:37.999Z</time></trkpt><trkpt lat="50.14356714640911" lon="16.086917038413056"><ele>251.0</ele><time>2026-05-03T07:25:38.999Z</time></trkpt><trkpt lat="50.14360941436462" lon="16.08650344138599"><ele>250.5</ele><time>2026-05-03T07:25:39.999Z</time></trkpt><trkpt lat="50.14365063513116" lon="16.086105384597385"><ele>250.0</ele><time>2026-05-03T07:25:40.999Z</time></trkpt><trkpt lat="50.14368586412193" lon="16.085741732461987"><ele>250.0</ele><time>2026-05-03T07:25:41.999Z</time></trkpt><trkpt lat="50.14371250403378" lon="16.085399089594183"><ele>250.0</ele><time>2026-05-03T07:25:42.999Z</time></trkpt><trkpt lat="50.143729137761966" lon="16.085073471348196"><ele>250.0</ele><time>2026-05-03T07:25:43.999Z</time></trkpt><trkpt lat="50.14374179659545" lon="16.084745484840575"><ele>250.5</ele><time>2026-05-03T07:25:44.999Z</time></trkpt><trkpt lat="50.143749915544056" lon="16.084409535037775"><ele>251.0</ele><time>2026-05-03T07:25:45.999Z</time></trkpt><trkpt lat="50.143775335902106" lon="16.08400688728179"><ele>250.0</ele><time>2026-05-03T07:25:46.999Z</time></trkpt><trkpt lat="50.14377525606869" lon="16.08352750765624"><ele>249.0</ele><time>2026-05-03T07:25:47.999Z</time></trkpt><trkpt lat="50.14375040447993" lon="16.083017027468006"><ele>249.0</ele><time>2026-05-03T07:25:48.999Z</time></trkpt><trkpt lat="50.143750672850864" lon="16.08246035538937"><ele>249.0</ele><time>2026-05-03T07:25:49.999Z</time></trkpt><trkpt lat="50.14373038896854" lon="16.08186375369154"><ele>249.5</ele><time>2026-05-03T07:25:50.999Z</time></trkpt><trkpt lat="50.14370259148945" lon="16.081255451996608"><ele>250.0</ele><time>2026-05-03T07:25:51.999Z</time></trkpt><trkpt lat="50.14367637311194" lon="16.080706940801225"><ele>250.0</ele><time>2026-05-03T07:25:52.999Z</time></trkpt><trkpt lat="50.14365815388583" lon="16.08026922109695"><ele>250.0</ele><time>2026-05-03T07:25:53.999Z</time></trkpt><trkpt lat="50.143630459953854" lon="16.079606141271956"><ele>250.0</ele><time>2026-05-03T07:25:54.999Z</time></trkpt><trkpt lat="50.14361799875834" lon="16.079165808483538"><ele>250.0</ele><time>2026-05-03T07:25:55.999Z</time></trkpt><trkpt lat="50.14361877153168" lon="16.07875429359633"><ele>250.0</ele><time>2026-05-03T07:25:56.999Z</time></trkpt><trkpt lat="50.14362265821988" lon="16.078357890616523"><ele>250.0</ele><time>2026-05-03T07:25:57.999Z</time></trkpt><trkpt lat="50.143635320389215" lon="16.0779621756936"><ele>250.0</ele><time>2026-05-03T07:25:58.999Z</time></trkpt><trkpt lat="50.14366056562188" lon="16.077599701087408"><ele>250.0</ele><time>2026-05-03T07:25:59.999Z</time></trkpt><trkpt lat="50.14369177953618" lon="16.077260316810754"><ele>250.0</ele><time>2026-05-03T07:26:00.999Z</time></trkpt><trkpt lat="50.143735669640584" lon="16.07689242707766"><ele>250.0</ele><time>2026-05-03T07:26:01.999Z</time></trkpt><trkpt lat="50.143786268704396" lon="16.076531900563864"><ele>249.5</ele><time>2026-05-03T07:26:02.999Z</time></trkpt><trkpt lat="50.14384532421744" lon="16.076180258371426"><ele>249.0</ele><time>2026-05-03T07:26:03.999Z</time></trkpt><trkpt lat="50.14391917295559" lon="16.075815422324133"><ele>249.0</ele><time>2026-05-03T07:26:04.999Z</time></trkpt><trkpt lat="50.144001077418885" lon="16.075453764575574"><ele>249.0</ele><time>2026-05-03T07:26:05.999Z</time></trkpt><trkpt lat="50.14409193183723" lon="16.075093194147126"><ele>249.5</ele><time>2026-05-03T07:26:06.999Z</time></trkpt><trkpt lat="50.144188402327366" lon="16.074747860137517"><ele>250.0</ele><time>2026-05-03T07:26:07.999Z</time></trkpt><trkpt lat="50.14429965740959" lon="16.07440651901348"><ele>249.0</ele><time>2026-05-03T07:26:08.999Z</time></trkpt><trkpt lat="50.144416751763714" lon="16.07406554854303"><ele>248.0</ele><time>2026-05-03T07:26:09.999Z</time></trkpt><trkpt lat="50.1445484588723" lon="16.073735511755764"><ele>248.0</ele><time>2026-05-03T07:26:10.999Z</time></trkpt><trkpt lat="50.14468915759114" lon="16.073411474173433"><ele>248.0</ele><time>2026-05-03T07:26:11.999Z</time></trkpt><trkpt lat="50.14483934872404" lon="16.07309717645354"><ele>248.5</ele><time>2026-05-03T07:26:12.999Z</time></trkpt><trkpt lat="50.14499298724431" lon="16.072801384426775"><ele>249.0</ele><time>2026-05-03T07:26:13.999Z</time></trkpt><trkpt lat="50.14514926060242" lon="16.07252609434318"><ele>248.66666666666669</ele><time>2026-05-03T07:26:14.999Z</time></trkpt><trkpt lat="50.145306378595684" lon="16.072271934915772"><ele>248.33333333333334</ele><time>2026-05-03T07:26:15.999Z</time></trkpt><trkpt lat="50.145454140314044" lon="16.072046714282198"><ele>248.0</ele><time>2026-05-03T07:26:16.999Z</time></trkpt><trkpt lat="50.145609253444746" lon="16.071825500556585"><ele>248.33333333333334</ele><time>2026-05-03T07:26:17.999Z</time></trkpt><trkpt lat="50.145780314037715" lon="16.071597039711417"><ele>248.66666666666669</ele><time>2026-05-03T07:26:18.999Z</time></trkpt><trkpt lat="50.14594682622062" lon="16.07140024176583"><ele>249.0</ele><time>2026-05-03T07:26:19.999Z</time></trkpt><trkpt lat="50.146108916007876" lon="16.071216792896053"><ele>249.0</ele><time>2026-05-03T07:26:20.999Z</time></trkpt><trkpt lat="50.146267344701634" lon="16.0710476942718"><ele>249.0</ele><time>2026-05-03T07:26:21.999Z</time></trkpt><trkpt lat="50.14641334783614" lon="16.07090889292846"><ele>249.0</ele><time>2026-05-03T07:26:22.999Z</time></trkpt><trkpt lat="50.14654883591513" lon="16.070782012286188"><ele>248.75</ele><time>2026-05-03T07:26:23.999Z</time></trkpt><trkpt lat="50.14667214970239" lon="16.070675534709572"><ele>248.5</ele><time>2026-05-03T07:26:24.999Z</time></trkpt><trkpt lat="50.14679693498704" lon="16.070573514606707"><ele>248.25</ele><time>2026-05-03T07:26:25.999Z</time></trkpt><trkpt lat="50.14691818920546" lon="16.070450415948958"><ele>248.0</ele><time>2026-05-03T07:26:26.999Z</time></trkpt><trkpt lat="50.14705570621452" lon="16.07037780432955"><ele>248.0</ele><time>2026-05-03T07:26:27.999Z</time></trkpt><trkpt lat="50.14718551363863" lon="16.07029248819984"><ele>248.0</ele><time>2026-05-03T07:26:28.999Z</time></trkpt><trkpt lat="50.14730300557249" lon="16.070218390041372"><ele>248.0</ele><time>2026-05-03T07:26:30Z</time></trkpt><trkpt lat="50.14740945887331" lon="16.070153171613953"><ele>248.0</ele><time>2026-05-03T07:26:31Z</time></trkpt><trkpt lat="50.147500387059836" lon="16.070085680132074"><ele>248.0</ele><time>2026-05-03T07:26:32Z</time></trkpt><trkpt lat="50.147591715036256" lon="16.07003550747922"><ele>248.0</ele><time>2026-05-03T07:26:33Z</time></trkpt><trkpt lat="50.14768156496625" lon="16.06999188834235"><ele>248.0</ele><time>2026-05-03T07:26:34Z</time></trkpt><trkpt lat="50.14777161932994" lon="16.069951332806784"><ele>248.0</ele><time>2026-05-03T07:26:35Z</time></trkpt><trkpt lat="50.1478608861856" lon="16.069910077022836"><ele>248.0</ele><time>2026-05-03T07:26:36Z</time></trkpt><trkpt lat="50.147953055513085" lon="16.06986573740502"><ele>248.0</ele><time>2026-05-03T07:26:37Z</time></trkpt><trkpt lat="50.14804441773066" lon="16.06982881160212"><ele>248.0</ele><time>2026-05-03T07:26:38Z</time></trkpt><trkpt lat="50.14812971727631" lon="16.069819909950432"><ele>248.0</ele><time>2026-05-03T07:26:39Z</time></trkpt><trkpt lat="50.14821163284746" lon="16.069831907034743"><ele>248.0</ele><time>2026-05-03T07:26:40Z</time></trkpt><trkpt lat="50.14828558072935" lon="16.069871011644803"><ele>248.0</ele><time>2026-05-03T07:26:41Z</time></trkpt><trkpt lat="50.148404001138985" lon="16.069861593986914"><ele>248.4</ele><time>2026-05-03T07:26:43Z</time></trkpt><trkpt lat="50.14846255861591" lon="16.069790699674627"><ele>248.8</ele><time>2026-05-03T07:26:44Z</time></trkpt><trkpt lat="50.148532525176456" lon="16.069692058241788"><ele>249.2</ele><time>2026-05-03T07:26:45Z</time></trkpt><trkpt lat="50.1486212931959" lon="16.06962453148785"><ele>249.6</ele><time>2026-05-03T07:26:46Z</time></trkpt><trkpt lat="50.14874035095183" lon="16.069589813794042"><ele>250.0</ele><time>2026-05-03T07:26:47Z</time></trkpt><trkpt lat="50.14889389413263" lon="16.069549404132427"><ele>250.66666666666666</ele><time>2026-05-03T07:26:48Z</time></trkpt><trkpt lat="50.14909428268489" lon="16.0694855723761"><ele>251.33333333333331</ele><time>2026-05-03T07:26:49Z</time></trkpt><trkpt lat="50.14932391988172" lon="16.06943077872906"><ele>252.0</ele><time>2026-05-03T07:26:50Z</time></trkpt><trkpt lat="50.14959179256408" lon="16.0693699824001"><ele>250.0</ele><time>2026-05-03T07:26:51Z</time></trkpt><trkpt lat="50.14990110545587" lon="16.069284754215143"><ele>248.0</ele><time>2026-05-03T07:26:52Z</time></trkpt><trkpt lat="50.15025117126723" lon="16.06917405612907"><ele>247.0</ele><time>2026-05-03T07:26:53Z</time></trkpt><trkpt lat="50.150627767049514" lon="16.0690444812195"><ele>246.0</ele><time>2026-05-03T07:26:54Z</time></trkpt><trkpt lat="50.15102844935245" lon="16.068900797871123"><ele>246.0</ele><time>2026-05-03T07:26:55Z</time></trkpt><trkpt lat="50.15144207809656" lon="16.068736911999103"><ele>246.0</ele><time>2026-05-03T07:26:56Z</time></trkpt><trkpt lat="50.151866206703076" lon="16.068556226493584"><ele>246.0</ele><time>2026-05-03T07:26:57Z</time></trkpt><trkpt lat="50.152282183110195" lon="16.06835305119436"><ele>246.0</ele><time>2026-05-03T07:26:58Z</time></trkpt><trkpt lat="50.15268980245964" lon="16.068131167670806"><ele>245.5</ele><time>2026-05-03T07:26:59Z</time></trkpt><trkpt lat="50.15308327210912" lon="16.06789990016792"><ele>245.0</ele><time>2026-05-03T07:27:00Z</time></trkpt><trkpt lat="50.15346715686085" lon="16.067657982640686"><ele>245.0</ele><time>2026-05-03T07:27:01Z</time></trkpt><trkpt lat="50.15385085997821" lon="16.067392047124848"><ele>245.0</ele><time>2026-05-03T07:27:02Z</time></trkpt><trkpt lat="50.15423317273842" lon="16.067100343530516"><ele>246.0</ele><time>2026-05-03T07:27:03Z</time></trkpt><trkpt lat="50.154616075960334" lon="16.066797724679635"><ele>247.0</ele><time>2026-05-03T07:27:04Z</time></trkpt><trkpt lat="50.154971542508505" lon="16.06648849560636"><ele>248.5</ele><time>2026-05-03T07:27:05Z</time></trkpt><trkpt lat="50.155288131823724" lon="16.06620791390119"><ele>250.0</ele><time>2026-05-03T07:27:06Z</time></trkpt><trkpt lat="50.155582815101916" lon="16.065924015448775"><ele>249.5</ele><time>2026-05-03T07:27:07Z</time></trkpt><trkpt lat="50.15585271577192" lon="16.065638679547764"><ele>249.0</ele><time>2026-05-03T07:27:08Z</time></trkpt><trkpt lat="50.15611308642913" lon="16.06535528136735"><ele>249.0</ele><time>2026-05-03T07:27:09Z</time></trkpt><trkpt lat="50.15635935539006" lon="16.06508271491224"><ele>249.0</ele><time>2026-05-03T07:27:10Z</time></trkpt><trkpt lat="50.15660472728599" lon="16.06479941584891"><ele>248.0</ele><time>2026-05-03T07:27:11Z</time></trkpt><trkpt lat="50.15684890146466" lon="16.06450074138773"><ele>247.0</ele><time>2026-05-03T07:27:12Z</time></trkpt><trkpt lat="50.15709337518662" lon="16.06418987937689"><ele>246.5</ele><time>2026-05-03T07:27:13Z</time></trkpt><trkpt lat="50.15734900026928" lon="16.0638525013723"><ele>246.0</ele><time>2026-05-03T07:27:14Z</time></trkpt><trkpt lat="50.15761103897251" lon="16.063480403171376"><ele>245.5</ele><time>2026-05-03T07:27:15Z</time></trkpt><trkpt lat="50.15788224813696" lon="16.06306752609619"><ele>245.0</ele><time>2026-05-03T07:27:16Z</time></trkpt><trkpt lat="50.1581620368012" lon="16.06262452514403"><ele>245.5</ele><time>2026-05-03T07:27:17Z</time></trkpt><trkpt lat="50.15844779288156" lon="16.062157616606758"><ele>246.0</ele><time>2026-05-03T07:27:18Z</time></trkpt><trkpt lat="50.15873839766885" lon="16.061659062208722"><ele>246.5</ele><time>2026-05-03T07:27:19Z</time></trkpt><trkpt lat="50.15903472890099" lon="16.06113266218057"><ele>247.0</ele><time>2026-05-03T07:27:20Z</time></trkpt><trkpt lat="50.15933299384231" lon="16.060588454037322"><ele>245.0</ele><time>2026-05-03T07:27:21Z</time></trkpt><trkpt lat="50.15964385503952" lon="16.060015629543642"><ele>247.0</ele><time>2026-05-03T07:27:22Z</time></trkpt><trkpt lat="50.15995887248626" lon="16.059434729591604"><ele>246.0</ele><time>2026-05-03T07:27:23Z</time></trkpt><trkpt lat="50.16028083711461" lon="16.058846484627868"><ele>246.0</ele><time>2026-05-03T07:27:24Z</time></trkpt><trkpt lat="50.16060855452441" lon="16.058244912941515"><ele>249.0</ele><time>2026-05-03T07:27:25Z</time></trkpt><trkpt lat="50.160937222618735" lon="16.057633149519045"><ele>247.0</ele><time>2026-05-03T07:27:26Z</time></trkpt><trkpt lat="50.161266561822565" lon="16.057018927443295"><ele>246.0</ele><time>2026-05-03T07:27:27Z</time></trkpt><trkpt lat="50.16160085630628" lon="16.05640301211305"><ele>244.0</ele><time>2026-05-03T07:27:28Z</time></trkpt><trkpt lat="50.16193830745307" lon="16.055783890807025"><ele>244.0</ele><time>2026-05-03T07:27:29Z</time></trkpt><trkpt lat="50.16226015712534" lon="16.05519635546283"><ele>245.0</ele><time>2026-05-03T07:27:30Z</time></trkpt><trkpt lat="50.1625448228446" lon="16.05467025576474"><ele>246.0</ele><time>2026-05-03T07:27:31Z</time></trkpt><trkpt lat="50.1628180077698" lon="16.054165980346735"><ele>246.0</ele><time>2026-05-03T07:27:32Z</time></trkpt><trkpt lat="50.163095350701646" lon="16.053650699869802"><ele>246.0</ele><time>2026-05-03T07:27:33Z</time></trkpt><trkpt lat="50.163371921906666" lon="16.053142127999084"><ele>246.0</ele><time>2026-05-03T07:27:34Z</time></trkpt><trkpt lat="50.16364548621326" lon="16.05264368270209"><ele>246.0</ele><time>2026-05-03T07:27:34.999Z</time></trkpt><trkpt lat="50.16392311573692" lon="16.052132853616882"><ele>246.0</ele><time>2026-05-03T07:27:35.999Z</time></trkpt><trkpt lat="50.16419139213417" lon="16.051629499252893"><ele>246.0</ele><time>2026-05-03T07:27:36.999Z</time></trkpt><trkpt lat="50.16443936152541" lon="16.05116019252604"><ele>246.0</ele><time>2026-05-03T07:27:38Z</time></trkpt><trkpt lat="50.164668705892744" lon="16.05074208458434"><ele>246.0</ele><time>2026-05-03T07:27:38.999Z</time></trkpt><trkpt lat="50.1648889323162" lon="16.050368792617668"><ele>246.0</ele><time>2026-05-03T07:27:39.999Z</time></trkpt><trkpt lat="50.16510020268366" lon="16.050016531331867"><ele>246.0</ele><time>2026-05-03T07:27:40.999Z</time></trkpt><trkpt lat="50.16529066891851" lon="16.04967021605415"><ele>246.0</ele><time>2026-05-03T07:27:41.999Z</time></trkpt><trkpt lat="50.165462911062626" lon="16.04933156897776"><ele>246.0</ele><time>2026-05-03T07:27:42.999Z</time></trkpt><trkpt lat="50.1656386699383" lon="16.04903843510548"><ele>246.0</ele><time>2026-05-03T07:27:43.999Z</time></trkpt><trkpt lat="50.165806105790665" lon="16.048730917838835"><ele>246.0</ele><time>2026-05-03T07:27:44.999Z</time></trkpt><trkpt lat="50.16599655449817" lon="16.04838546406956"><ele>245.0</ele><time>2026-05-03T07:27:45.999Z</time></trkpt><trkpt lat="50.16620061405511" lon="16.048011637190477"><ele>244.0</ele><time>2026-05-03T07:27:46.999Z</time></trkpt><trkpt lat="50.16639672978417" lon="16.047648921521994"><ele>244.0</ele><time>2026-05-03T07:27:47.999Z</time></trkpt><trkpt lat="50.16655870671454" lon="16.047312473602208"><ele>244.0</ele><time>2026-05-03T07:27:48.999Z</time></trkpt><trkpt lat="50.16673024966946" lon="16.047034128380933"><ele>244.0</ele><time>2026-05-03T07:27:49.999Z</time></trkpt><trkpt lat="50.16689625683508" lon="16.046731040348128"><ele>244.0</ele><time>2026-05-03T07:27:50.999Z</time></trkpt><trkpt lat="50.16709122555741" lon="16.046376287478502"><ele>244.0</ele><time>2026-05-03T07:27:51.999Z</time></trkpt><trkpt lat="50.16728474947674" lon="16.046001360860657"><ele>244.0</ele><time>2026-05-03T07:27:52.999Z</time></trkpt><trkpt lat="50.16750564373131" lon="16.04560870463086"><ele>244.0</ele><time>2026-05-03T07:27:53.999Z</time></trkpt><trkpt lat="50.16774655409904" lon="16.04516923878069"><ele>244.0</ele><time>2026-05-03T07:27:54.999Z</time></trkpt><trkpt lat="50.16800387491115" lon="16.044692895537306"><ele>244.0</ele><time>2026-05-03T07:27:55.999Z</time></trkpt><trkpt lat="50.168277236359884" lon="16.04418564866165"><ele>244.0</ele><time>2026-05-03T07:27:56.999Z</time></trkpt><trkpt lat="50.16855900631318" lon="16.04366508366094"><ele>243.0</ele><time>2026-05-03T07:27:57.999Z</time></trkpt><trkpt lat="50.16885648926041" lon="16.043119606783264"><ele>245.0</ele><time>2026-05-03T07:27:58.999Z</time></trkpt><trkpt lat="50.16916851053804" lon="16.042551485218155"><ele>245.0</ele><time>2026-05-03T07:27:59.999Z</time></trkpt><trkpt lat="50.16948942692797" lon="16.041966920252367"><ele>245.0</ele><time>2026-05-03T07:28:00.999Z</time></trkpt><trkpt lat="50.169811439490516" lon="16.041378693537244"><ele>242.0</ele><time>2026-05-03T07:28:01.999Z</time></trkpt><trkpt lat="50.170133347318064" lon="16.04078401640493"><ele>242.0</ele><time>2026-05-03T07:28:02.999Z</time></trkpt><trkpt lat="50.170431201501245" lon="16.040224736317423"><ele>243.0</ele><time>2026-05-03T07:28:03.999Z</time></trkpt><trkpt lat="50.17069671089504" lon="16.039726595167348"><ele>244.0</ele><time>2026-05-03T07:28:04.999Z</time></trkpt><trkpt lat="50.17094781297044" lon="16.039271256255972"><ele>244.0</ele><time>2026-05-03T07:28:05.999Z</time></trkpt><trkpt lat="50.171171629401975" lon="16.038861984799013"><ele>244.0</ele><time>2026-05-03T07:28:06.999Z</time></trkpt><trkpt lat="50.17136492149751" lon="16.038501431308614"><ele>244.0</ele><time>2026-05-03T07:28:07.999Z</time></trkpt><trkpt lat="50.1715526692757" lon="16.03815967021985"><ele>244.0</ele><time>2026-05-03T07:28:08.999Z</time></trkpt><trkpt lat="50.17173179616941" lon="16.037838256539615"><ele>244.0</ele><time>2026-05-03T07:28:09.999Z</time></trkpt><trkpt lat="50.17189438470487" lon="16.03754347738469"><ele>244.0</ele><time>2026-05-03T07:28:10.999Z</time></trkpt><trkpt lat="50.17204425328925" lon="16.037268754309547"><ele>244.0</ele><time>2026-05-03T07:28:11.999Z</time></trkpt><trkpt lat="50.17218343998665" lon="16.037008876631738"><ele>244.0</ele><time>2026-05-03T07:28:12.999Z</time></trkpt><trkpt lat="50.172324567180056" lon="16.036786605365204"><ele>244.0</ele><time>2026-05-03T07:28:13.999Z</time></trkpt><trkpt lat="50.17244596442274" lon="16.036563691875585"><ele>244.0</ele><time>2026-05-03T07:28:14.999Z</time></trkpt><trkpt lat="50.17255783080792" lon="16.036358989042558"><ele>244.0</ele><time>2026-05-03T07:28:15.999Z</time></trkpt><trkpt lat="50.17264782854217" lon="16.03615942247513"><ele>244.0</ele><time>2026-05-03T07:28:16.999Z</time></trkpt><trkpt lat="50.17274814781513" lon="16.035978256619135"><ele>244.0</ele><time>2026-05-03T07:28:17.999Z</time></trkpt><trkpt lat="50.17285471286731" lon="16.03578481561999"><ele>244.0</ele><time>2026-05-03T07:28:18.999Z</time></trkpt><trkpt lat="50.172971558671776" lon="16.035586500497573"><ele>244.0</ele><time>2026-05-03T07:28:19.999Z</time></trkpt><trkpt lat="50.17308908630113" lon="16.035374088567668"><ele>245.0</ele><time>2026-05-03T07:28:20.999Z</time></trkpt><trkpt lat="50.17321128145628" lon="16.03514638601441"><ele>246.0</ele><time>2026-05-03T07:28:21.999Z</time></trkpt><trkpt lat="50.17333560642394" lon="16.03491224197894"><ele>247.0</ele><time>2026-05-03T07:28:22.999Z</time></trkpt><trkpt lat="50.17346456328982" lon="16.03466686576389"><ele>247.0</ele><time>2026-05-03T07:28:23.999Z</time></trkpt><trkpt lat="50.17359713946028" lon="16.03441711155709"><ele>247.0</ele><time>2026-05-03T07:28:24.999Z</time></trkpt><trkpt lat="50.17372963579354" lon="16.03417294844859"><ele>247.0</ele><time>2026-05-03T07:28:25.999Z</time></trkpt><trkpt lat="50.17386774843401" lon="16.033919939972822"><ele>246.0</ele><time>2026-05-03T07:28:26.999Z</time></trkpt><trkpt lat="50.17401350051468" lon="16.033662748229776"><ele>245.0</ele><time>2026-05-03T07:28:27.999Z</time></trkpt><trkpt lat="50.17417221892057" lon="16.033371407376833"><ele>245.5</ele><time>2026-05-03T07:28:28.999Z</time></trkpt><trkpt lat="50.17435134052143" lon="16.033037660476317"><ele>246.0</ele><time>2026-05-03T07:28:29.999Z</time></trkpt><trkpt lat="50.17455872474836" lon="16.032686252055065"><ele>246.0</ele><time>2026-05-03T07:28:30.999Z</time></trkpt><trkpt lat="50.1747443781663" lon="16.032304995073765"><ele>246.0</ele><time>2026-05-03T07:28:31.999Z</time></trkpt><trkpt lat="50.17497079691482" lon="16.03189503944652"><ele>246.0</ele><time>2026-05-03T07:28:32.999Z</time></trkpt><trkpt lat="50.17521489649283" lon="16.03145733457405"><ele>246.0</ele><time>2026-05-03T07:28:33.999Z</time></trkpt><trkpt lat="50.175473679113885" lon="16.0309786654113"><ele>246.5</ele><time>2026-05-03T07:28:34.999Z</time></trkpt><trkpt lat="50.17574640105222" lon="16.030479251923772"><ele>247.0</ele><time>2026-05-03T07:28:36Z</time></trkpt><trkpt lat="50.17603237733068" lon="16.02995359709296"><ele>247.0</ele><time>2026-05-03T07:28:37Z</time></trkpt><trkpt lat="50.176326471800685" lon="16.029417815461564"><ele>253.0</ele><time>2026-05-03T07:28:38Z</time></trkpt><trkpt lat="50.176628774893494" lon="16.028861102595865"><ele>255.0</ele><time>2026-05-03T07:28:39Z</time></trkpt><trkpt lat="50.17692873105592" lon="16.02830290743524"><ele>255.0</ele><time>2026-05-03T07:28:40Z</time></trkpt><trkpt lat="50.17722984040735" lon="16.027735207155303"><ele>256.0</ele><time>2026-05-03T07:28:41Z</time></trkpt><trkpt lat="50.17750452012995" lon="16.027221945732986"><ele>257.0</ele><time>2026-05-03T07:28:42Z</time></trkpt><trkpt lat="50.17775575865492" lon="16.026749628901342"><ele>255.5</ele><time>2026-05-03T07:28:43Z</time></trkpt><trkpt lat="50.17800526953585" lon="16.026279098454683"><ele>254.0</ele><time>2026-05-03T07:28:44Z</time></trkpt><trkpt lat="50.17825122452768" lon="16.025815336880257"><ele>252.0</ele><time>2026-05-03T07:28:45Z</time></trkpt><trkpt lat="50.1785004665199" lon="16.025366082186444"><ele>250.0</ele><time>2026-05-03T07:28:46Z</time></trkpt><trkpt lat="50.178779703352646" lon="16.024940550281112"><ele>248.5</ele><time>2026-05-03T07:28:47Z</time></trkpt><trkpt lat="50.179049160031354" lon="16.02445079294015"><ele>247.0</ele><time>2026-05-03T07:28:48Z</time></trkpt><trkpt lat="50.179293008060405" lon="16.02390746525594"><ele>247.0</ele><time>2026-05-03T07:28:49Z</time></trkpt><trkpt lat="50.17957294950827" lon="16.02339508253997"><ele>247.0</ele><time>2026-05-03T07:28:50Z</time></trkpt><trkpt lat="50.1798561368728" lon="16.022899630794946"><ele>248.0</ele><time>2026-05-03T07:28:51Z</time></trkpt><trkpt lat="50.18012984592289" lon="16.022437308233393"><ele>249.0</ele><time>2026-05-03T07:28:52Z</time></trkpt><trkpt lat="50.180393017433126" lon="16.021966714848602"><ele>250.5</ele><time>2026-05-03T07:28:53Z</time></trkpt><trkpt lat="50.180660178405056" lon="16.0214667939148"><ele>252.0</ele><time>2026-05-03T07:28:54Z</time></trkpt><trkpt lat="50.180930401304224" lon="16.020954776461977"><ele>253.5</ele><time>2026-05-03T07:28:55Z</time></trkpt><trkpt lat="50.18121079756302" lon="16.02042873671154"><ele>255.0</ele><time>2026-05-03T07:28:56Z</time></trkpt><trkpt lat="50.18149457987292" lon="16.01990167670207"><ele>255.0</ele><time>2026-05-03T07:28:57Z</time></trkpt><trkpt lat="50.181753450125505" lon="16.019430043528562"><ele>255.0</ele><time>2026-05-03T07:28:58Z</time></trkpt><trkpt lat="50.18199334254801" lon="16.018989307442755"><ele>256.0</ele><time>2026-05-03T07:28:59Z</time></trkpt><trkpt lat="50.182232135678504" lon="16.018548259987536"><ele>257.0</ele><time>2026-05-03T07:29:00Z</time></trkpt><trkpt lat="50.18247160594096" lon="16.01810689504559"><ele>254.5</ele><time>2026-05-03T07:29:01Z</time></trkpt><trkpt lat="50.182740932233706" lon="16.01768146156475"><ele>252.0</ele><time>2026-05-03T07:29:02Z</time></trkpt><trkpt lat="50.1829820862917" lon="16.017212898403397"><ele>254.5</ele><time>2026-05-03T07:29:03Z</time></trkpt><trkpt lat="50.18323653700585" lon="16.016754168677867"><ele>257.0</ele><time>2026-05-03T07:29:04Z</time></trkpt><trkpt lat="50.183493142521634" lon="16.01626953904621"><ele>259.0</ele><time>2026-05-03T07:29:05Z</time></trkpt><trkpt lat="50.183754673942865" lon="16.015793705883617"><ele>261.0</ele><time>2026-05-03T07:29:06Z</time></trkpt><trkpt lat="50.18401264287408" lon="16.0153256458911"><ele>263.0</ele><time>2026-05-03T07:29:07Z</time></trkpt><trkpt lat="50.18426964390888" lon="16.014859853888197"><ele>265.0</ele><time>2026-05-03T07:29:08Z</time></trkpt><trkpt lat="50.184526419156875" lon="16.014381823735697"><ele>265.0</ele><time>2026-05-03T07:29:09Z</time></trkpt><trkpt lat="50.18478921308356" lon="16.013899720484144"><ele>265.0</ele><time>2026-05-03T07:29:10Z</time></trkpt><trkpt lat="50.185050515598164" lon="16.0134116046205"><ele>264.0</ele><time>2026-05-03T07:29:11Z</time></trkpt><trkpt lat="50.18531847412851" lon="16.01291556104372"><ele>263.0</ele><time>2026-05-03T07:29:12Z</time></trkpt><trkpt lat="50.18559027838912" lon="16.012431566393715"><ele>262.5</ele><time>2026-05-03T07:29:13Z</time></trkpt><trkpt lat="50.185839509455214" lon="16.01200360130656"><ele>262.0</ele><time>2026-05-03T07:29:14Z</time></trkpt><trkpt lat="50.18604544429229" lon="16.01158617873671"><ele>263.5</ele><time>2026-05-03T07:29:15Z</time></trkpt><trkpt lat="50.18627495906156" lon="16.01120263210989"><ele>265.0</ele><time>2026-05-03T07:29:16Z</time></trkpt><trkpt lat="50.18647783114073" lon="16.010828173992913"><ele>261.0</ele><time>2026-05-03T07:29:17Z</time></trkpt><trkpt lat="50.1866679004732" lon="16.010480434798296"><ele>257.0</ele><time>2026-05-03T07:29:18Z</time></trkpt><trkpt lat="50.18684439774331" lon="16.01015676166182"><ele>253.5</ele><time>2026-05-03T07:29:19Z</time></trkpt><trkpt lat="50.18701026523511" lon="16.00985073731346"><ele>250.0</ele><time>2026-05-03T07:29:20Z</time></trkpt><trkpt lat="50.18716360689926" lon="16.009559156214454"><ele>250.0</ele><time>2026-05-03T07:29:21Z</time></trkpt><trkpt lat="50.18733283815271" lon="16.009236024281194"><ele>250.0</ele><time>2026-05-03T07:29:22Z</time></trkpt><trkpt lat="50.1875125376318" lon="16.008877545101466"><ele>249.0</ele><time>2026-05-03T07:29:23Z</time></trkpt><trkpt lat="50.187699746653045" lon="16.008490528006014"><ele>248.0</ele><time>2026-05-03T07:29:24Z</time></trkpt><trkpt lat="50.18788135931538" lon="16.00806952230965"><ele>247.0</ele><time>2026-05-03T07:29:25Z</time></trkpt><trkpt lat="50.18807295455079" lon="16.007659263513094"><ele>246.0</ele><time>2026-05-03T07:29:26Z</time></trkpt><trkpt lat="50.18825776735199" lon="16.00725069690015"><ele>245.0</ele><time>2026-05-03T07:29:27Z</time></trkpt><trkpt lat="50.18843634800057" lon="16.006824910841694"><ele>244.0</ele><time>2026-05-03T07:29:28Z</time></trkpt><trkpt lat="50.188613645521485" lon="16.006388705453972"><ele>244.0</ele><time>2026-05-03T07:29:29Z</time></trkpt><trkpt lat="50.18878905183252" lon="16.00594406533263"><ele>244.0</ele><time>2026-05-03T07:29:30Z</time></trkpt><trkpt lat="50.1889692275063" lon="16.005467866860343"><ele>243.5</ele><time>2026-05-03T07:29:31Z</time></trkpt><trkpt lat="50.18914984702202" lon="16.004952339181962"><ele>243.0</ele><time>2026-05-03T07:29:32Z</time></trkpt><trkpt lat="50.18932695411832" lon="16.00441761033102"><ele>243.0</ele><time>2026-05-03T07:29:33Z</time></trkpt><trkpt lat="50.18948881584809" lon="16.0039263719302"><ele>243.0</ele><time>2026-05-03T07:29:34Z</time></trkpt><trkpt lat="50.189660990836465" lon="16.003349568717407"><ele>243.0</ele><time>2026-05-03T07:29:35Z</time></trkpt><trkpt lat="50.18983739771412" lon="16.002767654869075"><ele>243.0</ele><time>2026-05-03T07:29:36Z</time></trkpt><trkpt lat="50.19002242447301" lon="16.002160816484317"><ele>244.0</ele><time>2026-05-03T07:29:37Z</time></trkpt><trkpt lat="50.190211494893106" lon="16.00155147886075"><ele>245.0</ele><time>2026-05-03T07:29:38Z</time></trkpt><trkpt lat="50.19039887891948" lon="16.00094807219071"><ele>245.5</ele><time>2026-05-03T07:29:39Z</time></trkpt><trkpt lat="50.19058679181096" lon="16.00034855741098"><ele>246.0</ele><time>2026-05-03T07:29:40Z</time></trkpt><trkpt lat="50.190773030974455" lon="15.999762550797666"><ele>245.0</ele><time>2026-05-03T07:29:41Z</time></trkpt><trkpt lat="50.19095691430089" lon="15.999169488934944"><ele>244.0</ele><time>2026-05-03T07:29:42Z</time></trkpt><trkpt lat="50.19114587647355" lon="15.998563077539517"><ele>244.0</ele><time>2026-05-03T07:29:43Z</time></trkpt><trkpt lat="50.19133183744417" lon="15.997973141501012"><ele>244.0</ele><time>2026-05-03T07:29:44Z</time></trkpt><trkpt lat="50.19149941569448" lon="15.997443793556855"><ele>243.0</ele><time>2026-05-03T07:29:45Z</time></trkpt><trkpt lat="50.191654314272846" lon="15.99695910156026"><ele>242.0</ele><time>2026-05-03T07:29:46Z</time></trkpt><trkpt lat="50.19179432808347" lon="15.996516495210146"><ele>242.0</ele><time>2026-05-03T07:29:47Z</time></trkpt><trkpt lat="50.19193864366643" lon="15.996118723364726"><ele>242.0</ele><time>2026-05-03T07:29:48Z</time></trkpt><trkpt lat="50.1920601734738" lon="15.995736956840325"><ele>240.5</ele><time>2026-05-03T07:29:49Z</time></trkpt><trkpt lat="50.19216972298067" lon="15.99538808069263"><ele>239.0</ele><time>2026-05-03T07:29:50Z</time></trkpt><trkpt lat="50.19227185246344" lon="15.995063726243949"><ele>238.66666666666669</ele><time>2026-05-03T07:29:51Z</time></trkpt><trkpt lat="50.192371328626315" lon="15.994760295876372"><ele>238.33333333333331</ele><time>2026-05-03T07:29:52Z</time></trkpt><trkpt lat="50.192474633170626" lon="15.994447307650027"><ele>238.0</ele><time>2026-05-03T07:29:53Z</time></trkpt><trkpt lat="50.19259243801743" lon="15.994092361259602"><ele>238.0</ele><time>2026-05-03T07:29:54Z</time></trkpt><trkpt lat="50.192722434412325" lon="15.993706945169853"><ele>238.0</ele><time>2026-05-03T07:29:55Z</time></trkpt><trkpt lat="50.192875331881" lon="15.993266053481685"><ele>238.0</ele><time>2026-05-03T07:29:56Z</time></trkpt><trkpt lat="50.19303066834022" lon="15.992822110474451"><ele>238.0</ele><time>2026-05-03T07:29:57Z</time></trkpt><trkpt lat="50.19318692983781" lon="15.99234285209216"><ele>238.5</ele><time>2026-05-03T07:29:58Z</time></trkpt><trkpt lat="50.19337067954633" lon="15.991853182854156"><ele>239.0</ele><time>2026-05-03T07:29:59Z</time></trkpt><trkpt lat="50.1935608586603" lon="15.991337567293435"><ele>238.0</ele><time>2026-05-03T07:30:00Z</time></trkpt><trkpt lat="50.1937517013818" lon="15.990832300500134"><ele>237.0</ele><time>2026-05-03T07:30:01Z</time></trkpt><trkpt lat="50.19392770193146" lon="15.990377819506087"><ele>238.0</ele><time>2026-05-03T07:30:02Z</time></trkpt><trkpt lat="50.19408995392664" lon="15.989972739095947"><ele>239.0</ele><time>2026-05-03T07:30:03Z</time></trkpt><trkpt lat="50.1942416735875" lon="15.989598959347084"><ele>239.0</ele><time>2026-05-03T07:30:04Z</time></trkpt><trkpt lat="50.19438501170844" lon="15.989251854537827"><ele>239.0</ele><time>2026-05-03T07:30:05Z</time></trkpt><trkpt lat="50.19452038577973" lon="15.988929543271642"><ele>238.0</ele><time>2026-05-03T07:30:06Z</time></trkpt><trkpt lat="50.19464848635102" lon="15.988620415513951"><ele>237.0</ele><time>2026-05-03T07:30:07Z</time></trkpt><trkpt lat="50.194788838565216" lon="15.988330581375294"><ele>238.5</ele><time>2026-05-03T07:30:08Z</time></trkpt><trkpt lat="50.194923175103014" lon="15.988022605479546"><ele>240.0</ele><time>2026-05-03T07:30:09Z</time></trkpt><trkpt lat="50.195056079646" lon="15.98772123967448"><ele>239.66666666666669</ele><time>2026-05-03T07:30:10Z</time></trkpt><trkpt lat="50.195176762729204" lon="15.987448088743426"><ele>239.33333333333334</ele><time>2026-05-03T07:30:11Z</time></trkpt><trkpt lat="50.195287942195115" lon="15.98720177267416"><ele>239.0</ele><time>2026-05-03T07:30:12Z</time></trkpt><trkpt lat="50.1953812434428" lon="15.986996594866005"><ele>239.0</ele><time>2026-05-03T07:30:13Z</time></trkpt><trkpt lat="50.19545980625614" lon="15.986823828255861"><ele>238.99999999999997</ele><time>2026-05-03T07:30:14Z</time></trkpt><trkpt lat="50.195524724279544" lon="15.98668106777207"><ele>238.99999999999997</ele><time>2026-05-03T07:30:15Z</time></trkpt><trkpt lat="50.19558185068593" lon="15.986554568791087"><ele>239.0</ele><time>2026-05-03T07:30:16Z</time></trkpt><trkpt lat="50.195630797193125" lon="15.9864519020646"><ele>239.0</ele><time>2026-05-03T07:30:17Z</time></trkpt><trkpt lat="50.19554787354586" lon="15.986220145346937"><ele>238.66666666666669</ele><time>2026-05-03T07:30:18Z</time></trkpt><trkpt lat="50.19548209996255" lon="15.986011687445261"><ele>238.33333333333331</ele><time>2026-05-03T07:30:19Z</time></trkpt><trkpt lat="50.195417219785924" lon="15.985773691126546"><ele>238.0</ele><time>2026-05-03T07:30:20Z</time></trkpt><trkpt lat="50.19533925479517" lon="15.985488938269661"><ele>238.0</ele><time>2026-05-03T07:30:21Z</time></trkpt><trkpt lat="50.19524654318591" lon="15.985143252786443"><ele>238.0</ele><time>2026-05-03T07:30:22Z</time></trkpt><trkpt lat="50.195143537095355" lon="15.98476030570217"><ele>238.0</ele><time>2026-05-03T07:30:23Z</time></trkpt><trkpt lat="50.19501593319095" lon="15.984355559242303"><ele>238.0</ele><time>2026-05-03T07:30:24Z</time></trkpt><trkpt lat="50.1949190744755" lon="15.983930010378891"><ele>239.0</ele><time>2026-05-03T07:30:25Z</time></trkpt><trkpt lat="50.194817852535174" lon="15.983551872663082"><ele>240.0</ele><time>2026-05-03T07:30:26Z</time></trkpt><trkpt lat="50.19472480417423" lon="15.98320561470153"><ele>240.0</ele><time>2026-05-03T07:30:27Z</time></trkpt><trkpt lat="50.19463418460795" lon="15.982867783564117"><ele>240.0</ele><time>2026-05-03T07:30:28Z</time></trkpt><trkpt lat="50.19453692569924" lon="15.982519408250564"><ele>238.5</ele><time>2026-05-03T07:30:29Z</time></trkpt><trkpt lat="50.19441350972396" lon="15.982180185060646"><ele>237.0</ele><time>2026-05-03T07:30:30Z</time></trkpt><trkpt lat="50.194293449587356" lon="15.981841433003552"><ele>237.0</ele><time>2026-05-03T07:30:31Z</time></trkpt><trkpt lat="50.19415009955085" lon="15.981525094370118"><ele>237.0</ele><time>2026-05-03T07:30:32Z</time></trkpt><trkpt lat="50.193994405776905" lon="15.981241720730688"><ele>237.0</ele><time>2026-05-03T07:30:33Z</time></trkpt><trkpt lat="50.19383431227667" lon="15.981008027532006"><ele>237.0</ele><time>2026-05-03T07:30:34Z</time></trkpt><trkpt lat="50.19367325561637" lon="15.980816597844802"><ele>237.0</ele><time>2026-05-03T07:30:35Z</time></trkpt><trkpt lat="50.193502969885145" lon="15.9806451686967"><ele>237.5</ele><time>2026-05-03T07:30:36Z</time></trkpt><trkpt lat="50.19330514020472" lon="15.980480577073271"><ele>238.0</ele><time>2026-05-03T07:30:37Z</time></trkpt><trkpt lat="50.19309836622943" lon="15.980313442237021"><ele>238.0</ele><time>2026-05-03T07:30:38Z</time></trkpt><trkpt lat="50.19288803074204" lon="15.980136442561253"><ele>238.0</ele><time>2026-05-03T07:30:39Z</time></trkpt><trkpt lat="50.19269378494678" lon="15.979972396728103"><ele>238.33333333333331</ele><time>2026-05-03T07:30:40Z</time></trkpt><trkpt lat="50.19251249888278" lon="15.97982203058013"><ele>238.66666666666669</ele><time>2026-05-03T07:30:41Z</time></trkpt><trkpt lat="50.1923394378768" lon="15.97966945130304"><ele>239.0</ele><time>2026-05-03T07:30:42Z</time></trkpt><trkpt lat="50.19216156693784" lon="15.979510481425796"><ele>239.66666666666669</ele><time>2026-05-03T07:30:43Z</time></trkpt><trkpt lat="50.191979075859514" lon="15.979355295499717"><ele>240.33333333333331</ele><time>2026-05-03T07:30:44Z</time></trkpt><trkpt lat="50.19179728627001" lon="15.979200042009081"><ele>241.0</ele><time>2026-05-03T07:30:45Z</time></trkpt><trkpt lat="50.19162718595366" lon="15.979014518141012"><ele>241.33333333333331</ele><time>2026-05-03T07:30:46Z</time></trkpt><trkpt lat="50.19145324541429" lon="15.978835156765133"><ele>241.66666666666669</ele><time>2026-05-03T07:30:47Z</time></trkpt><trkpt lat="50.19128219689585" lon="15.978656903828101"><ele>242.0</ele><time>2026-05-03T07:30:48Z</time></trkpt><trkpt lat="50.191121116982686" lon="15.978489039267922"><ele>241.33333333333334</ele><time>2026-05-03T07:30:49Z</time></trkpt><trkpt lat="50.190977973542566" lon="15.978339866660475"><ele>240.66666666666669</ele><time>2026-05-03T07:30:50Z</time></trkpt><trkpt lat="50.19083126502343" lon="15.978242982300506"><ele>240.0</ele><time>2026-05-03T07:30:51Z</time></trkpt><trkpt lat="50.19071169303354" lon="15.978111005929527"><ele>240.0</ele><time>2026-05-03T07:30:52Z</time></trkpt><trkpt lat="50.190603417364436" lon="15.977952317144215"><ele>240.0</ele><time>2026-05-03T07:30:53Z</time></trkpt><trkpt lat="50.19051527823505" lon="15.977759334094056"><ele>240.0</ele><time>2026-05-03T07:30:54Z</time></trkpt><trkpt lat="50.19044105727584" lon="15.977535485173478"><ele>240.25</ele><time>2026-05-03T07:30:55Z</time></trkpt><trkpt lat="50.1903821377889" lon="15.977307053178034"><ele>240.5</ele><time>2026-05-03T07:30:56Z</time></trkpt><trkpt lat="50.190330157272605" lon="15.97709085053043"><ele>240.75</ele><time>2026-05-03T07:30:57Z</time></trkpt><trkpt lat="50.19028674843197" lon="15.976880427022442"><ele>241.0</ele><time>2026-05-03T07:30:58Z</time></trkpt><trkpt lat="50.19026046663663" lon="15.97665036662103"><ele>241.0</ele><time>2026-05-03T07:30:59Z</time></trkpt><trkpt lat="50.190267043688806" lon="15.976411630504193"><ele>241.0</ele><time>2026-05-03T07:31:00Z</time></trkpt><trkpt lat="50.190301350075764" lon="15.976148437948126"><ele>241.0</ele><time>2026-05-03T07:31:01Z</time></trkpt><trkpt lat="50.19034660955945" lon="15.975898950868675"><ele>241.0</ele><time>2026-05-03T07:31:02Z</time></trkpt><trkpt lat="50.190375781862556" lon="15.975685720253443"><ele>241.0</ele><time>2026-05-03T07:31:03Z</time></trkpt><trkpt lat="50.19035592649616" lon="15.97547728312799"><ele>241.0</ele><time>2026-05-03T07:31:04Z</time></trkpt><trkpt lat="50.19028618178568" lon="15.975246403597636"><ele>241.0</ele><time>2026-05-03T07:31:05Z</time></trkpt><trkpt lat="50.19018365603918" lon="15.975008864084478"><ele>241.0</ele><time>2026-05-03T07:31:06Z</time></trkpt><trkpt lat="50.19006692919047" lon="15.974780836532855"><ele>241.0</ele><time>2026-05-03T07:31:07Z</time></trkpt><trkpt lat="50.18991740590947" lon="15.974577901240037"><ele>241.0</ele><time>2026-05-03T07:31:08Z</time></trkpt><trkpt lat="50.18973306635674" lon="15.97438031362842"><ele>240.5</ele><time>2026-05-03T07:31:09Z</time></trkpt><trkpt lat="50.18954454480236" lon="15.974213730767561"><ele>240.0</ele><time>2026-05-03T07:31:10Z</time></trkpt><trkpt lat="50.1893089297709" lon="15.974087380771536"><ele>239.5</ele><time>2026-05-03T07:31:11Z</time></trkpt><trkpt lat="50.18904128591165" lon="15.973996036635564"><ele>239.0</ele><time>2026-05-03T07:31:12Z</time></trkpt><trkpt lat="50.18875821335644" lon="15.973942720824738"><ele>240.0</ele><time>2026-05-03T07:31:13Z</time></trkpt><trkpt lat="50.18845206337277" lon="15.973904202136367"><ele>241.0</ele><time>2026-05-03T07:31:14Z</time></trkpt><trkpt lat="50.18812167307381" lon="15.973869218759893"><ele>243.5</ele><time>2026-05-03T07:31:15Z</time></trkpt><trkpt lat="50.187780134464425" lon="15.97382862914331"><ele>246.0</ele><time>2026-05-03T07:31:16Z</time></trkpt><trkpt lat="50.187461854735744" lon="15.97379083426028"><ele>249.5</ele><time>2026-05-03T07:31:17Z</time></trkpt><trkpt lat="50.187134911205966" lon="15.973745612575556"><ele>253.0</ele><time>2026-05-03T07:31:18Z</time></trkpt><trkpt lat="50.186791036753114" lon="15.973697222285505"><ele>252.5</ele><time>2026-05-03T07:31:19Z</time></trkpt><trkpt lat="50.18648017100321" lon="15.973647208590936"><ele>252.0</ele><time>2026-05-03T07:31:20Z</time></trkpt><trkpt lat="50.186211921470026" lon="15.973580566215713"><ele>252.0</ele><time>2026-05-03T07:31:21Z</time></trkpt><trkpt lat="50.18594915140804" lon="15.973508714510025"><ele>252.0</ele><time>2026-05-03T07:31:22Z</time></trkpt><trkpt lat="50.18568284419094" lon="15.97339300542211"><ele>254.5</ele><time>2026-05-03T07:31:23Z</time></trkpt><trkpt lat="50.18541407690809" lon="15.973218027102499"><ele>257.0</ele><time>2026-05-03T07:31:24Z</time></trkpt><trkpt lat="50.1851494015784" lon="15.973018169532113"><ele>257.0</ele><time>2026-05-03T07:31:25Z</time></trkpt><trkpt lat="50.1849230676154" lon="15.972829764558272"><ele>257.0</ele><time>2026-05-03T07:31:26Z</time></trkpt><trkpt lat="50.184725045007156" lon="15.972659802585637"><ele>258.0</ele><time>2026-05-03T07:31:27Z</time></trkpt><trkpt lat="50.18453906921999" lon="15.972507918957453"><ele>259.0</ele><time>2026-05-03T07:31:28Z</time></trkpt><trkpt lat="50.18435553622596" lon="15.972367635564673"><ele>260.0</ele><time>2026-05-03T07:31:29Z</time></trkpt><trkpt lat="50.184164414296006" lon="15.972220868067366"><ele>261.6666666666667</ele><time>2026-05-03T07:31:30Z</time></trkpt><trkpt lat="50.18397529613243" lon="15.972065292770871"><ele>263.3333333333333</ele><time>2026-05-03T07:31:31Z</time></trkpt><trkpt lat="50.183784962985655" lon="15.971910941634691"><ele>265.0</ele><time>2026-05-03T07:31:32Z</time></trkpt><trkpt lat="50.18359743891686" lon="15.97175537402573"><ele>264.66666666666663</ele><time>2026-05-03T07:31:33Z</time></trkpt><trkpt lat="50.18342304269274" lon="15.971618092209633"><ele>264.3333333333333</ele><time>2026-05-03T07:31:34Z</time></trkpt><trkpt lat="50.18326206893326" lon="15.971488758393365"><ele>264.0</ele><time>2026-05-03T07:31:35Z</time></trkpt><trkpt lat="50.18309918452662" lon="15.971332017368315"><ele>264.0</ele><time>2026-05-03T07:31:36Z</time></trkpt><trkpt lat="50.18294647228001" lon="15.971119503383273"><ele>264.0</ele><time>2026-05-03T07:31:37Z</time></trkpt><trkpt lat="50.18281755532227" lon="15.970857551819698"><ele>264.0</ele><time>2026-05-03T07:31:38Z</time></trkpt><trkpt lat="50.18271000536151" lon="15.97058589387649"><ele>263.3333333333333</ele><time>2026-05-03T07:31:39Z</time></trkpt><trkpt lat="50.18260464886196" lon="15.970336438384768"><ele>262.66666666666663</ele><time>2026-05-03T07:31:40Z</time></trkpt><trkpt lat="50.18246423496553" lon="15.97007072426781"><ele>262.0</ele><time>2026-05-03T07:31:41Z</time></trkpt><trkpt lat="50.182311000536444" lon="15.969742741959793"><ele>262.0</ele><time>2026-05-03T07:31:42Z</time></trkpt><trkpt lat="50.18216870103214" lon="15.969389850875897"><ele>262.0</ele><time>2026-05-03T07:31:43Z</time></trkpt><trkpt lat="50.18204250524911" lon="15.969084907073944"><ele>261.0</ele><time>2026-05-03T07:31:44Z</time></trkpt><trkpt lat="50.181920153781604" lon="15.96881628896594"><ele>260.0</ele><time>2026-05-03T07:31:45Z</time></trkpt><trkpt lat="50.1818027682806" lon="15.968559237953235"><ele>259.0</ele><time>2026-05-03T07:31:46Z</time></trkpt><trkpt lat="50.181679560040315" lon="15.96829160049612"><ele>259.0</ele><time>2026-05-03T07:31:47Z</time></trkpt><trkpt lat="50.18155048515094" lon="15.968014310258617"><ele>259.0</ele><time>2026-05-03T07:31:48Z</time></trkpt><trkpt lat="50.18142110729772" lon="15.967726970397303"><ele>259.0</ele><time>2026-05-03T07:31:49Z</time></trkpt><trkpt lat="50.181290920388676" lon="15.967437434825314"><ele>259.0</ele><time>2026-05-03T07:31:50Z</time></trkpt><trkpt lat="50.18115968199823" lon="15.967144120206063"><ele>259.0</ele><time>2026-05-03T07:31:51Z</time></trkpt><trkpt lat="50.18102043400081" lon="15.966863169859415"><ele>262.5</ele><time>2026-05-03T07:31:52Z</time></trkpt><trkpt lat="50.180862148158766" lon="15.966607249321145"><ele>266.0</ele><time>2026-05-03T07:31:53Z</time></trkpt><trkpt lat="50.1806742168357" lon="15.96638579647009"><ele>268.0</ele><time>2026-05-03T07:31:54Z</time></trkpt><trkpt lat="50.18046951965693" lon="15.966223288596758"><ele>270.0</ele><time>2026-05-03T07:31:55Z</time></trkpt><trkpt lat="50.180247692570454" lon="15.966106308186346"><ele>270.0</ele><time>2026-05-03T07:31:56Z</time></trkpt><trkpt lat="50.18000889939372" lon="15.966036845070962"><ele>270.0</ele><time>2026-05-03T07:31:57Z</time></trkpt><trkpt lat="50.17975699976022" lon="15.966005187817911"><ele>270.5</ele><time>2026-05-03T07:31:58Z</time></trkpt><trkpt lat="50.17948738092071" lon="15.965988252845051"><ele>271.0</ele><time>2026-05-03T07:31:59Z</time></trkpt><trkpt lat="50.179191208543024" lon="15.965965571310548"><ele>271.5</ele><time>2026-05-03T07:32:00Z</time></trkpt><trkpt lat="50.178865411574485" lon="15.965927656778648"><ele>272.0</ele><time>2026-05-03T07:32:01Z</time></trkpt><trkpt lat="50.17852182511122" lon="15.965880730176162"><ele>272.5</ele><time>2026-05-03T07:32:02Z</time></trkpt><trkpt lat="50.17816020889181" lon="15.965836068680703"><ele>273.0</ele><time>2026-05-03T07:32:03Z</time></trkpt><trkpt lat="50.17778584492605" lon="15.96579498975821"><ele>273.0</ele><time>2026-05-03T07:32:04Z</time></trkpt><trkpt lat="50.177398732602384" lon="15.965753459683949"><ele>273.0</ele><time>2026-05-03T07:32:05Z</time></trkpt><trkpt lat="50.17699200600125" lon="15.9657054282167"><ele>273.0</ele><time>2026-05-03T07:32:06Z</time></trkpt><trkpt lat="50.176578772959594" lon="15.965654737999598"><ele>273.0</ele><time>2026-05-03T07:32:07Z</time></trkpt><trkpt lat="50.17616382203592" lon="15.965609636474595"><ele>273.0</ele><time>2026-05-03T07:32:08Z</time></trkpt><trkpt lat="50.175778577172444" lon="15.965567286880281"><ele>273.0</ele><time>2026-05-03T07:32:09Z</time></trkpt><trkpt lat="50.17539784233372" lon="15.96552215624631"><ele>274.0</ele><time>2026-05-03T07:32:10Z</time></trkpt><trkpt lat="50.17502134121621" lon="15.9654787597345"><ele>275.0</ele><time>2026-05-03T07:32:11Z</time></trkpt><trkpt lat="50.17465623478238" lon="15.965440082216343"><ele>275.0</ele><time>2026-05-03T07:32:12Z</time></trkpt><trkpt lat="50.1742714193972" lon="15.965402361878898"><ele>275.0</ele><time>2026-05-03T07:32:13Z</time></trkpt><trkpt lat="50.17387389183494" lon="15.96533636257125"><ele>274.5</ele><time>2026-05-03T07:32:14Z</time></trkpt><trkpt lat="50.17346414870852" lon="15.965288616750428"><ele>274.0</ele><time>2026-05-03T07:32:15Z</time></trkpt><trkpt lat="50.17304155458872" lon="15.965284170961025"><ele>274.0</ele><time>2026-05-03T07:32:16Z</time></trkpt><trkpt lat="50.1726357175728" lon="15.965222021298253"><ele>274.0</ele><time>2026-05-03T07:32:17Z</time></trkpt><trkpt lat="50.1722771389095" lon="15.965168363208567"><ele>275.0</ele><time>2026-05-03T07:32:18Z</time></trkpt><trkpt lat="50.17195269521793" lon="15.965129665756454"><ele>276.0</ele><time>2026-05-03T07:32:19Z</time></trkpt><trkpt lat="50.1716523544969" lon="15.965091430898905"><ele>275.5</ele><time>2026-05-03T07:32:20Z</time></trkpt><trkpt lat="50.17135853439382" lon="15.965056113871613"><ele>275.0</ele><time>2026-05-03T07:32:21Z</time></trkpt><trkpt lat="50.171065866481584" lon="15.965021677852622"><ele>272.5</ele><time>2026-05-03T07:32:22Z</time></trkpt><trkpt lat="50.17077720785567" lon="15.964991105028155"><ele>270.0</ele><time>2026-05-03T07:32:23Z</time></trkpt><trkpt lat="50.170490702124646" lon="15.964957241921953"><ele>270.0</ele><time>2026-05-03T07:32:24Z</time></trkpt><trkpt lat="50.170217699184" lon="15.964921666438462"><ele>270.0</ele><time>2026-05-03T07:32:25Z</time></trkpt><trkpt lat="50.16996117580489" lon="15.964892436551375"><ele>270.5</ele><time>2026-05-03T07:32:26Z</time></trkpt><trkpt lat="50.16973290812818" lon="15.964870514300989"><ele>271.0</ele><time>2026-05-03T07:32:27Z</time></trkpt><trkpt lat="50.16950446849522" lon="15.964844396582004"><ele>271.0</ele><time>2026-05-03T07:32:28Z</time></trkpt><trkpt lat="50.16929931965226" lon="15.964820787245694"><ele>271.0</ele><time>2026-05-03T07:32:29Z</time></trkpt><trkpt lat="50.16910301776713" lon="15.964798183828222"><ele>271.0</ele><time>2026-05-03T07:32:30Z</time></trkpt><trkpt lat="50.16890506661644" lon="15.964780611712495"><ele>273.0</ele><time>2026-05-03T07:32:31Z</time></trkpt><trkpt lat="50.16869878272133" lon="15.964787883672141"><ele>275.0</ele><time>2026-05-03T07:32:32Z</time></trkpt><trkpt lat="50.168490001950325" lon="15.964834834570754"><ele>277.0</ele><time>2026-05-03T07:32:33Z</time></trkpt><trkpt lat="50.16828979714472" lon="15.964920020524719"><ele>277.0</ele><time>2026-05-03T07:32:34Z</time></trkpt><trkpt lat="50.168106850593325" lon="15.96499795339631"><ele>277.0</ele><time>2026-05-03T07:32:35Z</time></trkpt><trkpt lat="50.16793007778715" lon="15.965063315301327"><ele>277.0</ele><time>2026-05-03T07:32:36Z</time></trkpt><trkpt lat="50.16776639375461" lon="15.965118630397287"><ele>277.0</ele><time>2026-05-03T07:32:36.999Z</time></trkpt><trkpt lat="50.16761412901555" lon="15.965166715724196"><ele>277.0</ele><time>2026-05-03T07:32:37.999Z</time></trkpt><trkpt lat="50.16747700026436" lon="15.965193232174046"><ele>277.0</ele><time>2026-05-03T07:32:38.999Z</time></trkpt><trkpt lat="50.1673620501344" lon="15.965198122335456"><ele>277.0</ele><time>2026-05-03T07:32:39.999Z</time></trkpt><trkpt lat="50.16725489925391" lon="15.965186306444188"><ele>277.0</ele><time>2026-05-03T07:32:40.999Z</time></trkpt><trkpt lat="50.167146441543316" lon="15.965160363785346"><ele>277.0</ele><time>2026-05-03T07:32:41.999Z</time></trkpt><trkpt lat="50.16702875819023" lon="15.965090198588461"><ele>277.0</ele><time>2026-05-03T07:32:42.999Z</time></trkpt><trkpt lat="50.166886114482466" lon="15.965020136162023"><ele>277.0</ele><time>2026-05-03T07:32:43.999Z</time></trkpt><trkpt lat="50.166730260403" lon="15.964938146461392"><ele>276.3333333333333</ele><time>2026-05-03T07:32:44.999Z</time></trkpt><trkpt lat="50.16656895393652" lon="15.964871563020488"><ele>275.6666666666667</ele><time>2026-05-03T07:32:45.999Z</time></trkpt><trkpt lat="50.16642252018147" lon="15.964783538004358"><ele>275.0</ele><time>2026-05-03T07:32:46.999Z</time></trkpt><trkpt lat="50.166270174345144" lon="15.964699377986964"><ele>275.0</ele><time>2026-05-03T07:32:48Z</time></trkpt><trkpt lat="50.16610364623433" lon="15.964601206728753"><ele>275.0</ele><time>2026-05-03T07:32:49Z</time></trkpt><trkpt lat="50.16592409623157" lon="15.964496753720187"><ele>275.0</ele><time>2026-05-03T07:32:50Z</time></trkpt><trkpt lat="50.165731824908804" lon="15.964384696919236"><ele>273.6666666666667</ele><time>2026-05-03T07:32:51Z</time></trkpt><trkpt lat="50.165536783027385" lon="15.964278707849187"><ele>272.3333333333333</ele><time>2026-05-03T07:32:52Z</time></trkpt><trkpt lat="50.16532795580375" lon="15.964163479306777"><ele>271.0</ele><time>2026-05-03T07:32:53Z</time></trkpt><trkpt lat="50.16512266987766" lon="15.964051533948028"><ele>269.66666666666663</ele><time>2026-05-03T07:32:54Z</time></trkpt><trkpt lat="50.16493261831493" lon="15.963949019238301"><ele>268.3333333333333</ele><time>2026-05-03T07:32:55Z</time></trkpt><trkpt lat="50.1647467840924" lon="15.963844984052612"><ele>267.0</ele><time>2026-05-03T07:32:56Z</time></trkpt><trkpt lat="50.16456433307101" lon="15.963748342279303"><ele>267.0</ele><time>2026-05-03T07:32:57Z</time></trkpt><trkpt lat="50.16437677155221" lon="15.96364845284572"><ele>267.0</ele><time>2026-05-03T07:32:58Z</time></trkpt><trkpt lat="50.16418620245114" lon="15.963542747550811"><ele>267.0</ele><time>2026-05-03T07:32:59Z</time></trkpt><trkpt lat="50.164011764747045" lon="15.963397199212121"><ele>267.3333333333333</ele><time>2026-05-03T07:33:00Z</time></trkpt><trkpt lat="50.163852477854945" lon="15.96323673194042"><ele>267.66666666666663</ele><time>2026-05-03T07:33:01Z</time></trkpt><trkpt lat="50.16371542636644" lon="15.963062306007517"><ele>268.0</ele><time>2026-05-03T07:33:02Z</time></trkpt><trkpt lat="50.16358476211316" lon="15.962900692102293"><ele>268.0</ele><time>2026-05-03T07:33:03Z</time></trkpt><trkpt lat="50.16344521317288" lon="15.962769283278714"><ele>268.0</ele><time>2026-05-03T07:33:04Z</time></trkpt><trkpt lat="50.16328977647719" lon="15.962610563507512"><ele>268.0</ele><time>2026-05-03T07:33:05Z</time></trkpt><trkpt lat="50.16311262572493" lon="15.962438668643578"><ele>268.0</ele><time>2026-05-03T07:33:06Z</time></trkpt><trkpt lat="50.16290475305999" lon="15.962307944817319"><ele>268.0</ele><time>2026-05-03T07:33:07Z</time></trkpt><trkpt lat="50.162652537682035" lon="15.962178058343182"><ele>268.0</ele><time>2026-05-03T07:33:08Z</time></trkpt><trkpt lat="50.16237099361201" lon="15.962037516639043"><ele>268.0</ele><time>2026-05-03T07:33:09Z</time></trkpt><trkpt lat="50.16209270261549" lon="15.96189841348949"><ele>268.0</ele><time>2026-05-03T07:33:10Z</time></trkpt><trkpt lat="50.16183537678234" lon="15.96177675660994"><ele>268.0</ele><time>2026-05-03T07:33:11Z</time></trkpt><trkpt lat="50.16160101978674" lon="15.961651146293116"><ele>267.5</ele><time>2026-05-03T07:33:12Z</time></trkpt><trkpt lat="50.161372128798696" lon="15.961456642636366"><ele>267.0</ele><time>2026-05-03T07:33:13Z</time></trkpt><trkpt lat="50.1611454804454" lon="15.961216029984396"><ele>267.0</ele><time>2026-05-03T07:33:14Z</time></trkpt><trkpt lat="50.16090872359851" lon="15.960901647512141"><ele>267.0</ele><time>2026-05-03T07:33:15Z</time></trkpt><trkpt lat="50.16065170568841" lon="15.960552312616402"><ele>266.5</ele><time>2026-05-03T07:33:16Z</time></trkpt><trkpt lat="50.160423331156146" lon="15.960269193421604"><ele>266.0</ele><time>2026-05-03T07:33:17Z</time></trkpt><trkpt lat="50.16021861791075" lon="15.959973551749838"><ele>265.0</ele><time>2026-05-03T07:33:18Z</time></trkpt><trkpt lat="50.160021542637715" lon="15.959696965846394"><ele>264.0</ele><time>2026-05-03T07:33:19Z</time></trkpt><trkpt lat="50.15983505461819" lon="15.959386289702557"><ele>262.0</ele><time>2026-05-03T07:33:20Z</time></trkpt><trkpt lat="50.159633572135114" lon="15.959061094033418"><ele>260.0</ele><time>2026-05-03T07:33:21Z</time></trkpt><trkpt lat="50.1594202648991" lon="15.9587144785812"><ele>260.0</ele><time>2026-05-03T07:33:22Z</time></trkpt><trkpt lat="50.159198893343074" lon="15.958382198050604"><ele>260.0</ele><time>2026-05-03T07:33:23Z</time></trkpt><trkpt lat="50.15898631438585" lon="15.958032865879039"><ele>260.0</ele><time>2026-05-03T07:33:24Z</time></trkpt><trkpt lat="50.15876669186911" lon="15.9576791857487"><ele>260.0</ele><time>2026-05-03T07:33:25Z</time></trkpt><trkpt lat="50.15853891677011" lon="15.957314586452547"><ele>260.0</ele><time>2026-05-03T07:33:26Z</time></trkpt><trkpt lat="50.15829148897031" lon="15.956925133544468"><ele>260.0</ele><time>2026-05-03T07:33:27Z</time></trkpt><trkpt lat="50.15801770274123" lon="15.956515806800446"><ele>261.0</ele><time>2026-05-03T07:33:28Z</time></trkpt><trkpt lat="50.15774128436702" lon="15.95612110804661"><ele>262.0</ele><time>2026-05-03T07:33:29Z</time></trkpt><trkpt lat="50.15750353829374" lon="15.955784352586736"><ele>261.5</ele><time>2026-05-03T07:33:30Z</time></trkpt><trkpt lat="50.157298982602136" lon="15.95546593178797"><ele>261.0</ele><time>2026-05-03T07:33:31Z</time></trkpt><trkpt lat="50.1570986602888" lon="15.955180863393315"><ele>261.0</ele><time>2026-05-03T07:33:32Z</time></trkpt><trkpt lat="50.15689361190134" lon="15.954891510056042"><ele>261.0</ele><time>2026-05-03T07:33:33Z</time></trkpt><trkpt lat="50.156704931756906" lon="15.954669457305535"><ele>261.0</ele><time>2026-05-03T07:33:34Z</time></trkpt><trkpt lat="50.15654476771561" lon="15.95444399935968"><ele>261.0</ele><time>2026-05-03T07:33:35Z</time></trkpt><trkpt lat="50.15639628035676" lon="15.954242771270073"><ele>261.0</ele><time>2026-05-03T07:33:36Z</time></trkpt><trkpt lat="50.156256388871164" lon="15.954060011595429"><ele>261.6666666666667</ele><time>2026-05-03T07:33:37Z</time></trkpt><trkpt lat="50.156109473720726" lon="15.953880085130528"><ele>262.33333333333337</ele><time>2026-05-03T07:33:38Z</time></trkpt><trkpt lat="50.15594232155294" lon="15.953721959717003"><ele>263.0</ele><time>2026-05-03T07:33:39Z</time></trkpt><trkpt lat="50.15576500191946" lon="15.953582528661233"><ele>263.0</ele><time>2026-05-03T07:33:40Z</time></trkpt><trkpt lat="50.15558492983557" lon="15.953449969751821"><ele>263.0</ele><time>2026-05-03T07:33:41Z</time></trkpt><trkpt lat="50.1553986505395" lon="15.953311422434576"><ele>263.0</ele><time>2026-05-03T07:33:42Z</time></trkpt><trkpt lat="50.15521879522436" lon="15.9531853527988"><ele>263.0</ele><time>2026-05-03T07:33:43Z</time></trkpt><trkpt lat="50.155040235225776" lon="15.95305808082213"><ele>263.0</ele><time>2026-05-03T07:33:44Z</time></trkpt><trkpt lat="50.154863616866024" lon="15.952926282849432"><ele>263.0</ele><time>2026-05-03T07:33:45Z</time></trkpt><trkpt lat="50.15469908767574" lon="15.952803163975796"><ele>263.0</ele><time>2026-05-03T07:33:46Z</time></trkpt><trkpt lat="50.154546584583215" lon="15.952696719530756"><ele>263.0</ele><time>2026-05-03T07:33:47Z</time></trkpt><trkpt lat="50.154407302202024" lon="15.95259491765008"><ele>263.0</ele><time>2026-05-03T07:33:48Z</time></trkpt><trkpt lat="50.15427048149264" lon="15.952496254788068"><ele>264.0</ele><time>2026-05-03T07:33:49Z</time></trkpt><trkpt lat="50.15412930088692" lon="15.952395298467994"><ele>265.0</ele><time>2026-05-03T07:33:50Z</time></trkpt><trkpt lat="50.1539934598739" lon="15.952293208588637"><ele>266.0</ele><time>2026-05-03T07:33:51Z</time></trkpt><trkpt lat="50.15386079946008" lon="15.952190567673808"><ele>267.25</ele><time>2026-05-03T07:33:52Z</time></trkpt><trkpt lat="50.15374333131877" lon="15.952089081742317"><ele>268.5</ele><time>2026-05-03T07:33:53Z</time></trkpt><trkpt lat="50.15365482446604" lon="15.951934083722538"><ele>269.75</ele><time>2026-05-03T07:33:54Z</time></trkpt><trkpt lat="50.15360075382032" lon="15.951741730889342"><ele>271.0</ele><time>2026-05-03T07:33:55Z</time></trkpt><trkpt lat="50.15360314662918" lon="15.951511182184607"><ele>271.3333333333333</ele><time>2026-05-03T07:33:56Z</time></trkpt><trkpt lat="50.15363370934217" lon="15.951268390517653"><ele>271.6666666666667</ele><time>2026-05-03T07:33:57Z</time></trkpt><trkpt lat="50.153661320324126" lon="15.951039229574647"><ele>272.0</ele><time>2026-05-03T07:33:58Z</time></trkpt><trkpt lat="50.15347310002345" lon="15.950699017709532"><ele>272.0</ele><time>2026-05-03T07:33:59Z</time></trkpt><trkpt lat="50.15337725169473" lon="15.950413953924576"><ele>272.0</ele><time>2026-05-03T07:34:00Z</time></trkpt><trkpt lat="50.15326705203901" lon="15.950161332833229"><ele>272.0</ele><time>2026-05-03T07:34:01Z</time></trkpt><trkpt lat="50.15319284829687" lon="15.949994388372954"><ele>273.0</ele><time>2026-05-03T07:34:02Z</time></trkpt><trkpt lat="50.153124168581904" lon="15.949852667017815"><ele>274.0</ele><time>2026-05-03T07:34:03Z</time></trkpt><trkpt lat="50.15305343522356" lon="15.949713074497794"><ele>275.0</ele><time>2026-05-03T07:34:04Z</time></trkpt><trkpt lat="50.15297481707574" lon="15.949558691402382"><ele>276.0</ele><time>2026-05-03T07:34:05Z</time></trkpt><trkpt lat="50.15290556717862" lon="15.949385981239663"><ele>276.0</ele><time>2026-05-03T07:34:06Z</time></trkpt><trkpt lat="50.152835140912" lon="15.949210455805444"><ele>276.0</ele><time>2026-05-03T07:34:07Z</time></trkpt><trkpt lat="50.15275108502721" lon="15.94902590295219"><ele>276.0</ele><time>2026-05-03T07:34:08Z</time></trkpt><trkpt lat="50.152651132129876" lon="15.948820191726893"><ele>276.0</ele><time>2026-05-03T07:34:09Z</time></trkpt><trkpt lat="50.15254606390522" lon="15.948566993806466"><ele>277.3333333333333</ele><time>2026-05-03T07:34:10Z</time></trkpt><trkpt lat="50.15243185801175" lon="15.948307022744848"><ele>278.66666666666663</ele><time>2026-05-03T07:34:11Z</time></trkpt><trkpt lat="50.15232038122236" lon="15.948063045509915"><ele>280.0</ele><time>2026-05-03T07:34:12Z</time></trkpt><trkpt lat="50.15220543023196" lon="15.947817142921078"><ele>281.5</ele><time>2026-05-03T07:34:13Z</time></trkpt><trkpt lat="50.15207514216528" lon="15.947539804761686"><ele>283.0</ele><time>2026-05-03T07:34:14Z</time></trkpt><trkpt lat="50.151919942047265" lon="15.947235973047878"><ele>283.0</ele><time>2026-05-03T07:34:15Z</time></trkpt><trkpt lat="50.151737550803404" lon="15.946908064659965"><ele>283.0</ele><time>2026-05-03T07:34:16Z</time></trkpt><trkpt lat="50.151536941116916" lon="15.946571810692003"><ele>284.5</ele><time>2026-05-03T07:34:17Z</time></trkpt><trkpt lat="50.15136021269247" lon="15.946275151056078"><ele>286.0</ele><time>2026-05-03T07:34:18Z</time></trkpt><trkpt lat="50.15121013637405" lon="15.946003263294399"><ele>287.5</ele><time>2026-05-03T07:34:19Z</time></trkpt><trkpt lat="50.15105651674823" lon="15.945727920385481"><ele>289.0</ele><time>2026-05-03T07:34:20Z</time></trkpt><trkpt lat="50.15091300789834" lon="15.945454765000216"><ele>289.0</ele><time>2026-05-03T07:34:21Z</time></trkpt><trkpt lat="50.15079633297959" lon="15.94519408642765"><ele>289.0</ele><time>2026-05-03T07:34:22Z</time></trkpt><trkpt lat="50.15069326343484" lon="15.944932382668913"><ele>289.0</ele><time>2026-05-03T07:34:23Z</time></trkpt><trkpt lat="50.150612784604505" lon="15.944663753821764"><ele>294.0</ele><time>2026-05-03T07:34:24Z</time></trkpt><trkpt lat="50.15055159361421" lon="15.944345540850398"><ele>299.0</ele><time>2026-05-03T07:34:25Z</time></trkpt><trkpt lat="50.15050788213726" lon="15.943987890783848"><ele>304.0</ele><time>2026-05-03T07:34:26Z</time></trkpt><trkpt lat="50.15046323259188" lon="15.943626947535215"><ele>303.0</ele><time>2026-05-03T07:34:27Z</time></trkpt><trkpt lat="50.15039783911506" lon="15.943288182543025"><ele>302.0</ele><time>2026-05-03T07:34:28Z</time></trkpt><trkpt lat="50.15029194443672" lon="15.942965073867509"><ele>302.0</ele><time>2026-05-03T07:34:29Z</time></trkpt><trkpt lat="50.15014857038049" lon="15.942628070002772"><ele>302.0</ele><time>2026-05-03T07:34:30Z</time></trkpt><trkpt lat="50.14998030343232" lon="15.942248742490799"><ele>302.5</ele><time>2026-05-03T07:34:31Z</time></trkpt><trkpt lat="50.149827492621505" lon="15.941882597599555"><ele>303.0</ele><time>2026-05-03T07:34:32Z</time></trkpt><trkpt lat="50.149690226652034" lon="15.941556861902773"><ele>303.0</ele><time>2026-05-03T07:34:33Z</time></trkpt><trkpt lat="50.149561948161065" lon="15.94125695468305"><ele>303.0</ele><time>2026-05-03T07:34:34Z</time></trkpt><trkpt lat="50.149443713689756" lon="15.940963969603715"><ele>302.6666666666667</ele><time>2026-05-03T07:34:35Z</time></trkpt><trkpt lat="50.149321781363355" lon="15.940675341272645"><ele>302.33333333333337</ele><time>2026-05-03T07:34:35.999Z</time></trkpt><trkpt lat="50.14921477756817" lon="15.94040594813172"><ele>302.0</ele><time>2026-05-03T07:34:36.999Z</time></trkpt><trkpt lat="50.149140261355505" lon="15.94011061380554"><ele>301.5</ele><time>2026-05-03T07:34:37.999Z</time></trkpt><trkpt lat="50.14909791714208" lon="15.93974017396584"><ele>301.0</ele><time>2026-05-03T07:34:38.999Z</time></trkpt><trkpt lat="50.149099827885664" lon="15.939309583752845"><ele>301.0</ele><time>2026-05-03T07:34:39.999Z</time></trkpt><trkpt lat="50.14905217535891" lon="15.938862616961165"><ele>301.0</ele><time>2026-05-03T07:34:40.999Z</time></trkpt><trkpt lat="50.14900305749424" lon="15.93842090565502"><ele>302.5</ele><time>2026-05-03T07:34:41.999Z</time></trkpt><trkpt lat="50.148927087049195" lon="15.937997123541765"><ele>304.0</ele><time>2026-05-03T07:34:42.999Z</time></trkpt><trkpt lat="50.14884680157242" lon="15.937553258174216"><ele>303.0</ele><time>2026-05-03T07:34:43.999Z</time></trkpt><trkpt lat="50.14875348092296" lon="15.937119168084786"><ele>302.0</ele><time>2026-05-03T07:34:44.999Z</time></trkpt><trkpt lat="50.148673757094265" lon="15.936752307988247"><ele>301.6666666666667</ele><time>2026-05-03T07:34:45.999Z</time></trkpt><trkpt lat="50.14860146984418" lon="15.93643320383756"><ele>301.3333333333333</ele><time>2026-05-03T07:34:46.999Z</time></trkpt><trkpt lat="50.148494250648284" lon="15.93613683225071"><ele>301.0</ele><time>2026-05-03T07:34:47.999Z</time></trkpt><trkpt lat="50.14834677820518" lon="15.935830073163915"><ele>303.5</ele><time>2026-05-03T07:34:48.999Z</time></trkpt><trkpt lat="50.14817048470657" lon="15.935499929405827"><ele>306.0</ele><time>2026-05-03T07:34:49.999Z</time></trkpt><trkpt lat="50.148006289389755" lon="15.935204740357783"><ele>306.3333333333333</ele><time>2026-05-03T07:34:50.999Z</time></trkpt><trkpt lat="50.14789122592561" lon="15.934919060238146"><ele>306.66666666666663</ele><time>2026-05-03T07:34:51.999Z</time></trkpt><trkpt lat="50.147775499678275" lon="15.934662208214522"><ele>307.0</ele><time>2026-05-03T07:34:52.999Z</time></trkpt><trkpt lat="50.14766193312106" lon="15.9344053832665"><ele>306.3333333333333</ele><time>2026-05-03T07:34:54Z</time></trkpt><trkpt lat="50.14753832898415" lon="15.934138583424518"><ele>305.6666666666667</ele><time>2026-05-03T07:34:55Z</time></trkpt><trkpt lat="50.14739842938443" lon="15.933874395476545"><ele>305.0</ele><time>2026-05-03T07:34:56Z</time></trkpt><trkpt lat="50.147234712785725" lon="15.93360933147393"><ele>305.6666666666667</ele><time>2026-05-03T07:34:57Z</time></trkpt><trkpt lat="50.14707015952149" lon="15.933358097530474"><ele>306.3333333333333</ele><time>2026-05-03T07:34:58Z</time></trkpt><trkpt lat="50.14691768564494" lon="15.933122240348798"><ele>307.0</ele><time>2026-05-03T07:34:59Z</time></trkpt><trkpt lat="50.14677522706735" lon="15.932902004082658"><ele>307.0</ele><time>2026-05-03T07:35:00Z</time></trkpt><trkpt lat="50.14663074557476" lon="15.932680219948068"><ele>307.0</ele><time>2026-05-03T07:35:01Z</time></trkpt><trkpt lat="50.14649134373524" lon="15.932463489007969"><ele>307.0</ele><time>2026-05-03T07:35:02Z</time></trkpt><trkpt lat="50.14635749267683" lon="15.932259458841044"><ele>308.0</ele><time>2026-05-03T07:35:03Z</time></trkpt><trkpt lat="50.146223374514705" lon="15.932056258339271"><ele>309.0</ele><time>2026-05-03T07:35:04Z</time></trkpt><trkpt lat="50.14608603683016" lon="15.931846607588861"><ele>310.0</ele><time>2026-05-03T07:35:05Z</time></trkpt><trkpt lat="50.14593139112042" lon="15.93160484912879"><ele>310.5</ele><time>2026-05-03T07:35:06Z</time></trkpt><trkpt lat="50.14575558025199" lon="15.931327760656947"><ele>311.0</ele><time>2026-05-03T07:35:07Z</time></trkpt><trkpt lat="50.145590975286964" lon="15.931037108530859"><ele>310.0</ele><time>2026-05-03T07:35:08Z</time></trkpt><trkpt lat="50.14542689382339" lon="15.93071761757538"><ele>309.0</ele><time>2026-05-03T07:35:09Z</time></trkpt><trkpt lat="50.14527208526811" lon="15.93040010627334"><ele>309.0</ele><time>2026-05-03T07:35:10Z</time></trkpt><trkpt lat="50.145131900168145" lon="15.930112873109708"><ele>309.0</ele><time>2026-05-03T07:35:11Z</time></trkpt><trkpt lat="50.14500487259755" lon="15.9298539558769"><ele>309.0</ele><time>2026-05-03T07:35:12Z</time></trkpt><trkpt lat="50.14488582084317" lon="15.929606688654733"><ele>309.0</ele><time>2026-05-03T07:35:13Z</time></trkpt><trkpt lat="50.14476702845657" lon="15.929364896950203"><ele>309.0</ele><time>2026-05-03T07:35:14Z</time></trkpt><trkpt lat="50.1446420546545" lon="15.929111690037114"><ele>309.0</ele><time>2026-05-03T07:35:15Z</time></trkpt><trkpt lat="50.144524646665396" lon="15.928872105962677"><ele>309.0</ele><time>2026-05-03T07:35:16Z</time></trkpt><trkpt lat="50.14441215444792" lon="15.92863812485318"><ele>309.0</ele><time>2026-05-03T07:35:17Z</time></trkpt><trkpt lat="50.14429893335072" lon="15.928403286899131"><ele>309.0</ele><time>2026-05-03T07:35:18Z</time></trkpt><trkpt lat="50.14418707708607" lon="15.928169487763666"><ele>308.6666666666667</ele><time>2026-05-03T07:35:19Z</time></trkpt><trkpt lat="50.14407455337828" lon="15.927933390989564"><ele>308.33333333333337</ele><time>2026-05-03T07:35:20Z</time></trkpt><trkpt lat="50.14396639973168" lon="15.92770290501834"><ele>308.0</ele><time>2026-05-03T07:35:21Z</time></trkpt><trkpt lat="50.143862470873806" lon="15.927460320392811"><ele>305.33333333333337</ele><time>2026-05-03T07:35:22Z</time></trkpt><trkpt lat="50.1437610814601" lon="15.927213754249514"><ele>302.6666666666667</ele><time>2026-05-03T07:35:23Z</time></trkpt><trkpt lat="50.1436631183966" lon="15.926964223108607"><ele>300.0</ele><time>2026-05-03T07:35:24Z</time></trkpt><trkpt lat="50.143564923134214" lon="15.926705477157935"><ele>299.3333333333333</ele><time>2026-05-03T07:35:25Z</time></trkpt><trkpt lat="50.143461431465674" lon="15.92643277435053"><ele>298.66666666666663</ele><time>2026-05-03T07:35:26Z</time></trkpt><trkpt lat="50.14335666476107" lon="15.926156710552215"><ele>298.0</ele><time>2026-05-03T07:35:27Z</time></trkpt><trkpt lat="50.14325577051873" lon="15.925890850822945"><ele>301.66666666666663</ele><time>2026-05-03T07:35:28Z</time></trkpt><trkpt lat="50.14311031627231" lon="15.925653256465845"><ele>305.3333333333333</ele><time>2026-05-03T07:35:29Z</time></trkpt><trkpt lat="50.14298126121206" lon="15.925383872337681"><ele>309.0</ele><time>2026-05-03T07:35:30Z</time></trkpt><trkpt lat="50.14284097224932" lon="15.925128601294322"><ele>309.0</ele><time>2026-05-03T07:35:31Z</time></trkpt><trkpt lat="50.14268929543221" lon="15.924899525734382"><ele>309.0</ele><time>2026-05-03T07:35:32Z</time></trkpt><trkpt lat="50.14251823659749" lon="15.924673150322766"><ele>309.0</ele><time>2026-05-03T07:35:33Z</time></trkpt><trkpt lat="50.14235257243245" lon="15.924466211245644"><ele>309.0</ele><time>2026-05-03T07:35:34Z</time></trkpt><trkpt lat="50.142196114106625" lon="15.924261820969447"><ele>309.0</ele><time>2026-05-03T07:35:35Z</time></trkpt><trkpt lat="50.142037029323575" lon="15.924056883395595"><ele>309.0</ele><time>2026-05-03T07:35:36Z</time></trkpt><trkpt lat="50.141879197388974" lon="15.92385512246586"><ele>308.6666666666667</ele><time>2026-05-03T07:35:37Z</time></trkpt><trkpt lat="50.141728620360716" lon="15.92366251776439"><ele>308.33333333333337</ele><time>2026-05-03T07:35:38Z</time></trkpt><trkpt lat="50.14157999035869" lon="15.923468432872701"><ele>308.0</ele><time>2026-05-03T07:35:39Z</time></trkpt><trkpt lat="50.141437538987915" lon="15.923280276234143"><ele>308.0</ele><time>2026-05-03T07:35:40Z</time></trkpt><trkpt lat="50.141296431208474" lon="15.92309823371732"><ele>308.0</ele><time>2026-05-03T07:35:41Z</time></trkpt><trkpt lat="50.14115774625829" lon="15.922921289372615"><ele>308.0</ele><time>2026-05-03T07:35:42Z</time></trkpt><trkpt lat="50.14102261896765" lon="15.922742777907464"><ele>308.0</ele><time>2026-05-03T07:35:43Z</time></trkpt><trkpt lat="50.14089131510311" lon="15.92257138831028"><ele>308.0</ele><time>2026-05-03T07:35:44Z</time></trkpt><trkpt lat="50.140766007309445" lon="15.922394421741725"><ele>308.0</ele><time>2026-05-03T07:35:45Z</time></trkpt><trkpt lat="50.14063630534429" lon="15.922217497696806"><ele>304.33333333333337</ele><time>2026-05-03T07:35:46Z</time></trkpt><trkpt lat="50.140492277083716" lon="15.922042242332715"><ele>300.6666666666667</ele><time>2026-05-03T07:35:47Z</time></trkpt><trkpt lat="50.140344026768226" lon="15.921836722653161"><ele>297.0</ele><time>2026-05-03T07:35:48Z</time></trkpt><trkpt lat="50.1401791665249" lon="15.92162848469937"><ele>296.5</ele><time>2026-05-03T07:35:49Z</time></trkpt><trkpt lat="50.14000522608156" lon="15.921414714304332"><ele>296.0</ele><time>2026-05-03T07:35:50Z</time></trkpt><trkpt lat="50.13981190150434" lon="15.921169431684419"><ele>292.0</ele><time>2026-05-03T07:35:51Z</time></trkpt><trkpt lat="50.139579468730176" lon="15.920888868060958"><ele>288.0</ele><time>2026-05-03T07:35:52Z</time></trkpt><trkpt lat="50.13932308438872" lon="15.920573413418094"><ele>287.5</ele><time>2026-05-03T07:35:53Z</time></trkpt><trkpt lat="50.139050772543754" lon="15.9202265660259"><ele>287.0</ele><time>2026-05-03T07:35:54Z</time></trkpt><trkpt lat="50.13878370633365" lon="15.919868646425916"><ele>287.0</ele><time>2026-05-03T07:35:55Z</time></trkpt><trkpt lat="50.13854634778616" lon="15.919555165839567"><ele>287.0</ele><time>2026-05-03T07:35:56Z</time></trkpt><trkpt lat="50.13832173693537" lon="15.919272564432442"><ele>284.0</ele><time>2026-05-03T07:35:57Z</time></trkpt><trkpt lat="50.13811400490033" lon="15.91901315051515"><ele>281.0</ele><time>2026-05-03T07:35:58Z</time></trkpt><trkpt lat="50.13791865722676" lon="15.918766905658138"><ele>281.0</ele><time>2026-05-03T07:35:59Z</time></trkpt><trkpt lat="50.137726462143426" lon="15.918524751277214"><ele>281.0</ele><time>2026-05-03T07:36:00Z</time></trkpt><trkpt lat="50.1375302618299" lon="15.918281443119579"><ele>280.5</ele><time>2026-05-03T07:36:01Z</time></trkpt><trkpt lat="50.13733519905522" lon="15.91804059016284"><ele>280.0</ele><time>2026-05-03T07:36:02Z</time></trkpt><trkpt lat="50.13714705621929" lon="15.917796827924944"><ele>279.5</ele><time>2026-05-03T07:36:03Z</time></trkpt><trkpt lat="50.13695416465532" lon="15.917546109916513"><ele>279.0</ele><time>2026-05-03T07:36:04Z</time></trkpt><trkpt lat="50.136753214465266" lon="15.917294180009913"><ele>276.0</ele><time>2026-05-03T07:36:05Z</time></trkpt><trkpt lat="50.13655053289908" lon="15.917043128455528"><ele>273.0</ele><time>2026-05-03T07:36:06Z</time></trkpt><trkpt lat="50.136361562780436" lon="15.916802913296284"><ele>272.3333333333333</ele><time>2026-05-03T07:36:07Z</time></trkpt><trkpt lat="50.13618562325985" lon="15.91657793320116"><ele>271.66666666666663</ele><time>2026-05-03T07:36:08Z</time></trkpt><trkpt lat="50.1360199392163" lon="15.916367030215655"><ele>271.0</ele><time>2026-05-03T07:36:09Z</time></trkpt><trkpt lat="50.13586198091825" lon="15.916169527569336"><ele>270.0</ele><time>2026-05-03T07:36:10Z</time></trkpt><trkpt lat="50.135713232030945" lon="15.915979632356262"><ele>269.0</ele><time>2026-05-03T07:36:11Z</time></trkpt><trkpt lat="50.135567478036826" lon="15.915809947892853"><ele>268.0</ele><time>2026-05-03T07:36:12Z</time></trkpt><trkpt lat="50.13540845386559" lon="15.915664281172024"><ele>266.66666666666663</ele><time>2026-05-03T07:36:13Z</time></trkpt><trkpt lat="50.1352314471159" lon="15.915540507540928"><ele>265.3333333333333</ele><time>2026-05-03T07:36:14Z</time></trkpt><trkpt lat="50.13503951531696" lon="15.9154306601876"><ele>264.0</ele><time>2026-05-03T07:36:15Z</time></trkpt><trkpt lat="50.13484306445257" lon="15.915325512233553"><ele>263.0</ele><time>2026-05-03T07:36:16Z</time></trkpt><trkpt lat="50.13464036268639" lon="15.915222011002403"><ele>262.0</ele><time>2026-05-03T07:36:17Z</time></trkpt><trkpt lat="50.13443659061389" lon="15.91512290483259"><ele>261.0</ele><time>2026-05-03T07:36:18Z</time></trkpt><trkpt lat="50.13422838695515" lon="15.915017307221115"><ele>260.0</ele><time>2026-05-03T07:36:19Z</time></trkpt><trkpt lat="50.134020218795584" lon="15.914907193184805"><ele>259.0</ele><time>2026-05-03T07:36:20Z</time></trkpt><trkpt lat="50.13381059562847" lon="15.914800076870645"><ele>258.0</ele><time>2026-05-03T07:36:21Z</time></trkpt><trkpt lat="50.133600872978676" lon="15.91468981551026"><ele>258.0</ele><time>2026-05-03T07:36:22Z</time></trkpt><trkpt lat="50.133389635892094" lon="15.914578249418843"><ele>258.0</ele><time>2026-05-03T07:36:23Z</time></trkpt><trkpt lat="50.133180310788056" lon="15.914465084961027"><ele>258.0</ele><time>2026-05-03T07:36:24Z</time></trkpt><trkpt lat="50.13296399473418" lon="15.914355581406852"><ele>257.6666666666667</ele><time>2026-05-03T07:36:25Z</time></trkpt><trkpt lat="50.13276042936636" lon="15.914253369153599"><ele>257.33333333333337</ele><time>2026-05-03T07:36:26Z</time></trkpt><trkpt lat="50.13256812052279" lon="15.914155549729816"><ele>257.0</ele><time>2026-05-03T07:36:27Z</time></trkpt><trkpt lat="50.13239435893903" lon="15.914065308148757"><ele>255.33333333333334</ele><time>2026-05-03T07:36:28Z</time></trkpt><trkpt lat="50.132233955556714" lon="15.913984358723996"><ele>253.66666666666669</ele><time>2026-05-03T07:36:29Z</time></trkpt><trkpt lat="50.13208223827555" lon="15.913904808332823"><ele>252.0</ele><time>2026-05-03T07:36:30Z</time></trkpt><trkpt lat="50.13193941039126" lon="15.913822164265008"><ele>252.0</ele><time>2026-05-03T07:36:31Z</time></trkpt><trkpt lat="50.1318155978237" lon="15.913749661499489"><ele>252.0</ele><time>2026-05-03T07:36:32Z</time></trkpt><trkpt lat="50.13171774885563" lon="15.913688927668675"><ele>252.0</ele><time>2026-05-03T07:36:33Z</time></trkpt><trkpt lat="50.13162723369385" lon="15.913623193431992"><ele>252.0</ele><time>2026-05-03T07:36:34Z</time></trkpt><trkpt lat="50.13155752953446" lon="15.913520112696329"><ele>252.0</ele><time>2026-05-03T07:36:35Z</time></trkpt><trkpt lat="50.13151916001869" lon="15.913438357478853"><ele>251.8</ele><time>2026-05-03T07:36:36Z</time></trkpt><trkpt lat="50.13146085988145" lon="15.913363419114132"><ele>251.6</ele><time>2026-05-03T07:36:37.999Z</time></trkpt><trkpt lat="50.131346917390516" lon="15.913371405450969"><ele>251.40000000000003</ele><time>2026-05-03T07:36:43.999Z</time></trkpt><trkpt lat="50.13125906157182" lon="15.913438940608657"><ele>251.20000000000002</ele><time>2026-05-03T07:36:44.999Z</time></trkpt><trkpt lat="50.131164112986355" lon="15.913528459840789"><ele>251.0</ele><time>2026-05-03T07:36:45.999Z</time></trkpt><trkpt lat="50.13107438307965" lon="15.913636008472391"><ele>251.0</ele><time>2026-05-03T07:36:46.999Z</time></trkpt><trkpt lat="50.1309793071634" lon="15.913747807194694"><ele>251.0</ele><time>2026-05-03T07:36:47.999Z</time></trkpt><trkpt lat="50.130781337646084" lon="15.91388745880757"><ele>251.0</ele><time>2026-05-03T07:36:48.999Z</time></trkpt><trkpt lat="50.13060715988971" lon="15.914058539867248"><ele>250.5</ele><time>2026-05-03T07:36:49.999Z</time></trkpt><trkpt lat="50.13041644040562" lon="15.914258485074738"><ele>250.0</ele><time>2026-05-03T07:36:50.999Z</time></trkpt><trkpt lat="50.13021762451478" lon="15.914470807728081"><ele>250.0</ele><time>2026-05-03T07:36:51.999Z</time></trkpt><trkpt lat="50.130014073185365" lon="15.914689821259813"><ele>250.0</ele><time>2026-05-03T07:36:52.999Z</time></trkpt><trkpt lat="50.12981076288957" lon="15.914906866079795"><ele>250.0</ele><time>2026-05-03T07:36:53.999Z</time></trkpt><trkpt lat="50.12959915901995" lon="15.915134972866209"><ele>250.0</ele><time>2026-05-03T07:36:54.999Z</time></trkpt><trkpt lat="50.129369926865074" lon="15.915377248461724"><ele>250.0</ele><time>2026-05-03T07:36:55.999Z</time></trkpt><trkpt lat="50.12913128783466" lon="15.915624636623958"><ele>250.0</ele><time>2026-05-03T07:36:56.999Z</time></trkpt><trkpt lat="50.128874377374245" lon="15.915877480428119"><ele>250.0</ele><time>2026-05-03T07:36:57.999Z</time></trkpt><trkpt lat="50.128599713275456" lon="15.91615800208155"><ele>250.0</ele><time>2026-05-03T07:36:58.999Z</time></trkpt><trkpt lat="50.128300019711794" lon="15.916462734560907"><ele>248.5</ele><time>2026-05-03T07:37:00Z</time></trkpt><trkpt lat="50.12798476204181" lon="15.916789573855604"><ele>247.0</ele><time>2026-05-03T07:37:01Z</time></trkpt><trkpt lat="50.127655014650045" lon="15.917136301179115"><ele>245.5</ele><time>2026-05-03T07:37:02Z</time></trkpt><trkpt lat="50.12731087204742" lon="15.917509230164894"><ele>244.0</ele><time>2026-05-03T07:37:03Z</time></trkpt><trkpt lat="50.12695563500696" lon="15.917870259381743"><ele>244.0</ele><time>2026-05-03T07:37:04Z</time></trkpt><trkpt lat="50.12659522678135" lon="15.918238532670225"><ele>244.0</ele><time>2026-05-03T07:37:05Z</time></trkpt><trkpt lat="50.126234614840634" lon="15.918613203846874"><ele>244.0</ele><time>2026-05-03T07:37:06Z</time></trkpt><trkpt lat="50.12588519783294" lon="15.91899563867158"><ele>244.0</ele><time>2026-05-03T07:37:07Z</time></trkpt><trkpt lat="50.12552987418077" lon="15.919376349669724"><ele>244.0</ele><time>2026-05-03T07:37:08Z</time></trkpt><trkpt lat="50.12516581718981" lon="15.91975641056575"><ele>244.0</ele><time>2026-05-03T07:37:09Z</time></trkpt><trkpt lat="50.12480772915316" lon="15.920119052256998"><ele>244.0</ele><time>2026-05-03T07:37:10Z</time></trkpt><trkpt lat="50.12449842500069" lon="15.920403732226621"><ele>244.0</ele><time>2026-05-03T07:37:11Z</time></trkpt><trkpt lat="50.12420561574518" lon="15.92068591102105"><ele>245.0</ele><time>2026-05-03T07:37:12Z</time></trkpt><trkpt lat="50.12390015758232" lon="15.920999009655462"><ele>246.0</ele><time>2026-05-03T07:37:12.999Z</time></trkpt><trkpt lat="50.12360830843095" lon="15.921298281306692"><ele>246.0</ele><time>2026-05-03T07:37:13.999Z</time></trkpt><trkpt lat="50.12334844571884" lon="15.921560764017432"><ele>246.0</ele><time>2026-05-03T07:37:14.999Z</time></trkpt><trkpt lat="50.123111862436524" lon="15.921806753192083"><ele>246.5</ele><time>2026-05-03T07:37:15.999Z</time></trkpt><trkpt lat="50.12288377128273" lon="15.922042039180118"><ele>247.0</ele><time>2026-05-03T07:37:17Z</time></trkpt><trkpt lat="50.122662993915206" lon="15.92226921873502"><ele>247.0</ele><time>2026-05-03T07:37:18Z</time></trkpt><trkpt lat="50.122449566527955" lon="15.922487184527652"><ele>247.0</ele><time>2026-05-03T07:37:19Z</time></trkpt><trkpt lat="50.122245459620316" lon="15.922694860281961"><ele>247.0</ele><time>2026-05-03T07:37:20Z</time></trkpt><trkpt lat="50.1220565146441" lon="15.922884296192876"><ele>247.0</ele><time>2026-05-03T07:37:21Z</time></trkpt><trkpt lat="50.12188358322073" lon="15.923062971973208"><ele>247.0</ele><time>2026-05-03T07:37:22Z</time></trkpt><trkpt lat="50.12172167705267" lon="15.923227918567125"><ele>247.0</ele><time>2026-05-03T07:37:23Z</time></trkpt><trkpt lat="50.12156743340736" lon="15.923384689513783"><ele>247.0</ele><time>2026-05-03T07:37:24Z</time></trkpt><trkpt lat="50.12142586170933" lon="15.923527856372202"><ele>247.0</ele><time>2026-05-03T07:37:25Z</time></trkpt><trkpt lat="50.121288098387765" lon="15.923665746014454"><ele>246.66666666666666</ele><time>2026-05-03T07:37:26Z</time></trkpt><trkpt lat="50.1211530105076" lon="15.923791562900492"><ele>246.33333333333331</ele><time>2026-05-03T07:37:27Z</time></trkpt><trkpt lat="50.12101433718754" lon="15.923915260029988"><ele>246.0</ele><time>2026-05-03T07:37:28Z</time></trkpt><trkpt lat="50.120876530313836" lon="15.924029815449337"><ele>246.0</ele><time>2026-05-03T07:37:29Z</time></trkpt><trkpt lat="50.120749398785996" lon="15.924170453777837"><ele>246.0</ele><time>2026-05-03T07:37:30Z</time></trkpt><trkpt lat="50.12064484554494" lon="15.924271290635062"><ele>246.0</ele><time>2026-05-03T07:37:31Z</time></trkpt><trkpt lat="50.120558542083664" lon="15.924345337308445"><ele>246.0</ele><time>2026-05-03T07:37:32Z</time></trkpt><trkpt lat="50.12047037625206" lon="15.924392834147607"><ele>245.25</ele><time>2026-05-03T07:37:33Z</time></trkpt><trkpt lat="50.12041136977678" lon="15.924479939744886"><ele>244.5</ele><time>2026-05-03T07:37:34Z</time></trkpt><trkpt lat="50.120271201388206" lon="15.924336420829025"><ele>243.75</ele><time>2026-05-03T07:37:35Z</time></trkpt><trkpt lat="50.12017168081066" lon="15.924235225448903"><ele>243.0</ele><time>2026-05-03T07:37:36Z</time></trkpt><trkpt lat="50.12011855433123" lon="15.924037642194554"><ele>242.66666666666669</ele><time>2026-05-03T07:37:37Z</time></trkpt><trkpt lat="50.12004054324383" lon="15.923833637553912"><ele>242.33333333333334</ele><time>2026-05-03T07:37:38Z</time></trkpt><trkpt lat="50.11995136943522" lon="15.923599861293168"><ele>242.0</ele><time>2026-05-03T07:37:39Z</time></trkpt><trkpt lat="50.119852136498196" lon="15.923342141728552"><ele>242.0</ele><time>2026-05-03T07:37:40Z</time></trkpt><trkpt lat="50.11973701480898" lon="15.923047953217699"><ele>242.0</ele><time>2026-05-03T07:37:41Z</time></trkpt><trkpt lat="50.119603315102864" lon="15.922708365224198"><ele>242.0</ele><time>2026-05-03T07:37:42Z</time></trkpt><trkpt lat="50.11945121614389" lon="15.922329557992946"><ele>242.0</ele><time>2026-05-03T07:37:43Z</time></trkpt><trkpt lat="50.119278944309336" lon="15.921916327629464"><ele>241.5</ele><time>2026-05-03T07:37:44Z</time></trkpt><trkpt lat="50.11909364814272" lon="15.921478529978042"><ele>241.0</ele><time>2026-05-03T07:37:45Z</time></trkpt><trkpt lat="50.11889790067099" lon="15.921031718321656"><ele>240.5</ele><time>2026-05-03T07:37:46Z</time></trkpt><trkpt lat="50.11867164381777" lon="15.92060665400391"><ele>240.0</ele><time>2026-05-03T07:37:47Z</time></trkpt><trkpt lat="50.11845014415023" lon="15.92019209735573"><ele>239.0</ele><time>2026-05-03T07:37:48Z</time></trkpt><trkpt lat="50.11820510070026" lon="15.919793892538811"><ele>238.0</ele><time>2026-05-03T07:37:49Z</time></trkpt><trkpt lat="50.11794046823956" lon="15.919394739427004"><ele>238.0</ele><time>2026-05-03T07:37:50Z</time></trkpt><trkpt lat="50.11767349399127" lon="15.91898294471113"><ele>238.0</ele><time>2026-05-03T07:37:51Z</time></trkpt><trkpt lat="50.11744796817064" lon="15.91857069756985"><ele>238.0</ele><time>2026-05-03T07:37:52Z</time></trkpt><trkpt lat="50.117235552911005" lon="15.91819180260782"><ele>238.0</ele><time>2026-05-03T07:37:53Z</time></trkpt><trkpt lat="50.11703005274475" lon="15.917787087043607"><ele>238.0</ele><time>2026-05-03T07:37:54Z</time></trkpt><trkpt lat="50.116840110138476" lon="15.917350524476115"><ele>238.0</ele><time>2026-05-03T07:37:55Z</time></trkpt><trkpt lat="50.116678471231864" lon="15.916918067458997"><ele>238.5</ele><time>2026-05-03T07:37:56Z</time></trkpt><trkpt lat="50.11653595241579" lon="15.916455028152924"><ele>239.0</ele><time>2026-05-03T07:37:57Z</time></trkpt><trkpt lat="50.11642386934322" lon="15.915982887258167"><ele>239.0</ele><time>2026-05-03T07:37:58Z</time></trkpt><trkpt lat="50.11633555328062" lon="15.91552559522136"><ele>239.0</ele><time>2026-05-03T07:37:59Z</time></trkpt><trkpt lat="50.11627262993396" lon="15.915062256132977"><ele>238.5</ele><time>2026-05-03T07:38:00Z</time></trkpt><trkpt lat="50.11622819738369" lon="15.91457761785383"><ele>238.0</ele><time>2026-05-03T07:38:01Z</time></trkpt><trkpt lat="50.11620276744633" lon="15.91409181682858"><ele>237.5</ele><time>2026-05-03T07:38:02Z</time></trkpt><trkpt lat="50.116189459706106" lon="15.913638986054758"><ele>237.0</ele><time>2026-05-03T07:38:03Z</time></trkpt><trkpt lat="50.1161825874402" lon="15.913220548357524"><ele>236.5</ele><time>2026-05-03T07:38:04Z</time></trkpt><trkpt lat="50.116176122511845" lon="15.912798922526086"><ele>236.0</ele><time>2026-05-03T07:38:05Z</time></trkpt><trkpt lat="50.116169539564545" lon="15.912338231980344"><ele>236.0</ele><time>2026-05-03T07:38:06Z</time></trkpt><trkpt lat="50.11616320297826" lon="15.91188676831676"><ele>236.0</ele><time>2026-05-03T07:38:07Z</time></trkpt><trkpt lat="50.116156643701835" lon="15.911423213650757"><ele>236.0</ele><time>2026-05-03T07:38:08Z</time></trkpt><trkpt lat="50.11613915862292" lon="15.910934489161395"><ele>236.0</ele><time>2026-05-03T07:38:09Z</time></trkpt><trkpt lat="50.11611104192507" lon="15.910494402562383"><ele>235.5</ele><time>2026-05-03T07:38:10Z</time></trkpt><trkpt lat="50.116071126647405" lon="15.910098466790027"><ele>235.0</ele><time>2026-05-03T07:38:11Z</time></trkpt><trkpt lat="50.11603189128497" lon="15.909727205952182"><ele>235.0</ele><time>2026-05-03T07:38:12Z</time></trkpt><trkpt lat="50.115984258329505" lon="15.909326456929772"><ele>235.0</ele><time>2026-05-03T07:38:13Z</time></trkpt><trkpt lat="50.115932029598206" lon="15.908941706329001"><ele>235.0</ele><time>2026-05-03T07:38:14Z</time></trkpt><trkpt lat="50.11567578888713" lon="15.908655918819557"><ele>235.0</ele><time>2026-05-03T07:38:15Z</time></trkpt><trkpt lat="50.115561651273104" lon="15.908366792494562"><ele>235.0</ele><time>2026-05-03T07:38:16Z</time></trkpt><trkpt lat="50.11544965801979" lon="15.908108579009618"><ele>235.0</ele><time>2026-05-03T07:38:17Z</time></trkpt><trkpt lat="50.11534352446529" lon="15.907878642109685"><ele>235.0</ele><time>2026-05-03T07:38:18Z</time></trkpt><trkpt lat="50.11523923353525" lon="15.907682752753292"><ele>235.0</ele><time>2026-05-03T07:38:19Z</time></trkpt><trkpt lat="50.115149628066895" lon="15.907517924721544"><ele>235.0</ele><time>2026-05-03T07:38:20Z</time></trkpt><trkpt lat="50.1150871269886" lon="15.907380139766307"><ele>235.0</ele><time>2026-05-03T07:38:21Z</time></trkpt><trkpt lat="50.11504928741446" lon="15.907254640802739"><ele>235.0</ele><time>2026-05-03T07:38:22Z</time></trkpt><trkpt lat="50.11503422338051" lon="15.907139497877965"><ele>235.0</ele><time>2026-05-03T07:38:23Z</time></trkpt><trkpt lat="50.11500437714103" lon="15.907050146723435"><ele>235.0</ele><time>2026-05-03T07:38:24Z</time></trkpt><trkpt lat="50.11493588061503" lon="15.906969598786793"><ele>235.0</ele><time>2026-05-03T07:38:25Z</time></trkpt><trkpt lat="50.11483767075194" lon="15.906924511307121"><ele>235.0</ele><time>2026-05-03T07:38:26Z</time></trkpt><trkpt lat="50.114707702354245" lon="15.906873686001061"><ele>235.0</ele><time>2026-05-03T07:38:27Z</time></trkpt><trkpt lat="50.114555706736354" lon="15.906759564209603"><ele>235.5</ele><time>2026-05-03T07:38:28Z</time></trkpt><trkpt lat="50.114374940232956" lon="15.906589205585467"><ele>236.0</ele><time>2026-05-03T07:38:29Z</time></trkpt><trkpt lat="50.11415085697491" lon="15.906376172851036"><ele>234.5</ele><time>2026-05-03T07:38:30Z</time></trkpt><trkpt lat="50.11389365936421" lon="15.906182081585094"><ele>233.0</ele><time>2026-05-03T07:38:31Z</time></trkpt><trkpt lat="50.11360270420827" lon="15.906011881019712"><ele>233.5</ele><time>2026-05-03T07:38:32Z</time></trkpt><trkpt lat="50.11328549157052" lon="15.905872689905086"><ele>234.0</ele><time>2026-05-03T07:38:33Z</time></trkpt><trkpt lat="50.11294901959203" lon="15.905761864647245"><ele>233.0</ele><time>2026-05-03T07:38:34Z</time></trkpt><trkpt lat="50.11259338097517" lon="15.905677612313779"><ele>232.0</ele><time>2026-05-03T07:38:35Z</time></trkpt><trkpt lat="50.11222013444926" lon="15.90559739922855"><ele>232.0</ele><time>2026-05-03T07:38:36Z</time></trkpt><trkpt lat="50.111845771028136" lon="15.905514802111169"><ele>232.0</ele><time>2026-05-03T07:38:37Z</time></trkpt><trkpt lat="50.11145727297605" lon="15.905428402383356"><ele>231.5</ele><time>2026-05-03T07:38:38Z</time></trkpt><trkpt lat="50.111090959369115" lon="15.905345012945022"><ele>231.0</ele><time>2026-05-03T07:38:39Z</time></trkpt><trkpt lat="50.11077130079563" lon="15.905269719641861"><ele>230.0</ele><time>2026-05-03T07:38:40Z</time></trkpt><trkpt lat="50.11048241010999" lon="15.905193598518418"><ele>229.0</ele><time>2026-05-03T07:38:41Z</time></trkpt><trkpt lat="50.11019468653152" lon="15.90511980558309"><ele>230.0</ele><time>2026-05-03T07:38:42Z</time></trkpt><trkpt lat="50.109907034197775" lon="15.905038355405638"><ele>231.0</ele><time>2026-05-03T07:38:43Z</time></trkpt><trkpt lat="50.10963097203182" lon="15.904947795139835"><ele>231.0</ele><time>2026-05-03T07:38:44Z</time></trkpt><trkpt lat="50.10935274052365" lon="15.904852140965827"><ele>231.0</ele><time>2026-05-03T07:38:45Z</time></trkpt><trkpt lat="50.10905395886159" lon="15.904743486919031"><ele>231.0</ele><time>2026-05-03T07:38:46Z</time></trkpt><trkpt lat="50.10873107333973" lon="15.904603347020766"><ele>231.0</ele><time>2026-05-03T07:38:47Z</time></trkpt><trkpt lat="50.108395186419386" lon="15.904433685640926"><ele>230.5</ele><time>2026-05-03T07:38:48Z</time></trkpt><trkpt lat="50.10805211207593" lon="15.904247966557673"><ele>230.0</ele><time>2026-05-03T07:38:49Z</time></trkpt><trkpt lat="50.10770373497172" lon="15.904044229606852"><ele>230.5</ele><time>2026-05-03T07:38:50Z</time></trkpt><trkpt lat="50.107360007446154" lon="15.903813001700094"><ele>231.0</ele><time>2026-05-03T07:38:51Z</time></trkpt><trkpt lat="50.10701280814515" lon="15.903546507278989"><ele>230.5</ele><time>2026-05-03T07:38:52Z</time></trkpt><trkpt lat="50.10666486222097" lon="15.903249147393526"><ele>230.0</ele><time>2026-05-03T07:38:53Z</time></trkpt><trkpt lat="50.10631917977469" lon="15.902922869370341"><ele>229.5</ele><time>2026-05-03T07:38:54Z</time></trkpt><trkpt lat="50.10597423557985" lon="15.902569607640837"><ele>229.0</ele><time>2026-05-03T07:38:55Z</time></trkpt><trkpt lat="50.10563607851127" lon="15.902192786581786"><ele>229.0</ele><time>2026-05-03T07:38:56Z</time></trkpt><trkpt lat="50.10530431528365" lon="15.901793528897473"><ele>229.0</ele><time>2026-05-03T07:38:57Z</time></trkpt><trkpt lat="50.10499413940166" lon="15.901386300432717"><ele>229.0</ele><time>2026-05-03T07:38:58Z</time></trkpt><trkpt lat="50.104704304597895" lon="15.900967084606137"><ele>229.0</ele><time>2026-05-03T07:38:59Z</time></trkpt><trkpt lat="50.104426850786" lon="15.900534674764872"><ele>229.0</ele><time>2026-05-03T07:39:00Z</time></trkpt><trkpt lat="50.10416058717771" lon="15.900077346480133"><ele>229.0</ele><time>2026-05-03T07:39:01Z</time></trkpt><trkpt lat="50.10389857317974" lon="15.89958901612784"><ele>228.5</ele><time>2026-05-03T07:39:02Z</time></trkpt><trkpt lat="50.10363905838221" lon="15.899071750839273"><ele>228.0</ele><time>2026-05-03T07:39:03Z</time></trkpt><trkpt lat="50.10339078413832" lon="15.89852602219576"><ele>227.5</ele><time>2026-05-03T07:39:04Z</time></trkpt><trkpt lat="50.10316143332975" lon="15.897973528615198"><ele>227.0</ele><time>2026-05-03T07:39:05Z</time></trkpt><trkpt lat="50.10294928504335" lon="15.897412147281516"><ele>227.0</ele><time>2026-05-03T07:39:06Z</time></trkpt><trkpt lat="50.10275428797497" lon="15.896848502002573"><ele>227.0</ele><time>2026-05-03T07:39:07Z</time></trkpt><trkpt lat="50.102577279240954" lon="15.896271084354163"><ele>227.0</ele><time>2026-05-03T07:39:08Z</time></trkpt><trkpt lat="50.10241874924454" lon="15.895694485304482"><ele>227.0</ele><time>2026-05-03T07:39:09Z</time></trkpt><trkpt lat="50.102274620753725" lon="15.89510139918808"><ele>226.5</ele><time>2026-05-03T07:39:10Z</time></trkpt><trkpt lat="50.102144172995864" lon="15.894489742524067"><ele>226.0</ele><time>2026-05-03T07:39:11Z</time></trkpt><trkpt lat="50.1020303949912" lon="15.893877682506899"><ele>226.0</ele><time>2026-05-03T07:39:12Z</time></trkpt><trkpt lat="50.10193086489999" lon="15.893252875221625"><ele>226.0</ele><time>2026-05-03T07:39:13Z</time></trkpt><trkpt lat="50.10184525589619" lon="15.892599281691611"><ele>226.0</ele><time>2026-05-03T07:39:14Z</time></trkpt><trkpt lat="50.10177948042888" lon="15.891926191723641"><ele>226.0</ele><time>2026-05-03T07:39:15Z</time></trkpt><trkpt lat="50.10173150115001" lon="15.891246704299627"><ele>225.5</ele><time>2026-05-03T07:39:16Z</time></trkpt><trkpt lat="50.10170521368218" lon="15.890604822248058"><ele>225.0</ele><time>2026-05-03T07:39:17Z</time></trkpt><trkpt lat="50.101694783088746" lon="15.890032324051212"><ele>225.0</ele><time>2026-05-03T07:39:18Z</time></trkpt><trkpt lat="50.10169382683421" lon="15.889472192862309"><ele>225.0</ele><time>2026-05-03T07:39:19Z</time></trkpt><trkpt lat="50.101695876998754" lon="15.88887391771751"><ele>226.0</ele><time>2026-05-03T07:39:20Z</time></trkpt><trkpt lat="50.1016915836136" lon="15.888237920160154"><ele>227.0</ele><time>2026-05-03T07:39:21Z</time></trkpt><trkpt lat="50.10167760119874" lon="15.887617090358884"><ele>227.5</ele><time>2026-05-03T07:39:22Z</time></trkpt><trkpt lat="50.10165087097899" lon="15.887066384757908"><ele>228.0</ele><time>2026-05-03T07:39:23Z</time></trkpt><trkpt lat="50.10160958077325" lon="15.886522372950644"><ele>227.5</ele><time>2026-05-03T07:39:24Z</time></trkpt><trkpt lat="50.101561844440496" lon="15.885956021187727"><ele>227.0</ele><time>2026-05-03T07:39:25Z</time></trkpt><trkpt lat="50.10146799006534" lon="15.885465828788556"><ele>227.5</ele><time>2026-05-03T07:39:26Z</time></trkpt><trkpt lat="50.10137999369873" lon="15.885020575052527"><ele>228.0</ele><time>2026-05-03T07:39:27Z</time></trkpt><trkpt lat="50.10129151671287" lon="15.884613322348091"><ele>228.0</ele><time>2026-05-03T07:39:28Z</time></trkpt><trkpt lat="50.10120183925978" lon="15.884252343529607"><ele>228.0</ele><time>2026-05-03T07:39:29Z</time></trkpt><trkpt lat="50.10111978868966" lon="15.883955085097812"><ele>228.0</ele><time>2026-05-03T07:39:30Z</time></trkpt><trkpt lat="50.101065952991995" lon="15.883692491520275"><ele>228.0</ele><time>2026-05-03T07:39:31Z</time></trkpt><trkpt lat="50.10100027730975" lon="15.88350251465323"><ele>228.0</ele><time>2026-05-03T07:39:32Z</time></trkpt><trkpt lat="50.100947362355306" lon="15.8832804377871"><ele>227.60000000000002</ele><time>2026-05-03T07:39:33Z</time></trkpt><trkpt lat="50.100905410805595" lon="15.88309359101475"><ele>227.20000000000002</ele><time>2026-05-03T07:39:34Z</time></trkpt><trkpt lat="50.100873612746504" lon="15.882949839292598"><ele>226.8</ele><time>2026-05-03T07:39:35Z</time></trkpt><trkpt lat="50.10085786573467" lon="15.882807573484182"><ele>226.4</ele><time>2026-05-03T07:39:36Z</time></trkpt><trkpt lat="50.10089237789061" lon="15.882691955370452"><ele>226.0</ele><time>2026-05-03T07:39:37Z</time></trkpt><trkpt lat="50.10088769614234" lon="15.882572068163192"><ele>226.0</ele><time>2026-05-03T07:39:38Z</time></trkpt><trkpt lat="50.10088380366005" lon="15.882462827147144"><ele>226.00000000000003</ele><time>2026-05-03T07:39:39Z</time></trkpt><trkpt lat="50.10077539561625" lon="15.882334092331226"><ele>226.00000000000003</ele><time>2026-05-03T07:39:41Z</time></trkpt><trkpt lat="50.100686909238725" lon="15.882345303861593"><ele>226.0</ele><time>2026-05-03T07:39:42Z</time></trkpt><trkpt lat="50.10061262300127" lon="15.882405718211702"><ele>226.0</ele><time>2026-05-03T07:39:43Z</time></trkpt><trkpt lat="50.10056206926727" lon="15.882502896956769"><ele>226.25</ele><time>2026-05-03T07:39:44Z</time></trkpt><trkpt lat="50.10054754121229" lon="15.882639028860142"><ele>226.5</ele><time>2026-05-03T07:39:45Z</time></trkpt><trkpt lat="50.100412056173724" lon="15.88271635038369"><ele>226.75</ele><time>2026-05-03T07:39:46Z</time></trkpt><trkpt lat="50.100278457090916" lon="15.882784126575057"><ele>227.0</ele><time>2026-05-03T07:39:47Z</time></trkpt><trkpt lat="50.100118785471025" lon="15.882770056270521"><ele>227.0</ele><time>2026-05-03T07:39:48Z</time></trkpt><trkpt lat="50.09996962009424" lon="15.882696631735833"><ele>227.0</ele><time>2026-05-03T07:39:49Z</time></trkpt><trkpt lat="50.09991785672868" lon="15.882582922815745"><ele>227.0</ele><time>2026-05-03T07:39:50Z</time></trkpt><trkpt lat="50.09980779177808" lon="15.882382454591802"><ele>227.0</ele><time>2026-05-03T07:39:51Z</time></trkpt><trkpt lat="50.09971058883743" lon="15.882123280629093"><ele>226.66666666666669</ele><time>2026-05-03T07:39:52Z</time></trkpt><trkpt lat="50.099646051964726" lon="15.881818233307644"><ele>226.33333333333331</ele><time>2026-05-03T07:39:53Z</time></trkpt><trkpt lat="50.09961940954861" lon="15.881515948383557"><ele>226.0</ele><time>2026-05-03T07:39:54Z</time></trkpt><trkpt lat="50.09964735039627" lon="15.881283170514669"><ele>226.0</ele><time>2026-05-03T07:39:55Z</time></trkpt><trkpt lat="50.09973459114991" lon="15.881033045680338"><ele>226.0</ele><time>2026-05-03T07:39:56Z</time></trkpt><trkpt lat="50.09986527293236" lon="15.880829124791541"><ele>226.0</ele><time>2026-05-03T07:39:57Z</time></trkpt><trkpt lat="50.1000057561023" lon="15.88066810248055"><ele>226.0</ele><time>2026-05-03T07:39:58Z</time></trkpt><trkpt lat="50.10021095634954" lon="15.880535853558353"><ele>226.0</ele><time>2026-05-03T07:39:59Z</time></trkpt><trkpt lat="50.10043049124826" lon="15.880376891221232"><ele>226.0</ele><time>2026-05-03T07:40:00Z</time></trkpt><trkpt lat="50.10069321439128" lon="15.880271699864247"><ele>226.0</ele><time>2026-05-03T07:40:01Z</time></trkpt><trkpt lat="50.1010251567158" lon="15.88013068394166"><ele>226.5</ele><time>2026-05-03T07:40:02Z</time></trkpt><trkpt lat="50.101392438470405" lon="15.879990295419448"><ele>227.0</ele><time>2026-05-03T07:40:03Z</time></trkpt><trkpt lat="50.10178656335855" lon="15.879843519119879"><ele>227.5</ele><time>2026-05-03T07:40:04Z</time></trkpt><trkpt lat="50.102210389113466" lon="15.879698567767454"><ele>228.0</ele><time>2026-05-03T07:40:05Z</time></trkpt><trkpt lat="50.10265064556538" lon="15.87955070318697"><ele>228.0</ele><time>2026-05-03T07:40:06Z</time></trkpt><trkpt lat="50.10310421991994" lon="15.879398328865602"><ele>228.0</ele><time>2026-05-03T07:40:07Z</time></trkpt><trkpt lat="50.10356759596136" lon="15.87923878323084"><ele>228.0</ele><time>2026-05-03T07:40:08Z</time></trkpt><trkpt lat="50.10404265576454" lon="15.879079239895905"><ele>228.0</ele><time>2026-05-03T07:40:09Z</time></trkpt><trkpt lat="50.10452695316002" lon="15.87892712338611"><ele>229.0</ele><time>2026-05-03T07:40:10Z</time></trkpt><trkpt lat="50.10501628431" lon="15.878784571515657"><ele>229.0</ele><time>2026-05-03T07:40:11Z</time></trkpt><trkpt lat="50.105480597180254" lon="15.878620077348392"><ele>228.5</ele><time>2026-05-03T07:40:12Z</time></trkpt><trkpt lat="50.10591109487244" lon="15.878456408295667"><ele>228.0</ele><time>2026-05-03T07:40:13Z</time></trkpt><trkpt lat="50.106355425292364" lon="15.878316828851313"><ele>228.0</ele><time>2026-05-03T07:40:14Z</time></trkpt><trkpt lat="50.10678742555014" lon="15.878038530017617"><ele>228.0</ele><time>2026-05-03T07:40:15Z</time></trkpt><trkpt lat="50.10722734806151" lon="15.877806455922626"><ele>228.0</ele><time>2026-05-03T07:40:16Z</time></trkpt><trkpt lat="50.10766269054606" lon="15.877559684682929"><ele>228.0</ele><time>2026-05-03T07:40:17Z</time></trkpt><trkpt lat="50.10809913763042" lon="15.877299237484323"><ele>228.0</ele><time>2026-05-03T07:40:18Z</time></trkpt><trkpt lat="50.10852901661682" lon="15.877018631383455"><ele>228.0</ele><time>2026-05-03T07:40:19Z</time></trkpt><trkpt lat="50.10895985115776" lon="15.876733478322203"><ele>234.0</ele><time>2026-05-03T07:40:20Z</time></trkpt><trkpt lat="50.109384637118225" lon="15.876424142012498"><ele>234.0</ele><time>2026-05-03T07:40:21Z</time></trkpt><trkpt lat="50.109804300260485" lon="15.876107100712339"><ele>230.0</ele><time>2026-05-03T07:40:22Z</time></trkpt><trkpt lat="50.110221993191026" lon="15.875771565147737"><ele>230.0</ele><time>2026-05-03T07:40:23Z</time></trkpt><trkpt lat="50.1106326193362" lon="15.87542485814192"><ele>233.0</ele><time>2026-05-03T07:40:24Z</time></trkpt><trkpt lat="50.11103604642372" lon="15.875055517515307"><ele>233.0</ele><time>2026-05-03T07:40:25Z</time></trkpt><trkpt lat="50.111432690435215" lon="15.874661066494951"><ele>236.0</ele><time>2026-05-03T07:40:26Z</time></trkpt><trkpt lat="50.11182590782193" lon="15.87424569967415"><ele>236.0</ele><time>2026-05-03T07:40:27Z</time></trkpt><trkpt lat="50.112215429188794" lon="15.873832675574624"><ele>229.0</ele><time>2026-05-03T07:40:28Z</time></trkpt><trkpt lat="50.112603286841285" lon="15.873393176489351"><ele>229.0</ele><time>2026-05-03T07:40:29Z</time></trkpt><trkpt lat="50.11299653822783" lon="15.872923808369721"><ele>232.0</ele><time>2026-05-03T07:40:30Z</time></trkpt><trkpt lat="50.11338479579991" lon="15.872443003064244"><ele>232.0</ele><time>2026-05-03T07:40:31Z</time></trkpt><trkpt lat="50.11376804062238" lon="15.871944385026294"><ele>233.0</ele><time>2026-05-03T07:40:32Z</time></trkpt><trkpt lat="50.11414250896115" lon="15.871426603576284"><ele>233.0</ele><time>2026-05-03T07:40:33Z</time></trkpt><trkpt lat="50.11451056014392" lon="15.870892574787836"><ele>233.0</ele><time>2026-05-03T07:40:34Z</time></trkpt><trkpt lat="50.114864803813965" lon="15.870344509830938"><ele>238.0</ele><time>2026-05-03T07:40:35Z</time></trkpt><trkpt lat="50.11521631222362" lon="15.869781344825247"><ele>239.0</ele><time>2026-05-03T07:40:36Z</time></trkpt><trkpt lat="50.11555029270449" lon="15.869195555472848"><ele>242.0</ele><time>2026-05-03T07:40:37Z</time></trkpt><trkpt lat="50.11588430971398" lon="15.868602121383518"><ele>242.0</ele><time>2026-05-03T07:40:38Z</time></trkpt><trkpt lat="50.11620936962707" lon="15.867994706053327"><ele>242.0</ele><time>2026-05-03T07:40:39Z</time></trkpt><trkpt lat="50.11652731383498" lon="15.867369613473596"><ele>242.0</ele><time>2026-05-03T07:40:40Z</time></trkpt><trkpt lat="50.11683653326256" lon="15.866730037475158"><ele>242.0</ele><time>2026-05-03T07:40:41Z</time></trkpt><trkpt lat="50.117142249074185" lon="15.866092390165942"><ele>240.0</ele><time>2026-05-03T07:40:42Z</time></trkpt><trkpt lat="50.11744650243729" lon="15.865451942590205"><ele>239.0</ele><time>2026-05-03T07:40:43Z</time></trkpt><trkpt lat="50.11775102275295" lon="15.864812891840137"><ele>238.0</ele><time>2026-05-03T07:40:44Z</time></trkpt><trkpt lat="50.11805173389767" lon="15.864178690116356"><ele>234.0</ele><time>2026-05-03T07:40:45Z</time></trkpt><trkpt lat="50.11834565704337" lon="15.863564548187043"><ele>232.0</ele><time>2026-05-03T07:40:46Z</time></trkpt><trkpt lat="50.11863541994488" lon="15.862964916346444"><ele>231.0</ele><time>2026-05-03T07:40:47Z</time></trkpt><trkpt lat="50.11892366496803" lon="15.862364833480367"><ele>230.0</ele><time>2026-05-03T07:40:48Z</time></trkpt><trkpt lat="50.11921675662993" lon="15.861748680391445"><ele>230.0</ele><time>2026-05-03T07:40:49Z</time></trkpt><trkpt lat="50.11951554131161" lon="15.86112843109342"><ele>231.0</ele><time>2026-05-03T07:40:50Z</time></trkpt><trkpt lat="50.119814928655245" lon="15.860506745478196"><ele>230.0</ele><time>2026-05-03T07:40:51Z</time></trkpt><trkpt lat="50.120118957204184" lon="15.85987549219315"><ele>230.0</ele><time>2026-05-03T07:40:52Z</time></trkpt><trkpt lat="50.12042289114416" lon="15.859236991163367"><ele>230.0</ele><time>2026-05-03T07:40:53Z</time></trkpt><trkpt lat="50.12072987992308" lon="15.858587341995154"><ele>233.0</ele><time>2026-05-03T07:40:54Z</time></trkpt><trkpt lat="50.121040805112294" lon="15.857935376899775"><ele>233.0</ele><time>2026-05-03T07:40:55Z</time></trkpt><trkpt lat="50.12135678682982" lon="15.857282171418118"><ele>236.0</ele><time>2026-05-03T07:40:56Z</time></trkpt><trkpt lat="50.12167502756346" lon="15.856624871146096"><ele>236.0</ele><time>2026-05-03T07:40:57Z</time></trkpt><trkpt lat="50.12200353311664" lon="15.855963205004974"><ele>236.0</ele><time>2026-05-03T07:40:58Z</time></trkpt><trkpt lat="50.122357684047486" lon="15.855283441994771"><ele>237.0</ele><time>2026-05-03T07:40:59Z</time></trkpt><trkpt lat="50.12269186675661" lon="15.854598670039005"><ele>237.0</ele><time>2026-05-03T07:41:00Z</time></trkpt><trkpt lat="50.12297267024925" lon="15.85397416161506"><ele>241.0</ele><time>2026-05-03T07:41:01Z</time></trkpt><trkpt lat="50.12329023782485" lon="15.853299550939031"><ele>244.0</ele><time>2026-05-03T07:41:02Z</time></trkpt><trkpt lat="50.12361195639316" lon="15.852619212359562"><ele>244.0</ele><time>2026-05-03T07:41:03Z</time></trkpt><trkpt lat="50.12393015179446" lon="15.851926660857103"><ele>237.0</ele><time>2026-05-03T07:41:04Z</time></trkpt><trkpt lat="50.12424061709451" lon="15.851234741873288"><ele>236.0</ele><time>2026-05-03T07:41:05Z</time></trkpt><trkpt lat="50.124538961871984" lon="15.850539282432347"><ele>236.0</ele><time>2026-05-03T07:41:06Z</time></trkpt><trkpt lat="50.124833114873596" lon="15.849845267978242"><ele>231.0</ele><time>2026-05-03T07:41:07Z</time></trkpt><trkpt lat="50.12512034576117" lon="15.849144132260223"><ele>233.0</ele><time>2026-05-03T07:41:08Z</time></trkpt><trkpt lat="50.12540132373933" lon="15.848443331980897"><ele>233.0</ele><time>2026-05-03T07:41:09Z</time></trkpt><trkpt lat="50.12567352624615" lon="15.847733562157641"><ele>232.0</ele><time>2026-05-03T07:41:10Z</time></trkpt><trkpt lat="50.12593576898005" lon="15.847051802014342"><ele>231.0</ele><time>2026-05-03T07:41:11Z</time></trkpt><trkpt lat="50.126157307419476" lon="15.846434448971195"><ele>231.0</ele><time>2026-05-03T07:41:12Z</time></trkpt><trkpt lat="50.12639536967296" lon="15.845730820820917"><ele>233.0</ele><time>2026-05-03T07:41:13Z</time></trkpt><trkpt lat="50.12662230208203" lon="15.845054686565259"><ele>233.0</ele><time>2026-05-03T07:41:14Z</time></trkpt><trkpt lat="50.126843938207934" lon="15.84438090379748"><ele>234.0</ele><time>2026-05-03T07:41:15Z</time></trkpt><trkpt lat="50.12706124564252" lon="15.843691999907627"><ele>235.0</ele><time>2026-05-03T07:41:16Z</time></trkpt><trkpt lat="50.12727369648338" lon="15.8429973846759"><ele>235.0</ele><time>2026-05-03T07:41:17Z</time></trkpt><trkpt lat="50.12748086169507" lon="15.842289804166331"><ele>235.0</ele><time>2026-05-03T07:41:18Z</time></trkpt><trkpt lat="50.12768224780597" lon="15.84157314763914"><ele>236.0</ele><time>2026-05-03T07:41:19Z</time></trkpt><trkpt lat="50.1278796746647" lon="15.840851514636375"><ele>238.0</ele><time>2026-05-03T07:41:20Z</time></trkpt><trkpt lat="50.12807058532976" lon="15.84013237009557"><ele>238.0</ele><time>2026-05-03T07:41:21Z</time></trkpt><trkpt lat="50.12825258299299" lon="15.839414090921498"><ele>239.0</ele><time>2026-05-03T07:41:22Z</time></trkpt><trkpt lat="50.12842879329826" lon="15.838681977715293"><ele>240.0</ele><time>2026-05-03T07:41:23Z</time></trkpt><trkpt lat="50.12859941238912" lon="15.837937064246955"><ele>241.0</ele><time>2026-05-03T07:41:24Z</time></trkpt><trkpt lat="50.128765792908176" lon="15.837173735930673"><ele>239.0</ele><time>2026-05-03T07:41:25Z</time></trkpt><trkpt lat="50.12893002711418" lon="15.83639492295379"><ele>241.0</ele><time>2026-05-03T07:41:26Z</time></trkpt><trkpt lat="50.12908582913145" lon="15.835610350511047"><ele>239.0</ele><time>2026-05-03T07:41:27Z</time></trkpt><trkpt lat="50.12923210694236" lon="15.834813355072338"><ele>239.0</ele><time>2026-05-03T07:41:28Z</time></trkpt><trkpt lat="50.129380267446905" lon="15.833991432773043"><ele>239.0</ele><time>2026-05-03T07:41:29Z</time></trkpt><trkpt lat="50.12951836943765" lon="15.83317666079863"><ele>239.0</ele><time>2026-05-03T07:41:30Z</time></trkpt><trkpt lat="50.129650128874346" lon="15.832355504659231"><ele>240.0</ele><time>2026-05-03T07:41:31Z</time></trkpt><trkpt lat="50.1297709936187" lon="15.831550892044692"><ele>241.0</ele><time>2026-05-03T07:41:32Z</time></trkpt><trkpt lat="50.12986586071177" lon="15.830838282327866"><ele>241.5</ele><time>2026-05-03T07:41:33Z</time></trkpt><trkpt lat="50.12994618383038" lon="15.830156289459557"><ele>242.0</ele><time>2026-05-03T07:41:34Z</time></trkpt><trkpt lat="50.130021523795136" lon="15.829483282251253"><ele>238.0</ele><time>2026-05-03T07:41:35Z</time></trkpt><trkpt lat="50.130089741431526" lon="15.828850739178552"><ele>234.0</ele><time>2026-05-03T07:41:36Z</time></trkpt><trkpt lat="50.130150029937916" lon="15.828255087823107"><ele>233.0</ele><time>2026-05-03T07:41:37Z</time></trkpt><trkpt lat="50.13020518753769" lon="15.827699925222946"><ele>232.0</ele><time>2026-05-03T07:41:38Z</time></trkpt><trkpt lat="50.13025175176467" lon="15.82715673806494"><ele>230.5</ele><time>2026-05-03T07:41:39Z</time></trkpt><trkpt lat="50.13030087946306" lon="15.826586660224189"><ele>229.0</ele><time>2026-05-03T07:41:40Z</time></trkpt><trkpt lat="50.13035340226919" lon="15.82596801940445"><ele>228.5</ele><time>2026-05-03T07:41:41Z</time></trkpt><trkpt lat="50.13040730453446" lon="15.82532001199698"><ele>228.0</ele><time>2026-05-03T07:41:42Z</time></trkpt><trkpt lat="50.13045560496519" lon="15.824655347450504"><ele>227.0</ele><time>2026-05-03T07:41:43Z</time></trkpt><trkpt lat="50.13050317166829" lon="15.823986221645498"><ele>226.0</ele><time>2026-05-03T07:41:44Z</time></trkpt><trkpt lat="50.130552341636964" lon="15.823309394906028"><ele>224.0</ele><time>2026-05-03T07:41:45Z</time></trkpt><trkpt lat="50.130603163482206" lon="15.822633508927536"><ele>222.0</ele><time>2026-05-03T07:41:46Z</time></trkpt><trkpt lat="50.130652172144906" lon="15.821956421839891"><ele>223.0</ele><time>2026-05-03T07:41:47Z</time></trkpt><trkpt lat="50.13069790068782" lon="15.821275137291266"><ele>224.0</ele><time>2026-05-03T07:41:48Z</time></trkpt><trkpt lat="50.130743415990075" lon="15.820589652916933"><ele>224.0</ele><time>2026-05-03T07:41:49Z</time></trkpt><trkpt lat="50.13078781380954" lon="15.81990157357252"><ele>224.0</ele><time>2026-05-03T07:41:50Z</time></trkpt><trkpt lat="50.130832563161306" lon="15.819212274612829"><ele>224.5</ele><time>2026-05-03T07:41:51Z</time></trkpt><trkpt lat="50.13087882755988" lon="15.818518786457407"><ele>225.0</ele><time>2026-05-03T07:41:52Z</time></trkpt><trkpt lat="50.13092563035608" lon="15.817821715454983"><ele>223.0</ele><time>2026-05-03T07:41:53Z</time></trkpt><trkpt lat="50.13097024275513" lon="15.817119212215898"><ele>222.0</ele><time>2026-05-03T07:41:54Z</time></trkpt><trkpt lat="50.13101037159618" lon="15.816415981229293"><ele>224.0</ele><time>2026-05-03T07:41:55Z</time></trkpt><trkpt lat="50.13105680117087" lon="15.815706182537035"><ele>223.0</ele><time>2026-05-03T07:41:56Z</time></trkpt><trkpt lat="50.13109848482044" lon="15.814995798513012"><ele>224.0</ele><time>2026-05-03T07:41:57Z</time></trkpt><trkpt lat="50.13114110932769" lon="15.814285193521243"><ele>224.0</ele><time>2026-05-03T07:41:58Z</time></trkpt><trkpt lat="50.131184665423916" lon="15.813570534837956"><ele>224.0</ele><time>2026-05-03T07:41:59Z</time></trkpt><trkpt lat="50.13122858757039" lon="15.812852371715278"><ele>223.0</ele><time>2026-05-03T07:42:00Z</time></trkpt><trkpt lat="50.1312700705426" lon="15.812137801636997"><ele>223.0</ele><time>2026-05-03T07:42:01Z</time></trkpt><trkpt lat="50.131313230899636" lon="15.811425951979304"><ele>223.0</ele><time>2026-05-03T07:42:02Z</time></trkpt><trkpt lat="50.13135387267031" lon="15.81072625387884"><ele>223.0</ele><time>2026-05-03T07:42:03Z</time></trkpt><trkpt lat="50.13139192495921" lon="15.810033340383407"><ele>223.0</ele><time>2026-05-03T07:42:04Z</time></trkpt><trkpt lat="50.13142475877317" lon="15.809343388576915"><ele>223.0</ele><time>2026-05-03T07:42:05Z</time></trkpt><trkpt lat="50.13146224792055" lon="15.808659754627072"><ele>223.0</ele><time>2026-05-03T07:42:06Z</time></trkpt><trkpt lat="50.13150392049902" lon="15.807980638255577"><ele>222.0</ele><time>2026-05-03T07:42:07Z</time></trkpt><trkpt lat="50.13155602890492" lon="15.807292670081894"><ele>221.0</ele><time>2026-05-03T07:42:08Z</time></trkpt><trkpt lat="50.1316182039704" lon="15.80660716019581"><ele>221.0</ele><time>2026-05-03T07:42:09Z</time></trkpt><trkpt lat="50.1316913507676" lon="15.805937545414222"><ele>221.0</ele><time>2026-05-03T07:42:10Z</time></trkpt><trkpt lat="50.13177668757261" lon="15.80527065630394"><ele>221.0</ele><time>2026-05-03T07:42:11Z</time></trkpt><trkpt lat="50.13188497242125" lon="15.804603262195013"><ele>221.0</ele><time>2026-05-03T07:42:12Z</time></trkpt><trkpt lat="50.13201292008507" lon="15.80393373841423"><ele>221.5</ele><time>2026-05-03T07:42:13Z</time></trkpt><trkpt lat="50.13215602768365" lon="15.803270855223328"><ele>222.0</ele><time>2026-05-03T07:42:14Z</time></trkpt><trkpt lat="50.13231375736696" lon="15.802597567672958"><ele>222.5</ele><time>2026-05-03T07:42:15Z</time></trkpt><trkpt lat="50.1324914563573" lon="15.801958751886197"><ele>223.0</ele><time>2026-05-03T07:42:16Z</time></trkpt><trkpt lat="50.13268626024518" lon="15.801320700924077"><ele>223.0</ele><time>2026-05-03T07:42:17Z</time></trkpt><trkpt lat="50.1328979511039" lon="15.800685153656103"><ele>223.0</ele><time>2026-05-03T07:42:18Z</time></trkpt><trkpt lat="50.13312110062165" lon="15.80007354769798"><ele>222.5</ele><time>2026-05-03T07:42:19Z</time></trkpt><trkpt lat="50.13334782264019" lon="15.799504561936846"><ele>222.0</ele><time>2026-05-03T07:42:20Z</time></trkpt><trkpt lat="50.13358888470125" lon="15.798950551944953"><ele>222.5</ele><time>2026-05-03T07:42:21Z</time></trkpt><trkpt lat="50.13383072688246" lon="15.79842458727655"><ele>223.0</ele><time>2026-05-03T07:42:22Z</time></trkpt><trkpt lat="50.13408450997254" lon="15.797918113161858"><ele>222.5</ele><time>2026-05-03T07:42:23Z</time></trkpt><trkpt lat="50.13435699972221" lon="15.79741770953191"><ele>222.0</ele><time>2026-05-03T07:42:24Z</time></trkpt><trkpt lat="50.1346468347654" lon="15.79693567242764"><ele>222.5</ele><time>2026-05-03T07:42:25Z</time></trkpt><trkpt lat="50.13495714271793" lon="15.79646447118682"><ele>223.0</ele><time>2026-05-03T07:42:26Z</time></trkpt><trkpt lat="50.13528586809583" lon="15.796011075715212"><ele>223.0</ele><time>2026-05-03T07:42:27Z</time></trkpt><trkpt lat="50.13562028174344" lon="15.795587084269874"><ele>223.0</ele><time>2026-05-03T07:42:28Z</time></trkpt><trkpt lat="50.135940885080316" lon="15.79518456496764"><ele>223.0</ele><time>2026-05-03T07:42:29Z</time></trkpt><trkpt lat="50.13624403938442" lon="15.794781949166161"><ele>223.0</ele><time>2026-05-03T07:42:30Z</time></trkpt><trkpt lat="50.136550681742726" lon="15.794368019612357"><ele>223.0</ele><time>2026-05-03T07:42:31Z</time></trkpt><trkpt lat="50.13686028941925" lon="15.793946879897694"><ele>223.0</ele><time>2026-05-03T07:42:32Z</time></trkpt><trkpt lat="50.13716430386509" lon="15.793512782005283"><ele>223.0</ele><time>2026-05-03T07:42:33Z</time></trkpt><trkpt lat="50.137467451510865" lon="15.793054243117831"><ele>223.0</ele><time>2026-05-03T07:42:34Z</time></trkpt><trkpt lat="50.13776318903243" lon="15.792576674922786"><ele>223.5</ele><time>2026-05-03T07:42:35Z</time></trkpt><trkpt lat="50.13804869421374" lon="15.792078198645685"><ele>224.0</ele><time>2026-05-03T07:42:36Z</time></trkpt><trkpt lat="50.13831802524252" lon="15.791558256299545"><ele>224.5</ele><time>2026-05-03T07:42:37Z</time></trkpt><trkpt lat="50.138573463207024" lon="15.791021269084212"><ele>225.0</ele><time>2026-05-03T07:42:38Z</time></trkpt><trkpt lat="50.13881379025064" lon="15.790474212233082"><ele>225.5</ele><time>2026-05-03T07:42:39Z</time></trkpt><trkpt lat="50.139039705015264" lon="15.789916041213045"><ele>226.0</ele><time>2026-05-03T07:42:40Z</time></trkpt><trkpt lat="50.13925878336317" lon="15.789333738865396"><ele>226.0</ele><time>2026-05-03T07:42:41Z</time></trkpt><trkpt lat="50.139464517381136" lon="15.788735081649548"><ele>226.0</ele><time>2026-05-03T07:42:42Z</time></trkpt><trkpt lat="50.13965439466037" lon="15.788120056174671"><ele>226.0</ele><time>2026-05-03T07:42:43Z</time></trkpt><trkpt lat="50.139828561276374" lon="15.787493220989578"><ele>226.0</ele><time>2026-05-03T07:42:44Z</time></trkpt><trkpt lat="50.139990932732125" lon="15.786854930962134"><ele>225.5</ele><time>2026-05-03T07:42:45Z</time></trkpt><trkpt lat="50.140140495176915" lon="15.786205180420506"><ele>225.0</ele><time>2026-05-03T07:42:46Z</time></trkpt><trkpt lat="50.140273446993156" lon="15.785545975746762"><ele>224.5</ele><time>2026-05-03T07:42:47Z</time></trkpt><trkpt lat="50.14038691809889" lon="15.784878753009483"><ele>224.0</ele><time>2026-05-03T07:42:48Z</time></trkpt><trkpt lat="50.14048116415995" lon="15.784203211657509"><ele>224.0</ele><time>2026-05-03T07:42:49Z</time></trkpt><trkpt lat="50.14055540418509" lon="15.783527400006394"><ele>224.0</ele><time>2026-05-03T07:42:50Z</time></trkpt><trkpt lat="50.14061621623411" lon="15.782829507908293"><ele>225.0</ele><time>2026-05-03T07:42:51Z</time></trkpt><trkpt lat="50.14066189267032" lon="15.782123606436656"><ele>225.0</ele><time>2026-05-03T07:42:52Z</time></trkpt><trkpt lat="50.14069156995492" lon="15.78140215482752"><ele>225.0</ele><time>2026-05-03T07:42:53Z</time></trkpt><trkpt lat="50.140705534945866" lon="15.780678336554567"><ele>225.0</ele><time>2026-05-03T07:42:54Z</time></trkpt><trkpt lat="50.14070959626811" lon="15.779953216536434"><ele>225.0</ele><time>2026-05-03T07:42:55Z</time></trkpt><trkpt lat="50.140718116169005" lon="15.779226672638869"><ele>225.0</ele><time>2026-05-03T07:42:56Z</time></trkpt><trkpt lat="50.140733704227316" lon="15.778501004514094"><ele>225.0</ele><time>2026-05-03T07:42:57Z</time></trkpt><trkpt lat="50.14074994226882" lon="15.77777374915109"><ele>228.0</ele><time>2026-05-03T07:42:58Z</time></trkpt><trkpt lat="50.14076516609957" lon="15.777045273146111"><ele>229.0</ele><time>2026-05-03T07:42:59Z</time></trkpt><trkpt lat="50.14077788227979" lon="15.776314364382435"><ele>228.0</ele><time>2026-05-03T07:43:00Z</time></trkpt><trkpt lat="50.14079215267933" lon="15.775583905080042"><ele>228.0</ele><time>2026-05-03T07:43:01Z</time></trkpt><trkpt lat="50.140809344471954" lon="15.774853259722777"><ele>225.0</ele><time>2026-05-03T07:43:02Z</time></trkpt><trkpt lat="50.14082779095215" lon="15.774150377427976"><ele>224.5</ele><time>2026-05-03T07:43:03Z</time></trkpt><trkpt lat="50.140849640367705" lon="15.773514980632992"><ele>224.0</ele><time>2026-05-03T07:43:04Z</time></trkpt><trkpt lat="50.14087491614352" lon="15.772896566282993"><ele>224.0</ele><time>2026-05-03T07:43:05Z</time></trkpt><trkpt lat="50.14090495460086" lon="15.772279038137642"><ele>224.0</ele><time>2026-05-03T07:43:06Z</time></trkpt><trkpt lat="50.140936426295866" lon="15.771662959064884"><ele>224.0</ele><time>2026-05-03T07:43:07Z</time></trkpt><trkpt lat="50.140973515250316" lon="15.771059744853313"><ele>224.0</ele><time>2026-05-03T07:43:08Z</time></trkpt><trkpt lat="50.14101468169319" lon="15.77046325616968"><ele>224.0</ele><time>2026-05-03T07:43:09Z</time></trkpt><trkpt lat="50.14106303985443" lon="15.769872866479963"><ele>224.0</ele><time>2026-05-03T07:43:10Z</time></trkpt><trkpt lat="50.14111549437544" lon="15.769283195991374"><ele>224.5</ele><time>2026-05-03T07:43:11Z</time></trkpt><trkpt lat="50.14117164166144" lon="15.768697225490333"><ele>225.0</ele><time>2026-05-03T07:43:12Z</time></trkpt><trkpt lat="50.1412331107124" lon="15.768118482369983"><ele>224.5</ele><time>2026-05-03T07:43:13Z</time></trkpt><trkpt lat="50.14129676460017" lon="15.767541456061117"><ele>224.0</ele><time>2026-05-03T07:43:14Z</time></trkpt><trkpt lat="50.14136135427079" lon="15.766968131810488"><ele>226.0</ele><time>2026-05-03T07:43:15Z</time></trkpt><trkpt lat="50.14143042025528" lon="15.766400575460864"><ele>228.0</ele><time>2026-05-03T07:43:16Z</time></trkpt><trkpt lat="50.14150207090318" lon="15.765828678300734"><ele>231.0</ele><time>2026-05-03T07:43:17Z</time></trkpt><trkpt lat="50.1415745485311" lon="15.765258888837714"><ele>234.0</ele><time>2026-05-03T07:43:18Z</time></trkpt><trkpt lat="50.14164897483829" lon="15.764695255878287"><ele>235.5</ele><time>2026-05-03T07:43:19Z</time></trkpt><trkpt lat="50.14173357927315" lon="15.764121850429204"><ele>237.0</ele><time>2026-05-03T07:43:20Z</time></trkpt><trkpt lat="50.14183097304145" lon="15.763552422112584"><ele>237.5</ele><time>2026-05-03T07:43:21Z</time></trkpt><trkpt lat="50.14193694741237" lon="15.76298958012589"><ele>238.0</ele><time>2026-05-03T07:43:22Z</time></trkpt><trkpt lat="50.142044691062246" lon="15.762429779512775"><ele>238.0</ele><time>2026-05-03T07:43:23Z</time></trkpt><trkpt lat="50.142148776758425" lon="15.761872146831747"><ele>238.0</ele><time>2026-05-03T07:43:24Z</time></trkpt><trkpt lat="50.14225458164724" lon="15.761313623233637"><ele>238.0</ele><time>2026-05-03T07:43:25Z</time></trkpt><trkpt lat="50.14236673955435" lon="15.760748220990724"><ele>238.0</ele><time>2026-05-03T07:43:26Z</time></trkpt><trkpt lat="50.14249524141154" lon="15.760169510621251"><ele>232.5</ele><time>2026-05-03T07:43:27Z</time></trkpt><trkpt lat="50.14263695331884" lon="15.759577819508625"><ele>227.0</ele><time>2026-05-03T07:43:28Z</time></trkpt><trkpt lat="50.14278777008739" lon="15.758975648440282"><ele>226.0</ele><time>2026-05-03T07:43:29Z</time></trkpt><trkpt lat="50.14294328435408" lon="15.758367292235448"><ele>225.0</ele><time>2026-05-03T07:43:30Z</time></trkpt><trkpt lat="50.14310133180529" lon="15.757755512135844"><ele>225.0</ele><time>2026-05-03T07:43:31Z</time></trkpt><trkpt lat="50.143260557600335" lon="15.757154209440005"><ele>225.0</ele><time>2026-05-03T07:43:32Z</time></trkpt><trkpt lat="50.14342320701606" lon="15.75655879341574"><ele>225.5</ele><time>2026-05-03T07:43:33Z</time></trkpt><trkpt lat="50.143593358764484" lon="15.755963882191413"><ele>226.0</ele><time>2026-05-03T07:43:34Z</time></trkpt><trkpt lat="50.14376820937244" lon="15.755372478678357"><ele>226.5</ele><time>2026-05-03T07:43:35Z</time></trkpt><trkpt lat="50.14394717566972" lon="15.754783626368258"><ele>227.0</ele><time>2026-05-03T07:43:36Z</time></trkpt><trkpt lat="50.144131197885905" lon="15.75420144181991"><ele>228.5</ele><time>2026-05-03T07:43:37Z</time></trkpt><trkpt lat="50.14432126107682" lon="15.753622944108141"><ele>230.0</ele><time>2026-05-03T07:43:38Z</time></trkpt><trkpt lat="50.144516539987855" lon="15.753043827821475"><ele>229.5</ele><time>2026-05-03T07:43:39Z</time></trkpt><trkpt lat="50.14471360428035" lon="15.752469654292153"><ele>229.0</ele><time>2026-05-03T07:43:40Z</time></trkpt><trkpt lat="50.14491135654814" lon="15.751911779108191"><ele>228.5</ele><time>2026-05-03T07:43:41Z</time></trkpt><trkpt lat="50.1451139392685" lon="15.75136712407626"><ele>228.0</ele><time>2026-05-03T07:43:42Z</time></trkpt><trkpt lat="50.14531725609733" lon="15.750840341090477"><ele>227.5</ele><time>2026-05-03T07:43:43Z</time></trkpt><trkpt lat="50.14550198100902" lon="15.75035686470432"><ele>227.0</ele><time>2026-05-03T07:43:44Z</time></trkpt><trkpt lat="50.14567191014875" lon="15.749914509292266"><ele>227.0</ele><time>2026-05-03T07:43:45Z</time></trkpt><trkpt lat="50.14583350176456" lon="15.749509146262083"><ele>227.0</ele><time>2026-05-03T07:43:46Z</time></trkpt><trkpt lat="50.14599627270151" lon="15.749112366184436"><ele>227.5</ele><time>2026-05-03T07:43:47Z</time></trkpt><trkpt lat="50.14616387132859" lon="15.748711878908862"><ele>228.0</ele><time>2026-05-03T07:43:48Z</time></trkpt><trkpt lat="50.14633451427663" lon="15.748310313220507"><ele>228.0</ele><time>2026-05-03T07:43:49Z</time></trkpt><trkpt lat="50.14650930943668" lon="15.747911622103954"><ele>228.0</ele><time>2026-05-03T07:43:50Z</time></trkpt><trkpt lat="50.14669009393218" lon="15.747518919491156"><ele>228.0</ele><time>2026-05-03T07:43:51Z</time></trkpt><trkpt lat="50.14687385095211" lon="15.747131088965459"><ele>228.0</ele><time>2026-05-03T07:43:52Z</time></trkpt><trkpt lat="50.14705644515132" lon="15.74675065984527"><ele>228.0</ele><time>2026-05-03T07:43:53Z</time></trkpt><trkpt lat="50.14723283416336" lon="15.746387878291948"><ele>228.0</ele><time>2026-05-03T07:43:54Z</time></trkpt><trkpt lat="50.14740623720401" lon="15.746035749098427"><ele>228.5</ele><time>2026-05-03T07:43:55Z</time></trkpt><trkpt lat="50.14758653356177" lon="15.745686061037919"><ele>229.0</ele><time>2026-05-03T07:43:56Z</time></trkpt><trkpt lat="50.14776514974779" lon="15.7453406569169"><ele>228.5</ele><time>2026-05-03T07:43:57Z</time></trkpt><trkpt lat="50.147943580156294" lon="15.744998930939108"><ele>228.0</ele><time>2026-05-03T07:43:58Z</time></trkpt><trkpt lat="50.14811373173846" lon="15.74467329966262"><ele>227.5</ele><time>2026-05-03T07:43:59Z</time></trkpt><trkpt lat="50.14828266741246" lon="15.744354413673717"><ele>227.0</ele><time>2026-05-03T07:44:00Z</time></trkpt><trkpt lat="50.148449846171566" lon="15.744048532009126"><ele>227.0</ele><time>2026-05-03T07:44:01Z</time></trkpt><trkpt lat="50.14861256082101" lon="15.743760280957687"><ele>227.0</ele><time>2026-05-03T07:44:02Z</time></trkpt><trkpt lat="50.1487678573422" lon="15.74349407014143"><ele>227.0</ele><time>2026-05-03T07:44:03Z</time></trkpt><trkpt lat="50.14891081910148" lon="15.743245464200049"><ele>227.0</ele><time>2026-05-03T07:44:04Z</time></trkpt><trkpt lat="50.149043116882815" lon="15.743013601181632"><ele>227.0</ele><time>2026-05-03T07:44:05Z</time></trkpt><trkpt lat="50.14920011073686" lon="15.742748154922257"><ele>227.33333333333334</ele><time>2026-05-03T07:44:06Z</time></trkpt><trkpt lat="50.14933434722092" lon="15.742525116374397"><ele>227.66666666666669</ele><time>2026-05-03T07:44:07Z</time></trkpt><trkpt lat="50.14947828492702" lon="15.742311905008181"><ele>228.0</ele><time>2026-05-03T07:44:08Z</time></trkpt><trkpt lat="50.14962811316975" lon="15.742094210109814"><ele>228.0</ele><time>2026-05-03T07:44:09Z</time></trkpt><trkpt lat="50.14977331106822" lon="15.741908581679455"><ele>228.0</ele><time>2026-05-03T07:44:10Z</time></trkpt><trkpt lat="50.149927809533416" lon="15.741738820776838"><ele>228.0</ele><time>2026-05-03T07:44:11Z</time></trkpt><trkpt lat="50.15008790952792" lon="15.741577214755484"><ele>228.0</ele><time>2026-05-03T07:44:12Z</time></trkpt><trkpt lat="50.150251760057124" lon="15.741427183800594"><ele>228.0</ele><time>2026-05-03T07:44:13Z</time></trkpt><trkpt lat="50.150420945772375" lon="15.741296993593375"><ele>228.0</ele><time>2026-05-03T07:44:14Z</time></trkpt><trkpt lat="50.150598176530885" lon="15.74118454456672"><ele>228.0</ele><time>2026-05-03T07:44:15Z</time></trkpt><trkpt lat="50.15078196354028" lon="15.741084122002517"><ele>228.0</ele><time>2026-05-03T07:44:16Z</time></trkpt><trkpt lat="50.15097745048582" lon="15.741004223773386"><ele>228.0</ele><time>2026-05-03T07:44:17Z</time></trkpt><trkpt lat="50.151169909900794" lon="15.740915893163718"><ele>228.0</ele><time>2026-05-03T07:44:18Z</time></trkpt><trkpt lat="50.15135322042517" lon="15.740794962440459"><ele>228.0</ele><time>2026-05-03T07:44:19Z</time></trkpt><trkpt lat="50.15150633699925" lon="15.740670435734364"><ele>228.0</ele><time>2026-05-03T07:44:20Z</time></trkpt><trkpt lat="50.15164569451263" lon="15.740527581519668"><ele>228.0</ele><time>2026-05-03T07:44:21Z</time></trkpt><trkpt lat="50.15177531162103" lon="15.740350355931566"><ele>228.0</ele><time>2026-05-03T07:44:22Z</time></trkpt><trkpt lat="50.15188848714993" lon="15.740150593945854"><ele>228.0</ele><time>2026-05-03T07:44:23Z</time></trkpt><trkpt lat="50.15197645527494" lon="15.739929872345337"><ele>228.0</ele><time>2026-05-03T07:44:24Z</time></trkpt><trkpt lat="50.152046328322015" lon="15.739703060254822"><ele>228.0</ele><time>2026-05-03T07:44:25Z</time></trkpt><trkpt lat="50.15210079137056" lon="15.739474200567427"><ele>228.0</ele><time>2026-05-03T07:44:26Z</time></trkpt><trkpt lat="50.15213028881937" lon="15.73925194845582"><ele>228.0</ele><time>2026-05-03T07:44:27Z</time></trkpt><trkpt lat="50.152141845102626" lon="15.739024977410056"><ele>228.0</ele><time>2026-05-03T07:44:28Z</time></trkpt><trkpt lat="50.152138421380506" lon="15.738798074087258"><ele>228.0</ele><time>2026-05-03T07:44:29Z</time></trkpt><trkpt lat="50.152129019048914" lon="15.73857198015825"><ele>228.0</ele><time>2026-05-03T07:44:30Z</time></trkpt><trkpt lat="50.15210052593233" lon="15.738335796176699"><ele>228.0</ele><time>2026-05-03T07:44:31Z</time></trkpt><trkpt lat="50.15205511470436" lon="15.738110901655553"><ele>228.0</ele><time>2026-05-03T07:44:32Z</time></trkpt><trkpt lat="50.15199636304285" lon="15.737888120994993"><ele>228.0</ele><time>2026-05-03T07:44:33Z</time></trkpt><trkpt lat="50.15190998717562" lon="15.737663986140037"><ele>228.0</ele><time>2026-05-03T07:44:34Z</time></trkpt><trkpt lat="50.15181341155352" lon="15.73745620163694"><ele>228.0</ele><time>2026-05-03T07:44:35Z</time></trkpt><trkpt lat="50.151696215067325" lon="15.737259654477894"><ele>228.0</ele><time>2026-05-03T07:44:36Z</time></trkpt><trkpt lat="50.1515603456852" lon="15.737080422757796"><ele>228.0</ele><time>2026-05-03T07:44:37Z</time></trkpt><trkpt lat="50.15140866391368" lon="15.736929935681358"><ele>228.0</ele><time>2026-05-03T07:44:38Z</time></trkpt><trkpt lat="50.15125185427798" lon="15.736809158214868"><ele>228.0</ele><time>2026-05-03T07:44:39Z</time></trkpt><trkpt lat="50.15110104776369" lon="15.736709712953706"><ele>228.0</ele><time>2026-05-03T07:44:40Z</time></trkpt><trkpt lat="50.15094285108337" lon="15.736592323111985"><ele>228.0</ele><time>2026-05-03T07:44:41Z</time></trkpt><trkpt lat="50.150780257508316" lon="15.736459355950302"><ele>228.0</ele><time>2026-05-03T07:44:42Z</time></trkpt><trkpt lat="50.150618964822044" lon="15.736305429060216"><ele>228.0</ele><time>2026-05-03T07:44:43Z</time></trkpt><trkpt lat="50.15046521172699" lon="15.736133918399673"><ele>228.0</ele><time>2026-05-03T07:44:44Z</time></trkpt><trkpt lat="50.15032011616702" lon="15.735933654808864"><ele>228.0</ele><time>2026-05-03T07:44:45Z</time></trkpt><trkpt lat="50.15018404246946" lon="15.735714503401098"><ele>228.0</ele><time>2026-05-03T07:44:46Z</time></trkpt><trkpt lat="50.15005474120069" lon="15.735475081055014"><ele>228.0</ele><time>2026-05-03T07:44:47Z</time></trkpt><trkpt lat="50.14992052169806" lon="15.735220800900244"><ele>228.0</ele><time>2026-05-03T07:44:48Z</time></trkpt><trkpt lat="50.14976770642658" lon="15.734942610575635"><ele>228.0</ele><time>2026-05-03T07:44:49Z</time></trkpt><trkpt lat="50.14958475800298" lon="15.734625707509107"><ele>228.0</ele><time>2026-05-03T07:44:50Z</time></trkpt><trkpt lat="50.149378954137255" lon="15.734254090180274"><ele>228.5</ele><time>2026-05-03T07:44:51Z</time></trkpt><trkpt lat="50.14917082592878" lon="15.733831552475996"><ele>229.0</ele><time>2026-05-03T07:44:52Z</time></trkpt><trkpt lat="50.14895386504221" lon="15.733366513007809"><ele>229.0</ele><time>2026-05-03T07:44:53Z</time></trkpt><trkpt lat="50.14872301150344" lon="15.732868251100745"><ele>229.0</ele><time>2026-05-03T07:44:54Z</time></trkpt><trkpt lat="50.14847633097532" lon="15.732333914853097"><ele>229.0</ele><time>2026-05-03T07:44:55Z</time></trkpt><trkpt lat="50.14821818911804" lon="15.731765442347031"><ele>229.0</ele><time>2026-05-03T07:44:56Z</time></trkpt><trkpt lat="50.147956584778576" lon="15.731180561551271"><ele>230.0</ele><time>2026-05-03T07:44:57Z</time></trkpt><trkpt lat="50.14768469797648" lon="15.730566825143356"><ele>230.0</ele><time>2026-05-03T07:44:58Z</time></trkpt><trkpt lat="50.14740857698541" lon="15.729941979675372"><ele>228.0</ele><time>2026-05-03T07:44:59Z</time></trkpt><trkpt lat="50.147135707828454" lon="15.729297209789204"><ele>228.0</ele><time>2026-05-03T07:45:00Z</time></trkpt><trkpt lat="50.14686969726522" lon="15.728647997412672"><ele>230.0</ele><time>2026-05-03T07:45:01Z</time></trkpt><trkpt lat="50.146607405777736" lon="15.727989059693208"><ele>231.0</ele><time>2026-05-03T07:45:02Z</time></trkpt><trkpt lat="50.14636988298262" lon="15.727371803813394"><ele>231.5</ele><time>2026-05-03T07:45:03Z</time></trkpt><trkpt lat="50.14613413745064" lon="15.726804361605993"><ele>232.0</ele><time>2026-05-03T07:45:04Z</time></trkpt><trkpt lat="50.14590488757385" lon="15.726237638319086"><ele>232.0</ele><time>2026-05-03T07:45:05Z</time></trkpt><trkpt lat="50.14568816381827" lon="15.725699732609376"><ele>232.0</ele><time>2026-05-03T07:45:06Z</time></trkpt><trkpt lat="50.14546741854345" lon="15.725168994135721"><ele>232.5</ele><time>2026-05-03T07:45:07Z</time></trkpt><trkpt lat="50.14524087896539" lon="15.724616972748612"><ele>233.0</ele><time>2026-05-03T07:45:08Z</time></trkpt><trkpt lat="50.14502055770293" lon="15.72404719899472"><ele>232.0</ele><time>2026-05-03T07:45:09Z</time></trkpt><trkpt lat="50.14480909071117" lon="15.723464592315914"><ele>231.0</ele><time>2026-05-03T07:45:10Z</time></trkpt><trkpt lat="50.14460592776118" lon="15.722872468703475"><ele>231.0</ele><time>2026-05-03T07:45:11Z</time></trkpt><trkpt lat="50.144402731180925" lon="15.722271654913621"><ele>231.0</ele><time>2026-05-03T07:45:12Z</time></trkpt><trkpt lat="50.14419342381814" lon="15.721673740229477"><ele>231.0</ele><time>2026-05-03T07:45:13Z</time></trkpt><trkpt lat="50.14398404345747" lon="15.721082532994298"><ele>231.0</ele><time>2026-05-03T07:45:14Z</time></trkpt><trkpt lat="50.143777672596265" lon="15.72049085959644"><ele>231.5</ele><time>2026-05-03T07:45:15Z</time></trkpt><trkpt lat="50.14357055746771" lon="15.719892653751808"><ele>232.0</ele><time>2026-05-03T07:45:16Z</time></trkpt><trkpt lat="50.14336369765538" lon="15.719282356353574"><ele>231.0</ele><time>2026-05-03T07:45:17Z</time></trkpt><trkpt lat="50.143160156918896" lon="15.718660878199122"><ele>230.0</ele><time>2026-05-03T07:45:18Z</time></trkpt><trkpt lat="50.142959188604564" lon="15.718036613326591"><ele>231.0</ele><time>2026-05-03T07:45:19Z</time></trkpt><trkpt lat="50.14275889230091" lon="15.717408931820744"><ele>232.0</ele><time>2026-05-03T07:45:20Z</time></trkpt><trkpt lat="50.14256275558711" lon="15.716793019360464"><ele>232.0</ele><time>2026-05-03T07:45:21Z</time></trkpt><trkpt lat="50.14237107056759" lon="15.716179274916088"><ele>232.0</ele><time>2026-05-03T07:45:22Z</time></trkpt><trkpt lat="50.14218252329859" lon="15.715553820468331"><ele>235.0</ele><time>2026-05-03T07:45:23Z</time></trkpt><trkpt lat="50.14199279089426" lon="15.714916804476163"><ele>235.0</ele><time>2026-05-03T07:45:24Z</time></trkpt><trkpt lat="50.14180229216224" lon="15.714279303549237"><ele>235.0</ele><time>2026-05-03T07:45:25Z</time></trkpt><trkpt lat="50.14161315191487" lon="15.713635724141765"><ele>233.0</ele><time>2026-05-03T07:45:26Z</time></trkpt><trkpt lat="50.14142462782696" lon="15.71297386192013"><ele>233.0</ele><time>2026-05-03T07:45:27Z</time></trkpt><trkpt lat="50.14123807835479" lon="15.7123088219837"><ele>232.0</ele><time>2026-05-03T07:45:28Z</time></trkpt><trkpt lat="50.14105185539156" lon="15.7116465179488"><ele>232.0</ele><time>2026-05-03T07:45:29Z</time></trkpt><trkpt lat="50.14087637372334" lon="15.711008573924596"><ele>232.0</ele><time>2026-05-03T07:45:30Z</time></trkpt><trkpt lat="50.14071964590616" lon="15.710431638466181"><ele>232.0</ele><time>2026-05-03T07:45:31Z</time></trkpt><trkpt lat="50.14057338231871" lon="15.709865514721413"><ele>232.0</ele><time>2026-05-03T07:45:32Z</time></trkpt><trkpt lat="50.14043533197853" lon="15.70929748221384"><ele>232.0</ele><time>2026-05-03T07:45:33Z</time></trkpt><trkpt lat="50.140289752116644" lon="15.70871255946598"><ele>232.0</ele><time>2026-05-03T07:45:34Z</time></trkpt><trkpt lat="50.140140943456394" lon="15.708095824570387"><ele>233.0</ele><time>2026-05-03T07:45:35Z</time></trkpt><trkpt lat="50.139989907865136" lon="15.70745162345161"><ele>234.0</ele><time>2026-05-03T07:45:36Z</time></trkpt><trkpt lat="50.1398406010363" lon="15.706781962546376"><ele>235.0</ele><time>2026-05-03T07:45:37Z</time></trkpt><trkpt lat="50.139697947203715" lon="15.706093881760516"><ele>237.0</ele><time>2026-05-03T07:45:38Z</time></trkpt><trkpt lat="50.139554730978" lon="15.705389142153523"><ele>241.0</ele><time>2026-05-03T07:45:39Z</time></trkpt><trkpt lat="50.13939877538139" lon="15.704686565222058"><ele>243.0</ele><time>2026-05-03T07:45:40Z</time></trkpt><trkpt lat="50.139234802404324" lon="15.70397429070442"><ele>244.0</ele><time>2026-05-03T07:45:41Z</time></trkpt><trkpt lat="50.139073879323924" lon="15.7032508742442"><ele>249.0</ele><time>2026-05-03T07:45:42Z</time></trkpt><trkpt lat="50.13892629576949" lon="15.70252874795897"><ele>247.0</ele><time>2026-05-03T07:45:43Z</time></trkpt><trkpt lat="50.13878012906032" lon="15.701787575339909"><ele>246.0</ele><time>2026-05-03T07:45:44Z</time></trkpt><trkpt lat="50.138638345578634" lon="15.701041615537564"><ele>246.0</ele><time>2026-05-03T07:45:45Z</time></trkpt><trkpt lat="50.13850706022189" lon="15.700322995718683"><ele>245.5</ele><time>2026-05-03T07:45:46Z</time></trkpt><trkpt lat="50.13839408720658" lon="15.699686087604027"><ele>245.0</ele><time>2026-05-03T07:45:47Z</time></trkpt><trkpt lat="50.138287268083886" lon="15.699104500937665"><ele>242.5</ele><time>2026-05-03T07:45:48Z</time></trkpt><trkpt lat="50.138179931760746" lon="15.698540237207514"><ele>240.0</ele><time>2026-05-03T07:45:49Z</time></trkpt><trkpt lat="50.138078199497265" lon="15.697974194953586"><ele>240.0</ele><time>2026-05-03T07:45:50Z</time></trkpt><trkpt lat="50.137984613647504" lon="15.697418256672881"><ele>240.0</ele><time>2026-05-03T07:45:51Z</time></trkpt><trkpt lat="50.137893461385474" lon="15.696882501548517"><ele>239.5</ele><time>2026-05-03T07:45:52Z</time></trkpt><trkpt lat="50.13780596709175" lon="15.696374305045676"><ele>239.0</ele><time>2026-05-03T07:45:53Z</time></trkpt><trkpt lat="50.13772279933598" lon="15.695869628219112"><ele>238.5</ele><time>2026-05-03T07:45:54Z</time></trkpt><trkpt lat="50.13764490250472" lon="15.695371108207254"><ele>238.0</ele><time>2026-05-03T07:45:55Z</time></trkpt><trkpt lat="50.137570086672376" lon="15.694880964653091"><ele>237.0</ele><time>2026-05-03T07:45:56Z</time></trkpt><trkpt lat="50.13749380032288" lon="15.694389463695575"><ele>236.0</ele><time>2026-05-03T07:45:57Z</time></trkpt><trkpt lat="50.1374205538476" lon="15.69390803721461"><ele>234.5</ele><time>2026-05-03T07:45:58Z</time></trkpt><trkpt lat="50.137355197673884" lon="15.693437388328348"><ele>233.0</ele><time>2026-05-03T07:45:59Z</time></trkpt><trkpt lat="50.13729260013303" lon="15.692967704855782"><ele>233.5</ele><time>2026-05-03T07:46:00Z</time></trkpt><trkpt lat="50.13722447270927" lon="15.692472816520752"><ele>234.0</ele><time>2026-05-03T07:46:01Z</time></trkpt><trkpt lat="50.137144897330174" lon="15.691926547986228"><ele>234.0</ele><time>2026-05-03T07:46:02Z</time></trkpt><trkpt lat="50.137067790702794" lon="15.69134992652685"><ele>234.0</ele><time>2026-05-03T07:46:03Z</time></trkpt><trkpt lat="50.13699386676526" lon="15.690746623577006"><ele>234.5</ele><time>2026-05-03T07:46:04Z</time></trkpt><trkpt lat="50.136926049843545" lon="15.690131100258071"><ele>235.0</ele><time>2026-05-03T07:46:05Z</time></trkpt><trkpt lat="50.13685748271749" lon="15.689509037418983"><ele>235.0</ele><time>2026-05-03T07:46:06Z</time></trkpt><trkpt lat="50.13678946622179" lon="15.688893265074382"><ele>235.0</ele><time>2026-05-03T07:46:07Z</time></trkpt><trkpt lat="50.136721041512075" lon="15.688306363218521"><ele>234.5</ele><time>2026-05-03T07:46:08Z</time></trkpt><trkpt lat="50.1366578428345" lon="15.687735839431426"><ele>234.0</ele><time>2026-05-03T07:46:09Z</time></trkpt><trkpt lat="50.136599862913805" lon="15.687165075119253"><ele>233.5</ele><time>2026-05-03T07:46:10Z</time></trkpt><trkpt lat="50.136540858476884" lon="15.686573875375693"><ele>233.0</ele><time>2026-05-03T07:46:11Z</time></trkpt><trkpt lat="50.13648116754439" lon="15.68594631237752"><ele>233.0</ele><time>2026-05-03T07:46:12Z</time></trkpt><trkpt lat="50.13642673705492" lon="15.685296907775392"><ele>233.0</ele><time>2026-05-03T07:46:13Z</time></trkpt><trkpt lat="50.13637638200475" lon="15.684636964912343"><ele>233.0</ele><time>2026-05-03T07:46:14Z</time></trkpt><trkpt lat="50.13632431087398" lon="15.68397471935461"><ele>233.0</ele><time>2026-05-03T07:46:15Z</time></trkpt><trkpt lat="50.136272162616784" lon="15.683307706567641"><ele>233.0</ele><time>2026-05-03T07:46:16Z</time></trkpt><trkpt lat="50.136222112366056" lon="15.682630801091591"><ele>233.0</ele><time>2026-05-03T07:46:17Z</time></trkpt><trkpt lat="50.136173446204225" lon="15.681949684416436"><ele>233.5</ele><time>2026-05-03T07:46:18Z</time></trkpt><trkpt lat="50.13612679871229" lon="15.681263692229253"><ele>234.0</ele><time>2026-05-03T07:46:19Z</time></trkpt><trkpt lat="50.1360852676944" lon="15.680580003379445"><ele>233.5</ele><time>2026-05-03T07:46:20Z</time></trkpt><trkpt lat="50.136046513760476" lon="15.679894522926537"><ele>233.0</ele><time>2026-05-03T07:46:21Z</time></trkpt><trkpt lat="50.13601435506891" lon="15.679212427476669"><ele>233.0</ele><time>2026-05-03T07:46:22Z</time></trkpt><trkpt lat="50.13598605949163" lon="15.67853297073383"><ele>233.0</ele><time>2026-05-03T07:46:23Z</time></trkpt><trkpt lat="50.135963018312296" lon="15.677854778612787"><ele>232.5</ele><time>2026-05-03T07:46:24Z</time></trkpt><trkpt lat="50.135940877880344" lon="15.67717590930888"><ele>232.0</ele><time>2026-05-03T07:46:25Z</time></trkpt><trkpt lat="50.13592362900245" lon="15.676498220053032"><ele>232.0</ele><time>2026-05-03T07:46:26Z</time></trkpt><trkpt lat="50.135912169737814" lon="15.675820836575092"><ele>232.0</ele><time>2026-05-03T07:46:27Z</time></trkpt><trkpt lat="50.13590444117289" lon="15.675135542503174"><ele>232.0</ele><time>2026-05-03T07:46:28Z</time></trkpt><trkpt lat="50.135899551075624" lon="15.674442881132707"><ele>232.0</ele><time>2026-05-03T07:46:29Z</time></trkpt><trkpt lat="50.13590213445044" lon="15.673758870632538"><ele>232.5</ele><time>2026-05-03T07:46:30Z</time></trkpt><trkpt lat="50.13590871640444" lon="15.67308358030053"><ele>233.0</ele><time>2026-05-03T07:46:31Z</time></trkpt><trkpt lat="50.13592310171203" lon="15.672410980855789"><ele>233.0</ele><time>2026-05-03T07:46:32Z</time></trkpt><trkpt lat="50.13594319532005" lon="15.671729196756234"><ele>233.0</ele><time>2026-05-03T07:46:33Z</time></trkpt><trkpt lat="50.135967245369336" lon="15.671037077697642"><ele>233.5</ele><time>2026-05-03T07:46:34Z</time></trkpt><trkpt lat="50.13599889028998" lon="15.670346428935964"><ele>234.0</ele><time>2026-05-03T07:46:35Z</time></trkpt><trkpt lat="50.13604221707302" lon="15.66964244463342"><ele>233.0</ele><time>2026-05-03T07:46:36Z</time></trkpt><trkpt lat="50.136088635455586" lon="15.668929265909988"><ele>233.0</ele><time>2026-05-03T07:46:37Z</time></trkpt><trkpt lat="50.13613722402308" lon="15.66821387489787"><ele>233.0</ele><time>2026-05-03T07:46:38Z</time></trkpt><trkpt lat="50.136186357165414" lon="15.66749813537468"><ele>233.0</ele><time>2026-05-03T07:46:39Z</time></trkpt><trkpt lat="50.13623772519388" lon="15.666803996993101"><ele>233.0</ele><time>2026-05-03T07:46:40Z</time></trkpt><trkpt lat="50.136290659116426" lon="15.666156303278175"><ele>233.5</ele><time>2026-05-03T07:46:41Z</time></trkpt><trkpt lat="50.136350457414174" lon="15.665518265925982"><ele>234.0</ele><time>2026-05-03T07:46:42Z</time></trkpt><trkpt lat="50.136409401411214" lon="15.664891936279389"><ele>235.0</ele><time>2026-05-03T07:46:43Z</time></trkpt><trkpt lat="50.13646571076351" lon="15.664299829697894"><ele>236.0</ele><time>2026-05-03T07:46:44Z</time></trkpt><trkpt lat="50.136526836851615" lon="15.663704845738717"><ele>237.0</ele><time>2026-05-03T07:46:45Z</time></trkpt><trkpt lat="50.13658678227009" lon="15.663150532136958"><ele>238.0</ele><time>2026-05-03T07:46:46Z</time></trkpt><trkpt lat="50.1366416408177" lon="15.662619487068874"><ele>238.5</ele><time>2026-05-03T07:46:47Z</time></trkpt><trkpt lat="50.136695183197936" lon="15.662092845765732"><ele>239.0</ele><time>2026-05-03T07:46:48Z</time></trkpt><trkpt lat="50.136754696950476" lon="15.661573780757577"><ele>240.5</ele><time>2026-05-03T07:46:49Z</time></trkpt><trkpt lat="50.13682015443303" lon="15.661063103909479"><ele>242.0</ele><time>2026-05-03T07:46:50Z</time></trkpt><trkpt lat="50.136884797095036" lon="15.660550787076064"><ele>242.5</ele><time>2026-05-03T07:46:51Z</time></trkpt><trkpt lat="50.13695233697075" lon="15.660015409532376"><ele>243.0</ele><time>2026-05-03T07:46:52Z</time></trkpt><trkpt lat="50.137023163136504" lon="15.659480623841988"><ele>244.0</ele><time>2026-05-03T07:46:53Z</time></trkpt><trkpt lat="50.13709493423911" lon="15.658941845992384"><ele>245.0</ele><time>2026-05-03T07:46:54Z</time></trkpt><trkpt lat="50.13716247915914" lon="15.658418367333338"><ele>249.0</ele><time>2026-05-03T07:46:55Z</time></trkpt><trkpt lat="50.13722760231053" lon="15.65790158027518"><ele>253.0</ele><time>2026-05-03T07:46:56Z</time></trkpt><trkpt lat="50.13728954678146" lon="15.657394571359992"><ele>252.0</ele><time>2026-05-03T07:46:57Z</time></trkpt><trkpt lat="50.13735017456796" lon="15.656900595542547"><ele>251.0</ele><time>2026-05-03T07:46:58Z</time></trkpt><trkpt lat="50.13741141177541" lon="15.656406589504687"><ele>251.5</ele><time>2026-05-03T07:46:59Z</time></trkpt><trkpt lat="50.13747178319239" lon="15.655924874134216"><ele>252.0</ele><time>2026-05-03T07:47:00Z</time></trkpt><trkpt lat="50.137533123361926" lon="15.65546582543534"><ele>253.0</ele><time>2026-05-03T07:47:01Z</time></trkpt><trkpt lat="50.13759057857812" lon="15.655048607031315"><ele>254.0</ele><time>2026-05-03T07:47:02Z</time></trkpt><trkpt lat="50.13763517783399" lon="15.65465204496849"><ele>255.0</ele><time>2026-05-03T07:47:03Z</time></trkpt><trkpt lat="50.13767997693411" lon="15.65424536374276"><ele>256.0</ele><time>2026-05-03T07:47:04Z</time></trkpt><trkpt lat="50.13772195350102" lon="15.653829632371465"><ele>257.0</ele><time>2026-05-03T07:47:05Z</time></trkpt><trkpt lat="50.13776587697411" lon="15.653404362785293"><ele>258.0</ele><time>2026-05-03T07:47:06Z</time></trkpt><trkpt lat="50.13780868451564" lon="15.652992832317699"><ele>259.0</ele><time>2026-05-03T07:47:07Z</time></trkpt><trkpt lat="50.137850460921804" lon="15.652544936146077"><ele>260.0</ele><time>2026-05-03T07:47:08Z</time></trkpt><trkpt lat="50.13789702840616" lon="15.652057653654266"><ele>262.5</ele><time>2026-05-03T07:47:09Z</time></trkpt><trkpt lat="50.137942964158626" lon="15.651557522240557"><ele>265.0</ele><time>2026-05-03T07:47:10Z</time></trkpt><trkpt lat="50.13798542482657" lon="15.65104526114971"><ele>265.5</ele><time>2026-05-03T07:47:11Z</time></trkpt><trkpt lat="50.13803003711224" lon="15.650508398880454"><ele>266.0</ele><time>2026-05-03T07:47:12Z</time></trkpt><trkpt lat="50.138070939669234" lon="15.649946640069755"><ele>264.5</ele><time>2026-05-03T07:47:13Z</time></trkpt><trkpt lat="50.13810892321086" lon="15.649354426687601"><ele>263.0</ele><time>2026-05-03T07:47:14Z</time></trkpt><trkpt lat="50.138143293749316" lon="15.64874346730487"><ele>264.5</ele><time>2026-05-03T07:47:15Z</time></trkpt><trkpt lat="50.13817085222007" lon="15.648113100045258"><ele>266.0</ele><time>2026-05-03T07:47:16Z</time></trkpt><trkpt lat="50.138192175585466" lon="15.647474117784116"><ele>269.0</ele><time>2026-05-03T07:47:17Z</time></trkpt><trkpt lat="50.13821120151862" lon="15.646823092025018"><ele>272.0</ele><time>2026-05-03T07:47:18Z</time></trkpt><trkpt lat="50.13822871163025" lon="15.646169350338235"><ele>274.5</ele><time>2026-05-03T07:47:19Z</time></trkpt><trkpt lat="50.13824473657867" lon="15.645516397992841"><ele>277.0</ele><time>2026-05-03T07:47:20Z</time></trkpt><trkpt lat="50.13826063637492" lon="15.644859956179765"><ele>277.0</ele><time>2026-05-03T07:47:21Z</time></trkpt><trkpt lat="50.138275270297534" lon="15.644206101453708"><ele>277.0</ele><time>2026-05-03T07:47:22Z</time></trkpt><trkpt lat="50.13828660742508" lon="15.643550676708049"><ele>274.5</ele><time>2026-05-03T07:47:23Z</time></trkpt><trkpt lat="50.13829665328848" lon="15.642891397430915"><ele>272.0</ele><time>2026-05-03T07:47:24Z</time></trkpt><trkpt lat="50.13830089813947" lon="15.642229602170618"><ele>270.0</ele><time>2026-05-03T07:47:25Z</time></trkpt><trkpt lat="50.138301214020956" lon="15.641562768725025"><ele>268.0</ele><time>2026-05-03T07:47:26Z</time></trkpt><trkpt lat="50.13829597184975" lon="15.640895224171304"><ele>269.0</ele><time>2026-05-03T07:47:27Z</time></trkpt><trkpt lat="50.138291597822004" lon="15.64021461119762"><ele>270.0</ele><time>2026-05-03T07:47:28Z</time></trkpt><trkpt lat="50.138286176152235" lon="15.639527970945574"><ele>270.5</ele><time>2026-05-03T07:47:29Z</time></trkpt><trkpt lat="50.13827817966027" lon="15.638850672839487"><ele>271.0</ele><time>2026-05-03T07:47:30Z</time></trkpt><trkpt lat="50.138265660772326" lon="15.638210452018166"><ele>271.5</ele><time>2026-05-03T07:47:31Z</time></trkpt><trkpt lat="50.13824807870641" lon="15.637624271867695"><ele>272.0</ele><time>2026-05-03T07:47:32Z</time></trkpt><trkpt lat="50.138226889573104" lon="15.637032192700385"><ele>272.0</ele><time>2026-05-03T07:47:33Z</time></trkpt><trkpt lat="50.13820409887512" lon="15.636432212194162"><ele>272.0</ele><time>2026-05-03T07:47:34Z</time></trkpt><trkpt lat="50.138181968363774" lon="15.635822912990092"><ele>274.0</ele><time>2026-05-03T07:47:35Z</time></trkpt><trkpt lat="50.13815495291399" lon="15.635201068016098"><ele>276.0</ele><time>2026-05-03T07:47:36Z</time></trkpt><trkpt lat="50.1381234964196" lon="15.634567367136974"><ele>278.0</ele><time>2026-05-03T07:47:37Z</time></trkpt><trkpt lat="50.13808656869636" lon="15.633934694576668"><ele>280.0</ele><time>2026-05-03T07:47:38Z</time></trkpt><trkpt lat="50.13804500836786" lon="15.633296141426772"><ele>282.0</ele><time>2026-05-03T07:47:39Z</time></trkpt><trkpt lat="50.137999942424294" lon="15.632659359829882"><ele>284.0</ele><time>2026-05-03T07:47:40Z</time></trkpt><trkpt lat="50.137949336740185" lon="15.632028163508991"><ele>283.5</ele><time>2026-05-03T07:47:41Z</time></trkpt><trkpt lat="50.137893462848766" lon="15.631399130399007"><ele>283.0</ele><time>2026-05-03T07:47:42Z</time></trkpt><trkpt lat="50.137835050262" lon="15.630763988519005"><ele>282.5</ele><time>2026-05-03T07:47:43Z</time></trkpt><trkpt lat="50.137777006980976" lon="15.63011921354516"><ele>282.0</ele><time>2026-05-03T07:47:44Z</time></trkpt><trkpt lat="50.13772257463721" lon="15.629468609971955"><ele>282.0</ele><time>2026-05-03T07:47:45Z</time></trkpt><trkpt lat="50.13767531309574" lon="15.628818117082181"><ele>282.0</ele><time>2026-05-03T07:47:46Z</time></trkpt><trkpt lat="50.137629477978976" lon="15.628172785470177"><ele>283.5</ele><time>2026-05-03T07:47:47Z</time></trkpt><trkpt lat="50.13757470560542" lon="15.627542413256338"><ele>285.0</ele><time>2026-05-03T07:47:48Z</time></trkpt><trkpt lat="50.13750937411376" lon="15.626914281012562"><ele>288.0</ele><time>2026-05-03T07:47:49Z</time></trkpt><trkpt lat="50.137437008814445" lon="15.626289753906656"><ele>291.0</ele><time>2026-05-03T07:47:50Z</time></trkpt><trkpt lat="50.13735979077814" lon="15.625667264460311"><ele>291.0</ele><time>2026-05-03T07:47:51Z</time></trkpt><trkpt lat="50.1372786880958" lon="15.625037862820802"><ele>291.0</ele><time>2026-05-03T07:47:52Z</time></trkpt><trkpt lat="50.13720042118754" lon="15.624412202837064"><ele>290.5</ele><time>2026-05-03T07:47:53Z</time></trkpt><trkpt lat="50.137125759561044" lon="15.623814174551274"><ele>290.0</ele><time>2026-05-03T07:47:54Z</time></trkpt><trkpt lat="50.13704329777505" lon="15.623188764220107"><ele>288.5</ele><time>2026-05-03T07:47:55Z</time></trkpt><trkpt lat="50.13695125183533" lon="15.622543881462397"><ele>287.0</ele><time>2026-05-03T07:47:56Z</time></trkpt><trkpt lat="50.13684842513473" lon="15.621891194613603"><ele>286.5</ele><time>2026-05-03T07:47:57Z</time></trkpt><trkpt lat="50.136739249841064" lon="15.621228882185676"><ele>286.0</ele><time>2026-05-03T07:47:58Z</time></trkpt><trkpt lat="50.13663014232995" lon="15.620556210116119"><ele>284.0</ele><time>2026-05-03T07:47:59Z</time></trkpt><trkpt lat="50.13651782384836" lon="15.619874450189949"><ele>280.0</ele><time>2026-05-03T07:48:00Z</time></trkpt><trkpt lat="50.136404317344756" lon="15.61919509768303"><ele>280.5</ele><time>2026-05-03T07:48:01Z</time></trkpt><trkpt lat="50.13628936523509" lon="15.618529214205806"><ele>281.0</ele><time>2026-05-03T07:48:02Z</time></trkpt><trkpt lat="50.136172303355565" lon="15.61786777023141"><ele>279.0</ele><time>2026-05-03T07:48:03Z</time></trkpt><trkpt lat="50.1360489678872" lon="15.61718692735557"><ele>274.0</ele><time>2026-05-03T07:48:04Z</time></trkpt><trkpt lat="50.13591987423858" lon="15.61650307206638"><ele>270.0</ele><time>2026-05-03T07:48:05Z</time></trkpt><trkpt lat="50.135787935651415" lon="15.615820677449149"><ele>265.0</ele><time>2026-05-03T07:48:06Z</time></trkpt><trkpt lat="50.13565302219061" lon="15.615145071111073"><ele>266.5</ele><time>2026-05-03T07:48:07Z</time></trkpt><trkpt lat="50.13551813129578" lon="15.614485966826075"><ele>268.0</ele><time>2026-05-03T07:48:08Z</time></trkpt><trkpt lat="50.13537892514154" lon="15.61381652589913"><ele>268.5</ele><time>2026-05-03T07:48:09Z</time></trkpt><trkpt lat="50.1352402911377" lon="15.613150648129578"><ele>269.0</ele><time>2026-05-03T07:48:10Z</time></trkpt><trkpt lat="50.13509769000255" lon="15.612487517945546"><ele>268.5</ele><time>2026-05-03T07:48:11Z</time></trkpt><trkpt lat="50.134952499612275" lon="15.611830918460473"><ele>268.0</ele><time>2026-05-03T07:48:12Z</time></trkpt><trkpt lat="50.13479844994807" lon="15.611165845823615"><ele>262.0</ele><time>2026-05-03T07:48:13Z</time></trkpt><trkpt lat="50.13464060612236" lon="15.610504534268463"><ele>262.0</ele><time>2026-05-03T07:48:14Z</time></trkpt><trkpt lat="50.13447890749969" lon="15.60984121478352"><ele>261.0</ele><time>2026-05-03T07:48:15Z</time></trkpt><trkpt lat="50.13431386020363" lon="15.609177500314663"><ele>257.0</ele><time>2026-05-03T07:48:16Z</time></trkpt><trkpt lat="50.13414587086803" lon="15.608512576877427"><ele>258.0</ele><time>2026-05-03T07:48:17Z</time></trkpt><trkpt lat="50.13397635678611" lon="15.60785514410245"><ele>257.0</ele><time>2026-05-03T07:48:18Z</time></trkpt><trkpt lat="50.13380766854121" lon="15.607211886300483"><ele>256.0</ele><time>2026-05-03T07:48:19Z</time></trkpt><trkpt lat="50.13363782993303" lon="15.606581690537304"><ele>253.5</ele><time>2026-05-03T07:48:20Z</time></trkpt><trkpt lat="50.13347611536394" lon="15.605998806581383"><ele>251.0</ele><time>2026-05-03T07:48:21Z</time></trkpt><trkpt lat="50.133319694199244" lon="15.605438107387133"><ele>250.5</ele><time>2026-05-03T07:48:22Z</time></trkpt><trkpt lat="50.13316009428022" lon="15.604871947514413"><ele>250.0</ele><time>2026-05-03T07:48:23Z</time></trkpt><trkpt lat="50.13299404131091" lon="15.604284223420239"><ele>251.0</ele><time>2026-05-03T07:48:24Z</time></trkpt><trkpt lat="50.13282682172266" lon="15.603689877305937"><ele>252.0</ele><time>2026-05-03T07:48:25Z</time></trkpt><trkpt lat="50.13265749617773" lon="15.603102677956114"><ele>251.5</ele><time>2026-05-03T07:48:26Z</time></trkpt><trkpt lat="50.13249369921971" lon="15.602528673895623"><ele>251.0</ele><time>2026-05-03T07:48:27Z</time></trkpt><trkpt lat="50.13233394396243" lon="15.601967291613759"><ele>251.0</ele><time>2026-05-03T07:48:28Z</time></trkpt><trkpt lat="50.132180130467425" lon="15.601423215568957"><ele>251.0</ele><time>2026-05-03T07:48:29Z</time></trkpt><trkpt lat="50.13202345462331" lon="15.600876516409393"><ele>252.5</ele><time>2026-05-03T07:48:30Z</time></trkpt><trkpt lat="50.1318623923992" lon="15.600315997109568"><ele>254.0</ele><time>2026-05-03T07:48:31Z</time></trkpt><trkpt lat="50.131701037994226" lon="15.59973611651852"><ele>254.5</ele><time>2026-05-03T07:48:32Z</time></trkpt><trkpt lat="50.13154399581147" lon="15.59913523536545"><ele>255.0</ele><time>2026-05-03T07:48:33Z</time></trkpt><trkpt lat="50.13138917954524" lon="15.598525141186157"><ele>256.0</ele><time>2026-05-03T07:48:34Z</time></trkpt><trkpt lat="50.1312318678397" lon="15.597919228955787"><ele>257.0</ele><time>2026-05-03T07:48:35Z</time></trkpt><trkpt lat="50.13107149451294" lon="15.597321053481906"><ele>257.5</ele><time>2026-05-03T07:48:36Z</time></trkpt><trkpt lat="50.13090938797436" lon="15.59672216712152"><ele>258.0</ele><time>2026-05-03T07:48:37Z</time></trkpt><trkpt lat="50.13074576976126" lon="15.596119324064764"><ele>258.0</ele><time>2026-05-03T07:48:38Z</time></trkpt><trkpt lat="50.13058224538041" lon="15.59551790260994"><ele>258.0</ele><time>2026-05-03T07:48:39Z</time></trkpt><trkpt lat="50.130418816258825" lon="15.594910882775933"><ele>259.0</ele><time>2026-05-03T07:48:40Z</time></trkpt><trkpt lat="50.130259719225684" lon="15.59430140646861"><ele>260.0</ele><time>2026-05-03T07:48:41Z</time></trkpt><trkpt lat="50.130100353440255" lon="15.593688886754274"><ele>262.0</ele><time>2026-05-03T07:48:42Z</time></trkpt><trkpt lat="50.12994739617962" lon="15.593071700090908"><ele>264.0</ele><time>2026-05-03T07:48:43Z</time></trkpt><trkpt lat="50.12980282536015" lon="15.592455565270178"><ele>268.5</ele><time>2026-05-03T07:48:44Z</time></trkpt><trkpt lat="50.129665758342135" lon="15.59183726592652"><ele>273.0</ele><time>2026-05-03T07:48:45Z</time></trkpt><trkpt lat="50.1295325546229" lon="15.591218968126874"><ele>277.5</ele><time>2026-05-03T07:48:46Z</time></trkpt><trkpt lat="50.129404409084344" lon="15.590613979762571"><ele>282.0</ele><time>2026-05-03T07:48:47Z</time></trkpt><trkpt lat="50.12928363491796" lon="15.590017039980864"><ele>285.5</ele><time>2026-05-03T07:48:48Z</time></trkpt><trkpt lat="50.12917207639639" lon="15.589418390871604"><ele>289.0</ele><time>2026-05-03T07:48:49Z</time></trkpt><trkpt lat="50.129060387763325" lon="15.588820487442922"><ele>292.0</ele><time>2026-05-03T07:48:50Z</time></trkpt><trkpt lat="50.1289461465761" lon="15.588219667963212"><ele>295.0</ele><time>2026-05-03T07:48:51Z</time></trkpt><trkpt lat="50.12883250841876" lon="15.58761896701973"><ele>297.0</ele><time>2026-05-03T07:48:52Z</time></trkpt><trkpt lat="50.128720988142554" lon="15.58700977880004"><ele>299.0</ele><time>2026-05-03T07:48:53Z</time></trkpt><trkpt lat="50.12860916107421" lon="15.586389779507892"><ele>298.5</ele><time>2026-05-03T07:48:54Z</time></trkpt><trkpt lat="50.12849692461669" lon="15.585753123784027"><ele>298.0</ele><time>2026-05-03T07:48:55Z</time></trkpt><trkpt lat="50.12838820245174" lon="15.585114071950192"><ele>293.5</ele><time>2026-05-03T07:48:56Z</time></trkpt><trkpt lat="50.12828287611716" lon="15.584464438602236"><ele>289.0</ele><time>2026-05-03T07:48:57Z</time></trkpt><trkpt lat="50.128180439801866" lon="15.583816030720842"><ele>288.0</ele><time>2026-05-03T07:48:58Z</time></trkpt><trkpt lat="50.128078964320615" lon="15.583163429947412"><ele>287.0</ele><time>2026-05-03T07:48:59Z</time></trkpt><trkpt lat="50.12797565787554" lon="15.582492982836577"><ele>288.0</ele><time>2026-05-03T07:49:00Z</time></trkpt><trkpt lat="50.12787427175912" lon="15.581804528494986"><ele>289.0</ele><time>2026-05-03T07:49:01Z</time></trkpt><trkpt lat="50.12777862708084" lon="15.581115347486698"><ele>289.0</ele><time>2026-05-03T07:49:02Z</time></trkpt><trkpt lat="50.12769157751674" lon="15.580425116971755"><ele>288.0</ele><time>2026-05-03T07:49:03Z</time></trkpt><trkpt lat="50.12761621439367" lon="15.57972073726463"><ele>288.0</ele><time>2026-05-03T07:49:04Z</time></trkpt><trkpt lat="50.12755585767831" lon="15.579006024155316"><ele>286.0</ele><time>2026-05-03T07:49:05Z</time></trkpt><trkpt lat="50.12750765975807" lon="15.57828078605688"><ele>282.0</ele><time>2026-05-03T07:49:06Z</time></trkpt><trkpt lat="50.12746698520079" lon="15.57755875045581"><ele>281.0</ele><time>2026-05-03T07:49:07Z</time></trkpt><trkpt lat="50.12742999823513" lon="15.576869382672053"><ele>280.0</ele><time>2026-05-03T07:49:08Z</time></trkpt><trkpt lat="50.12739356718905" lon="15.576238450384396"><ele>281.0</ele><time>2026-05-03T07:49:09Z</time></trkpt><trkpt lat="50.1273584288466" lon="15.575628045858691"><ele>282.0</ele><time>2026-05-03T07:49:10Z</time></trkpt><trkpt lat="50.127336418444756" lon="15.57501507022937"><ele>281.0</ele><time>2026-05-03T07:49:11Z</time></trkpt><trkpt lat="50.12732597896872" lon="15.574399083988956"><ele>280.0</ele><time>2026-05-03T07:49:12Z</time></trkpt><trkpt lat="50.1273217241732" lon="15.573786789398024"><ele>276.5</ele><time>2026-05-03T07:49:13Z</time></trkpt><trkpt lat="50.12732388717029" lon="15.573178538827213"><ele>273.0</ele><time>2026-05-03T07:49:14Z</time></trkpt><trkpt lat="50.12732816509973" lon="15.572579088825153"><ele>270.0</ele><time>2026-05-03T07:49:15Z</time></trkpt><trkpt lat="50.12733800755402" lon="15.571978072228083"><ele>267.0</ele><time>2026-05-03T07:49:16Z</time></trkpt><trkpt lat="50.127353126185284" lon="15.571363786765469"><ele>266.0</ele><time>2026-05-03T07:49:17Z</time></trkpt><trkpt lat="50.12737848996583" lon="15.570754670465035"><ele>265.0</ele><time>2026-05-03T07:49:18Z</time></trkpt><trkpt lat="50.12742521506437" lon="15.57013916338448"><ele>267.5</ele><time>2026-05-03T07:49:19Z</time></trkpt><trkpt lat="50.12748939021947" lon="15.569526325402048"><ele>270.0</ele><time>2026-05-03T07:49:20Z</time></trkpt><trkpt lat="50.12756181355246" lon="15.568918857262853"><ele>271.5</ele><time>2026-05-03T07:49:21Z</time></trkpt><trkpt lat="50.127635231402444" lon="15.56832026679547"><ele>273.0</ele><time>2026-05-03T07:49:22Z</time></trkpt><trkpt lat="50.12771734887476" lon="15.5677279769656"><ele>274.5</ele><time>2026-05-03T07:49:23Z</time></trkpt><trkpt lat="50.12781597295768" lon="15.56712548329138"><ele>276.0</ele><time>2026-05-03T07:49:24Z</time></trkpt><trkpt lat="50.127934793106355" lon="15.566537397962332"><ele>279.0</ele><time>2026-05-03T07:49:25Z</time></trkpt><trkpt lat="50.1280717384858" lon="15.565951818997299"><ele>282.0</ele><time>2026-05-03T07:49:26Z</time></trkpt><trkpt lat="50.12822451043917" lon="15.565358827903719"><ele>283.5</ele><time>2026-05-03T07:49:27Z</time></trkpt><trkpt lat="50.12838097355476" lon="15.564767481705687"><ele>285.0</ele><time>2026-05-03T07:49:28Z</time></trkpt><trkpt lat="50.128545566501174" lon="15.564182561374878"><ele>279.5</ele><time>2026-05-03T07:49:29Z</time></trkpt><trkpt lat="50.12872425670618" lon="15.563594435256427"><ele>274.0</ele><time>2026-05-03T07:49:30Z</time></trkpt><trkpt lat="50.128912167969574" lon="15.563017351498516"><ele>268.5</ele><time>2026-05-03T07:49:31Z</time></trkpt><trkpt lat="50.12910765480811" lon="15.562445371518725"><ele>263.0</ele><time>2026-05-03T07:49:32Z</time></trkpt><trkpt lat="50.129303339900744" lon="15.561891419749736"><ele>260.5</ele><time>2026-05-03T07:49:33Z</time></trkpt><trkpt lat="50.129490450514254" lon="15.56136749469012"><ele>258.0</ele><time>2026-05-03T07:49:34Z</time></trkpt><trkpt lat="50.12967575509016" lon="15.560831570522662"><ele>259.0</ele><time>2026-05-03T07:49:35Z</time></trkpt><trkpt lat="50.12985910853448" lon="15.560273529110475"><ele>260.0</ele><time>2026-05-03T07:49:36Z</time></trkpt><trkpt lat="50.13004283066053" lon="15.559698470078928"><ele>256.5</ele><time>2026-05-03T07:49:37Z</time></trkpt><trkpt lat="50.130231227047716" lon="15.559122953648036"><ele>253.0</ele><time>2026-05-03T07:49:38Z</time></trkpt><trkpt lat="50.13042740645341" lon="15.558535870127802"><ele>253.0</ele><time>2026-05-03T07:49:39Z</time></trkpt><trkpt lat="50.13062232618762" lon="15.55793803219944"><ele>253.0</ele><time>2026-05-03T07:49:40Z</time></trkpt><trkpt lat="50.13081293790524" lon="15.55731684298523"><ele>250.0</ele><time>2026-05-03T07:49:41Z</time></trkpt><trkpt lat="50.130997624745625" lon="15.556694558894899"><ele>247.0</ele><time>2026-05-03T07:49:42Z</time></trkpt><trkpt lat="50.13117615233365" lon="15.55606265917366"><ele>246.0</ele><time>2026-05-03T07:49:43Z</time></trkpt><trkpt lat="50.1313515349937" lon="15.555416258791961"><ele>244.0</ele><time>2026-05-03T07:49:44Z</time></trkpt><trkpt lat="50.13152235098548" lon="15.554755691942344"><ele>242.0</ele><time>2026-05-03T07:49:45Z</time></trkpt><trkpt lat="50.13168724846582" lon="15.554089722942889"><ele>243.0</ele><time>2026-05-03T07:49:46Z</time></trkpt><trkpt lat="50.13184343597573" lon="15.553419355039757"><ele>243.0</ele><time>2026-05-03T07:49:47Z</time></trkpt><trkpt lat="50.13198877533162" lon="15.552749431354343"><ele>243.0</ele><time>2026-05-03T07:49:48Z</time></trkpt><trkpt lat="50.132126145946714" lon="15.552081087730022"><ele>242.0</ele><time>2026-05-03T07:49:49Z</time></trkpt><trkpt lat="50.132261604865086" lon="15.55140915778397"><ele>242.0</ele><time>2026-05-03T07:49:50Z</time></trkpt><trkpt lat="50.13238734581146" lon="15.55074805506189"><ele>242.0</ele><time>2026-05-03T07:49:51Z</time></trkpt><trkpt lat="50.13250175681096" lon="15.550135416367764"><ele>240.5</ele><time>2026-05-03T07:49:52Z</time></trkpt><trkpt lat="50.132613631443654" lon="15.54954588729871"><ele>239.0</ele><time>2026-05-03T07:49:53Z</time></trkpt><trkpt lat="50.1327309817406" lon="15.548949430819409"><ele>238.5</ele><time>2026-05-03T07:49:54Z</time></trkpt><trkpt lat="50.13284517753632" lon="15.54835827858103"><ele>238.0</ele><time>2026-05-03T07:49:55Z</time></trkpt><trkpt lat="50.132959320729356" lon="15.54777173287044"><ele>238.0</ele><time>2026-05-03T07:49:56Z</time></trkpt><trkpt lat="50.13307481958598" lon="15.547195647414156"><ele>238.0</ele><time>2026-05-03T07:49:57Z</time></trkpt><trkpt lat="50.13319115329471" lon="15.546619507158233"><ele>238.5</ele><time>2026-05-03T07:49:58Z</time></trkpt><trkpt lat="50.133318700497135" lon="15.546037213377343"><ele>239.0</ele><time>2026-05-03T07:49:59Z</time></trkpt><trkpt lat="50.133449995396404" lon="15.545450304100878"><ele>238.5</ele><time>2026-05-03T07:50:00Z</time></trkpt><trkpt lat="50.133579785631774" lon="15.54487373280694"><ele>238.0</ele><time>2026-05-03T07:50:01Z</time></trkpt><trkpt lat="50.13370465719938" lon="15.544330956241964"><ele>238.0</ele><time>2026-05-03T07:50:02Z</time></trkpt><trkpt lat="50.133825744412675" lon="15.543823113867582"><ele>238.0</ele><time>2026-05-03T07:50:03Z</time></trkpt><trkpt lat="50.13395272967393" lon="15.5433102948485"><ele>238.5</ele><time>2026-05-03T07:50:04Z</time></trkpt><trkpt lat="50.13408368861605" lon="15.542797664759135"><ele>239.0</ele><time>2026-05-03T07:50:05Z</time></trkpt><trkpt lat="50.134217974930415" lon="15.54229010261044"><ele>239.5</ele><time>2026-05-03T07:50:06Z</time></trkpt><trkpt lat="50.13434758719447" lon="15.541801624151189"><ele>240.0</ele><time>2026-05-03T07:50:07Z</time></trkpt><trkpt lat="50.13447967891347" lon="15.541309930221031"><ele>240.5</ele><time>2026-05-03T07:50:08Z</time></trkpt><trkpt lat="50.13461425345594" lon="15.540800568624212"><ele>241.0</ele><time>2026-05-03T07:50:09Z</time></trkpt><trkpt lat="50.13475297092426" lon="15.54027953137903"><ele>242.0</ele><time>2026-05-03T07:50:10Z</time></trkpt><trkpt lat="50.134890439061806" lon="15.539754370433254"><ele>243.0</ele><time>2026-05-03T07:50:11Z</time></trkpt><trkpt lat="50.135024924749345" lon="15.539231161864754"><ele>243.0</ele><time>2026-05-03T07:50:12Z</time></trkpt><trkpt lat="50.13515868654256" lon="15.538698451704375"><ele>243.0</ele><time>2026-05-03T07:50:13Z</time></trkpt><trkpt lat="50.13529224004211" lon="15.53815487517019"><ele>242.0</ele><time>2026-05-03T07:50:14Z</time></trkpt><trkpt lat="50.13542249411745" lon="15.53760576786728"><ele>241.0</ele><time>2026-05-03T07:50:15Z</time></trkpt><trkpt lat="50.13554725076778" lon="15.537057045315558"><ele>240.5</ele><time>2026-05-03T07:50:16Z</time></trkpt><trkpt lat="50.13566360065519" lon="15.536505943443757"><ele>240.0</ele><time>2026-05-03T07:50:17Z</time></trkpt><trkpt lat="50.135770926429174" lon="15.535940041495952"><ele>240.5</ele><time>2026-05-03T07:50:18Z</time></trkpt><trkpt lat="50.13587113380985" lon="15.535361829135056"><ele>241.0</ele><time>2026-05-03T07:50:19Z</time></trkpt><trkpt lat="50.13596051890966" lon="15.534787812957296"><ele>240.0</ele><time>2026-05-03T07:50:20Z</time></trkpt><trkpt lat="50.136041850648894" lon="15.534213156618174"><ele>239.0</ele><time>2026-05-03T07:50:21Z</time></trkpt><trkpt lat="50.136114583929356" lon="15.533634895098128"><ele>238.0</ele><time>2026-05-03T07:50:22Z</time></trkpt><trkpt lat="50.13618144335086" lon="15.53305820089293"><ele>237.0</ele><time>2026-05-03T07:50:23Z</time></trkpt><trkpt lat="50.13624176526967" lon="15.532478016245223"><ele>236.0</ele><time>2026-05-03T07:50:24Z</time></trkpt><trkpt lat="50.13629551529592" lon="15.531880843739291"><ele>235.0</ele><time>2026-05-03T07:50:25Z</time></trkpt><trkpt lat="50.13634036018347" lon="15.531281523252993"><ele>235.0</ele><time>2026-05-03T07:50:26Z</time></trkpt><trkpt lat="50.136375660905735" lon="15.530678795742451"><ele>235.0</ele><time>2026-05-03T07:50:27Z</time></trkpt><trkpt lat="50.13640560373664" lon="15.530061263875817"><ele>236.0</ele><time>2026-05-03T07:50:28Z</time></trkpt><trkpt lat="50.1364285734943" lon="15.529440748215013"><ele>237.0</ele><time>2026-05-03T07:50:29Z</time></trkpt><trkpt lat="50.13644453151153" lon="15.528814620527694"><ele>237.5</ele><time>2026-05-03T07:50:30Z</time></trkpt><trkpt lat="50.136451731492755" lon="15.528185793573563"><ele>238.0</ele><time>2026-05-03T07:50:31Z</time></trkpt><trkpt lat="50.13644518553662" lon="15.527559259077393"><ele>239.5</ele><time>2026-05-03T07:50:32Z</time></trkpt><trkpt lat="50.136426859552905" lon="15.526941819204682"><ele>241.0</ele><time>2026-05-03T07:50:33Z</time></trkpt><trkpt lat="50.13640392813826" lon="15.526331471016409"><ele>240.5</ele><time>2026-05-03T07:50:34Z</time></trkpt><trkpt lat="50.13637212070273" lon="15.525741552304604"><ele>240.0</ele><time>2026-05-03T07:50:35Z</time></trkpt><trkpt lat="50.136335529055756" lon="15.525167173612237"><ele>239.5</ele><time>2026-05-03T07:50:36Z</time></trkpt><trkpt lat="50.13628973571017" lon="15.524596402684733"><ele>239.0</ele><time>2026-05-03T07:50:37Z</time></trkpt><trkpt lat="50.13623590047229" lon="15.524017128046095"><ele>240.0</ele><time>2026-05-03T07:50:38Z</time></trkpt><trkpt lat="50.13617221261807" lon="15.523430404202584"><ele>241.0</ele><time>2026-05-03T07:50:39Z</time></trkpt><trkpt lat="50.136099802835155" lon="15.522838340934355"><ele>241.0</ele><time>2026-05-03T07:50:40Z</time></trkpt><trkpt lat="50.13602116538378" lon="15.522250881251004"><ele>241.0</ele><time>2026-05-03T07:50:41Z</time></trkpt><trkpt lat="50.13593627965788" lon="15.521658745330079"><ele>241.5</ele><time>2026-05-03T07:50:42Z</time></trkpt><trkpt lat="50.135843123321216" lon="15.52108706624123"><ele>242.0</ele><time>2026-05-03T07:50:43Z</time></trkpt><trkpt lat="50.13573988899411" lon="15.520530503923863"><ele>240.0</ele><time>2026-05-03T07:50:44Z</time></trkpt><trkpt lat="50.13562894669644" lon="15.519987832190328"><ele>238.0</ele><time>2026-05-03T07:50:45Z</time></trkpt><trkpt lat="50.1355116824668" lon="15.519439131913998"><ele>238.0</ele><time>2026-05-03T07:50:46Z</time></trkpt><trkpt lat="50.13539045294833" lon="15.518901397872522"><ele>238.0</ele><time>2026-05-03T07:50:47Z</time></trkpt><trkpt lat="50.1352626721417" lon="15.518355318257397"><ele>239.0</ele><time>2026-05-03T07:50:48Z</time></trkpt><trkpt lat="50.13512422071018" lon="15.517803997326377"><ele>240.0</ele><time>2026-05-03T07:50:49Z</time></trkpt><trkpt lat="50.1349745928011" lon="15.51724682429732"><ele>242.0</ele><time>2026-05-03T07:50:50Z</time></trkpt><trkpt lat="50.13482115259775" lon="15.516692960042192"><ele>244.0</ele><time>2026-05-03T07:50:51Z</time></trkpt><trkpt lat="50.13466879585463" lon="15.516150745567518"><ele>244.5</ele><time>2026-05-03T07:50:52Z</time></trkpt><trkpt lat="50.134518040554795" lon="15.515610595544599"><ele>245.0</ele><time>2026-05-03T07:50:53Z</time></trkpt><trkpt lat="50.13436989708468" lon="15.515082813193196"><ele>244.5</ele><time>2026-05-03T07:50:54Z</time></trkpt><trkpt lat="50.13421845038917" lon="15.514556287917298"><ele>244.0</ele><time>2026-05-03T07:50:55Z</time></trkpt><trkpt lat="50.134068705693316" lon="15.514039317232493"><ele>245.5</ele><time>2026-05-03T07:50:56Z</time></trkpt><trkpt lat="50.133912900934256" lon="15.513515033051178"><ele>247.0</ele><time>2026-05-03T07:50:57Z</time></trkpt><trkpt lat="50.13375499397013" lon="15.512985103134096"><ele>246.5</ele><time>2026-05-03T07:50:58Z</time></trkpt><trkpt lat="50.13360135217335" lon="15.512453020962136"><ele>246.0</ele><time>2026-05-03T07:50:59Z</time></trkpt><trkpt lat="50.13345196374784" lon="15.5119123623878"><ele>245.5</ele><time>2026-05-03T07:51:00Z</time></trkpt><trkpt lat="50.133305991440245" lon="15.511362618144084"><ele>245.0</ele><time>2026-05-03T07:51:01Z</time></trkpt><trkpt lat="50.1331547207285" lon="15.51080918334294"><ele>245.5</ele><time>2026-05-03T07:51:02Z</time></trkpt><trkpt lat="50.132998465168846" lon="15.510227668851652"><ele>246.0</ele><time>2026-05-03T07:51:03Z</time></trkpt><trkpt lat="50.1328460332195" lon="15.509622128705283"><ele>245.0</ele><time>2026-05-03T07:51:04Z</time></trkpt><trkpt lat="50.13269758179649" lon="15.508996043072413"><ele>244.0</ele><time>2026-05-03T07:51:05Z</time></trkpt><trkpt lat="50.132552157363484" lon="15.508358562065414"><ele>243.0</ele><time>2026-05-03T07:51:06Z</time></trkpt><trkpt lat="50.13240800793039" lon="15.50770667039159"><ele>242.0</ele><time>2026-05-03T07:51:07Z</time></trkpt><trkpt lat="50.13226810060759" lon="15.507044722583181"><ele>240.5</ele><time>2026-05-03T07:51:08Z</time></trkpt><trkpt lat="50.1321375861011" lon="15.50637633728009"><ele>239.0</ele><time>2026-05-03T07:51:09Z</time></trkpt><trkpt lat="50.132014286952646" lon="15.505703202791338"><ele>238.0</ele><time>2026-05-03T07:51:10Z</time></trkpt><trkpt lat="50.13189489899007" lon="15.505035127084977"><ele>237.0</ele><time>2026-05-03T07:51:11Z</time></trkpt><trkpt lat="50.13177472177274" lon="15.504364252426688"><ele>236.5</ele><time>2026-05-03T07:51:12Z</time></trkpt><trkpt lat="50.131658216266274" lon="15.503695947266182"><ele>236.0</ele><time>2026-05-03T07:51:13Z</time></trkpt><trkpt lat="50.131545826172236" lon="15.503021680020206"><ele>235.5</ele><time>2026-05-03T07:51:14Z</time></trkpt><trkpt lat="50.13143928747512" lon="15.502349807105155"><ele>235.0</ele><time>2026-05-03T07:51:15Z</time></trkpt><trkpt lat="50.13133823565695" lon="15.501675149729262"><ele>235.5</ele><time>2026-05-03T07:51:16Z</time></trkpt><trkpt lat="50.13124282011992" lon="15.501001643392057"><ele>236.0</ele><time>2026-05-03T07:51:17Z</time></trkpt><trkpt lat="50.13115189710976" lon="15.500318119502317"><ele>237.0</ele><time>2026-05-03T07:51:18Z</time></trkpt><trkpt lat="50.13106519554173" lon="15.49961956637764"><ele>236.0</ele><time>2026-05-03T07:51:19Z</time></trkpt><trkpt lat="50.130987289987715" lon="15.498914530306298"><ele>236.0</ele><time>2026-05-03T07:51:20Z</time></trkpt><trkpt lat="50.130913710982455" lon="15.498198649592782"><ele>235.0</ele><time>2026-05-03T07:51:21Z</time></trkpt><trkpt lat="50.13084564284857" lon="15.49748182635401"><ele>234.0</ele><time>2026-05-03T07:51:22Z</time></trkpt><trkpt lat="50.130780332987996" lon="15.496755007765174"><ele>230.0</ele><time>2026-05-03T07:51:23Z</time></trkpt><trkpt lat="50.130718659310446" lon="15.49602012249897"><ele>226.0</ele><time>2026-05-03T07:51:24Z</time></trkpt><trkpt lat="50.130676086698166" lon="15.495288618727223"><ele>223.0</ele><time>2026-05-03T07:51:25Z</time></trkpt><trkpt lat="50.13062125284854" lon="15.494558426611208"><ele>223.0</ele><time>2026-05-03T07:51:26Z</time></trkpt><trkpt lat="50.130580231549196" lon="15.493903912106667"><ele>223.0</ele><time>2026-05-03T07:51:27Z</time></trkpt><trkpt lat="50.130547089623605" lon="15.493274397033982"><ele>222.0</ele><time>2026-05-03T07:51:28Z</time></trkpt><trkpt lat="50.130513715370384" lon="15.49264339162948"><ele>221.0</ele><time>2026-05-03T07:51:29Z</time></trkpt><trkpt lat="50.130491253455574" lon="15.492016054160858"><ele>221.0</ele><time>2026-05-03T07:51:30Z</time></trkpt><trkpt lat="50.13047361911206" lon="15.491374274846324"><ele>221.0</ele><time>2026-05-03T07:51:31Z</time></trkpt><trkpt lat="50.130460011857586" lon="15.490726799803332"><ele>220.5</ele><time>2026-05-03T07:51:32Z</time></trkpt><trkpt lat="50.13045221132784" lon="15.490073092002888"><ele>220.0</ele><time>2026-05-03T07:51:33Z</time></trkpt><trkpt lat="50.13044793788807" lon="15.489417132265151"><ele>220.0</ele><time>2026-05-03T07:51:34Z</time></trkpt><trkpt lat="50.13044701580647" lon="15.48875945304142"><ele>220.0</ele><time>2026-05-03T07:51:35Z</time></trkpt><trkpt lat="50.13044912638074" lon="15.48810026897332"><ele>219.5</ele><time>2026-05-03T07:51:36Z</time></trkpt><trkpt lat="50.130450788999966" lon="15.487429135503534"><ele>219.0</ele><time>2026-05-03T07:51:37Z</time></trkpt><trkpt lat="50.13045317604464" lon="15.486744523879636"><ele>218.5</ele><time>2026-05-03T07:51:38Z</time></trkpt><trkpt lat="50.130457595006135" lon="15.486050323291128"><ele>218.0</ele><time>2026-05-03T07:51:39Z</time></trkpt><trkpt lat="50.130462223272886" lon="15.485349330055886"><ele>217.0</ele><time>2026-05-03T07:51:40Z</time></trkpt><trkpt lat="50.13046466009816" lon="15.484643027432982"><ele>217.0</ele><time>2026-05-03T07:51:41Z</time></trkpt><trkpt lat="50.130467672915245" lon="15.483936097983594"><ele>217.0</ele><time>2026-05-03T07:51:42Z</time></trkpt><trkpt lat="50.130468273833436" lon="15.48322842123909"><ele>217.0</ele><time>2026-05-03T07:51:43Z</time></trkpt><trkpt lat="50.13047099221476" lon="15.482535483406052"><ele>217.0</ele><time>2026-05-03T07:51:44Z</time></trkpt><trkpt lat="50.13047482303814" lon="15.481853594974972"><ele>217.0</ele><time>2026-05-03T07:51:45Z</time></trkpt><trkpt lat="50.13047439250225" lon="15.481165362999354"><ele>217.0</ele><time>2026-05-03T07:51:46Z</time></trkpt><trkpt lat="50.13046489818251" lon="15.480469797602485"><ele>217.0</ele><time>2026-05-03T07:51:47Z</time></trkpt><trkpt lat="50.130445747871605" lon="15.479768733558284"><ele>216.0</ele><time>2026-05-03T07:51:48Z</time></trkpt><trkpt lat="50.1304205873134" lon="15.479067985282335"><ele>216.0</ele><time>2026-05-03T07:51:49Z</time></trkpt><trkpt lat="50.130386469179214" lon="15.478356958704282"><ele>217.0</ele><time>2026-05-03T07:51:50Z</time></trkpt><trkpt lat="50.130344862530784" lon="15.477642182526038"><ele>217.0</ele><time>2026-05-03T07:51:51Z</time></trkpt><trkpt lat="50.13029651148824" lon="15.47697516520646"><ele>217.0</ele><time>2026-05-03T07:51:52Z</time></trkpt><trkpt lat="50.130243125129525" lon="15.476337373467523"><ele>217.5</ele><time>2026-05-03T07:51:53Z</time></trkpt><trkpt lat="50.13018164003089" lon="15.475688836857724"><ele>218.0</ele><time>2026-05-03T07:51:54Z</time></trkpt><trkpt lat="50.13011657192552" lon="15.475019569200743"><ele>219.0</ele><time>2026-05-03T07:51:55Z</time></trkpt><trkpt lat="50.130049564813845" lon="15.474338781010747"><ele>220.0</ele><time>2026-05-03T07:51:56Z</time></trkpt><trkpt lat="50.12997902447636" lon="15.473653481424703"><ele>220.0</ele><time>2026-05-03T07:51:57Z</time></trkpt><trkpt lat="50.12990475607342" lon="15.472965242455297"><ele>220.0</ele><time>2026-05-03T07:51:58Z</time></trkpt><trkpt lat="50.129826558056436" lon="15.472269083043813"><ele>218.0</ele><time>2026-05-03T07:51:59Z</time></trkpt><trkpt lat="50.129742000699935" lon="15.471571847169404"><ele>217.0</ele><time>2026-05-03T07:52:00Z</time></trkpt><trkpt lat="50.129652145410766" lon="15.470867790503274"><ele>216.0</ele><time>2026-05-03T07:52:01Z</time></trkpt><trkpt lat="50.1295602607411" lon="15.470158956734492"><ele>216.0</ele><time>2026-05-03T07:52:02Z</time></trkpt><trkpt lat="50.129468805810745" lon="15.469452155938049"><ele>216.0</ele><time>2026-05-03T07:52:03Z</time></trkpt><trkpt lat="50.129376377011596" lon="15.468747098554072"><ele>216.0</ele><time>2026-05-03T07:52:04Z</time></trkpt><trkpt lat="50.12928352280098" lon="15.468048676534215"><ele>216.0</ele><time>2026-05-03T07:52:05Z</time></trkpt><trkpt lat="50.12918898709133" lon="15.467346415410107"><ele>215.0</ele><time>2026-05-03T07:52:06Z</time></trkpt><trkpt lat="50.12910032248103" lon="15.466646046831762"><ele>214.0</ele><time>2026-05-03T07:52:07Z</time></trkpt><trkpt lat="50.129013052728666" lon="15.465948256978365"><ele>213.0</ele><time>2026-05-03T07:52:08Z</time></trkpt><trkpt lat="50.12892863544096" lon="15.465249309449987"><ele>213.0</ele><time>2026-05-03T07:52:09Z</time></trkpt><trkpt lat="50.12884904888848" lon="15.464553614254394"><ele>213.0</ele><time>2026-05-03T07:52:10Z</time></trkpt><trkpt lat="50.12877275959791" lon="15.463857828857666"><ele>214.0</ele><time>2026-05-03T07:52:11Z</time></trkpt><trkpt lat="50.12869845239891" lon="15.463162353694615"><ele>213.0</ele><time>2026-05-03T07:52:12Z</time></trkpt><trkpt lat="50.12863061252354" lon="15.46245962209267"><ele>214.0</ele><time>2026-05-03T07:52:13Z</time></trkpt><trkpt lat="50.12857063951992" lon="15.461749454070983"><ele>214.5</ele><time>2026-05-03T07:52:14Z</time></trkpt><trkpt lat="50.12852207025564" lon="15.461059881423637"><ele>215.0</ele><time>2026-05-03T07:52:15Z</time></trkpt><trkpt lat="50.12847976387297" lon="15.460445448971857"><ele>215.0</ele><time>2026-05-03T07:52:16Z</time></trkpt><trkpt lat="50.12845102296954" lon="15.459913865517477"><ele>215.0</ele><time>2026-05-03T07:52:17Z</time></trkpt><trkpt lat="50.12842448139667" lon="15.459405380200863"><ele>215.0</ele><time>2026-05-03T07:52:18Z</time></trkpt><trkpt lat="50.12840076846925" lon="15.458909248817315"><ele>215.0</ele><time>2026-05-03T07:52:19Z</time></trkpt><trkpt lat="50.12838531756155" lon="15.458409023490336"><ele>215.5</ele><time>2026-05-03T07:52:20Z</time></trkpt><trkpt lat="50.12836701645225" lon="15.457910336254345"><ele>216.0</ele><time>2026-05-03T07:52:21Z</time></trkpt><trkpt lat="50.128353173519415" lon="15.457411530761442"><ele>217.0</ele><time>2026-05-03T07:52:22Z</time></trkpt><trkpt lat="50.128342830619104" lon="15.456912292762137"><ele>218.0</ele><time>2026-05-03T07:52:23Z</time></trkpt><trkpt lat="50.128335801347426" lon="15.456413573015247"><ele>216.0</ele><time>2026-05-03T07:52:24Z</time></trkpt><trkpt lat="50.12833299051064" lon="15.455914067362583"><ele>214.0</ele><time>2026-05-03T07:52:25Z</time></trkpt><trkpt lat="50.12832989112257" lon="15.455374504315504"><ele>212.0</ele><time>2026-05-03T07:52:26Z</time></trkpt><trkpt lat="50.128332770554785" lon="15.4548159779509"><ele>210.0</ele><time>2026-05-03T07:52:27Z</time></trkpt><trkpt lat="50.1283364383247" lon="15.454250324468015"><ele>210.0</ele><time>2026-05-03T07:52:28Z</time></trkpt><trkpt lat="50.128344968268685" lon="15.45367346953585"><ele>210.0</ele><time>2026-05-03T07:52:29Z</time></trkpt><trkpt lat="50.128360443000346" lon="15.453094152654444"><ele>210.0</ele><time>2026-05-03T07:52:30Z</time></trkpt><trkpt lat="50.12837922161359" lon="15.452512609492752"><ele>210.0</ele><time>2026-05-03T07:52:31Z</time></trkpt><trkpt lat="50.12840221339675" lon="15.451932111657104"><ele>210.0</ele><time>2026-05-03T07:52:32Z</time></trkpt><trkpt lat="50.1284274279195" lon="15.451351945681038"><ele>210.0</ele><time>2026-05-03T07:52:33Z</time></trkpt><trkpt lat="50.12845601710156" lon="15.45077683216058"><ele>210.0</ele><time>2026-05-03T07:52:34Z</time></trkpt><trkpt lat="50.12848714233952" lon="15.450221844052239"><ele>210.0</ele><time>2026-05-03T07:52:35Z</time></trkpt><trkpt lat="50.12851981431001" lon="15.449698404808053"><ele>210.5</ele><time>2026-05-03T07:52:36Z</time></trkpt><trkpt lat="50.12855465950652" lon="15.449205271793582"><ele>211.0</ele><time>2026-05-03T07:52:37Z</time></trkpt><trkpt lat="50.128595316330106" lon="15.448720776372884"><ele>211.0</ele><time>2026-05-03T07:52:38Z</time></trkpt><trkpt lat="50.12863772048555" lon="15.448228231952601"><ele>211.0</ele><time>2026-05-03T07:52:39Z</time></trkpt><trkpt lat="50.12868045698367" lon="15.447692458751835"><ele>211.0</ele><time>2026-05-03T07:52:40Z</time></trkpt><trkpt lat="50.128727295407266" lon="15.447123288082652"><ele>211.0</ele><time>2026-05-03T07:52:41Z</time></trkpt><trkpt lat="50.12878964697935" lon="15.446530031449356"><ele>211.0</ele><time>2026-05-03T07:52:42Z</time></trkpt><trkpt lat="50.1288686591493" lon="15.445914498121487"><ele>211.0</ele><time>2026-05-03T07:52:43Z</time></trkpt><trkpt lat="50.128959539278085" lon="15.445287912616983"><ele>210.5</ele><time>2026-05-03T07:52:44Z</time></trkpt><trkpt lat="50.12905104492041" lon="15.44465397445378"><ele>210.0</ele><time>2026-05-03T07:52:45Z</time></trkpt><trkpt lat="50.12914394078046" lon="15.443995833031638"><ele>212.0</ele><time>2026-05-03T07:52:46Z</time></trkpt><trkpt lat="50.12923601565959" lon="15.443310969954013"><ele>214.0</ele><time>2026-05-03T07:52:47Z</time></trkpt><trkpt lat="50.129330162657105" lon="15.44260793702357"><ele>216.0</ele><time>2026-05-03T07:52:48Z</time></trkpt><trkpt lat="50.12942469242151" lon="15.441907328840605"><ele>217.0</ele><time>2026-05-03T07:52:49Z</time></trkpt><trkpt lat="50.12952053314815" lon="15.441213668613686"><ele>217.0</ele><time>2026-05-03T07:52:50Z</time></trkpt><trkpt lat="50.12963202719389" lon="15.440588578370479"><ele>217.0</ele><time>2026-05-03T07:52:51Z</time></trkpt><trkpt lat="50.12974818226681" lon="15.43991459194586"><ele>219.0</ele><time>2026-05-03T07:52:52Z</time></trkpt><trkpt lat="50.12986993646738" lon="15.43922462816505"><ele>219.0</ele><time>2026-05-03T07:52:53Z</time></trkpt><trkpt lat="50.129983146093835" lon="15.438560896608589"><ele>219.0</ele><time>2026-05-03T07:52:54Z</time></trkpt><trkpt lat="50.130089778011424" lon="15.437925498820377"><ele>219.0</ele><time>2026-05-03T07:52:55Z</time></trkpt><trkpt lat="50.13019493647564" lon="15.437300004544973"><ele>219.0</ele><time>2026-05-03T07:52:56Z</time></trkpt><trkpt lat="50.1302950459944" lon="15.436681289225346"><ele>219.0</ele><time>2026-05-03T07:52:57Z</time></trkpt><trkpt lat="50.13038870119585" lon="15.436082238846648"><ele>219.0</ele><time>2026-05-03T07:52:58Z</time></trkpt><trkpt lat="50.1304767077834" lon="15.435483548166445"><ele>219.0</ele><time>2026-05-03T07:52:59Z</time></trkpt><trkpt lat="50.13055958164399" lon="15.43486620684668"><ele>219.0</ele><time>2026-05-03T07:53:00Z</time></trkpt><trkpt lat="50.130639012847006" lon="15.434222945893898"><ele>219.5</ele><time>2026-05-03T07:53:01Z</time></trkpt><trkpt lat="50.13071224951967" lon="15.43356511963397"><ele>220.0</ele><time>2026-05-03T07:53:02Z</time></trkpt><trkpt lat="50.13078117420118" lon="15.432901251729188"><ele>219.5</ele><time>2026-05-03T07:53:03Z</time></trkpt><trkpt lat="50.13084541799593" lon="15.432232047000115"><ele>219.0</ele><time>2026-05-03T07:53:04Z</time></trkpt><trkpt lat="50.130896963925856" lon="15.43155237941794"><ele>218.5</ele><time>2026-05-03T07:53:05Z</time></trkpt><trkpt lat="50.130940208996265" lon="15.430856755572012"><ele>218.0</ele><time>2026-05-03T07:53:06Z</time></trkpt><trkpt lat="50.13097743063872" lon="15.430143047986908"><ele>217.0</ele><time>2026-05-03T07:53:07Z</time></trkpt><trkpt lat="50.13100651235576" lon="15.429423246713448"><ele>216.0</ele><time>2026-05-03T07:53:08Z</time></trkpt><trkpt lat="50.13102562868467" lon="15.428705657007605"><ele>216.0</ele><time>2026-05-03T07:53:09Z</time></trkpt><trkpt lat="50.13103495957487" lon="15.42801518717706"><ele>216.0</ele><time>2026-05-03T07:53:10Z</time></trkpt><trkpt lat="50.13103249313635" lon="15.42735174334282"><ele>216.5</ele><time>2026-05-03T07:53:11Z</time></trkpt><trkpt lat="50.131023029253626" lon="15.426693842807847"><ele>217.0</ele><time>2026-05-03T07:53:12Z</time></trkpt><trkpt lat="50.13100814544997" lon="15.426032011176597"><ele>215.0</ele><time>2026-05-03T07:53:13Z</time></trkpt><trkpt lat="50.130987586722796" lon="15.425379267653362"><ele>213.0</ele><time>2026-05-03T07:53:14Z</time></trkpt><trkpt lat="50.13095842705201" lon="15.424745948348264"><ele>213.5</ele><time>2026-05-03T07:53:15Z</time></trkpt><trkpt lat="50.13092290047622" lon="15.424147230383316"><ele>214.0</ele><time>2026-05-03T07:53:16Z</time></trkpt><trkpt lat="50.13087989309086" lon="15.423556135289207"><ele>214.0</ele><time>2026-05-03T07:53:17Z</time></trkpt><trkpt lat="50.13082895348017" lon="15.422950737243138"><ele>214.0</ele><time>2026-05-03T07:53:18Z</time></trkpt><trkpt lat="50.130769243673534" lon="15.422326682099051"><ele>213.5</ele><time>2026-05-03T07:53:19Z</time></trkpt><trkpt lat="50.13070102629572" lon="15.421686099826907"><ele>213.0</ele><time>2026-05-03T07:53:20Z</time></trkpt><trkpt lat="50.130624959677405" lon="15.421037893823057"><ele>213.0</ele><time>2026-05-03T07:53:21Z</time></trkpt><trkpt lat="50.13054199727468" lon="15.42038039998322"><ele>213.0</ele><time>2026-05-03T07:53:22Z</time></trkpt><trkpt lat="50.13045284858904" lon="15.419708470383867"><ele>213.5</ele><time>2026-05-03T07:53:23Z</time></trkpt><trkpt lat="50.130356840027126" lon="15.41902964558073"><ele>214.0</ele><time>2026-05-03T07:53:24Z</time></trkpt><trkpt lat="50.13024846191574" lon="15.418349682680725"><ele>210.0</ele><time>2026-05-03T07:53:25Z</time></trkpt><trkpt lat="50.130128991576555" lon="15.417667712060442"><ele>210.0</ele><time>2026-05-03T07:53:26Z</time></trkpt><trkpt lat="50.129996720682946" lon="15.416986575038019"><ele>207.0</ele><time>2026-05-03T07:53:27Z</time></trkpt><trkpt lat="50.129853126726545" lon="15.416308617737538"><ele>207.0</ele><time>2026-05-03T07:53:28Z</time></trkpt><trkpt lat="50.129700651281155" lon="15.415632752326697"><ele>207.0</ele><time>2026-05-03T07:53:29Z</time></trkpt><trkpt lat="50.12954514862717" lon="15.414950610746205"><ele>206.0</ele><time>2026-05-03T07:53:30Z</time></trkpt><trkpt lat="50.12939180888807" lon="15.414265119051224"><ele>209.0</ele><time>2026-05-03T07:53:31Z</time></trkpt><trkpt lat="50.129240511791004" lon="15.413572947887923"><ele>212.0</ele><time>2026-05-03T07:53:32Z</time></trkpt><trkpt lat="50.12909034395767" lon="15.412883735952953"><ele>206.0</ele><time>2026-05-03T07:53:33Z</time></trkpt><trkpt lat="50.12893710015999" lon="15.412192397188242"><ele>204.0</ele><time>2026-05-03T07:53:34Z</time></trkpt><trkpt lat="50.12877953476387" lon="15.411498774946695"><ele>205.0</ele><time>2026-05-03T07:53:35Z</time></trkpt><trkpt lat="50.128620329669836" lon="15.410805220369662"><ele>207.0</ele><time>2026-05-03T07:53:36Z</time></trkpt><trkpt lat="50.12845825264446" lon="15.4101103174507"><ele>207.0</ele><time>2026-05-03T07:53:37Z</time></trkpt><trkpt lat="50.128292835906876" lon="15.409419814625783"><ele>208.0</ele><time>2026-05-03T07:53:38Z</time></trkpt><trkpt lat="50.128123234803596" lon="15.408736471679196"><ele>208.0</ele><time>2026-05-03T07:53:39Z</time></trkpt><trkpt lat="50.12795544445642" lon="15.408060737012478"><ele>210.0</ele><time>2026-05-03T07:53:39.999Z</time></trkpt><trkpt lat="50.12779390103142" lon="15.407390404418768"><ele>209.0</ele><time>2026-05-03T07:53:40.999Z</time></trkpt><trkpt lat="50.127638579037644" lon="15.40671934723893"><ele>209.0</ele><time>2026-05-03T07:53:41.999Z</time></trkpt><trkpt lat="50.12748365412171" lon="15.406043685960451"><ele>211.0</ele><time>2026-05-03T07:53:42.999Z</time></trkpt><trkpt lat="50.12733231694608" lon="15.40537517458993"><ele>211.0</ele><time>2026-05-03T07:53:43.999Z</time></trkpt><trkpt lat="50.127178072742794" lon="15.404699146073444"><ele>211.0</ele><time>2026-05-03T07:53:44.999Z</time></trkpt><trkpt lat="50.12702512441549" lon="15.404018752363282"><ele>211.0</ele><time>2026-05-03T07:53:45.999Z</time></trkpt><trkpt lat="50.12687166922059" lon="15.40333039962181"><ele>212.0</ele><time>2026-05-03T07:53:46.999Z</time></trkpt><trkpt lat="50.126726477101975" lon="15.402639718914275"><ele>213.0</ele><time>2026-05-03T07:53:47.999Z</time></trkpt><trkpt lat="50.12658375998823" lon="15.401953049236642"><ele>213.0</ele><time>2026-05-03T07:53:48.999Z</time></trkpt><trkpt lat="50.12643997481599" lon="15.401270452885283"><ele>213.0</ele><time>2026-05-03T07:53:49.999Z</time></trkpt><trkpt lat="50.12629276516817" lon="15.400594051856503"><ele>213.0</ele><time>2026-05-03T07:53:50.999Z</time></trkpt><trkpt lat="50.12614325154984" lon="15.39991569479848"><ele>214.0</ele><time>2026-05-03T07:53:51.999Z</time></trkpt><trkpt lat="50.12600127865519" lon="15.399238976902643"><ele>214.0</ele><time>2026-05-03T07:53:52.999Z</time></trkpt><trkpt lat="50.125862505876576" lon="15.398559210813637"><ele>213.5</ele><time>2026-05-03T07:53:53.999Z</time></trkpt><trkpt lat="50.12573815948197" lon="15.397891309548616"><ele>213.0</ele><time>2026-05-03T07:53:54.999Z</time></trkpt><trkpt lat="50.12562411665647" lon="15.397209661462584"><ele>213.0</ele><time>2026-05-03T07:53:55.999Z</time></trkpt><trkpt lat="50.12552744912423" lon="15.396518190231701"><ele>213.0</ele><time>2026-05-03T07:53:56.999Z</time></trkpt><trkpt lat="50.12545198867171" lon="15.395815674395248"><ele>213.0</ele><time>2026-05-03T07:53:57.999Z</time></trkpt><trkpt lat="50.12538360831005" lon="15.395104896844826"><ele>214.0</ele><time>2026-05-03T07:53:58.999Z</time></trkpt><trkpt lat="50.12532959936212" lon="15.394393039099599"><ele>213.0</ele><time>2026-05-03T07:53:59.999Z</time></trkpt><trkpt lat="50.12528270821352" lon="15.393684528105727"><ele>213.5</ele><time>2026-05-03T07:54:00.999Z</time></trkpt><trkpt lat="50.12524527198194" lon="15.392988719253138"><ele>214.0</ele><time>2026-05-03T07:54:01.999Z</time></trkpt><trkpt lat="50.125219125800115" lon="15.392281894313186"><ele>214.0</ele><time>2026-05-03T07:54:02.999Z</time></trkpt><trkpt lat="50.12520819837735" lon="15.391573895007182"><ele>215.0</ele><time>2026-05-03T07:54:03.999Z</time></trkpt><trkpt lat="50.12521548000028" lon="15.390861574184616"><ele>216.0</ele><time>2026-05-03T07:54:04.999Z</time></trkpt><trkpt lat="50.1252367435899" lon="15.390152802548354"><ele>217.0</ele><time>2026-05-03T07:54:05.999Z</time></trkpt><trkpt lat="50.12526732009207" lon="15.389444480191013"><ele>218.0</ele><time>2026-05-03T07:54:06.999Z</time></trkpt><trkpt lat="50.125306622158696" lon="15.38873156600267"><ele>218.0</ele><time>2026-05-03T07:54:07.999Z</time></trkpt><trkpt lat="50.12535432993606" lon="15.388012595414548"><ele>218.0</ele><time>2026-05-03T07:54:08.999Z</time></trkpt><trkpt lat="50.12541198911031" lon="15.38730420986868"><ele>218.0</ele><time>2026-05-03T07:54:09.999Z</time></trkpt><trkpt lat="50.12548044954271" lon="15.386591352474888"><ele>218.0</ele><time>2026-05-03T07:54:10.999Z</time></trkpt><trkpt lat="50.125563100486154" lon="15.38588173998057"><ele>218.0</ele><time>2026-05-03T07:54:11.999Z</time></trkpt><trkpt lat="50.12565948219498" lon="15.38516809274263"><ele>218.0</ele><time>2026-05-03T07:54:12.999Z</time></trkpt><trkpt lat="50.125767567256226" lon="15.384447438373815"><ele>219.0</ele><time>2026-05-03T07:54:13.999Z</time></trkpt><trkpt lat="50.12588770156556" lon="15.383726075234028"><ele>219.0</ele><time>2026-05-03T07:54:14.999Z</time></trkpt><trkpt lat="50.12601658857461" lon="15.383019130795914"><ele>218.0</ele><time>2026-05-03T07:54:15.999Z</time></trkpt><trkpt lat="50.1261567727856" lon="15.382341944874492"><ele>218.0</ele><time>2026-05-03T07:54:16.999Z</time></trkpt><trkpt lat="50.12630145522854" lon="15.381734191433445"><ele>218.0</ele><time>2026-05-03T07:54:17.999Z</time></trkpt><trkpt lat="50.12643498356017" lon="15.381133437820374"><ele>218.0</ele><time>2026-05-03T07:54:18.999Z</time></trkpt><trkpt lat="50.12657953341477" lon="15.380512180590749"><ele>218.0</ele><time>2026-05-03T07:54:19.999Z</time></trkpt><trkpt lat="50.12671900452447" lon="15.3798786350373"><ele>218.0</ele><time>2026-05-03T07:54:20.999Z</time></trkpt><trkpt lat="50.126861231355655" lon="15.379256257478433"><ele>218.0</ele><time>2026-05-03T07:54:21.999Z</time></trkpt><trkpt lat="50.12700725308628" lon="15.378643787691688"><ele>218.0</ele><time>2026-05-03T07:54:22.999Z</time></trkpt><trkpt lat="50.12715985622984" lon="15.378027132285018"><ele>218.0</ele><time>2026-05-03T07:54:23.999Z</time></trkpt><trkpt lat="50.12731503902518" lon="15.377402008918706"><ele>218.5</ele><time>2026-05-03T07:54:24.999Z</time></trkpt><trkpt lat="50.127469708772374" lon="15.376761377163996"><ele>219.0</ele><time>2026-05-03T07:54:25.999Z</time></trkpt><trkpt lat="50.127620481292745" lon="15.376114709091866"><ele>218.5</ele><time>2026-05-03T07:54:26.999Z</time></trkpt><trkpt lat="50.1277691394547" lon="15.375461771793136"><ele>218.0</ele><time>2026-05-03T07:54:27.999Z</time></trkpt><trkpt lat="50.127912087046305" lon="15.374806624465291"><ele>217.0</ele><time>2026-05-03T07:54:28.999Z</time></trkpt><trkpt lat="50.12805052571135" lon="15.374136492894367"><ele>217.0</ele><time>2026-05-03T07:54:29.999Z</time></trkpt><trkpt lat="50.128186085187615" lon="15.373457179895102"><ele>219.0</ele><time>2026-05-03T07:54:30.999Z</time></trkpt><trkpt lat="50.12831722939552" lon="15.372776678732508"><ele>218.0</ele><time>2026-05-03T07:54:31.999Z</time></trkpt><trkpt lat="50.12844462078142" lon="15.372091146399242"><ele>218.0</ele><time>2026-05-03T07:54:32.999Z</time></trkpt><trkpt lat="50.12856722003914" lon="15.371404958594018"><ele>216.0</ele><time>2026-05-03T07:54:33.999Z</time></trkpt><trkpt lat="50.12868926442632" lon="15.370722400414444"><ele>215.5</ele><time>2026-05-03T07:54:34.999Z</time></trkpt><trkpt lat="50.128804582129874" lon="15.370045088965401"><ele>215.0</ele><time>2026-05-03T07:54:35.999Z</time></trkpt><trkpt lat="50.12891223053208" lon="15.369358194943386"><ele>215.0</ele><time>2026-05-03T07:54:36.999Z</time></trkpt><trkpt lat="50.12900960124095" lon="15.368665268743342"><ele>216.0</ele><time>2026-05-03T07:54:37.999Z</time></trkpt><trkpt lat="50.12910091054109" lon="15.36796819342183"><ele>216.0</ele><time>2026-05-03T07:54:38.999Z</time></trkpt><trkpt lat="50.12918878941558" lon="15.367263372811642"><ele>216.0</ele><time>2026-05-03T07:54:39.999Z</time></trkpt><trkpt lat="50.12926998598899" lon="15.366549576062907"><ele>216.0</ele><time>2026-05-03T07:54:40.999Z</time></trkpt><trkpt lat="50.12934080601501" lon="15.365826221341383"><ele>216.0</ele><time>2026-05-03T07:54:41.999Z</time></trkpt><trkpt lat="50.1294125091386" lon="15.365099924736906"><ele>215.0</ele><time>2026-05-03T07:54:42.999Z</time></trkpt><trkpt lat="50.12947278748085" lon="15.364381792952726"><ele>215.0</ele><time>2026-05-03T07:54:43.999Z</time></trkpt><trkpt lat="50.129526820688206" lon="15.363689294939991"><ele>215.0</ele><time>2026-05-03T07:54:44.999Z</time></trkpt><trkpt lat="50.129578076082346" lon="15.362987233677185"><ele>216.0</ele><time>2026-05-03T07:54:45.999Z</time></trkpt><trkpt lat="50.12962795319384" lon="15.36226629370118"><ele>217.0</ele><time>2026-05-03T07:54:46.999Z</time></trkpt><trkpt lat="50.129671891598804" lon="15.361534877649268"><ele>218.0</ele><time>2026-05-03T07:54:47.999Z</time></trkpt><trkpt lat="50.12970714977039" lon="15.360800962468563"><ele>218.0</ele><time>2026-05-03T07:54:48.999Z</time></trkpt><trkpt lat="50.12973468863804" lon="15.360058829563005"><ele>217.0</ele><time>2026-05-03T07:54:49.999Z</time></trkpt><trkpt lat="50.12975554287681" lon="15.359307940911917"><ele>218.0</ele><time>2026-05-03T07:54:50.999Z</time></trkpt><trkpt lat="50.129769086182165" lon="15.358565445422087"><ele>218.0</ele><time>2026-05-03T07:54:51.999Z</time></trkpt><trkpt lat="50.12977685941965" lon="15.357812472932382"><ele>219.0</ele><time>2026-05-03T07:54:52.999Z</time></trkpt><trkpt lat="50.129778838531465" lon="15.357062516539632"><ele>218.0</ele><time>2026-05-03T07:54:53.999Z</time></trkpt><trkpt lat="50.12977579452747" lon="15.356319610555461"><ele>218.0</ele><time>2026-05-03T07:54:54.999Z</time></trkpt><trkpt lat="50.12976471301791" lon="15.355624929790256"><ele>218.0</ele><time>2026-05-03T07:54:55.999Z</time></trkpt><trkpt lat="50.129746269417794" lon="15.354957151202912"><ele>218.5</ele><time>2026-05-03T07:54:56.999Z</time></trkpt><trkpt lat="50.12971992880257" lon="15.354298407406164"><ele>219.0</ele><time>2026-05-03T07:54:57.999Z</time></trkpt><trkpt lat="50.129687731249625" lon="15.353633178229739"><ele>219.5</ele><time>2026-05-03T07:54:58.999Z</time></trkpt><trkpt lat="50.129652731484285" lon="15.352959466813052"><ele>220.0</ele><time>2026-05-03T07:54:59.999Z</time></trkpt><trkpt lat="50.129615920749664" lon="15.35227604811084"><ele>219.5</ele><time>2026-05-03T07:55:00.999Z</time></trkpt><trkpt lat="50.12958062815076" lon="15.351595102351101"><ele>219.0</ele><time>2026-05-03T07:55:01.999Z</time></trkpt><trkpt lat="50.12954276790932" lon="15.350914123022145"><ele>219.0</ele><time>2026-05-03T07:55:02.999Z</time></trkpt><trkpt lat="50.12950250732982" lon="15.350246524272725"><ele>219.0</ele><time>2026-05-03T07:55:03.999Z</time></trkpt><trkpt lat="50.12946497065137" lon="15.3496054301703"><ele>219.0</ele><time>2026-05-03T07:55:04.999Z</time></trkpt><trkpt lat="50.1294292381698" lon="15.348974713552469"><ele>219.0</ele><time>2026-05-03T07:55:05.999Z</time></trkpt><trkpt lat="50.12939195947868" lon="15.348328932490658"><ele>220.0</ele><time>2026-05-03T07:55:06.999Z</time></trkpt><trkpt lat="50.1293505080532" lon="15.34766921584177"><ele>221.0</ele><time>2026-05-03T07:55:07.999Z</time></trkpt><trkpt lat="50.129312355937714" lon="15.347008059552179"><ele>220.5</ele><time>2026-05-03T07:55:08.999Z</time></trkpt><trkpt lat="50.12927492883694" lon="15.346359524853895"><ele>220.0</ele><time>2026-05-03T07:55:09.999Z</time></trkpt><trkpt lat="50.129239279940954" lon="15.345713792161144"><ele>220.0</ele><time>2026-05-03T07:55:10.999Z</time></trkpt><trkpt lat="50.12920593110224" lon="15.345088348591908"><ele>220.0</ele><time>2026-05-03T07:55:11.999Z</time></trkpt><trkpt lat="50.129175426080536" lon="15.344480496275619"><ele>220.5</ele><time>2026-05-03T07:55:12.999Z</time></trkpt><trkpt lat="50.129149004726045" lon="15.343919142141019"><ele>221.0</ele><time>2026-05-03T07:55:13.999Z</time></trkpt><trkpt lat="50.12912796041368" lon="15.343404756086057"><ele>221.0</ele><time>2026-05-03T07:55:14.999Z</time></trkpt><trkpt lat="50.1291123846916" lon="15.34290449260133"><ele>221.0</ele><time>2026-05-03T07:55:15.999Z</time></trkpt><trkpt lat="50.12909938965296" lon="15.34241199497069"><ele>221.0</ele><time>2026-05-03T07:55:16.999Z</time></trkpt><trkpt lat="50.12908980372799" lon="15.341913625301144"><ele>221.0</ele><time>2026-05-03T07:55:17.999Z</time></trkpt><trkpt lat="50.12908185807928" lon="15.341413119469088"><ele>221.0</ele><time>2026-05-03T07:55:18.999Z</time></trkpt><trkpt lat="50.12907813239555" lon="15.340917243700673"><ele>221.0</ele><time>2026-05-03T07:55:19.999Z</time></trkpt><trkpt lat="50.129078493632775" lon="15.340425085025824"><ele>221.0</ele><time>2026-05-03T07:55:20.999Z</time></trkpt><trkpt lat="50.129079306141364" lon="15.339933091575125"><ele>221.0</ele><time>2026-05-03T07:55:21.999Z</time></trkpt><trkpt lat="50.12908574453574" lon="15.33944034053967"><ele>221.0</ele><time>2026-05-03T07:55:22.999Z</time></trkpt><trkpt lat="50.129098530735895" lon="15.33892948675402"><ele>221.0</ele><time>2026-05-03T07:55:23.999Z</time></trkpt><trkpt lat="50.12910966990231" lon="15.338438765410096"><ele>221.5</ele><time>2026-05-03T07:55:24.999Z</time></trkpt><trkpt lat="50.129127903325134" lon="15.3379396647793"><ele>222.0</ele><time>2026-05-03T07:55:25.999Z</time></trkpt><trkpt lat="50.12914654070937" lon="15.337449300577623"><ele>222.0</ele><time>2026-05-03T07:55:26.999Z</time></trkpt><trkpt lat="50.12916757654472" lon="15.336957125038323"><ele>222.0</ele><time>2026-05-03T07:55:27.999Z</time></trkpt><trkpt lat="50.12919050441475" lon="15.336463859740128"><ele>222.0</ele><time>2026-05-03T07:55:28.999Z</time></trkpt><trkpt lat="50.129213989389406" lon="15.335972192750619"><ele>222.0</ele><time>2026-05-03T07:55:29.999Z</time></trkpt><trkpt lat="50.12924006787156" lon="15.33546807948589"><ele>222.0</ele><time>2026-05-03T07:55:30.999Z</time></trkpt><trkpt lat="50.129269163355374" lon="15.334927729370005"><ele>222.0</ele><time>2026-05-03T07:55:31.999Z</time></trkpt><trkpt lat="50.12930425511211" lon="15.334360766804837"><ele>222.5</ele><time>2026-05-03T07:55:32.999Z</time></trkpt><trkpt lat="50.12933992058781" lon="15.33378186804388"><ele>223.0</ele><time>2026-05-03T07:55:33.999Z</time></trkpt><trkpt lat="50.12937815933878" lon="15.333174026608184"><ele>222.5</ele><time>2026-05-03T07:55:34.999Z</time></trkpt><trkpt lat="50.12941613665219" lon="15.332540347396412"><ele>222.0</ele><time>2026-05-03T07:55:35.999Z</time></trkpt><trkpt lat="50.1294520596357" lon="15.331885788139255"><ele>222.0</ele><time>2026-05-03T07:55:36.999Z</time></trkpt><trkpt lat="50.129485778065465" lon="15.331224518302681"><ele>222.0</ele><time>2026-05-03T07:55:37.999Z</time></trkpt><trkpt lat="50.12951523522908" lon="15.33056369165116"><ele>222.0</ele><time>2026-05-03T07:55:38.999Z</time></trkpt><trkpt lat="50.1295414427882" lon="15.329880585730868"><ele>222.0</ele><time>2026-05-03T07:55:39.999Z</time></trkpt><trkpt lat="50.12956442675349" lon="15.329191646215671"><ele>220.0</ele><time>2026-05-03T07:55:40.999Z</time></trkpt><trkpt lat="50.12958863172627" lon="15.328491171284263"><ele>218.0</ele><time>2026-05-03T07:55:41.999Z</time></trkpt><trkpt lat="50.12960343132878" lon="15.327781052622989"><ele>216.0</ele><time>2026-05-03T07:55:42.999Z</time></trkpt><trkpt lat="50.12960168149015" lon="15.327077903597132"><ele>217.0</ele><time>2026-05-03T07:55:43.999Z</time></trkpt><trkpt lat="50.12958035543593" lon="15.326368848135855"><ele>217.0</ele><time>2026-05-03T07:55:44.999Z</time></trkpt><trkpt lat="50.12954300456166" lon="15.325654554435483"><ele>216.0</ele><time>2026-05-03T07:55:45.999Z</time></trkpt><trkpt lat="50.129488972390114" lon="15.324936708933008"><ele>216.0</ele><time>2026-05-03T07:55:46.999Z</time></trkpt><trkpt lat="50.12942089290161" lon="15.324213017365812"><ele>215.0</ele><time>2026-05-03T07:55:47.999Z</time></trkpt><trkpt lat="50.1293363983982" lon="15.32348816702632"><ele>213.0</ele><time>2026-05-03T07:55:48.999Z</time></trkpt><trkpt lat="50.12924461046932" lon="15.322759872638207"><ele>212.0</ele><time>2026-05-03T07:55:49.999Z</time></trkpt><trkpt lat="50.129137475077165" lon="15.322042191473365"><ele>213.0</ele><time>2026-05-03T07:55:50.999Z</time></trkpt><trkpt lat="50.12901999797323" lon="15.32133109091301"><ele>213.0</ele><time>2026-05-03T07:55:51.999Z</time></trkpt><trkpt lat="50.12888594037566" lon="15.32062903042146"><ele>213.0</ele><time>2026-05-03T07:55:53Z</time></trkpt><trkpt lat="50.12874245275978" lon="15.319950087350312"><ele>213.5</ele><time>2026-05-03T07:55:54Z</time></trkpt><trkpt lat="50.12859579211461" lon="15.319337201788581"><ele>214.0</ele><time>2026-05-03T07:55:55Z</time></trkpt><trkpt lat="50.12843548876441" lon="15.31873715364804"><ele>214.0</ele><time>2026-05-03T07:55:56Z</time></trkpt><trkpt lat="50.12825096090947" lon="15.31810987439851"><ele>214.0</ele><time>2026-05-03T07:55:57Z</time></trkpt><trkpt lat="50.128054608850114" lon="15.317484336592061"><ele>216.0</ele><time>2026-05-03T07:55:58Z</time></trkpt><trkpt lat="50.12784838649796" lon="15.31685390386163"><ele>214.0</ele><time>2026-05-03T07:55:59Z</time></trkpt><trkpt lat="50.127634326921" lon="15.316226742612747"><ele>214.0</ele><time>2026-05-03T07:56:00Z</time></trkpt><trkpt lat="50.12740804136119" lon="15.315611446997933"><ele>218.0</ele><time>2026-05-03T07:56:01Z</time></trkpt><trkpt lat="50.12718321452183" lon="15.314993395656469"><ele>216.5</ele><time>2026-05-03T07:56:02Z</time></trkpt><trkpt lat="50.12694723201449" lon="15.314398257973153"><ele>215.0</ele><time>2026-05-03T07:56:03Z</time></trkpt><trkpt lat="50.12669628085553" lon="15.31382163402626"><ele>216.0</ele><time>2026-05-03T07:56:04Z</time></trkpt><trkpt lat="50.12642270247129" lon="15.313236098339164"><ele>216.0</ele><time>2026-05-03T07:56:05Z</time></trkpt><trkpt lat="50.12613629292925" lon="15.312662092256971"><ele>215.0</ele><time>2026-05-03T07:56:06Z</time></trkpt><trkpt lat="50.12584054962415" lon="15.312096829704732"><ele>216.0</ele><time>2026-05-03T07:56:07Z</time></trkpt><trkpt lat="50.12553445446389" lon="15.31153566310603"><ele>215.0</ele><time>2026-05-03T07:56:08Z</time></trkpt><trkpt lat="50.12522196161464" lon="15.310979794222094"><ele>214.0</ele><time>2026-05-03T07:56:09Z</time></trkpt><trkpt lat="50.124907073459774" lon="15.310423132839238"><ele>218.0</ele><time>2026-05-03T07:56:10Z</time></trkpt><trkpt lat="50.12460302934448" lon="15.309899759852614"><ele>218.0</ele><time>2026-05-03T07:56:11Z</time></trkpt><trkpt lat="50.12431850194966" lon="15.309398015454061"><ele>218.0</ele><time>2026-05-03T07:56:12Z</time></trkpt><trkpt lat="50.124049114846954" lon="15.308920708601585"><ele>218.0</ele><time>2026-05-03T07:56:13Z</time></trkpt><trkpt lat="50.12379483835762" lon="15.308450701314841"><ele>218.0</ele><time>2026-05-03T07:56:14Z</time></trkpt><trkpt lat="50.12354787248373" lon="15.30795776895364"><ele>218.0</ele><time>2026-05-03T07:56:15Z</time></trkpt><trkpt lat="50.123306140475975" lon="15.307435569560093"><ele>218.0</ele><time>2026-05-03T07:56:16Z</time></trkpt><trkpt lat="50.123076334002846" lon="15.306891128375801"><ele>220.5</ele><time>2026-05-03T07:56:17Z</time></trkpt><trkpt lat="50.122854312964" lon="15.306335945204667"><ele>223.0</ele><time>2026-05-03T07:56:18Z</time></trkpt><trkpt lat="50.12264115479252" lon="15.3057653466792"><ele>223.5</ele><time>2026-05-03T07:56:19Z</time></trkpt><trkpt lat="50.122436005075045" lon="15.305178303251903"><ele>224.0</ele><time>2026-05-03T07:56:20Z</time></trkpt><trkpt lat="50.12224462246499" lon="15.304579606922093"><ele>229.0</ele><time>2026-05-03T07:56:21Z</time></trkpt><trkpt lat="50.12206533549937" lon="15.303964167067917"><ele>234.0</ele><time>2026-05-03T07:56:22Z</time></trkpt><trkpt lat="50.12189716957245" lon="15.303334623437353"><ele>239.0</ele><time>2026-05-03T07:56:23Z</time></trkpt><trkpt lat="50.1217433970888" lon="15.302699117769388"><ele>244.0</ele><time>2026-05-03T07:56:24Z</time></trkpt><trkpt lat="50.12159936261089" lon="15.302057703171755"><ele>247.0</ele><time>2026-05-03T07:56:25Z</time></trkpt><trkpt lat="50.12147250431072" lon="15.301434384235739"><ele>250.0</ele><time>2026-05-03T07:56:26Z</time></trkpt><trkpt lat="50.12136819297671" lon="15.300833320957093"><ele>249.5</ele><time>2026-05-03T07:56:27Z</time></trkpt><trkpt lat="50.12128094404325" lon="15.300247541700559"><ele>249.0</ele><time>2026-05-03T07:56:28Z</time></trkpt><trkpt lat="50.12119445126091" lon="15.29961793216355"><ele>247.0</ele><time>2026-05-03T07:56:29Z</time></trkpt><trkpt lat="50.12112888014508" lon="15.298952575412573"><ele>245.0</ele><time>2026-05-03T07:56:29.999Z</time></trkpt><trkpt lat="50.121077293246884" lon="15.298278354759429"><ele>242.0</ele><time>2026-05-03T07:56:30.999Z</time></trkpt><trkpt lat="50.12102640611964" lon="15.297586478012532"><ele>239.0</ele><time>2026-05-03T07:56:31.999Z</time></trkpt><trkpt lat="50.12098809816018" lon="15.29692656408132"><ele>238.0</ele><time>2026-05-03T07:56:32.999Z</time></trkpt><trkpt lat="50.120968965765314" lon="15.296330464931712"><ele>237.0</ele><time>2026-05-03T07:56:33.999Z</time></trkpt><trkpt lat="50.12096268838128" lon="15.295766916702215"><ele>236.0</ele><time>2026-05-03T07:56:34.999Z</time></trkpt><trkpt lat="50.1209675660067" lon="15.295199755658007"><ele>235.0</ele><time>2026-05-03T07:56:35.999Z</time></trkpt><trkpt lat="50.12098185924241" lon="15.294631387763335"><ele>234.5</ele><time>2026-05-03T07:56:36.999Z</time></trkpt><trkpt lat="50.1210031003029" lon="15.294067663685185"><ele>234.0</ele><time>2026-05-03T07:56:37.999Z</time></trkpt><trkpt lat="50.12103192987464" lon="15.293495222909925"><ele>234.0</ele><time>2026-05-03T07:56:38.999Z</time></trkpt><trkpt lat="50.1210677121925" lon="15.292932831909722"><ele>234.0</ele><time>2026-05-03T07:56:39.999Z</time></trkpt><trkpt lat="50.12110877956441" lon="15.292369796391641"><ele>233.5</ele><time>2026-05-03T07:56:40.999Z</time></trkpt><trkpt lat="50.12114808710334" lon="15.291811264764693"><ele>233.0</ele><time>2026-05-03T07:56:41.999Z</time></trkpt><trkpt lat="50.121189100292725" lon="15.291246638428596"><ele>233.0</ele><time>2026-05-03T07:56:42.999Z</time></trkpt><trkpt lat="50.121236320977495" lon="15.290681248748607"><ele>233.0</ele><time>2026-05-03T07:56:43.999Z</time></trkpt><trkpt lat="50.12128669683759" lon="15.290110144633191"><ele>233.0</ele><time>2026-05-03T07:56:44.999Z</time></trkpt><trkpt lat="50.12134728458278" lon="15.289527614144426"><ele>233.0</ele><time>2026-05-03T07:56:45.999Z</time></trkpt><trkpt lat="50.121384751491675" lon="15.28896825939399"><ele>231.0</ele><time>2026-05-03T07:56:46.999Z</time></trkpt><trkpt lat="50.12142620063807" lon="15.288394398991366"><ele>229.0</ele><time>2026-05-03T07:56:47.999Z</time></trkpt><trkpt lat="50.12146388530001" lon="15.287812187380776"><ele>225.5</ele><time>2026-05-03T07:56:48.999Z</time></trkpt><trkpt lat="50.12150349347498" lon="15.287237644322913"><ele>222.0</ele><time>2026-05-03T07:56:49.999Z</time></trkpt><trkpt lat="50.121538720562796" lon="15.286677101300212"><ele>223.0</ele><time>2026-05-03T07:56:50.999Z</time></trkpt><trkpt lat="50.12157683097743" lon="15.286121107605268"><ele>224.0</ele><time>2026-05-03T07:56:51.999Z</time></trkpt><trkpt lat="50.12161338139985" lon="15.285572740798818"><ele>224.0</ele><time>2026-05-03T07:56:52.999Z</time></trkpt><trkpt lat="50.12164720518943" lon="15.285029060238017"><ele>224.0</ele><time>2026-05-03T07:56:53.999Z</time></trkpt><trkpt lat="50.12167766331885" lon="15.284484333083347"><ele>224.0</ele><time>2026-05-03T07:56:54.999Z</time></trkpt><trkpt lat="50.12170382059782" lon="15.283938819264694"><ele>224.0</ele><time>2026-05-03T07:56:55.999Z</time></trkpt><trkpt lat="50.12172806610135" lon="15.28339694599761"><ele>223.5</ele><time>2026-05-03T07:56:56.999Z</time></trkpt><trkpt lat="50.12175146609187" lon="15.282854070652807"><ele>223.0</ele><time>2026-05-03T07:56:57.999Z</time></trkpt><trkpt lat="50.12177170450694" lon="15.282310506134019"><ele>223.0</ele><time>2026-05-03T07:56:58.999Z</time></trkpt><trkpt lat="50.12178582790307" lon="15.281751798852522"><ele>223.0</ele><time>2026-05-03T07:56:59.999Z</time></trkpt><trkpt lat="50.121794790040376" lon="15.281197521344765"><ele>222.0</ele><time>2026-05-03T07:57:00.999Z</time></trkpt><trkpt lat="50.12178500896641" lon="15.28073879234534"><ele>221.0</ele><time>2026-05-03T07:57:01.999Z</time></trkpt><trkpt lat="50.12177799908311" lon="15.280240174546543"><ele>219.5</ele><time>2026-05-03T07:57:02.999Z</time></trkpt><trkpt lat="50.12177451576546" lon="15.279746594244475"><ele>218.0</ele><time>2026-05-03T07:57:03.999Z</time></trkpt><trkpt lat="50.12176565763628" lon="15.279243558156027"><ele>216.5</ele><time>2026-05-03T07:57:04.999Z</time></trkpt><trkpt lat="50.121746162035805" lon="15.278746080328427"><ele>215.0</ele><time>2026-05-03T07:57:05.999Z</time></trkpt><trkpt lat="50.121725949835906" lon="15.278242654254463"><ele>215.0</ele><time>2026-05-03T07:57:06.999Z</time></trkpt><trkpt lat="50.121696024121675" lon="15.27772902039293"><ele>215.0</ele><time>2026-05-03T07:57:07.999Z</time></trkpt><trkpt lat="50.12165900405352" lon="15.277197018026966"><ele>214.0</ele><time>2026-05-03T07:57:08.999Z</time></trkpt><trkpt lat="50.12163428051621" lon="15.276623442530768"><ele>213.0</ele><time>2026-05-03T07:57:09.999Z</time></trkpt><trkpt lat="50.12156900402497" lon="15.276068528838701"><ele>212.0</ele><time>2026-05-03T07:57:10.999Z</time></trkpt><trkpt lat="50.12151132592331" lon="15.275500835729876"><ele>211.0</ele><time>2026-05-03T07:57:11.999Z</time></trkpt><trkpt lat="50.121455393586" lon="15.274925983670645"><ele>210.5</ele><time>2026-05-03T07:57:12.999Z</time></trkpt><trkpt lat="50.12139966993795" lon="15.274345413511599"><ele>210.0</ele><time>2026-05-03T07:57:13.999Z</time></trkpt><trkpt lat="50.121343733385544" lon="15.27376394268398"><ele>210.0</ele><time>2026-05-03T07:57:14.999Z</time></trkpt><trkpt lat="50.12128739233078" lon="15.27318970729277"><ele>210.0</ele><time>2026-05-03T07:57:15.999Z</time></trkpt><trkpt lat="50.1212209475488" lon="15.272607946813638"><ele>210.0</ele><time>2026-05-03T07:57:16.999Z</time></trkpt><trkpt lat="50.1211364534958" lon="15.272032534265499"><ele>210.0</ele><time>2026-05-03T07:57:17.999Z</time></trkpt><trkpt lat="50.121052959576396" lon="15.271460359457668"><ele>209.0</ele><time>2026-05-03T07:57:18.999Z</time></trkpt><trkpt lat="50.1209632995892" lon="15.270891825404766"><ele>208.0</ele><time>2026-05-03T07:57:19.999Z</time></trkpt><trkpt lat="50.12086839533993" lon="15.270341575342435"><ele>208.0</ele><time>2026-05-03T07:57:20.999Z</time></trkpt><trkpt lat="50.120771645189095" lon="15.269794043886783"><ele>208.0</ele><time>2026-05-03T07:57:21.999Z</time></trkpt><trkpt lat="50.120664760537075" lon="15.26925518547989"><ele>208.0</ele><time>2026-05-03T07:57:22.999Z</time></trkpt><trkpt lat="50.12055451514227" lon="15.268731413589139"><ele>208.0</ele><time>2026-05-03T07:57:23.999Z</time></trkpt><trkpt lat="50.120446909766635" lon="15.268213707395926"><ele>207.5</ele><time>2026-05-03T07:57:24.999Z</time></trkpt><trkpt lat="50.12034124212233" lon="15.267691272535101"><ele>207.0</ele><time>2026-05-03T07:57:25.999Z</time></trkpt><trkpt lat="50.120230525006995" lon="15.267159290080112"><ele>207.0</ele><time>2026-05-03T07:57:26.999Z</time></trkpt><trkpt lat="50.12012104719642" lon="15.266621287627727"><ele>207.0</ele><time>2026-05-03T07:57:27.999Z</time></trkpt><trkpt lat="50.120012446447916" lon="15.266080466919899"><ele>206.0</ele><time>2026-05-03T07:57:28.999Z</time></trkpt><trkpt lat="50.11989690692126" lon="15.265523036922676"><ele>205.0</ele><time>2026-05-03T07:57:29.999Z</time></trkpt><trkpt lat="50.11977533211264" lon="15.26495834181973"><ele>204.0</ele><time>2026-05-03T07:57:30.999Z</time></trkpt><trkpt lat="50.11964528747141" lon="15.264383399253564"><ele>203.0</ele><time>2026-05-03T07:57:31.999Z</time></trkpt><trkpt lat="50.11951292857032" lon="15.263788387030038"><ele>203.0</ele><time>2026-05-03T07:57:32.999Z</time></trkpt><trkpt lat="50.1193719976935" lon="15.263180411381297"><ele>203.0</ele><time>2026-05-03T07:57:33.999Z</time></trkpt><trkpt lat="50.119235530260966" lon="15.262584862774396"><ele>202.0</ele><time>2026-05-03T07:57:34.999Z</time></trkpt><trkpt lat="50.1191044738185" lon="15.261989208954018"><ele>201.0</ele><time>2026-05-03T07:57:35.999Z</time></trkpt><trkpt lat="50.11898141071386" lon="15.261387148252956"><ele>200.0</ele><time>2026-05-03T07:57:36.999Z</time></trkpt><trkpt lat="50.11886966794178" lon="15.260782927056074"><ele>199.0</ele><time>2026-05-03T07:57:37.999Z</time></trkpt><trkpt lat="50.11875800852919" lon="15.260165448034849"><ele>198.5</ele><time>2026-05-03T07:57:38.999Z</time></trkpt><trkpt lat="50.11864500719069" lon="15.259557654567011"><ele>198.0</ele><time>2026-05-03T07:57:39.999Z</time></trkpt><trkpt lat="50.11852917464383" lon="15.258942612509282"><ele>197.5</ele><time>2026-05-03T07:57:40.999Z</time></trkpt><trkpt lat="50.118416633576224" lon="15.258331763319395"><ele>197.0</ele><time>2026-05-03T07:57:41.999Z</time></trkpt><trkpt lat="50.11831332025594" lon="15.257698898289744"><ele>197.5</ele><time>2026-05-03T07:57:42.999Z</time></trkpt><trkpt lat="50.11820709468765" lon="15.257073663589157"><ele>198.0</ele><time>2026-05-03T07:57:43.999Z</time></trkpt><trkpt lat="50.11810664150113" lon="15.256446204137863"><ele>198.0</ele><time>2026-05-03T07:57:44.999Z</time></trkpt><trkpt lat="50.118013908942075" lon="15.255820914698"><ele>198.0</ele><time>2026-05-03T07:57:45.999Z</time></trkpt><trkpt lat="50.117925871073716" lon="15.255188368491229"><ele>197.5</ele><time>2026-05-03T07:57:46.999Z</time></trkpt><trkpt lat="50.11784340699929" lon="15.25455201297224"><ele>197.0</ele><time>2026-05-03T07:57:47.999Z</time></trkpt><trkpt lat="50.11776744952239" lon="15.253913955394706"><ele>196.5</ele><time>2026-05-03T07:57:48.999Z</time></trkpt><trkpt lat="50.117695677349246" lon="15.253276697467928"><ele>196.0</ele><time>2026-05-03T07:57:49.999Z</time></trkpt><trkpt lat="50.11762503825008" lon="15.252632327756945"><ele>196.5</ele><time>2026-05-03T07:57:50.999Z</time></trkpt><trkpt lat="50.11755851985533" lon="15.25198600393879"><ele>197.0</ele><time>2026-05-03T07:57:51.999Z</time></trkpt><trkpt lat="50.11749505690518" lon="15.251334862966646"><ele>197.0</ele><time>2026-05-03T07:57:52.999Z</time></trkpt><trkpt lat="50.117435047100344" lon="15.250662656313965"><ele>197.0</ele><time>2026-05-03T07:57:53.999Z</time></trkpt><trkpt lat="50.11737641255782" lon="15.249967999581983"><ele>197.0</ele><time>2026-05-03T07:57:54.999Z</time></trkpt><trkpt lat="50.11731981801343" lon="15.249282464254554"><ele>197.0</ele><time>2026-05-03T07:57:55.999Z</time></trkpt><trkpt lat="50.11727309110927" lon="15.248665180038934"><ele>196.5</ele><time>2026-05-03T07:57:56.999Z</time></trkpt><trkpt lat="50.11723871213367" lon="15.2480950199907"><ele>196.0</ele><time>2026-05-03T07:57:57.999Z</time></trkpt><trkpt lat="50.1172138928502" lon="15.247521746806557"><ele>196.0</ele><time>2026-05-03T07:57:59Z</time></trkpt><trkpt lat="50.11719660428492" lon="15.246935132312533"><ele>196.0</ele><time>2026-05-03T07:58:00Z</time></trkpt><trkpt lat="50.117180719109015" lon="15.246316361017602"><ele>195.5</ele><time>2026-05-03T07:58:01Z</time></trkpt><trkpt lat="50.117165597998486" lon="15.245686678397659"><ele>195.0</ele><time>2026-05-03T07:58:02Z</time></trkpt><trkpt lat="50.11715044129822" lon="15.245046973310055"><ele>194.5</ele><time>2026-05-03T07:58:03Z</time></trkpt><trkpt lat="50.117140021334976" lon="15.244405047465724"><ele>194.0</ele><time>2026-05-03T07:58:04Z</time></trkpt><trkpt lat="50.11713392534404" lon="15.243757982604846"><ele>194.0</ele><time>2026-05-03T07:58:05Z</time></trkpt><trkpt lat="50.11713198950297" lon="15.243107501106913"><ele>194.0</ele><time>2026-05-03T07:58:06Z</time></trkpt><trkpt lat="50.11714217475578" lon="15.242459423024927"><ele>194.5</ele><time>2026-05-03T07:58:07Z</time></trkpt><trkpt lat="50.11716566741951" lon="15.241814201143441"><ele>195.0</ele><time>2026-05-03T07:58:08Z</time></trkpt><trkpt lat="50.117188541531554" lon="15.241176608224587"><ele>195.0</ele><time>2026-05-03T07:58:09Z</time></trkpt><trkpt lat="50.11721154743605" lon="15.240535820472182"><ele>195.0</ele><time>2026-05-03T07:58:10Z</time></trkpt><trkpt lat="50.11723440295602" lon="15.239893272873093"><ele>195.0</ele><time>2026-05-03T07:58:11Z</time></trkpt><trkpt lat="50.11725128410588" lon="15.239242459787647"><ele>195.0</ele><time>2026-05-03T07:58:12Z</time></trkpt><trkpt lat="50.11726306835735" lon="15.23858529033096"><ele>195.0</ele><time>2026-05-03T07:58:13Z</time></trkpt><trkpt lat="50.11727263494719" lon="15.237935010717585"><ele>195.0</ele><time>2026-05-03T07:58:14Z</time></trkpt><trkpt lat="50.11728510722313" lon="15.237279102805191"><ele>195.0</ele><time>2026-05-03T07:58:15Z</time></trkpt><trkpt lat="50.11730040026169" lon="15.236619745002136"><ele>195.0</ele><time>2026-05-03T07:58:16Z</time></trkpt><trkpt lat="50.11731991146162" lon="15.23595532485048"><ele>194.5</ele><time>2026-05-03T07:58:17Z</time></trkpt><trkpt lat="50.117339972907615" lon="15.235285025902202"><ele>194.0</ele><time>2026-05-03T07:58:18Z</time></trkpt><trkpt lat="50.11736052024556" lon="15.234604847585626"><ele>196.5</ele><time>2026-05-03T07:58:19Z</time></trkpt><trkpt lat="50.117375372028654" lon="15.23391908095929"><ele>199.0</ele><time>2026-05-03T07:58:20Z</time></trkpt><trkpt lat="50.11738328057522" lon="15.233224038634036"><ele>203.0</ele><time>2026-05-03T07:58:21Z</time></trkpt><trkpt lat="50.11738367572731" lon="15.232518240176706"><ele>203.0</ele><time>2026-05-03T07:58:22Z</time></trkpt><trkpt lat="50.11738003546667" lon="15.231798446824996"><ele>202.0</ele><time>2026-05-03T07:58:23Z</time></trkpt><trkpt lat="50.117371584782425" lon="15.231075792148562"><ele>199.0</ele><time>2026-05-03T07:58:24Z</time></trkpt><trkpt lat="50.11735975309535" lon="15.230351441106325"><ele>198.0</ele><time>2026-05-03T07:58:25Z</time></trkpt><trkpt lat="50.117341367670605" lon="15.229625591144575"><ele>198.0</ele><time>2026-05-03T07:58:26Z</time></trkpt><trkpt lat="50.11731641687937" lon="15.228903689710272"><ele>198.0</ele><time>2026-05-03T07:58:27Z</time></trkpt><trkpt lat="50.11728449936104" lon="15.22818125830927"><ele>200.0</ele><time>2026-05-03T07:58:28Z</time></trkpt><trkpt lat="50.11724776833264" lon="15.2274592915633"><ele>203.0</ele><time>2026-05-03T07:58:29Z</time></trkpt><trkpt lat="50.117205211298874" lon="15.226744696328048"><ele>205.0</ele><time>2026-05-03T07:58:30Z</time></trkpt><trkpt lat="50.11715755912005" lon="15.22603647891491"><ele>208.0</ele><time>2026-05-03T07:58:31Z</time></trkpt><trkpt lat="50.117109931700575" lon="15.225322173125962"><ele>209.0</ele><time>2026-05-03T07:58:32Z</time></trkpt><trkpt lat="50.11706553952806" lon="15.224607821490192"><ele>207.0</ele><time>2026-05-03T07:58:33Z</time></trkpt><trkpt lat="50.11701879689166" lon="15.223891229076864"><ele>207.0</ele><time>2026-05-03T07:58:34Z</time></trkpt><trkpt lat="50.11697520698071" lon="15.223171803319255"><ele>207.0</ele><time>2026-05-03T07:58:35Z</time></trkpt><trkpt lat="50.11693063038457" lon="15.222454015282683"><ele>205.0</ele><time>2026-05-03T07:58:36Z</time></trkpt><trkpt lat="50.11688403819641" lon="15.221735673833477"><ele>203.0</ele><time>2026-05-03T07:58:37Z</time></trkpt><trkpt lat="50.11683446095852" lon="15.221022782186798"><ele>203.0</ele><time>2026-05-03T07:58:38Z</time></trkpt><trkpt lat="50.11678121384948" lon="15.22030230107814"><ele>203.0</ele><time>2026-05-03T07:58:39Z</time></trkpt><trkpt lat="50.11673307984578" lon="15.219583131492913"><ele>206.0</ele><time>2026-05-03T07:58:40Z</time></trkpt><trkpt lat="50.116686189037864" lon="15.21885889924281"><ele>207.0</ele><time>2026-05-03T07:58:41Z</time></trkpt><trkpt lat="50.11664306502651" lon="15.21813562183861"><ele>207.0</ele><time>2026-05-03T07:58:42Z</time></trkpt><trkpt lat="50.11660168906478" lon="15.217407055424227"><ele>205.0</ele><time>2026-05-03T07:58:43Z</time></trkpt><trkpt lat="50.116565302695605" lon="15.216687436602877"><ele>204.0</ele><time>2026-05-03T07:58:44Z</time></trkpt><trkpt lat="50.116537642238825" lon="15.216024290246251"><ele>203.0</ele><time>2026-05-03T07:58:45Z</time></trkpt><trkpt lat="50.11651022591765" lon="15.21539237482876"><ele>202.5</ele><time>2026-05-03T07:58:46Z</time></trkpt><trkpt lat="50.11647745570028" lon="15.214743441405288"><ele>202.0</ele><time>2026-05-03T07:58:47Z</time></trkpt><trkpt lat="50.11644954551431" lon="15.21408149716066"><ele>202.0</ele><time>2026-05-03T07:58:48Z</time></trkpt><trkpt lat="50.1164305875706" lon="15.213410370797938"><ele>202.0</ele><time>2026-05-03T07:58:49Z</time></trkpt><trkpt lat="50.11641958797114" lon="15.21274066366896"><ele>198.5</ele><time>2026-05-03T07:58:50Z</time></trkpt><trkpt lat="50.11641023659784" lon="15.212065079551294"><ele>195.0</ele><time>2026-05-03T07:58:51Z</time></trkpt><trkpt lat="50.11640045674992" lon="15.211374979021418"><ele>195.0</ele><time>2026-05-03T07:58:52Z</time></trkpt><trkpt lat="50.11639802143124" lon="15.210691714823739"><ele>195.0</ele><time>2026-05-03T07:58:53Z</time></trkpt><trkpt lat="50.116396468229645" lon="15.210002309080608"><ele>193.0</ele><time>2026-05-03T07:58:54Z</time></trkpt><trkpt lat="50.11639670569391" lon="15.209300514617299"><ele>192.0</ele><time>2026-05-03T07:58:55Z</time></trkpt><trkpt lat="50.1164014896971" lon="15.208591844985538"><ele>192.0</ele><time>2026-05-03T07:58:56Z</time></trkpt><trkpt lat="50.11640933650224" lon="15.207883228645542"><ele>191.0</ele><time>2026-05-03T07:58:57Z</time></trkpt><trkpt lat="50.11641910286711" lon="15.207171187665413"><ele>191.0</ele><time>2026-05-03T07:58:58Z</time></trkpt><trkpt lat="50.116431412145694" lon="15.206463204264377"><ele>191.0</ele><time>2026-05-03T07:58:59Z</time></trkpt><trkpt lat="50.11644618984593" lon="15.20575868794534"><ele>191.5</ele><time>2026-05-03T07:59:00Z</time></trkpt><trkpt lat="50.11646601872772" lon="15.205058432916482"><ele>192.0</ele><time>2026-05-03T07:59:01Z</time></trkpt><trkpt lat="50.11648977260872" lon="15.204349915153127"><ele>193.0</ele><time>2026-05-03T07:59:02Z</time></trkpt><trkpt lat="50.116519952457146" lon="15.203640806266897"><ele>193.0</ele><time>2026-05-03T07:59:03Z</time></trkpt><trkpt lat="50.11655277706283" lon="15.202930315953958"><ele>192.0</ele><time>2026-05-03T07:59:04Z</time></trkpt><trkpt lat="50.11659555230417" lon="15.202224817646064"><ele>192.0</ele><time>2026-05-03T07:59:05Z</time></trkpt><trkpt lat="50.11664825715641" lon="15.201532669323889"><ele>192.0</ele><time>2026-05-03T07:59:06Z</time></trkpt><trkpt lat="50.116702919522595" lon="15.200838461799345"><ele>191.0</ele><time>2026-05-03T07:59:07Z</time></trkpt><trkpt lat="50.11675288632764" lon="15.200135281189267"><ele>193.0</ele><time>2026-05-03T07:59:08Z</time></trkpt><trkpt lat="50.116801316981565" lon="15.199424263168847"><ele>192.0</ele><time>2026-05-03T07:59:09Z</time></trkpt><trkpt lat="50.1168502117267" lon="15.198711493997285"><ele>192.0</ele><time>2026-05-03T07:59:09.999Z</time></trkpt><trkpt lat="50.116900134660874" lon="15.197995613526299"><ele>192.0</ele><time>2026-05-03T07:59:10.999Z</time></trkpt><trkpt lat="50.11695225885545" lon="15.197276398686029"><ele>192.0</ele><time>2026-05-03T07:59:11.999Z</time></trkpt><trkpt lat="50.11700802892967" lon="15.196551308095714"><ele>191.0</ele><time>2026-05-03T07:59:12.999Z</time></trkpt><trkpt lat="50.11706854280169" lon="15.195831141643986"><ele>191.0</ele><time>2026-05-03T07:59:13.999Z</time></trkpt><trkpt lat="50.11713269308801" lon="15.195124416997146"><ele>191.0</ele><time>2026-05-03T07:59:14.999Z</time></trkpt><trkpt lat="50.11719616235012" lon="15.194489430163875"><ele>191.0</ele><time>2026-05-03T07:59:15.999Z</time></trkpt><trkpt lat="50.117259714350126" lon="15.193886088071295"><ele>191.0</ele><time>2026-05-03T07:59:16.999Z</time></trkpt><trkpt lat="50.117321692961" lon="15.193278789187787"><ele>191.0</ele><time>2026-05-03T07:59:17.999Z</time></trkpt><trkpt lat="50.117385726854664" lon="15.192675905539595"><ele>190.5</ele><time>2026-05-03T07:59:18.999Z</time></trkpt><trkpt lat="50.117466152531854" lon="15.192047877133135"><ele>190.0</ele><time>2026-05-03T07:59:19.999Z</time></trkpt><trkpt lat="50.11755544461526" lon="15.191399759177813"><ele>190.0</ele><time>2026-05-03T07:59:20.999Z</time></trkpt><trkpt lat="50.117637501770716" lon="15.19074625933508"><ele>190.0</ele><time>2026-05-03T07:59:21.999Z</time></trkpt><trkpt lat="50.11770875562544" lon="15.190078142584062"><ele>190.0</ele><time>2026-05-03T07:59:22.999Z</time></trkpt><trkpt lat="50.11778523089253" lon="15.189408833359396"><ele>190.0</ele><time>2026-05-03T07:59:23.999Z</time></trkpt><trkpt lat="50.117872593839955" lon="15.188741425517126"><ele>190.5</ele><time>2026-05-03T07:59:24.999Z</time></trkpt><trkpt lat="50.11796596146607" lon="15.188066065988503"><ele>191.0</ele><time>2026-05-03T07:59:25.999Z</time></trkpt><trkpt lat="50.1180615959504" lon="15.187382623725176"><ele>191.0</ele><time>2026-05-03T07:59:26.999Z</time></trkpt><trkpt lat="50.11815495987718" lon="15.186700641446656"><ele>191.0</ele><time>2026-05-03T07:59:27.999Z</time></trkpt><trkpt lat="50.11824912344729" lon="15.186012287220557"><ele>189.0</ele><time>2026-05-03T07:59:28.999Z</time></trkpt><trkpt lat="50.11834663130123" lon="15.185313116625275"><ele>190.0</ele><time>2026-05-03T07:59:29.999Z</time></trkpt><trkpt lat="50.11844503630144" lon="15.184595527886055"><ele>189.0</ele><time>2026-05-03T07:59:30.999Z</time></trkpt><trkpt lat="50.11854806788333" lon="15.183883474444425"><ele>189.0</ele><time>2026-05-03T07:59:31.999Z</time></trkpt><trkpt lat="50.11863803482164" lon="15.183195615753418"><ele>189.0</ele><time>2026-05-03T07:59:32.999Z</time></trkpt><trkpt lat="50.118711318843864" lon="15.182555017524791"><ele>189.0</ele><time>2026-05-03T07:59:33.999Z</time></trkpt><trkpt lat="50.11877785390754" lon="15.181890303145602"><ele>189.0</ele><time>2026-05-03T07:59:34.999Z</time></trkpt><trkpt lat="50.11883911898464" lon="15.181204927757321"><ele>189.0</ele><time>2026-05-03T07:59:35.999Z</time></trkpt><trkpt lat="50.11889410858887" lon="15.18050627225669"><ele>190.0</ele><time>2026-05-03T07:59:36.999Z</time></trkpt><trkpt lat="50.118943056411794" lon="15.179802445874133"><ele>190.0</ele><time>2026-05-03T07:59:37.999Z</time></trkpt><trkpt lat="50.11898514247685" lon="15.179101401554489"><ele>188.0</ele><time>2026-05-03T07:59:38.999Z</time></trkpt><trkpt lat="50.11901728795711" lon="15.17838799861819"><ele>186.0</ele><time>2026-05-03T07:59:39.999Z</time></trkpt><trkpt lat="50.119047666697035" lon="15.177682247640556"><ele>192.0</ele><time>2026-05-03T07:59:40.999Z</time></trkpt><trkpt lat="50.11906885737857" lon="15.176978116081987"><ele>196.0</ele><time>2026-05-03T07:59:41.999Z</time></trkpt><trkpt lat="50.119085308901305" lon="15.176271520725079"><ele>197.0</ele><time>2026-05-03T07:59:42.999Z</time></trkpt><trkpt lat="50.119095417978805" lon="15.175564176581434"><ele>198.0</ele><time>2026-05-03T07:59:43.999Z</time></trkpt><trkpt lat="50.11909992977767" lon="15.174850349391612"><ele>198.0</ele><time>2026-05-03T07:59:44.999Z</time></trkpt><trkpt lat="50.119096153301555" lon="15.174122940673652"><ele>200.0</ele><time>2026-05-03T07:59:45.999Z</time></trkpt><trkpt lat="50.11908454282584" lon="15.173380612804602"><ele>198.0</ele><time>2026-05-03T07:59:46.999Z</time></trkpt><trkpt lat="50.11906621199042" lon="15.17265094087055"><ele>196.0</ele><time>2026-05-03T07:59:47.999Z</time></trkpt><trkpt lat="50.11904161257417" lon="15.171965508679673"><ele>194.0</ele><time>2026-05-03T07:59:48.999Z</time></trkpt><trkpt lat="50.11900972100173" lon="15.171275881739279"><ele>195.0</ele><time>2026-05-03T07:59:49.999Z</time></trkpt><trkpt lat="50.11896764541255" lon="15.170591343578755"><ele>196.0</ele><time>2026-05-03T07:59:50.999Z</time></trkpt><trkpt lat="50.118919333018816" lon="15.169903762369746"><ele>195.5</ele><time>2026-05-03T07:59:51.999Z</time></trkpt><trkpt lat="50.118875351596685" lon="15.169207691648012"><ele>195.0</ele><time>2026-05-03T07:59:52.999Z</time></trkpt><trkpt lat="50.11883940406455" lon="15.168500376650492"><ele>194.0</ele><time>2026-05-03T07:59:53.999Z</time></trkpt><trkpt lat="50.11881512803593" lon="15.1678191896957"><ele>193.0</ele><time>2026-05-03T07:59:54.999Z</time></trkpt><trkpt lat="50.11879252826818" lon="15.167218694966664"><ele>191.5</ele><time>2026-05-03T07:59:55.999Z</time></trkpt><trkpt lat="50.118764957076" lon="15.166671885233422"><ele>190.0</ele><time>2026-05-03T07:59:56.999Z</time></trkpt><trkpt lat="50.118737432424204" lon="15.166159116759305"><ele>191.0</ele><time>2026-05-03T07:59:57.999Z</time></trkpt><trkpt lat="50.11871162867732" lon="15.165672873341036"><ele>192.0</ele><time>2026-05-03T07:59:58.999Z</time></trkpt><trkpt lat="50.118688285942675" lon="15.165203106002455"><ele>192.5</ele><time>2026-05-03T07:59:59.999Z</time></trkpt><trkpt lat="50.11866499156566" lon="15.16474232128349"><ele>193.0</ele><time>2026-05-03T08:00:00.999Z</time></trkpt><trkpt lat="50.118641702389255" lon="15.164283557430029"><ele>193.0</ele><time>2026-05-03T08:00:01.999Z</time></trkpt><trkpt lat="50.118617190328685" lon="15.163825254758349"><ele>193.0</ele><time>2026-05-03T08:00:02.999Z</time></trkpt><trkpt lat="50.11859121537725" lon="15.163362270785406"><ele>192.5</ele><time>2026-05-03T08:00:03.999Z</time></trkpt><trkpt lat="50.11855999961238" lon="15.162869809112387"><ele>192.0</ele><time>2026-05-03T08:00:05Z</time></trkpt><trkpt lat="50.11852421725386" lon="15.162365054145036"><ele>192.0</ele><time>2026-05-03T08:00:06Z</time></trkpt><trkpt lat="50.118488267464954" lon="15.161848990176578"><ele>192.0</ele><time>2026-05-03T08:00:07Z</time></trkpt><trkpt lat="50.11845599879998" lon="15.161320366346946"><ele>191.0</ele><time>2026-05-03T08:00:08Z</time></trkpt><trkpt lat="50.11842952408225" lon="15.160795108346804"><ele>190.0</ele><time>2026-05-03T08:00:09Z</time></trkpt><trkpt lat="50.118400183393746" lon="15.160259842663718"><ele>191.5</ele><time>2026-05-03T08:00:10Z</time></trkpt><trkpt lat="50.11837222470685" lon="15.159726898241882"><ele>193.0</ele><time>2026-05-03T08:00:11Z</time></trkpt><trkpt lat="50.11834329694994" lon="15.159193029146904"><ele>193.0</ele><time>2026-05-03T08:00:12Z</time></trkpt><trkpt lat="50.118325111565305" lon="15.15866040038297"><ele>193.0</ele><time>2026-05-03T08:00:13Z</time></trkpt><trkpt lat="50.11831246172215" lon="15.158129283536278"><ele>193.0</ele><time>2026-05-03T08:00:14Z</time></trkpt><trkpt lat="50.11829526687236" lon="15.157592484137155"><ele>193.0</ele><time>2026-05-03T08:00:15Z</time></trkpt><trkpt lat="50.11826818555968" lon="15.15704386699395"><ele>193.0</ele><time>2026-05-03T08:00:16Z</time></trkpt><trkpt lat="50.11823620119154" lon="15.156470924635283"><ele>193.0</ele><time>2026-05-03T08:00:17Z</time></trkpt><trkpt lat="50.118202723178" lon="15.155885407689132"><ele>194.0</ele><time>2026-05-03T08:00:18Z</time></trkpt><trkpt lat="50.118170187342336" lon="15.155290064355462"><ele>195.0</ele><time>2026-05-03T08:00:19Z</time></trkpt><trkpt lat="50.118132093219806" lon="15.154685230964365"><ele>195.0</ele><time>2026-05-03T08:00:20Z</time></trkpt><trkpt lat="50.11808663630732" lon="15.154069368501991"><ele>195.0</ele><time>2026-05-03T08:00:21Z</time></trkpt><trkpt lat="50.118041545951414" lon="15.153447933096244"><ele>192.0</ele><time>2026-05-03T08:00:22Z</time></trkpt><trkpt lat="50.11799930765147" lon="15.152804161054073"><ele>189.0</ele><time>2026-05-03T08:00:23Z</time></trkpt><trkpt lat="50.117964709944125" lon="15.15215224399906"><ele>188.5</ele><time>2026-05-03T08:00:24Z</time></trkpt><trkpt lat="50.11793365573736" lon="15.151490932356214"><ele>188.0</ele><time>2026-05-03T08:00:25Z</time></trkpt><trkpt lat="50.117902332356664" lon="15.150823165834327"><ele>188.0</ele><time>2026-05-03T08:00:26Z</time></trkpt><trkpt lat="50.11786933861551" lon="15.150153112614326"><ele>188.0</ele><time>2026-05-03T08:00:27Z</time></trkpt><trkpt lat="50.11783700925487" lon="15.149469639383229"><ele>188.0</ele><time>2026-05-03T08:00:28Z</time></trkpt><trkpt lat="50.11780257942775" lon="15.148785107438757"><ele>188.0</ele><time>2026-05-03T08:00:29Z</time></trkpt><trkpt lat="50.117767408420114" lon="15.148090331486147"><ele>188.0</ele><time>2026-05-03T08:00:30Z</time></trkpt><trkpt lat="50.117733327584965" lon="15.147394929470963"><ele>188.0</ele><time>2026-05-03T08:00:31Z</time></trkpt><trkpt lat="50.117702088825695" lon="15.14670243410233"><ele>188.0</ele><time>2026-05-03T08:00:32Z</time></trkpt><trkpt lat="50.11767403661774" lon="15.146010336447164"><ele>188.0</ele><time>2026-05-03T08:00:33Z</time></trkpt><trkpt lat="50.11764864282408" lon="15.145317036875143"><ele>188.0</ele><time>2026-05-03T08:00:34Z</time></trkpt><trkpt lat="50.11762129876604" lon="15.14461927621245"><ele>188.0</ele><time>2026-05-03T08:00:35Z</time></trkpt><trkpt lat="50.11759535030401" lon="15.143919404626642"><ele>188.0</ele><time>2026-05-03T08:00:36Z</time></trkpt><trkpt lat="50.117571974324726" lon="15.143220182101672"><ele>188.0</ele><time>2026-05-03T08:00:37Z</time></trkpt><trkpt lat="50.117552281555405" lon="15.14252044335062"><ele>191.0</ele><time>2026-05-03T08:00:38Z</time></trkpt><trkpt lat="50.11753511600444" lon="15.141811449923013"><ele>190.0</ele><time>2026-05-03T08:00:39Z</time></trkpt><trkpt lat="50.11752107750784" lon="15.141109173426111"><ele>190.5</ele><time>2026-05-03T08:00:40Z</time></trkpt><trkpt lat="50.11750966242841" lon="15.140415193989993"><ele>191.0</ele><time>2026-05-03T08:00:41Z</time></trkpt><trkpt lat="50.11750122382693" lon="15.139719697687"><ele>189.5</ele><time>2026-05-03T08:00:42Z</time></trkpt><trkpt lat="50.11749820089052" lon="15.139039968283313"><ele>188.0</ele><time>2026-05-03T08:00:43Z</time></trkpt><trkpt lat="50.1174965894909" lon="15.138392254851698"><ele>188.0</ele><time>2026-05-03T08:00:44Z</time></trkpt><trkpt lat="50.11749776213363" lon="15.137766244187988"><ele>188.0</ele><time>2026-05-03T08:00:45Z</time></trkpt><trkpt lat="50.117504210163226" lon="15.137124905746987"><ele>189.5</ele><time>2026-05-03T08:00:46Z</time></trkpt><trkpt lat="50.11752080849428" lon="15.13646870930223"><ele>191.0</ele><time>2026-05-03T08:00:47Z</time></trkpt><trkpt lat="50.11753893341812" lon="15.13582905469429"><ele>192.0</ele><time>2026-05-03T08:00:48Z</time></trkpt><trkpt lat="50.1175541089805" lon="15.135202069473184"><ele>193.0</ele><time>2026-05-03T08:00:49Z</time></trkpt><trkpt lat="50.117567057370294" lon="15.134576738638032"><ele>194.0</ele><time>2026-05-03T08:00:50Z</time></trkpt><trkpt lat="50.117575245395024" lon="15.133925980696748"><ele>195.0</ele><time>2026-05-03T08:00:51Z</time></trkpt><trkpt lat="50.117584809067495" lon="15.133255740163158"><ele>194.5</ele><time>2026-05-03T08:00:52Z</time></trkpt><trkpt lat="50.11759957941746" lon="15.132572684927249"><ele>194.0</ele><time>2026-05-03T08:00:53Z</time></trkpt><trkpt lat="50.117617661180994" lon="15.131891246179878"><ele>194.0</ele><time>2026-05-03T08:00:54Z</time></trkpt><trkpt lat="50.11763747347968" lon="15.13120513281007"><ele>194.0</ele><time>2026-05-03T08:00:55Z</time></trkpt><trkpt lat="50.11765935428151" lon="15.130517459783873"><ele>193.0</ele><time>2026-05-03T08:00:56Z</time></trkpt><trkpt lat="50.11768323180102" lon="15.129828475213975"><ele>192.0</ele><time>2026-05-03T08:00:57Z</time></trkpt><trkpt lat="50.11771101080454" lon="15.129142581166976"><ele>193.5</ele><time>2026-05-03T08:00:58Z</time></trkpt><trkpt lat="50.11774577805758" lon="15.128452068683625"><ele>195.0</ele><time>2026-05-03T08:00:59Z</time></trkpt><trkpt lat="50.11778551164262" lon="15.12774465673169"><ele>197.0</ele><time>2026-05-03T08:01:00Z</time></trkpt><trkpt lat="50.117829516929156" lon="15.127033207182425"><ele>195.5</ele><time>2026-05-03T08:01:01Z</time></trkpt><trkpt lat="50.11787409558612" lon="15.126361634187942"><ele>194.0</ele><time>2026-05-03T08:01:02Z</time></trkpt><trkpt lat="50.11791645169161" lon="15.125746083599125"><ele>193.5</ele><time>2026-05-03T08:01:03Z</time></trkpt><trkpt lat="50.11796118329558" lon="15.125145771446928"><ele>193.0</ele><time>2026-05-03T08:01:04Z</time></trkpt><trkpt lat="50.11800796934561" lon="15.124539181032167"><ele>195.0</ele><time>2026-05-03T08:01:05Z</time></trkpt><trkpt lat="50.118048941285046" lon="15.123941551883034"><ele>197.0</ele><time>2026-05-03T08:01:06Z</time></trkpt><trkpt lat="50.11810431069264" lon="15.123326104858553"><ele>199.0</ele><time>2026-05-03T08:01:07Z</time></trkpt><trkpt lat="50.11816132762108" lon="15.122707156585095"><ele>201.0</ele><time>2026-05-03T08:01:08Z</time></trkpt><trkpt lat="50.11821824520263" lon="15.122076423610645"><ele>199.0</ele><time>2026-05-03T08:01:09Z</time></trkpt><trkpt lat="50.11827676044454" lon="15.121450591471548"><ele>197.0</ele><time>2026-05-03T08:01:10Z</time></trkpt><trkpt lat="50.11833608885043" lon="15.12083069374087"><ele>197.5</ele><time>2026-05-03T08:01:11Z</time></trkpt><trkpt lat="50.11839578748062" lon="15.120218550821663"><ele>198.0</ele><time>2026-05-03T08:01:12Z</time></trkpt><trkpt lat="50.11845365748636" lon="15.119619977206641"><ele>199.0</ele><time>2026-05-03T08:01:13Z</time></trkpt><trkpt lat="50.11851174944877" lon="15.119040558126928"><ele>200.0</ele><time>2026-05-03T08:01:14Z</time></trkpt><trkpt lat="50.11857265204951" lon="15.118465836914849"><ele>200.5</ele><time>2026-05-03T08:01:15Z</time></trkpt><trkpt lat="50.118635312875405" lon="15.117890037610865"><ele>201.0</ele><time>2026-05-03T08:01:16Z</time></trkpt><trkpt lat="50.11870106020881" lon="15.117291269612029"><ele>201.5</ele><time>2026-05-03T08:01:17Z</time></trkpt><trkpt lat="50.118767689036765" lon="15.1166712472686"><ele>202.0</ele><time>2026-05-03T08:01:18Z</time></trkpt><trkpt lat="50.118836103692054" lon="15.116035492574657"><ele>202.0</ele><time>2026-05-03T08:01:19Z</time></trkpt><trkpt lat="50.11890676886248" lon="15.11539088940911"><ele>202.0</ele><time>2026-05-03T08:01:20Z</time></trkpt><trkpt lat="50.11898787199301" lon="15.11472924305063"><ele>198.5</ele><time>2026-05-03T08:01:21Z</time></trkpt><trkpt lat="50.11907267700139" lon="15.114064385198134"><ele>195.0</ele><time>2026-05-03T08:01:22Z</time></trkpt><trkpt lat="50.119160705613425" lon="15.113400820228563"><ele>194.5</ele><time>2026-05-03T08:01:23Z</time></trkpt><trkpt lat="50.11924978836206" lon="15.112732516527302"><ele>194.0</ele><time>2026-05-03T08:01:24Z</time></trkpt><trkpt lat="50.11933550736582" lon="15.112049267199286"><ele>190.0</ele><time>2026-05-03T08:01:25Z</time></trkpt><trkpt lat="50.119419744203626" lon="15.111349820725064"><ele>193.0</ele><time>2026-05-03T08:01:26Z</time></trkpt><trkpt lat="50.119495975794635" lon="15.110654953421049"><ele>193.0</ele><time>2026-05-03T08:01:27Z</time></trkpt><trkpt lat="50.11956515911332" lon="15.109944274555684"><ele>195.0</ele><time>2026-05-03T08:01:28Z</time></trkpt><trkpt lat="50.11963496451607" lon="15.10922555716538"><ele>192.0</ele><time>2026-05-03T08:01:29Z</time></trkpt><trkpt lat="50.11971101893474" lon="15.108511052033396"><ele>189.0</ele><time>2026-05-03T08:01:30Z</time></trkpt><trkpt lat="50.11979444418542" lon="15.107800513221706"><ele>188.0</ele><time>2026-05-03T08:01:31Z</time></trkpt><trkpt lat="50.119877066572556" lon="15.107089120780891"><ele>187.0</ele><time>2026-05-03T08:01:32Z</time></trkpt><trkpt lat="50.119957047098126" lon="15.106369279752542"><ele>188.0</ele><time>2026-05-03T08:01:33Z</time></trkpt><trkpt lat="50.120033600370355" lon="15.105652235975569"><ele>188.0</ele><time>2026-05-03T08:01:34Z</time></trkpt><trkpt lat="50.12010381101388" lon="15.105008456827616"><ele>188.0</ele><time>2026-05-03T08:01:35Z</time></trkpt><trkpt lat="50.120165881659794" lon="15.104425712400984"><ele>188.0</ele><time>2026-05-03T08:01:36Z</time></trkpt><trkpt lat="50.12022233180451" lon="15.103870126273923"><ele>188.0</ele><time>2026-05-03T08:01:37Z</time></trkpt><trkpt lat="50.12027870147385" lon="15.103322261085301"><ele>188.5</ele><time>2026-05-03T08:01:38Z</time></trkpt><trkpt lat="50.12033290847279" lon="15.10278826043136"><ele>189.0</ele><time>2026-05-03T08:01:39Z</time></trkpt><trkpt lat="50.12038425219399" lon="15.10227913968773"><ele>189.0</ele><time>2026-05-03T08:01:40Z</time></trkpt><trkpt lat="50.12043074707651" lon="15.101786648258855"><ele>189.0</ele><time>2026-05-03T08:01:41Z</time></trkpt><trkpt lat="50.120475381585536" lon="15.101306123904873"><ele>188.5</ele><time>2026-05-03T08:01:42Z</time></trkpt><trkpt lat="50.1205224896781" lon="15.10082761603453"><ele>188.0</ele><time>2026-05-03T08:01:43Z</time></trkpt><trkpt lat="50.12056391662586" lon="15.100336502525513"><ele>187.5</ele><time>2026-05-03T08:01:44Z</time></trkpt><trkpt lat="50.120602008020924" lon="15.099849101727267"><ele>187.0</ele><time>2026-05-03T08:01:45Z</time></trkpt><trkpt lat="50.120642723919" lon="15.099357785227658"><ele>187.5</ele><time>2026-05-03T08:01:46Z</time></trkpt><trkpt lat="50.12068541382492" lon="15.098870077973801"><ele>188.0</ele><time>2026-05-03T08:01:47Z</time></trkpt><trkpt lat="50.12072324534963" lon="15.098382563176795"><ele>187.5</ele><time>2026-05-03T08:01:48Z</time></trkpt><trkpt lat="50.12075480011023" lon="15.097889744798636"><ele>187.0</ele><time>2026-05-03T08:01:49Z</time></trkpt><trkpt lat="50.12078712532436" lon="15.097388865400452"><ele>187.0</ele><time>2026-05-03T08:01:50Z</time></trkpt><trkpt lat="50.120819985302" lon="15.09687551712995"><ele>187.0</ele><time>2026-05-03T08:01:51Z</time></trkpt><trkpt lat="50.12085124719778" lon="15.096358041550372"><ele>187.0</ele><time>2026-05-03T08:01:52Z</time></trkpt><trkpt lat="50.120881449981546" lon="15.0958364444126"><ele>187.0</ele><time>2026-05-03T08:01:53Z</time></trkpt><trkpt lat="50.120911034810334" lon="15.095309332402973"><ele>187.0</ele><time>2026-05-03T08:01:54Z</time></trkpt><trkpt lat="50.12094135021662" lon="15.094798328158692"><ele>187.0</ele><time>2026-05-03T08:01:55Z</time></trkpt><trkpt lat="50.120971379206075" lon="15.094288361172584"><ele>187.5</ele><time>2026-05-03T08:01:56Z</time></trkpt><trkpt lat="50.12099969717944" lon="15.093784554644769"><ele>188.0</ele><time>2026-05-03T08:01:57Z</time></trkpt><trkpt lat="50.12102437012908" lon="15.093284296778927"><ele>188.0</ele><time>2026-05-03T08:01:58Z</time></trkpt><trkpt lat="50.12104281924852" lon="15.09277484594664"><ele>188.0</ele><time>2026-05-03T08:01:59Z</time></trkpt><trkpt lat="50.12106163910948" lon="15.092251362607474"><ele>188.0</ele><time>2026-05-03T08:02:00Z</time></trkpt><trkpt lat="50.121084345366654" lon="15.091712516671182"><ele>188.0</ele><time>2026-05-03T08:02:01Z</time></trkpt><trkpt lat="50.12110875747584" lon="15.091151681858259"><ele>189.5</ele><time>2026-05-03T08:02:02Z</time></trkpt><trkpt lat="50.12112838211428" lon="15.09059078427054"><ele>191.0</ele><time>2026-05-03T08:02:03Z</time></trkpt><trkpt lat="50.12114477041879" lon="15.090013415136665"><ele>192.0</ele><time>2026-05-03T08:02:04Z</time></trkpt><trkpt lat="50.12115836556417" lon="15.089428211758257"><ele>193.0</ele><time>2026-05-03T08:02:05Z</time></trkpt><trkpt lat="50.121170164310264" lon="15.088849572515583"><ele>193.0</ele><time>2026-05-03T08:02:06Z</time></trkpt><trkpt lat="50.12118040424104" lon="15.088280906310802"><ele>193.0</ele><time>2026-05-03T08:02:07Z</time></trkpt><trkpt lat="50.12118932923701" lon="15.087721118825831"><ele>190.5</ele><time>2026-05-03T08:02:08Z</time></trkpt><trkpt lat="50.121197832119336" lon="15.087172596053609"><ele>188.0</ele><time>2026-05-03T08:02:09Z</time></trkpt><trkpt lat="50.12120240017995" lon="15.08663111481504"><ele>188.0</ele><time>2026-05-03T08:02:10Z</time></trkpt><trkpt lat="50.12120636738819" lon="15.086091894213366"><ele>188.0</ele><time>2026-05-03T08:02:11Z</time></trkpt><trkpt lat="50.121209888297855" lon="15.085540381225563"><ele>188.0</ele><time>2026-05-03T08:02:12Z</time></trkpt><trkpt lat="50.12121100795689" lon="15.084991364366875"><ele>188.0</ele><time>2026-05-03T08:02:13Z</time></trkpt><trkpt lat="50.121213044844765" lon="15.084438988035032"><ele>189.0</ele><time>2026-05-03T08:02:14Z</time></trkpt><trkpt lat="50.12121422442505" lon="15.08388384947326"><ele>190.0</ele><time>2026-05-03T08:02:15Z</time></trkpt><trkpt lat="50.12121175421552" lon="15.083335960035631"><ele>190.0</ele><time>2026-05-03T08:02:16Z</time></trkpt><trkpt lat="50.12120418484816" lon="15.082780168578854"><ele>190.0</ele><time>2026-05-03T08:02:17Z</time></trkpt><trkpt lat="50.12119837983591" lon="15.082225341615949"><ele>190.0</ele><time>2026-05-03T08:02:18Z</time></trkpt><trkpt lat="50.12119192722202" lon="15.081673172642896"><ele>190.0</ele><time>2026-05-03T08:02:19Z</time></trkpt><trkpt lat="50.12118591817203" lon="15.081115481250576"><ele>189.5</ele><time>2026-05-03T08:02:20Z</time></trkpt><trkpt lat="50.121179482933265" lon="15.08055707427289"><ele>189.0</ele><time>2026-05-03T08:02:21Z</time></trkpt><trkpt lat="50.12117278101549" lon="15.079994399633183"><ele>189.5</ele><time>2026-05-03T08:02:22Z</time></trkpt><trkpt lat="50.121165182011" lon="15.07943340112323"><ele>190.0</ele><time>2026-05-03T08:02:23Z</time></trkpt><trkpt lat="50.12115527378676" lon="15.078880338521309"><ele>190.0</ele><time>2026-05-03T08:02:24Z</time></trkpt><trkpt lat="50.12114342161122" lon="15.078318442507243"><ele>190.0</ele><time>2026-05-03T08:02:25Z</time></trkpt><trkpt lat="50.12113261928289" lon="15.077750899299797"><ele>189.0</ele><time>2026-05-03T08:02:26Z</time></trkpt><trkpt lat="50.12112323408446" lon="15.077184744095849"><ele>188.0</ele><time>2026-05-03T08:02:27Z</time></trkpt><trkpt lat="50.12111560905155" lon="15.076621151942417"><ele>188.0</ele><time>2026-05-03T08:02:28Z</time></trkpt><trkpt lat="50.121109514898265" lon="15.07606982112463"><ele>188.0</ele><time>2026-05-03T08:02:29Z</time></trkpt><trkpt lat="50.12110554496228" lon="15.075514078088215"><ele>188.0</ele><time>2026-05-03T08:02:30Z</time></trkpt><trkpt lat="50.121103193534346" lon="15.074955127966547"><ele>188.0</ele><time>2026-05-03T08:02:31Z</time></trkpt><trkpt lat="50.12110315779299" lon="15.074392822365889"><ele>188.0</ele><time>2026-05-03T08:02:32Z</time></trkpt><trkpt lat="50.12110169188028" lon="15.073828040834707"><ele>188.0</ele><time>2026-05-03T08:02:33Z</time></trkpt><trkpt lat="50.12109728913151" lon="15.07326319148045"><ele>188.0</ele><time>2026-05-03T08:02:34Z</time></trkpt><trkpt lat="50.12109160548987" lon="15.072699972852117"><ele>188.0</ele><time>2026-05-03T08:02:35Z</time></trkpt><trkpt lat="50.121084868520434" lon="15.072131703907035"><ele>190.0</ele><time>2026-05-03T08:02:36Z</time></trkpt><trkpt lat="50.12107761297411" lon="15.07156346167895"><ele>192.0</ele><time>2026-05-03T08:02:37Z</time></trkpt><trkpt lat="50.121071316287264" lon="15.070994806187612"><ele>191.5</ele><time>2026-05-03T08:02:38Z</time></trkpt><trkpt lat="50.12106577665988" lon="15.070427113426621"><ele>191.0</ele><time>2026-05-03T08:02:39Z</time></trkpt><trkpt lat="50.1210627963926" lon="15.069864805582826"><ele>189.5</ele><time>2026-05-03T08:02:40Z</time></trkpt><trkpt lat="50.12106118720566" lon="15.069301789504856"><ele>188.0</ele><time>2026-05-03T08:02:41Z</time></trkpt><trkpt lat="50.12106081573312" lon="15.068739682684596"><ele>187.5</ele><time>2026-05-03T08:02:42Z</time></trkpt><trkpt lat="50.12106812210308" lon="15.068183595533277"><ele>187.0</ele><time>2026-05-03T08:02:43Z</time></trkpt><trkpt lat="50.12107589007108" lon="15.067617959742327"><ele>187.0</ele><time>2026-05-03T08:02:44Z</time></trkpt><trkpt lat="50.12108561225336" lon="15.06705270238864"><ele>187.0</ele><time>2026-05-03T08:02:45Z</time></trkpt><trkpt lat="50.121091114605036" lon="15.06648792264312"><ele>188.0</ele><time>2026-05-03T08:02:46Z</time></trkpt><trkpt lat="50.12109031365673" lon="15.065917647237269"><ele>189.0</ele><time>2026-05-03T08:02:47Z</time></trkpt><trkpt lat="50.12108627717767" lon="15.065347206138428"><ele>188.5</ele><time>2026-05-03T08:02:48Z</time></trkpt><trkpt lat="50.12108707521236" lon="15.064778749898695"><ele>188.0</ele><time>2026-05-03T08:02:49Z</time></trkpt><trkpt lat="50.12109908233937" lon="15.06421019998313"><ele>187.5</ele><time>2026-05-03T08:02:50Z</time></trkpt><trkpt lat="50.12112048641183" lon="15.063646366243441"><ele>187.0</ele><time>2026-05-03T08:02:51Z</time></trkpt><trkpt lat="50.1211499272974" lon="15.063088999018982"><ele>187.0</ele><time>2026-05-03T08:02:52Z</time></trkpt><trkpt lat="50.121182839011766" lon="15.062526336468325"><ele>187.0</ele><time>2026-05-03T08:02:53Z</time></trkpt><trkpt lat="50.12121724975675" lon="15.061968051169428"><ele>186.0</ele><time>2026-05-03T08:02:54Z</time></trkpt><trkpt lat="50.121249426876574" lon="15.061409505234407"><ele>185.0</ele><time>2026-05-03T08:02:55Z</time></trkpt><trkpt lat="50.12128202316868" lon="15.060851310256787"><ele>186.0</ele><time>2026-05-03T08:02:56Z</time></trkpt><trkpt lat="50.12131789812386" lon="15.06028870863064"><ele>187.0</ele><time>2026-05-03T08:02:57Z</time></trkpt><trkpt lat="50.12135717425872" lon="15.059726565375746"><ele>187.0</ele><time>2026-05-03T08:02:58Z</time></trkpt><trkpt lat="50.12139948324927" lon="15.05916060013541"><ele>187.0</ele><time>2026-05-03T08:02:59Z</time></trkpt><trkpt lat="50.12144654508458" lon="15.058593615486409"><ele>187.0</ele><time>2026-05-03T08:03:00Z</time></trkpt><trkpt lat="50.12149576773145" lon="15.058023954347618"><ele>187.0</ele><time>2026-05-03T08:03:01Z</time></trkpt><trkpt lat="50.1215477629341" lon="15.057460631925586"><ele>187.0</ele><time>2026-05-03T08:03:02Z</time></trkpt><trkpt lat="50.121600816896475" lon="15.056895821457742"><ele>187.0</ele><time>2026-05-03T08:03:03Z</time></trkpt><trkpt lat="50.12165519308624" lon="15.056324337906975"><ele>187.0</ele><time>2026-05-03T08:03:04Z</time></trkpt><trkpt lat="50.12171021419396" lon="15.05575135742014"><ele>187.0</ele><time>2026-05-03T08:03:05Z</time></trkpt><trkpt lat="50.121766354110285" lon="15.055177501610462"><ele>187.0</ele><time>2026-05-03T08:03:06Z</time></trkpt><trkpt lat="50.121822084325245" lon="15.054601382616287"><ele>187.0</ele><time>2026-05-03T08:03:07Z</time></trkpt><trkpt lat="50.12187872061642" lon="15.054028155991839"><ele>187.0</ele><time>2026-05-03T08:03:08Z</time></trkpt><trkpt lat="50.12193545195412" lon="15.053446453827792"><ele>187.0</ele><time>2026-05-03T08:03:09Z</time></trkpt><trkpt lat="50.121996047052185" lon="15.052871685116779"><ele>187.0</ele><time>2026-05-03T08:03:10Z</time></trkpt><trkpt lat="50.12205975116834" lon="15.052298487880796"><ele>187.0</ele><time>2026-05-03T08:03:11Z</time></trkpt><trkpt lat="50.12212461598748" lon="15.051720116359013"><ele>187.0</ele><time>2026-05-03T08:03:12Z</time></trkpt><trkpt lat="50.12218926602594" lon="15.0511402687704"><ele>187.0</ele><time>2026-05-03T08:03:13Z</time></trkpt><trkpt lat="50.12225563450744" lon="15.05056301337035"><ele>187.0</ele><time>2026-05-03T08:03:14Z</time></trkpt><trkpt lat="50.12231900833521" lon="15.049985409183478"><ele>187.0</ele><time>2026-05-03T08:03:15Z</time></trkpt><trkpt lat="50.1223924909482" lon="15.049404926601344"><ele>187.0</ele><time>2026-05-03T08:03:16Z</time></trkpt><trkpt lat="50.12246067852341" lon="15.048834436002728"><ele>187.0</ele><time>2026-05-03T08:03:17Z</time></trkpt><trkpt lat="50.12252926298617" lon="15.048262683203745"><ele>187.0</ele><time>2026-05-03T08:03:18Z</time></trkpt><trkpt lat="50.12259881662074" lon="15.047699413343016"><ele>187.0</ele><time>2026-05-03T08:03:19Z</time></trkpt><trkpt lat="50.12266169840949" lon="15.047131119267323"><ele>186.5</ele><time>2026-05-03T08:03:20Z</time></trkpt><trkpt lat="50.12271856944767" lon="15.046560787560706"><ele>186.0</ele><time>2026-05-03T08:03:21Z</time></trkpt><trkpt lat="50.12277464584331" lon="15.046004775837451"><ele>186.0</ele><time>2026-05-03T08:03:22Z</time></trkpt><trkpt lat="50.12282844867615" lon="15.045443211520217"><ele>186.0</ele><time>2026-05-03T08:03:23Z</time></trkpt><trkpt lat="50.122879478159625" lon="15.044876929542708"><ele>186.5</ele><time>2026-05-03T08:03:24Z</time></trkpt><trkpt lat="50.12293394137873" lon="15.044312927103983"><ele>187.0</ele><time>2026-05-03T08:03:25Z</time></trkpt><trkpt lat="50.122984080128624" lon="15.043753303860385"><ele>187.5</ele><time>2026-05-03T08:03:26Z</time></trkpt><trkpt lat="50.12303769384886" lon="15.043185055359944"><ele>188.0</ele><time>2026-05-03T08:03:27Z</time></trkpt><trkpt lat="50.12309653354364" lon="15.042585873993156"><ele>187.5</ele><time>2026-05-03T08:03:28Z</time></trkpt><trkpt lat="50.12315329041357" lon="15.041955894706836"><ele>187.0</ele><time>2026-05-03T08:03:29Z</time></trkpt><trkpt lat="50.12320199344022" lon="15.041336068673404"><ele>187.0</ele><time>2026-05-03T08:03:30Z</time></trkpt><trkpt lat="50.12323556087875" lon="15.040759764744042"><ele>187.0</ele><time>2026-05-03T08:03:31Z</time></trkpt><trkpt lat="50.123272858667995" lon="15.04018937492591"><ele>186.5</ele><time>2026-05-03T08:03:32Z</time></trkpt><trkpt lat="50.123313120291876" lon="15.03959402186347"><ele>186.0</ele><time>2026-05-03T08:03:33Z</time></trkpt><trkpt lat="50.12335942969713" lon="15.039002013046925"><ele>186.0</ele><time>2026-05-03T08:03:34Z</time></trkpt><trkpt lat="50.12341820509523" lon="15.038400353139972"><ele>186.0</ele><time>2026-05-03T08:03:35Z</time></trkpt><trkpt lat="50.1234736945086" lon="15.03778226610652"><ele>186.0</ele><time>2026-05-03T08:03:36Z</time></trkpt><trkpt lat="50.12352383689544" lon="15.037149389533885"><ele>186.0</ele><time>2026-05-03T08:03:37Z</time></trkpt><trkpt lat="50.123563167856766" lon="15.036516355494218"><ele>186.0</ele><time>2026-05-03T08:03:38Z</time></trkpt><trkpt lat="50.12359662773161" lon="15.035872461830586"><ele>186.0</ele><time>2026-05-03T08:03:39Z</time></trkpt><trkpt lat="50.12362414142784" lon="15.035227248773557"><ele>186.0</ele><time>2026-05-03T08:03:40Z</time></trkpt><trkpt lat="50.12364966749517" lon="15.034594706001613"><ele>186.0</ele><time>2026-05-03T08:03:41Z</time></trkpt><trkpt lat="50.123672318373295" lon="15.033991196691797"><ele>186.0</ele><time>2026-05-03T08:03:42Z</time></trkpt><trkpt lat="50.123692756010264" lon="15.033393658047505"><ele>186.0</ele><time>2026-05-03T08:03:43Z</time></trkpt><trkpt lat="50.123706246201195" lon="15.03279680790168"><ele>186.0</ele><time>2026-05-03T08:03:44Z</time></trkpt><trkpt lat="50.12371741094604" lon="15.032179071724237"><ele>186.0</ele><time>2026-05-03T08:03:45Z</time></trkpt><trkpt lat="50.12373254354753" lon="15.03158689043686"><ele>186.0</ele><time>2026-05-03T08:03:46Z</time></trkpt><trkpt lat="50.12374822819171" lon="15.031001748622792"><ele>186.0</ele><time>2026-05-03T08:03:47Z</time></trkpt><trkpt lat="50.12376246827889" lon="15.030414615233965"><ele>187.0</ele><time>2026-05-03T08:03:48Z</time></trkpt><trkpt lat="50.12377326191876" lon="15.02984127435098"><ele>188.0</ele><time>2026-05-03T08:03:49Z</time></trkpt><trkpt lat="50.12378295077461" lon="15.029272497393722"><ele>188.0</ele><time>2026-05-03T08:03:50Z</time></trkpt><trkpt lat="50.12379129113048" lon="15.028690796776067"><ele>188.0</ele><time>2026-05-03T08:03:51Z</time></trkpt><trkpt lat="50.123802274773176" lon="15.028115965772791"><ele>187.0</ele><time>2026-05-03T08:03:52Z</time></trkpt><trkpt lat="50.1238180200403" lon="15.027541292537137"><ele>186.0</ele><time>2026-05-03T08:03:53Z</time></trkpt><trkpt lat="50.12382775422112" lon="15.026972930116957"><ele>186.0</ele><time>2026-05-03T08:03:54Z</time></trkpt><trkpt lat="50.1238269053544" lon="15.026406049340308"><ele>186.0</ele><time>2026-05-03T08:03:55Z</time></trkpt><trkpt lat="50.12381921877152" lon="15.025846125842538"><ele>186.0</ele><time>2026-05-03T08:03:56Z</time></trkpt><trkpt lat="50.12380779629812" lon="15.025272776403016"><ele>186.0</ele><time>2026-05-03T08:03:57Z</time></trkpt><trkpt lat="50.12379848845113" lon="15.02469859445293"><ele>185.0</ele><time>2026-05-03T08:03:58Z</time></trkpt><trkpt lat="50.123791885598" lon="15.024127711701144"><ele>184.0</ele><time>2026-05-03T08:03:59Z</time></trkpt><trkpt lat="50.12378175380696" lon="15.023571377711171"><ele>184.0</ele><time>2026-05-03T08:04:00Z</time></trkpt><trkpt lat="50.12376912313654" lon="15.022999026272538"><ele>184.0</ele><time>2026-05-03T08:04:01Z</time></trkpt><trkpt lat="50.12374682943211" lon="15.022430852679094"><ele>184.5</ele><time>2026-05-03T08:04:02Z</time></trkpt><trkpt lat="50.12371707535839" lon="15.021822033501788"><ele>185.0</ele><time>2026-05-03T08:04:03Z</time></trkpt><trkpt lat="50.12368484912399" lon="15.021190290895563"><ele>185.5</ele><time>2026-05-03T08:04:04Z</time></trkpt><trkpt lat="50.12365313459437" lon="15.020545746952996"><ele>186.0</ele><time>2026-05-03T08:04:05Z</time></trkpt><trkpt lat="50.12362282725973" lon="15.019903978168177"><ele>186.0</ele><time>2026-05-03T08:04:06Z</time></trkpt><trkpt lat="50.12359472162383" lon="15.019261684925038"><ele>186.0</ele><time>2026-05-03T08:04:07Z</time></trkpt><trkpt lat="50.12356937108552" lon="15.018607489844248"><ele>188.5</ele><time>2026-05-03T08:04:08Z</time></trkpt><trkpt lat="50.12353864280338" lon="15.017932531203954"><ele>191.0</ele><time>2026-05-03T08:04:09Z</time></trkpt><trkpt lat="50.123499019629726" lon="15.017227078990604"><ele>190.0</ele><time>2026-05-03T08:04:10Z</time></trkpt><trkpt lat="50.12344872304238" lon="15.016507507582409"><ele>187.0</ele><time>2026-05-03T08:04:11Z</time></trkpt><trkpt lat="50.123390706644685" lon="15.015767509910992"><ele>187.0</ele><time>2026-05-03T08:04:12Z</time></trkpt><trkpt lat="50.123331434347705" lon="15.015011673955886"><ele>187.0</ele><time>2026-05-03T08:04:13Z</time></trkpt><trkpt lat="50.123274661455696" lon="15.014240643134325"><ele>184.0</ele><time>2026-05-03T08:04:14Z</time></trkpt><trkpt lat="50.12321363226004" lon="15.013477507930572"><ele>185.0</ele><time>2026-05-03T08:04:15Z</time></trkpt><trkpt lat="50.12314926023323" lon="15.01271978328895"><ele>187.0</ele><time>2026-05-03T08:04:16Z</time></trkpt><trkpt lat="50.123081816856235" lon="15.011963506825548"><ele>185.0</ele><time>2026-05-03T08:04:17Z</time></trkpt><trkpt lat="50.12301020454636" lon="15.011208685242154"><ele>183.0</ele><time>2026-05-03T08:04:18Z</time></trkpt><trkpt lat="50.12293458315001" lon="15.010442316639212"><ele>184.0</ele><time>2026-05-03T08:04:19Z</time></trkpt><trkpt lat="50.122852090601285" lon="15.009674662315991"><ele>185.0</ele><time>2026-05-03T08:04:20Z</time></trkpt><trkpt lat="50.12276942934398" lon="15.008946034131844"><ele>185.0</ele><time>2026-05-03T08:04:21Z</time></trkpt><trkpt lat="50.122690846740824" lon="15.00828594980675"><ele>185.0</ele><time>2026-05-03T08:04:22Z</time></trkpt><trkpt lat="50.122612204134256" lon="15.007642707376263"><ele>185.0</ele><time>2026-05-03T08:04:23Z</time></trkpt><trkpt lat="50.122532635232055" lon="15.00698190161766"><ele>185.0</ele><time>2026-05-03T08:04:24Z</time></trkpt><trkpt lat="50.12244540302282" lon="15.00629965302675"><ele>186.0</ele><time>2026-05-03T08:04:25Z</time></trkpt><trkpt lat="50.122350910679636" lon="15.005608833319364"><ele>185.5</ele><time>2026-05-03T08:04:26Z</time></trkpt><trkpt lat="50.12225453530489" lon="15.004932766610036"><ele>185.0</ele><time>2026-05-03T08:04:27Z</time></trkpt><trkpt lat="50.122160409808146" lon="15.004285463805228"><ele>185.0</ele><time>2026-05-03T08:04:28Z</time></trkpt><trkpt lat="50.12206845757754" lon="15.003655248612763"><ele>185.0</ele><time>2026-05-03T08:04:29Z</time></trkpt><trkpt lat="50.12197684311313" lon="15.00301813109348"><ele>186.0</ele><time>2026-05-03T08:04:30Z</time></trkpt><trkpt lat="50.121877253959916" lon="15.002362191166135"><ele>187.0</ele><time>2026-05-03T08:04:31Z</time></trkpt><trkpt lat="50.1217710125547" lon="15.001706250044343"><ele>186.5</ele><time>2026-05-03T08:04:32Z</time></trkpt><trkpt lat="50.12166147154917" lon="15.00104738807636"><ele>186.0</ele><time>2026-05-03T08:04:33Z</time></trkpt><trkpt lat="50.12155126122137" lon="15.000378866161846"><ele>185.5</ele><time>2026-05-03T08:04:34Z</time></trkpt><trkpt lat="50.12144110435596" lon="14.999725124380307"><ele>185.0</ele><time>2026-05-03T08:04:35Z</time></trkpt><trkpt lat="50.12132396202737" lon="14.999058328645969"><ele>185.0</ele><time>2026-05-03T08:04:36Z</time></trkpt><trkpt lat="50.12120204651665" lon="14.998384645763407"><ele>185.0</ele><time>2026-05-03T08:04:37Z</time></trkpt><trkpt lat="50.121075753705796" lon="14.99770765938666"><ele>185.0</ele><time>2026-05-03T08:04:38Z</time></trkpt><trkpt lat="50.12094770664422" lon="14.997034296133508"><ele>185.0</ele><time>2026-05-03T08:04:39Z</time></trkpt><trkpt lat="50.12081626808214" lon="14.99635887900699"><ele>187.0</ele><time>2026-05-03T08:04:40Z</time></trkpt><trkpt lat="50.1206839944745" lon="14.99568749368018"><ele>187.0</ele><time>2026-05-03T08:04:41Z</time></trkpt><trkpt lat="50.12055283922" lon="14.995035903844846"><ele>187.0</ele><time>2026-05-03T08:04:42Z</time></trkpt><trkpt lat="50.120426078279756" lon="14.994415522962205"><ele>187.0</ele><time>2026-05-03T08:04:43Z</time></trkpt><trkpt lat="50.12030965933791" lon="14.993843300334062"><ele>187.0</ele><time>2026-05-03T08:04:44Z</time></trkpt><trkpt lat="50.120199547884745" lon="14.99330457259969"><ele>186.5</ele><time>2026-05-03T08:04:45Z</time></trkpt><trkpt lat="50.12009514671534" lon="14.99275902478"><ele>186.0</ele><time>2026-05-03T08:04:46Z</time></trkpt><trkpt lat="50.11997407671934" lon="14.992201061292128"><ele>186.0</ele><time>2026-05-03T08:04:47Z</time></trkpt><trkpt lat="50.1198536243852" lon="14.991621763694683"><ele>186.0</ele><time>2026-05-03T08:04:48Z</time></trkpt><trkpt lat="50.11973640176118" lon="14.991047940673589"><ele>186.0</ele><time>2026-05-03T08:04:49Z</time></trkpt><trkpt lat="50.11962162614833" lon="14.990475909001237"><ele>186.0</ele><time>2026-05-03T08:04:50Z</time></trkpt><trkpt lat="50.11950189650692" lon="14.989888035001155"><ele>186.0</ele><time>2026-05-03T08:04:51Z</time></trkpt><trkpt lat="50.11937715609382" lon="14.989298570944097"><ele>186.0</ele><time>2026-05-03T08:04:52Z</time></trkpt><trkpt lat="50.11925059858765" lon="14.988707241990621"><ele>186.0</ele><time>2026-05-03T08:04:53Z</time></trkpt><trkpt lat="50.119124088297916" lon="14.988119128459612"><ele>186.0</ele><time>2026-05-03T08:04:54Z</time></trkpt><trkpt lat="50.119005966202025" lon="14.98754706661325"><ele>186.0</ele><time>2026-05-03T08:04:55Z</time></trkpt><trkpt lat="50.11889709992341" lon="14.986977542246812"><ele>186.0</ele><time>2026-05-03T08:04:56Z</time></trkpt><trkpt lat="50.118786291204735" lon="14.98640306992613"><ele>186.0</ele><time>2026-05-03T08:04:57Z</time></trkpt><trkpt lat="50.118670475655485" lon="14.98582103196998"><ele>186.0</ele><time>2026-05-03T08:04:58Z</time></trkpt><trkpt lat="50.11855480335877" lon="14.985250780862414"><ele>186.0</ele><time>2026-05-03T08:04:59Z</time></trkpt><trkpt lat="50.11842924870131" lon="14.984667937851931"><ele>186.0</ele><time>2026-05-03T08:05:00Z</time></trkpt><trkpt lat="50.118289197087535" lon="14.984066491827823"><ele>186.5</ele><time>2026-05-03T08:05:01Z</time></trkpt><trkpt lat="50.11815757486961" lon="14.9834879772153"><ele>187.0</ele><time>2026-05-03T08:05:02Z</time></trkpt><trkpt lat="50.11804503987308" lon="14.982961961432837"><ele>187.5</ele><time>2026-05-03T08:05:03Z</time></trkpt><trkpt lat="50.117949286914424" lon="14.982464952383713"><ele>188.0</ele><time>2026-05-03T08:05:04Z</time></trkpt><trkpt lat="50.117857480323856" lon="14.98197443617563"><ele>188.0</ele><time>2026-05-03T08:05:05Z</time></trkpt><trkpt lat="50.11776525973034" lon="14.98147469181689"><ele>188.0</ele><time>2026-05-03T08:05:06Z</time></trkpt><trkpt lat="50.11767540497628" lon="14.980988498969271"><ele>188.0</ele><time>2026-05-03T08:05:07Z</time></trkpt><trkpt lat="50.11758441745048" lon="14.98049309509128"><ele>188.0</ele><time>2026-05-03T08:05:08Z</time></trkpt><trkpt lat="50.11749985883424" lon="14.980021712824106"><ele>187.5</ele><time>2026-05-03T08:05:09Z</time></trkpt><trkpt lat="50.117419411648434" lon="14.97955887213798"><ele>187.0</ele><time>2026-05-03T08:05:10Z</time></trkpt><trkpt lat="50.11733975755423" lon="14.979078527726397"><ele>187.0</ele><time>2026-05-03T08:05:11Z</time></trkpt><trkpt lat="50.11725754970643" lon="14.97858017314392"><ele>187.0</ele><time>2026-05-03T08:05:12Z</time></trkpt><trkpt lat="50.11717812580894" lon="14.978082057340782"><ele>187.0</ele><time>2026-05-03T08:05:13Z</time></trkpt><trkpt lat="50.11710604767692" lon="14.977608820263676"><ele>187.0</ele><time>2026-05-03T08:05:14Z</time></trkpt><trkpt lat="50.11703777023205" lon="14.977150787710885"><ele>187.0</ele><time>2026-05-03T08:05:15Z</time></trkpt><trkpt lat="50.116969824711745" lon="14.976680740532979"><ele>187.0</ele><time>2026-05-03T08:05:16Z</time></trkpt><trkpt lat="50.11690644807404" lon="14.976210986688685"><ele>187.5</ele><time>2026-05-03T08:05:17Z</time></trkpt><trkpt lat="50.11684340350915" lon="14.975721678231096"><ele>188.0</ele><time>2026-05-03T08:05:18Z</time></trkpt><trkpt lat="50.116780875175834" lon="14.975197782030513"><ele>188.0</ele><time>2026-05-03T08:05:19Z</time></trkpt><trkpt lat="50.116721627823" lon="14.974662113653652"><ele>188.0</ele><time>2026-05-03T08:05:20Z</time></trkpt><trkpt lat="50.11666134157222" lon="14.974116153657695"><ele>188.0</ele><time>2026-05-03T08:05:21Z</time></trkpt><trkpt lat="50.116600082868544" lon="14.97356601009861"><ele>188.0</ele><time>2026-05-03T08:05:22Z</time></trkpt><trkpt lat="50.11654492510576" lon="14.973026437445908"><ele>190.0</ele><time>2026-05-03T08:05:23Z</time></trkpt><trkpt lat="50.116495979933724" lon="14.972491906159274"><ele>192.0</ele><time>2026-05-03T08:05:24Z</time></trkpt><trkpt lat="50.11645032073334" lon="14.971966546565298"><ele>191.5</ele><time>2026-05-03T08:05:25Z</time></trkpt><trkpt lat="50.11641190764519" lon="14.971444881671728"><ele>191.0</ele><time>2026-05-03T08:05:26Z</time></trkpt><trkpt lat="50.11637217653097" lon="14.970918225471552"><ele>190.0</ele><time>2026-05-03T08:05:27Z</time></trkpt><trkpt lat="50.11633569049893" lon="14.970379300125048"><ele>189.0</ele><time>2026-05-03T08:05:28Z</time></trkpt><trkpt lat="50.11629995077879" lon="14.969825180356867"><ele>189.0</ele><time>2026-05-03T08:05:29Z</time></trkpt><trkpt lat="50.116268691262924" lon="14.969260450288486"><ele>189.0</ele><time>2026-05-03T08:05:30Z</time></trkpt><trkpt lat="50.116240318812096" lon="14.96868420518903"><ele>189.0</ele><time>2026-05-03T08:05:31Z</time></trkpt><trkpt lat="50.116212716588414" lon="14.96808347442068"><ele>189.0</ele><time>2026-05-03T08:05:32Z</time></trkpt><trkpt lat="50.11618864386141" lon="14.967484895812339"><ele>189.5</ele><time>2026-05-03T08:05:33Z</time></trkpt><trkpt lat="50.11616926395504" lon="14.966839763439658"><ele>190.0</ele><time>2026-05-03T08:05:34Z</time></trkpt><trkpt lat="50.1161551708169" lon="14.966166676871087"><ele>190.0</ele><time>2026-05-03T08:05:35Z</time></trkpt><trkpt lat="50.11614721806507" lon="14.965477716429191"><ele>190.0</ele><time>2026-05-03T08:05:36Z</time></trkpt><trkpt lat="50.1161438527688" lon="14.96479933940767"><ele>190.5</ele><time>2026-05-03T08:05:37Z</time></trkpt><trkpt lat="50.11614640329141" lon="14.964137097659112"><ele>191.0</ele><time>2026-05-03T08:05:38Z</time></trkpt><trkpt lat="50.11615600136382" lon="14.963476476325578"><ele>191.0</ele><time>2026-05-03T08:05:39Z</time></trkpt><trkpt lat="50.11616852364086" lon="14.962798887838497"><ele>191.0</ele><time>2026-05-03T08:05:40Z</time></trkpt><trkpt lat="50.11618709436532" lon="14.962102191046602"><ele>190.0</ele><time>2026-05-03T08:05:41Z</time></trkpt><trkpt lat="50.11621468360047" lon="14.961397372888145"><ele>190.0</ele><time>2026-05-03T08:05:42Z</time></trkpt><trkpt lat="50.11624882861419" lon="14.96068437942233"><ele>190.0</ele><time>2026-05-03T08:05:43Z</time></trkpt><trkpt lat="50.116287680408604" lon="14.95996779568447"><ele>190.0</ele><time>2026-05-03T08:05:44Z</time></trkpt><trkpt lat="50.11632730733798" lon="14.959245704282734"><ele>192.0</ele><time>2026-05-03T08:05:45Z</time></trkpt><trkpt lat="50.11637277839501" lon="14.958534208713589"><ele>192.0</ele><time>2026-05-03T08:05:46Z</time></trkpt><trkpt lat="50.11642480387447" lon="14.95781843971411"><ele>191.0</ele><time>2026-05-03T08:05:47Z</time></trkpt><trkpt lat="50.116481425378524" lon="14.957106198170623"><ele>191.0</ele><time>2026-05-03T08:05:48Z</time></trkpt><trkpt lat="50.11654804304604" lon="14.956396251787632"><ele>193.0</ele><time>2026-05-03T08:05:49Z</time></trkpt><trkpt lat="50.11662507090769" lon="14.955674386643224"><ele>193.0</ele><time>2026-05-03T08:05:50Z</time></trkpt><trkpt lat="50.116707664073225" lon="14.954942715900238"><ele>193.0</ele><time>2026-05-03T08:05:51Z</time></trkpt><trkpt lat="50.116793816470974" lon="14.954205805939933"><ele>192.0</ele><time>2026-05-03T08:05:52Z</time></trkpt><trkpt lat="50.116885211448505" lon="14.953472912748092"><ele>192.0</ele><time>2026-05-03T08:05:53Z</time></trkpt><trkpt lat="50.116982043873705" lon="14.952769069890428"><ele>192.5</ele><time>2026-05-03T08:05:54Z</time></trkpt><trkpt lat="50.11708187244781" lon="14.9520929477202"><ele>193.0</ele><time>2026-05-03T08:05:55Z</time></trkpt><trkpt lat="50.11718518139801" lon="14.951416238403864"><ele>194.0</ele><time>2026-05-03T08:05:56Z</time></trkpt><trkpt lat="50.11729692669735" lon="14.950737109520448"><ele>193.5</ele><time>2026-05-03T08:05:57Z</time></trkpt><trkpt lat="50.11741339376611" lon="14.95006107082375"><ele>193.0</ele><time>2026-05-03T08:05:58Z</time></trkpt><trkpt lat="50.117533431148935" lon="14.949394114094776"><ele>193.0</ele><time>2026-05-03T08:05:59Z</time></trkpt><trkpt lat="50.11765298968114" lon="14.948740477350736"><ele>193.0</ele><time>2026-05-03T08:06:00Z</time></trkpt><trkpt lat="50.1177772114098" lon="14.948096729635514"><ele>193.5</ele><time>2026-05-03T08:06:01Z</time></trkpt><trkpt lat="50.11790866319472" lon="14.947455469297019"><ele>194.0</ele><time>2026-05-03T08:06:02Z</time></trkpt><trkpt lat="50.11805479059077" lon="14.94682151846209"><ele>194.5</ele><time>2026-05-03T08:06:03Z</time></trkpt><trkpt lat="50.11821146243294" lon="14.946206272011096"><ele>195.0</ele><time>2026-05-03T08:06:04Z</time></trkpt><trkpt lat="50.11835492090564" lon="14.945645711970453"><ele>196.0</ele><time>2026-05-03T08:06:05Z</time></trkpt><trkpt lat="50.11848185778777" lon="14.945124500030525"><ele>197.0</ele><time>2026-05-03T08:06:06Z</time></trkpt><trkpt lat="50.11860493364654" lon="14.94459521701133"><ele>198.5</ele><time>2026-05-03T08:06:07Z</time></trkpt><trkpt lat="50.118728205117065" lon="14.94406641337152"><ele>200.0</ele><time>2026-05-03T08:06:08Z</time></trkpt><trkpt lat="50.118854540514405" lon="14.943538913171501"><ele>198.5</ele><time>2026-05-03T08:06:09Z</time></trkpt><trkpt lat="50.118988345323054" lon="14.94300663494845"><ele>197.0</ele><time>2026-05-03T08:06:10Z</time></trkpt><trkpt lat="50.11913194151857" lon="14.942472184169954"><ele>197.0</ele><time>2026-05-03T08:06:11Z</time></trkpt><trkpt lat="50.119278284808885" lon="14.941936883096021"><ele>197.0</ele><time>2026-05-03T08:06:12Z</time></trkpt><trkpt lat="50.11942125399978" lon="14.941400052244473"><ele>200.5</ele><time>2026-05-03T08:06:13Z</time></trkpt><trkpt lat="50.11957194620034" lon="14.940834144144995"><ele>204.0</ele><time>2026-05-03T08:06:14Z</time></trkpt><trkpt lat="50.11972889744966" lon="14.940242511397356"><ele>204.0</ele><time>2026-05-03T08:06:15Z</time></trkpt><trkpt lat="50.119908252078915" lon="14.939598942422146"><ele>205.0</ele><time>2026-05-03T08:06:16Z</time></trkpt><trkpt lat="50.120083526821496" lon="14.938965945717943"><ele>206.0</ele><time>2026-05-03T08:06:17Z</time></trkpt><trkpt lat="50.120278345947575" lon="14.938299821563845"><ele>209.0</ele><time>2026-05-03T08:06:18Z</time></trkpt><trkpt lat="50.12047808937" lon="14.937626522728337"><ele>212.0</ele><time>2026-05-03T08:06:19Z</time></trkpt><trkpt lat="50.12067650541311" lon="14.93696230358916"><ele>210.0</ele><time>2026-05-03T08:06:20Z</time></trkpt><trkpt lat="50.120875617490235" lon="14.936309631658702"><ele>209.0</ele><time>2026-05-03T08:06:21Z</time></trkpt><trkpt lat="50.1210798643317" lon="14.935646264648723"><ele>211.0</ele><time>2026-05-03T08:06:22Z</time></trkpt><trkpt lat="50.12129086435062" lon="14.934975988688949"><ele>211.0</ele><time>2026-05-03T08:06:23Z</time></trkpt><trkpt lat="50.1215148825785" lon="14.934297234201967"><ele>206.0</ele><time>2026-05-03T08:06:24Z</time></trkpt><trkpt lat="50.121737797408635" lon="14.933618037886697"><ele>211.0</ele><time>2026-05-03T08:06:25Z</time></trkpt><trkpt lat="50.12193244062966" lon="14.932972697588243"><ele>211.0</ele><time>2026-05-03T08:06:26Z</time></trkpt><trkpt lat="50.12212140096726" lon="14.932315204908466"><ele>213.0</ele><time>2026-05-03T08:06:27Z</time></trkpt><trkpt lat="50.122311568344685" lon="14.931653223458339"><ele>208.0</ele><time>2026-05-03T08:06:28Z</time></trkpt><trkpt lat="50.122503555209" lon="14.931001818795593"><ele>208.0</ele><time>2026-05-03T08:06:29Z</time></trkpt><trkpt lat="50.122690906002084" lon="14.930396775930872"><ele>208.0</ele><time>2026-05-03T08:06:30Z</time></trkpt><trkpt lat="50.122886500945775" lon="14.929739228429172"><ele>217.0</ele><time>2026-05-03T08:06:31Z</time></trkpt><trkpt lat="50.12308332026372" lon="14.92906232116175"><ele>215.0</ele><time>2026-05-03T08:06:32Z</time></trkpt><trkpt lat="50.12326626214556" lon="14.928427553860248"><ele>213.0</ele><time>2026-05-03T08:06:33Z</time></trkpt><trkpt lat="50.12344577349388" lon="14.927822739840616"><ele>212.5</ele><time>2026-05-03T08:06:34Z</time></trkpt><trkpt lat="50.123619600466824" lon="14.92722114176315"><ele>212.0</ele><time>2026-05-03T08:06:35Z</time></trkpt><trkpt lat="50.123784239789174" lon="14.926635160150974"><ele>210.0</ele><time>2026-05-03T08:06:36Z</time></trkpt><trkpt lat="50.12394045503515" lon="14.92606499126392"><ele>208.0</ele><time>2026-05-03T08:06:37Z</time></trkpt><trkpt lat="50.12409154485502" lon="14.92551066866585"><ele>206.5</ele><time>2026-05-03T08:06:38Z</time></trkpt><trkpt lat="50.12423812998863" lon="14.924964105106573"><ele>205.0</ele><time>2026-05-03T08:06:39Z</time></trkpt><trkpt lat="50.12437983676559" lon="14.924419801805755"><ele>205.5</ele><time>2026-05-03T08:06:40Z</time></trkpt><trkpt lat="50.124517842288014" lon="14.923878500318544"><ele>206.0</ele><time>2026-05-03T08:06:41Z</time></trkpt><trkpt lat="50.12465561902123" lon="14.923341641337194"><ele>207.5</ele><time>2026-05-03T08:06:42Z</time></trkpt><trkpt lat="50.12479043526172" lon="14.922805315509802"><ele>209.0</ele><time>2026-05-03T08:06:43Z</time></trkpt><trkpt lat="50.12491990615272" lon="14.922271417487229"><ele>209.0</ele><time>2026-05-03T08:06:44Z</time></trkpt><trkpt lat="50.12504547826266" lon="14.921734729446072"><ele>209.0</ele><time>2026-05-03T08:06:45Z</time></trkpt><trkpt lat="50.125169903222265" lon="14.921197386665456"><ele>209.0</ele><time>2026-05-03T08:06:46Z</time></trkpt><trkpt lat="50.12529227568717" lon="14.920661868827985"><ele>209.0</ele><time>2026-05-03T08:06:47Z</time></trkpt><trkpt lat="50.12541157869846" lon="14.920117393561151"><ele>209.0</ele><time>2026-05-03T08:06:48Z</time></trkpt><trkpt lat="50.1255330384588" lon="14.919550521024798"><ele>209.0</ele><time>2026-05-03T08:06:49Z</time></trkpt><trkpt lat="50.12565678872372" lon="14.918940116968217"><ele>209.0</ele><time>2026-05-03T08:06:50Z</time></trkpt><trkpt lat="50.12578110635861" lon="14.918329677484612"><ele>209.0</ele><time>2026-05-03T08:06:51Z</time></trkpt><trkpt lat="50.12590392325842" lon="14.917716188870951"><ele>209.5</ele><time>2026-05-03T08:06:52Z</time></trkpt><trkpt lat="50.126027839665" lon="14.917089425115153"><ele>210.0</ele><time>2026-05-03T08:06:53Z</time></trkpt><trkpt lat="50.12615298744055" lon="14.916446489934026"><ele>211.0</ele><time>2026-05-03T08:06:54Z</time></trkpt><trkpt lat="50.12627989869642" lon="14.915783871622082"><ele>212.0</ele><time>2026-05-03T08:06:55Z</time></trkpt><trkpt lat="50.12639749041042" lon="14.915134727629813"><ele>211.5</ele><time>2026-05-03T08:06:56Z</time></trkpt><trkpt lat="50.12651453488104" lon="14.914479688466084"><ele>211.0</ele><time>2026-05-03T08:06:57Z</time></trkpt><trkpt lat="50.12661966322682" lon="14.913852305331476"><ele>211.0</ele><time>2026-05-03T08:06:58Z</time></trkpt><trkpt lat="50.12671895067399" lon="14.913273311007087"><ele>211.0</ele><time>2026-05-03T08:06:59Z</time></trkpt><trkpt lat="50.12681489030015" lon="14.912698992579866"><ele>210.5</ele><time>2026-05-03T08:07:00Z</time></trkpt><trkpt lat="50.12690149791611" lon="14.91210719072476"><ele>210.0</ele><time>2026-05-03T08:07:01Z</time></trkpt><trkpt lat="50.12698255777859" lon="14.911497899598478"><ele>211.0</ele><time>2026-05-03T08:07:02Z</time></trkpt><trkpt lat="50.12706098245823" lon="14.910873287273134"><ele>212.0</ele><time>2026-05-03T08:07:03Z</time></trkpt><trkpt lat="50.1271358579795" lon="14.910298163762803"><ele>212.0</ele><time>2026-05-03T08:07:04Z</time></trkpt><trkpt lat="50.12721114453229" lon="14.909747483034904"><ele>212.0</ele><time>2026-05-03T08:07:05Z</time></trkpt><trkpt lat="50.12728902843457" lon="14.909187296808831"><ele>212.0</ele><time>2026-05-03T08:07:06Z</time></trkpt><trkpt lat="50.12736391021782" lon="14.908611226089846"><ele>212.0</ele><time>2026-05-03T08:07:07Z</time></trkpt><trkpt lat="50.127434698676005" lon="14.90803670039818"><ele>211.5</ele><time>2026-05-03T08:07:08Z</time></trkpt><trkpt lat="50.12750238624293" lon="14.907433814240242"><ele>211.0</ele><time>2026-05-03T08:07:09Z</time></trkpt><trkpt lat="50.1275697359419" lon="14.906794513818319"><ele>210.5</ele><time>2026-05-03T08:07:10Z</time></trkpt><trkpt lat="50.12763709703667" lon="14.906131767702018"><ele>210.0</ele><time>2026-05-03T08:07:11Z</time></trkpt><trkpt lat="50.12770020902969" lon="14.90548596177364"><ele>206.0</ele><time>2026-05-03T08:07:12Z</time></trkpt><trkpt lat="50.127759281201776" lon="14.904855054863258"><ele>202.0</ele><time>2026-05-03T08:07:13Z</time></trkpt><trkpt lat="50.12781824090574" lon="14.904188499637339"><ele>200.5</ele><time>2026-05-03T08:07:14Z</time></trkpt><trkpt lat="50.12787854463097" lon="14.903495512162788"><ele>199.0</ele><time>2026-05-03T08:07:15Z</time></trkpt><trkpt lat="50.12793830559545" lon="14.902794587577018"><ele>199.0</ele><time>2026-05-03T08:07:16Z</time></trkpt><trkpt lat="50.127991979493615" lon="14.902085144707922"><ele>200.0</ele><time>2026-05-03T08:07:17Z</time></trkpt><trkpt lat="50.12804277742923" lon="14.901371864762803"><ele>202.0</ele><time>2026-05-03T08:07:18Z</time></trkpt><trkpt lat="50.12808719859285" lon="14.900654146475548"><ele>205.0</ele><time>2026-05-03T08:07:19Z</time></trkpt><trkpt lat="50.128124206635974" lon="14.899928991209915"><ele>205.0</ele><time>2026-05-03T08:07:20Z</time></trkpt><trkpt lat="50.128155852646806" lon="14.899205505387446"><ele>205.0</ele><time>2026-05-03T08:07:21Z</time></trkpt><trkpt lat="50.12818519992196" lon="14.898481370091192"><ele>206.0</ele><time>2026-05-03T08:07:22Z</time></trkpt><trkpt lat="50.128214390489106" lon="14.897749878572697"><ele>207.0</ele><time>2026-05-03T08:07:23Z</time></trkpt><trkpt lat="50.12824265235665" lon="14.897019701578436"><ele>212.0</ele><time>2026-05-03T08:07:24Z</time></trkpt><trkpt lat="50.1282683094913" lon="14.89628755603482"><ele>212.0</ele><time>2026-05-03T08:07:25Z</time></trkpt><trkpt lat="50.12829315451725" lon="14.895548050216398"><ele>210.0</ele><time>2026-05-03T08:07:26Z</time></trkpt><trkpt lat="50.12831790015277" lon="14.894795693732625"><ele>209.0</ele><time>2026-05-03T08:07:27Z</time></trkpt><trkpt lat="50.128339811383135" lon="14.894041024690663"><ele>205.0</ele><time>2026-05-03T08:07:28Z</time></trkpt><trkpt lat="50.1283596528918" lon="14.893277833622726"><ele>202.0</ele><time>2026-05-03T08:07:29Z</time></trkpt><trkpt lat="50.12838147727253" lon="14.892507584788852"><ele>202.0</ele><time>2026-05-03T08:07:30Z</time></trkpt><trkpt lat="50.12840286776306" lon="14.891749170350776"><ele>202.0</ele><time>2026-05-03T08:07:31Z</time></trkpt><trkpt lat="50.128423944008816" lon="14.89097789819916"><ele>202.0</ele><time>2026-05-03T08:07:32Z</time></trkpt><trkpt lat="50.128441559333226" lon="14.89020858029403"><ele>203.0</ele><time>2026-05-03T08:07:33Z</time></trkpt><trkpt lat="50.12846296140325" lon="14.889431559616515"><ele>204.0</ele><time>2026-05-03T08:07:34Z</time></trkpt><trkpt lat="50.12847991098116" lon="14.888673255637146"><ele>205.0</ele><time>2026-05-03T08:07:35Z</time></trkpt><trkpt lat="50.128502921684756" lon="14.887905462681832"><ele>206.0</ele><time>2026-05-03T08:07:36Z</time></trkpt><trkpt lat="50.12852638199881" lon="14.887128788882602"><ele>207.0</ele><time>2026-05-03T08:07:37Z</time></trkpt><trkpt lat="50.12855136694579" lon="14.88635463901494"><ele>210.0</ele><time>2026-05-03T08:07:38Z</time></trkpt><trkpt lat="50.128580465753046" lon="14.885579551271933"><ele>215.0</ele><time>2026-05-03T08:07:39Z</time></trkpt><trkpt lat="50.12861494344997" lon="14.8848015471329"><ele>217.0</ele><time>2026-05-03T08:07:40Z</time></trkpt><trkpt lat="50.12865012874642" lon="14.884025267304489"><ele>217.0</ele><time>2026-05-03T08:07:41Z</time></trkpt><trkpt lat="50.12869022983829" lon="14.883250113928208"><ele>219.0</ele><time>2026-05-03T08:07:42Z</time></trkpt><trkpt lat="50.12873378993685" lon="14.882469801616322"><ele>222.0</ele><time>2026-05-03T08:07:43Z</time></trkpt><trkpt lat="50.12878517116311" lon="14.881681918839499"><ele>226.0</ele><time>2026-05-03T08:07:44Z</time></trkpt><trkpt lat="50.12884878869797" lon="14.880894920768018"><ele>226.0</ele><time>2026-05-03T08:07:45Z</time></trkpt><trkpt lat="50.12892000611686" lon="14.880110497829374"><ele>228.0</ele><time>2026-05-03T08:07:46Z</time></trkpt><trkpt lat="50.12899578679366" lon="14.879317364215739"><ele>211.0</ele><time>2026-05-03T08:07:47Z</time></trkpt><trkpt lat="50.12907724686434" lon="14.878515222849803"><ele>213.0</ele><time>2026-05-03T08:07:48Z</time></trkpt><trkpt lat="50.12916278472339" lon="14.87770790497856"><ele>215.0</ele><time>2026-05-03T08:07:49Z</time></trkpt><trkpt lat="50.12925126661092" lon="14.876908832862085"><ele>215.0</ele><time>2026-05-03T08:07:50Z</time></trkpt><trkpt lat="50.1293020394131" lon="14.876213144555523"><ele>215.0</ele><time>2026-05-03T08:07:51Z</time></trkpt><trkpt lat="50.12934577247667" lon="14.875587590824646"><ele>218.0</ele><time>2026-05-03T08:07:52Z</time></trkpt><trkpt lat="50.12939830137992" lon="14.874957410286273"><ele>221.0</ele><time>2026-05-03T08:07:53Z</time></trkpt><trkpt lat="50.12945089952702" lon="14.874340559240402"><ele>232.0</ele><time>2026-05-03T08:07:54Z</time></trkpt><trkpt lat="50.129742045603834" lon="14.873305879701295"><ele>232.0</ele><time>2026-05-03T08:07:55Z</time></trkpt><trkpt lat="50.12985130981911" lon="14.872661562055963"><ele>232.0</ele><time>2026-05-03T08:07:56Z</time></trkpt><trkpt lat="50.12997099977176" lon="14.8720126475679"><ele>221.5</ele><time>2026-05-03T08:07:57Z</time></trkpt><trkpt lat="50.130094167453144" lon="14.871367179061354"><ele>211.0</ele><time>2026-05-03T08:07:58Z</time></trkpt><trkpt lat="50.130227446993054" lon="14.87073498763803"><ele>211.0</ele><time>2026-05-03T08:07:59Z</time></trkpt><trkpt lat="50.13035567081988" lon="14.870132673733398"><ele>211.0</ele><time>2026-05-03T08:08:00Z</time></trkpt><trkpt lat="50.13047928707971" lon="14.869585426672362"><ele>210.5</ele><time>2026-05-03T08:08:01Z</time></trkpt><trkpt lat="50.13059747549839" lon="14.869083255628468"><ele>210.0</ele><time>2026-05-03T08:08:02Z</time></trkpt><trkpt lat="50.13072495060362" lon="14.868578426964092"><ele>210.0</ele><time>2026-05-03T08:08:03Z</time></trkpt><trkpt lat="50.13087572975529" lon="14.86804909360179"><ele>210.0</ele><time>2026-05-03T08:08:04Z</time></trkpt><trkpt lat="50.13103617493538" lon="14.867505626903343"><ele>210.5</ele><time>2026-05-03T08:08:05Z</time></trkpt><trkpt lat="50.131199335926325" lon="14.866946993375524"><ele>211.0</ele><time>2026-05-03T08:08:06Z</time></trkpt><trkpt lat="50.13135369601024" lon="14.86637627288714"><ele>211.0</ele><time>2026-05-03T08:08:07Z</time></trkpt><trkpt lat="50.13150567517954" lon="14.86579436950262"><ele>211.0</ele><time>2026-05-03T08:08:08Z</time></trkpt><trkpt lat="50.13166540521105" lon="14.865205132375975"><ele>210.5</ele><time>2026-05-03T08:08:09Z</time></trkpt><trkpt lat="50.13184108307021" lon="14.86462462213668"><ele>210.0</ele><time>2026-05-03T08:08:10Z</time></trkpt><trkpt lat="50.13202260056698" lon="14.864062964181144"><ele>211.5</ele><time>2026-05-03T08:08:11Z</time></trkpt><trkpt lat="50.132185753752196" lon="14.863566519066541"><ele>213.0</ele><time>2026-05-03T08:08:12Z</time></trkpt><trkpt lat="50.1323346367671" lon="14.86310640311759"><ele>212.5</ele><time>2026-05-03T08:08:13Z</time></trkpt><trkpt lat="50.13248017492056" lon="14.862676599805306"><ele>212.0</ele><time>2026-05-03T08:08:14Z</time></trkpt><trkpt lat="50.13262173195959" lon="14.862268523267238"><ele>212.0</ele><time>2026-05-03T08:08:15Z</time></trkpt><trkpt lat="50.132748527016034" lon="14.861855123822586"><ele>212.0</ele><time>2026-05-03T08:08:16Z</time></trkpt><trkpt lat="50.132877356130365" lon="14.861418133365538"><ele>212.5</ele><time>2026-05-03T08:08:17Z</time></trkpt><trkpt lat="50.13302683546314" lon="14.860981762922018"><ele>213.0</ele><time>2026-05-03T08:08:18Z</time></trkpt><trkpt lat="50.133190302219106" lon="14.860561747368841"><ele>211.0</ele><time>2026-05-03T08:08:19Z</time></trkpt><trkpt lat="50.13334213204204" lon="14.86013757659487"><ele>209.0</ele><time>2026-05-03T08:08:20Z</time></trkpt><trkpt lat="50.1334883189054" lon="14.859692225581007"><ele>210.0</ele><time>2026-05-03T08:08:21Z</time></trkpt><trkpt lat="50.13365369157352" lon="14.859199695936192"><ele>211.0</ele><time>2026-05-03T08:08:22Z</time></trkpt><trkpt lat="50.13383115419781" lon="14.858705242503435"><ele>210.0</ele><time>2026-05-03T08:08:23Z</time></trkpt><trkpt lat="50.134003691565894" lon="14.858218836091082"><ele>209.0</ele><time>2026-05-03T08:08:24Z</time></trkpt><trkpt lat="50.134165663745534" lon="14.857772307523886"><ele>210.0</ele><time>2026-05-03T08:08:25Z</time></trkpt><trkpt lat="50.134316357478966" lon="14.8573262681236"><ele>211.0</ele><time>2026-05-03T08:08:26Z</time></trkpt><trkpt lat="50.1344616815433" lon="14.856890653114739"><ele>212.0</ele><time>2026-05-03T08:08:27Z</time></trkpt><trkpt lat="50.13460902170782" lon="14.856441342952188"><ele>213.0</ele><time>2026-05-03T08:08:28Z</time></trkpt><trkpt lat="50.13475399035668" lon="14.856000577844735"><ele>210.0</ele><time>2026-05-03T08:08:29Z</time></trkpt><trkpt lat="50.13489879060798" lon="14.855549427597616"><ele>207.0</ele><time>2026-05-03T08:08:30Z</time></trkpt><trkpt lat="50.13504012985953" lon="14.855093605438602"><ele>207.0</ele><time>2026-05-03T08:08:31Z</time></trkpt><trkpt lat="50.13518060564785" lon="14.854635620308747"><ele>207.0</ele><time>2026-05-03T08:08:32Z</time></trkpt><trkpt lat="50.135318072536506" lon="14.854166808414298"><ele>207.5</ele><time>2026-05-03T08:08:33Z</time></trkpt><trkpt lat="50.13545573996698" lon="14.853705793497191"><ele>208.0</ele><time>2026-05-03T08:08:34Z</time></trkpt><trkpt lat="50.13558901254783" lon="14.853238934195577"><ele>207.0</ele><time>2026-05-03T08:08:35Z</time></trkpt><trkpt lat="50.13571818636695" lon="14.852777582445889"><ele>206.0</ele><time>2026-05-03T08:08:36Z</time></trkpt><trkpt lat="50.13584301811604" lon="14.85230852410459"><ele>206.0</ele><time>2026-05-03T08:08:37Z</time></trkpt><trkpt lat="50.13596381201773" lon="14.851838183311267"><ele>206.0</ele><time>2026-05-03T08:08:38Z</time></trkpt><trkpt lat="50.136079464426956" lon="14.85136571577119"><ele>205.5</ele><time>2026-05-03T08:08:39Z</time></trkpt><trkpt lat="50.1361890941032" lon="14.850891833416746"><ele>205.0</ele><time>2026-05-03T08:08:40Z</time></trkpt><trkpt lat="50.136293817499876" lon="14.850419830806434"><ele>204.0</ele><time>2026-05-03T08:08:41Z</time></trkpt><trkpt lat="50.13639849410824" lon="14.849941239206345"><ele>203.0</ele><time>2026-05-03T08:08:42Z</time></trkpt><trkpt lat="50.13649571019186" lon="14.849464859219765"><ele>204.5</ele><time>2026-05-03T08:08:43Z</time></trkpt><trkpt lat="50.13659014344552" lon="14.848984178726205"><ele>206.0</ele><time>2026-05-03T08:08:44Z</time></trkpt><trkpt lat="50.13667627727602" lon="14.84851827630537"><ele>205.0</ele><time>2026-05-03T08:08:45Z</time></trkpt><trkpt lat="50.13675876530991" lon="14.848060054732992"><ele>204.0</ele><time>2026-05-03T08:08:46Z</time></trkpt><trkpt lat="50.136836313891756" lon="14.847590671656496"><ele>203.0</ele><time>2026-05-03T08:08:47Z</time></trkpt><trkpt lat="50.13691263855949" lon="14.847117002317205"><ele>202.0</ele><time>2026-05-03T08:08:48Z</time></trkpt><trkpt lat="50.136982996078515" lon="14.846632925149175"><ele>201.0</ele><time>2026-05-03T08:08:49Z</time></trkpt><trkpt lat="50.13704954356543" lon="14.846142747040275"><ele>200.0</ele><time>2026-05-03T08:08:50Z</time></trkpt><trkpt lat="50.137109220379465" lon="14.8456687955087"><ele>198.5</ele><time>2026-05-03T08:08:51Z</time></trkpt><trkpt lat="50.13716712316667" lon="14.845215871444742"><ele>197.0</ele><time>2026-05-03T08:08:52Z</time></trkpt><trkpt lat="50.137227260525364" lon="14.844736860657662"><ele>196.5</ele><time>2026-05-03T08:08:53Z</time></trkpt><trkpt lat="50.137283731745455" lon="14.84421963861915"><ele>196.0</ele><time>2026-05-03T08:08:54Z</time></trkpt><trkpt lat="50.13733243068532" lon="14.843686733642299"><ele>196.0</ele><time>2026-05-03T08:08:55Z</time></trkpt><trkpt lat="50.13797546073171" lon="14.843581123366036"><ele>193.0</ele><time>2026-05-03T08:08:56Z</time></trkpt><trkpt lat="50.1374152994659" lon="14.842589615388597"><ele>193.0</ele><time>2026-05-03T08:08:57Z</time></trkpt><trkpt lat="50.13745142269495" lon="14.842040965384431"><ele>193.0</ele><time>2026-05-03T08:08:58Z</time></trkpt><trkpt lat="50.13748200077679" lon="14.841508742436467"><ele>192.5</ele><time>2026-05-03T08:08:59Z</time></trkpt><trkpt lat="50.13750473551098" lon="14.840988241614411"><ele>192.0</ele><time>2026-05-03T08:09:00Z</time></trkpt><trkpt lat="50.13752189722111" lon="14.840471614489639"><ele>191.5</ele><time>2026-05-03T08:09:01Z</time></trkpt><trkpt lat="50.137532714755096" lon="14.839952028064438"><ele>191.0</ele><time>2026-05-03T08:09:02Z</time></trkpt><trkpt lat="50.137537668670525" lon="14.839429459757893"><ele>190.5</ele><time>2026-05-03T08:09:03Z</time></trkpt><trkpt lat="50.13753933291814" lon="14.838895007747341"><ele>190.0</ele><time>2026-05-03T08:09:04Z</time></trkpt><trkpt lat="50.137537826321" lon="14.838350116317317"><ele>190.0</ele><time>2026-05-03T08:09:05Z</time></trkpt><trkpt lat="50.1375308789763" lon="14.83778710643172"><ele>190.0</ele><time>2026-05-03T08:09:06Z</time></trkpt><trkpt lat="50.13751543460161" lon="14.837198524868356"><ele>190.0</ele><time>2026-05-03T08:09:07Z</time></trkpt><trkpt lat="50.137497574809466" lon="14.836590139030386"><ele>190.0</ele><time>2026-05-03T08:09:08Z</time></trkpt><trkpt lat="50.13747009198927" lon="14.835965323686636"><ele>190.0</ele><time>2026-05-03T08:09:09Z</time></trkpt><trkpt lat="50.13743296206675" lon="14.835323025323394"><ele>190.0</ele><time>2026-05-03T08:09:10Z</time></trkpt><trkpt lat="50.137388488945334" lon="14.834672518691699"><ele>190.0</ele><time>2026-05-03T08:09:11Z</time></trkpt><trkpt lat="50.13733738875685" lon="14.834014076008275"><ele>190.0</ele><time>2026-05-03T08:09:12Z</time></trkpt><trkpt lat="50.137280048973665" lon="14.833349903499927"><ele>190.0</ele><time>2026-05-03T08:09:13Z</time></trkpt><trkpt lat="50.13721467437835" lon="14.832684743965851"><ele>190.0</ele><time>2026-05-03T08:09:14Z</time></trkpt><trkpt lat="50.137140996636795" lon="14.832018560605519"><ele>190.0</ele><time>2026-05-03T08:09:15Z</time></trkpt><trkpt lat="50.137064317811536" lon="14.831354858667316"><ele>190.0</ele><time>2026-05-03T08:09:16Z</time></trkpt><trkpt lat="50.13698713676274" lon="14.830706312376492"><ele>190.5</ele><time>2026-05-03T08:09:17Z</time></trkpt><trkpt lat="50.136904697462036" lon="14.830057101512647"><ele>191.0</ele><time>2026-05-03T08:09:18Z</time></trkpt><trkpt lat="50.13681336306956" lon="14.82940800350607"><ele>191.5</ele><time>2026-05-03T08:09:19Z</time></trkpt><trkpt lat="50.13671352354628" lon="14.828748981574838"><ele>192.0</ele><time>2026-05-03T08:09:20Z</time></trkpt><trkpt lat="50.136606133730595" lon="14.828082069176824"><ele>194.0</ele><time>2026-05-03T08:09:21Z</time></trkpt><trkpt lat="50.136491195867286" lon="14.827417988907794"><ele>196.0</ele><time>2026-05-03T08:09:22Z</time></trkpt><trkpt lat="50.13637044632409" lon="14.826742503302203"><ele>196.0</ele><time>2026-05-03T08:09:23Z</time></trkpt><trkpt lat="50.13624178417018" lon="14.82605772130739"><ele>195.0</ele><time>2026-05-03T08:09:24Z</time></trkpt><trkpt lat="50.136107653716145" lon="14.825384704489222"><ele>196.0</ele><time>2026-05-03T08:09:25Z</time></trkpt><trkpt lat="50.13596541475097" lon="14.824707172535161"><ele>195.0</ele><time>2026-05-03T08:09:26Z</time></trkpt><trkpt lat="50.13582127869554" lon="14.82401504841775"><ele>190.0</ele><time>2026-05-03T08:09:27Z</time></trkpt><trkpt lat="50.135685031169" lon="14.823317895194778"><ele>189.0</ele><time>2026-05-03T08:09:28Z</time></trkpt><trkpt lat="50.13555812944914" lon="14.822609341772974"><ele>189.0</ele><time>2026-05-03T08:09:29Z</time></trkpt><trkpt lat="50.13543622476207" lon="14.821892152739562"><ele>189.0</ele><time>2026-05-03T08:09:30Z</time></trkpt><trkpt lat="50.13531200619766" lon="14.821190920717024"><ele>189.0</ele><time>2026-05-03T08:09:31Z</time></trkpt><trkpt lat="50.13519281035423" lon="14.820550854866516"><ele>189.0</ele><time>2026-05-03T08:09:32Z</time></trkpt><trkpt lat="50.135069045224405" lon="14.819911647136013"><ele>189.0</ele><time>2026-05-03T08:09:33Z</time></trkpt><trkpt lat="50.134939254375766" lon="14.819250739080472"><ele>189.0</ele><time>2026-05-03T08:09:34Z</time></trkpt><trkpt lat="50.13481500505048" lon="14.818587794212965"><ele>189.5</ele><time>2026-05-03T08:09:35Z</time></trkpt><trkpt lat="50.13469276790722" lon="14.817935128859753"><ele>190.0</ele><time>2026-05-03T08:09:36Z</time></trkpt><trkpt lat="50.13457024541513" lon="14.817286178861169"><ele>189.0</ele><time>2026-05-03T08:09:37Z</time></trkpt><trkpt lat="50.134451963751246" lon="14.816649098433556"><ele>188.0</ele><time>2026-05-03T08:09:38Z</time></trkpt><trkpt lat="50.13434540123839" lon="14.816043588750263"><ele>188.0</ele><time>2026-05-03T08:09:39Z</time></trkpt><trkpt lat="50.13425001448873" lon="14.81546273519692"><ele>188.0</ele><time>2026-05-03T08:09:40Z</time></trkpt><trkpt lat="50.134162166158255" lon="14.814883222260331"><ele>188.0</ele><time>2026-05-03T08:09:41Z</time></trkpt><trkpt lat="50.13407104809051" lon="14.8142702135545"><ele>188.0</ele><time>2026-05-03T08:09:42Z</time></trkpt><trkpt lat="50.13397677854887" lon="14.813629544436546"><ele>188.5</ele><time>2026-05-03T08:09:43Z</time></trkpt><trkpt lat="50.13388535487543" lon="14.812973771251105"><ele>189.0</ele><time>2026-05-03T08:09:44Z</time></trkpt><trkpt lat="50.133798190157165" lon="14.812303557130178"><ele>188.5</ele><time>2026-05-03T08:09:45Z</time></trkpt><trkpt lat="50.13371835283795" lon="14.81161850649562"><ele>188.0</ele><time>2026-05-03T08:09:46Z</time></trkpt><trkpt lat="50.13364670822011" lon="14.810920219108707"><ele>186.0</ele><time>2026-05-03T08:09:47Z</time></trkpt><trkpt lat="50.13357804157328" lon="14.810213749258855"><ele>188.0</ele><time>2026-05-03T08:09:48Z</time></trkpt><trkpt lat="50.13350742558961" lon="14.809504726245295"><ele>190.0</ele><time>2026-05-03T08:09:49Z</time></trkpt><trkpt lat="50.133439505098174" lon="14.80878813027472"><ele>190.0</ele><time>2026-05-03T08:09:50Z</time></trkpt><trkpt lat="50.13337334397288" lon="14.808051926113672"><ele>189.0</ele><time>2026-05-03T08:09:51Z</time></trkpt><trkpt lat="50.133310612387255" lon="14.807299900413213"><ele>191.0</ele><time>2026-05-03T08:09:52Z</time></trkpt><trkpt lat="50.133251659476834" lon="14.806539814497382"><ele>193.0</ele><time>2026-05-03T08:09:53Z</time></trkpt><trkpt lat="50.13319690495208" lon="14.805771424330954"><ele>193.0</ele><time>2026-05-03T08:09:54Z</time></trkpt><trkpt lat="50.133151532742794" lon="14.80506554174857"><ele>193.0</ele><time>2026-05-03T08:09:55Z</time></trkpt><trkpt lat="50.13311496498135" lon="14.804420478525525"><ele>193.0</ele><time>2026-05-03T08:09:56Z</time></trkpt><trkpt lat="50.133084536658515" lon="14.80379450178231"><ele>195.0</ele><time>2026-05-03T08:09:57Z</time></trkpt><trkpt lat="50.13305767765508" lon="14.80316561598114"><ele>197.0</ele><time>2026-05-03T08:09:58Z</time></trkpt><trkpt lat="50.13303484247876" lon="14.802536184912015"><ele>197.5</ele><time>2026-05-03T08:09:59Z</time></trkpt><trkpt lat="50.13301439871249" lon="14.80189579285676"><ele>198.0</ele><time>2026-05-03T08:10:00Z</time></trkpt><trkpt lat="50.13299617784161" lon="14.801248977002084"><ele>200.0</ele><time>2026-05-03T08:10:01Z</time></trkpt><trkpt lat="50.132971453070176" lon="14.800602344389834"><ele>202.0</ele><time>2026-05-03T08:10:02Z</time></trkpt><trkpt lat="50.13295011587983" lon="14.799937362026803"><ele>202.5</ele><time>2026-05-03T08:10:03Z</time></trkpt><trkpt lat="50.13293609952738" lon="14.799330845757327"><ele>203.0</ele><time>2026-05-03T08:10:04Z</time></trkpt><trkpt lat="50.13293149866845" lon="14.798766490351097"><ele>204.5</ele><time>2026-05-03T08:10:05Z</time></trkpt><trkpt lat="50.13293105588672" lon="14.798217225766063"><ele>206.0</ele><time>2026-05-03T08:10:06Z</time></trkpt><trkpt lat="50.13293360194668" lon="14.797699885729894"><ele>207.0</ele><time>2026-05-03T08:10:07Z</time></trkpt><trkpt lat="50.13294002977145" lon="14.79719035949942"><ele>208.0</ele><time>2026-05-03T08:10:08Z</time></trkpt><trkpt lat="50.13294960746534" lon="14.796689451746346"><ele>208.5</ele><time>2026-05-03T08:10:09Z</time></trkpt><trkpt lat="50.13296024276353" lon="14.796188556488357"><ele>209.0</ele><time>2026-05-03T08:10:10Z</time></trkpt><trkpt lat="50.13297350149842" lon="14.795689319525032"><ele>209.0</ele><time>2026-05-03T08:10:11Z</time></trkpt><trkpt lat="50.13298806570063" lon="14.795184355803418"><ele>209.0</ele><time>2026-05-03T08:10:12Z</time></trkpt><trkpt lat="50.132998124538" lon="14.794674155841022"><ele>208.5</ele><time>2026-05-03T08:10:13Z</time></trkpt><trkpt lat="50.13300913152918" lon="14.794159891981204"><ele>208.0</ele><time>2026-05-03T08:10:14Z</time></trkpt><trkpt lat="50.1330248511821" lon="14.793630139878491"><ele>208.5</ele><time>2026-05-03T08:10:15Z</time></trkpt><trkpt lat="50.13304276937896" lon="14.79309610069393"><ele>209.0</ele><time>2026-05-03T08:10:16Z</time></trkpt><trkpt lat="50.13306246324916" lon="14.792556156996948"><ele>209.0</ele><time>2026-05-03T08:10:17Z</time></trkpt><trkpt lat="50.13308348658388" lon="14.792012514497625"><ele>209.0</ele><time>2026-05-03T08:10:18Z</time></trkpt><trkpt lat="50.13310470790067" lon="14.791491279220741"><ele>208.5</ele><time>2026-05-03T08:10:19Z</time></trkpt><trkpt lat="50.13312543521779" lon="14.790982320253056"><ele>208.0</ele><time>2026-05-03T08:10:20Z</time></trkpt><trkpt lat="50.13314676268118" lon="14.79047515489646"><ele>206.5</ele><time>2026-05-03T08:10:21Z</time></trkpt><trkpt lat="50.13316630852958" lon="14.789970171400682"><ele>205.0</ele><time>2026-05-03T08:10:22Z</time></trkpt><trkpt lat="50.13318885906073" lon="14.789469530782148"><ele>203.5</ele><time>2026-05-03T08:10:23Z</time></trkpt><trkpt lat="50.13320956808304" lon="14.7889732526821"><ele>202.0</ele><time>2026-05-03T08:10:24Z</time></trkpt><trkpt lat="50.13323660235878" lon="14.78847254439757"><ele>201.5</ele><time>2026-05-03T08:10:25Z</time></trkpt><trkpt lat="50.133263496275966" lon="14.787963051842034"><ele>201.0</ele><time>2026-05-03T08:10:26Z</time></trkpt><trkpt lat="50.13328510757725" lon="14.78744609651591"><ele>201.0</ele><time>2026-05-03T08:10:27Z</time></trkpt><trkpt lat="50.13330066479235" lon="14.786899575799291"><ele>201.0</ele><time>2026-05-03T08:10:28Z</time></trkpt><trkpt lat="50.13331498755208" lon="14.786333427621509"><ele>201.0</ele><time>2026-05-03T08:10:29Z</time></trkpt><trkpt lat="50.13333603050297" lon="14.785764015134943"><ele>201.0</ele><time>2026-05-03T08:10:30Z</time></trkpt><trkpt lat="50.133357532458945" lon="14.785189710776075"><ele>200.5</ele><time>2026-05-03T08:10:31Z</time></trkpt><trkpt lat="50.133377995020304" lon="14.784612075872923"><ele>200.0</ele><time>2026-05-03T08:10:32Z</time></trkpt><trkpt lat="50.133395476575075" lon="14.784038224590361"><ele>202.5</ele><time>2026-05-03T08:10:33Z</time></trkpt><trkpt lat="50.13341357150336" lon="14.783466993780664"><ele>205.0</ele><time>2026-05-03T08:10:34Z</time></trkpt><trkpt lat="50.13343101170272" lon="14.7828985814572"><ele>206.0</ele><time>2026-05-03T08:10:35Z</time></trkpt><trkpt lat="50.133445277646274" lon="14.782326630206747"><ele>207.0</ele><time>2026-05-03T08:10:36Z</time></trkpt><trkpt lat="50.133458101168145" lon="14.78175562631814"><ele>207.5</ele><time>2026-05-03T08:10:37Z</time></trkpt><trkpt lat="50.13346554916177" lon="14.781194157696056"><ele>208.0</ele><time>2026-05-03T08:10:38Z</time></trkpt><trkpt lat="50.13347272358724" lon="14.780634267958312"><ele>210.5</ele><time>2026-05-03T08:10:39Z</time></trkpt><trkpt lat="50.13347836087361" lon="14.780072605931815"><ele>213.0</ele><time>2026-05-03T08:10:40Z</time></trkpt><trkpt lat="50.13348240948406" lon="14.779507126526234"><ele>213.5</ele><time>2026-05-03T08:10:41Z</time></trkpt><trkpt lat="50.133486031765976" lon="14.778944473063707"><ele>214.0</ele><time>2026-05-03T08:10:42Z</time></trkpt><trkpt lat="50.13348534362411" lon="14.778371847488067"><ele>215.0</ele><time>2026-05-03T08:10:43Z</time></trkpt><trkpt lat="50.13347783792831" lon="14.7778010730618"><ele>216.0</ele><time>2026-05-03T08:10:44Z</time></trkpt><trkpt lat="50.133467230694656" lon="14.777242082921289"><ele>219.0</ele><time>2026-05-03T08:10:45Z</time></trkpt><trkpt lat="50.13345699524289" lon="14.776688061610548"><ele>222.0</ele><time>2026-05-03T08:10:46Z</time></trkpt><trkpt lat="50.133445815022604" lon="14.77613798686378"><ele>222.0</ele><time>2026-05-03T08:10:47Z</time></trkpt><trkpt lat="50.13342968998621" lon="14.775588255359745"><ele>222.0</ele><time>2026-05-03T08:10:48Z</time></trkpt><trkpt lat="50.133409286613386" lon="14.775021181879415"><ele>221.5</ele><time>2026-05-03T08:10:49Z</time></trkpt><trkpt lat="50.13338287398289" lon="14.774440676860076"><ele>221.0</ele><time>2026-05-03T08:10:50Z</time></trkpt><trkpt lat="50.13335407380341" lon="14.773850203339189"><ele>221.0</ele><time>2026-05-03T08:10:51Z</time></trkpt><trkpt lat="50.13332240049598" lon="14.77323565162018"><ele>221.0</ele><time>2026-05-03T08:10:52Z</time></trkpt><trkpt lat="50.13328864370445" lon="14.772598388762923"><ele>221.5</ele><time>2026-05-03T08:10:53Z</time></trkpt><trkpt lat="50.13325239272047" lon="14.771944955259455"><ele>222.0</ele><time>2026-05-03T08:10:54Z</time></trkpt><trkpt lat="50.13321244670768" lon="14.77127347833475"><ele>224.0</ele><time>2026-05-03T08:10:55Z</time></trkpt><trkpt lat="50.13316885041222" lon="14.770595863438013"><ele>226.0</ele><time>2026-05-03T08:10:56Z</time></trkpt><trkpt lat="50.133117876417465" lon="14.769912528645321"><ele>226.5</ele><time>2026-05-03T08:10:57Z</time></trkpt><trkpt lat="50.13305968001665" lon="14.76928191325718"><ele>227.0</ele><time>2026-05-03T08:10:58Z</time></trkpt><trkpt lat="50.13299328371897" lon="14.768690288571435"><ele>227.5</ele><time>2026-05-03T08:10:59Z</time></trkpt><trkpt lat="50.13292846861182" lon="14.768104511109927"><ele>228.0</ele><time>2026-05-03T08:11:00Z</time></trkpt><trkpt lat="50.13287238618202" lon="14.76748948667549"><ele>227.0</ele><time>2026-05-03T08:11:01Z</time></trkpt><trkpt lat="50.13280179579265" lon="14.766890617276314"><ele>226.0</ele><time>2026-05-03T08:11:02Z</time></trkpt><trkpt lat="50.132719236536836" lon="14.766255295619716"><ele>226.0</ele><time>2026-05-03T08:11:03Z</time></trkpt><trkpt lat="50.1326368811637" lon="14.765591118961227"><ele>226.0</ele><time>2026-05-03T08:11:04Z</time></trkpt><trkpt lat="50.13255535629533" lon="14.764918468113864"><ele>225.0</ele><time>2026-05-03T08:11:05Z</time></trkpt><trkpt lat="50.132467815593415" lon="14.76424145732218"><ele>224.0</ele><time>2026-05-03T08:11:06Z</time></trkpt><trkpt lat="50.13238493319699" lon="14.763563237047423"><ele>225.5</ele><time>2026-05-03T08:11:07Z</time></trkpt><trkpt lat="50.132293584239" lon="14.762911168131412"><ele>227.0</ele><time>2026-05-03T08:11:08Z</time></trkpt><trkpt lat="50.132206471965866" lon="14.762323723684899"><ele>227.0</ele><time>2026-05-03T08:11:09Z</time></trkpt><trkpt lat="50.132119658961145" lon="14.761784148711529"><ele>227.0</ele><time>2026-05-03T08:11:10Z</time></trkpt><trkpt lat="50.13203304264112" lon="14.761257648829554"><ele>227.0</ele><time>2026-05-03T08:11:11Z</time></trkpt><trkpt lat="50.13194636031553" lon="14.76073401814359"><ele>227.0</ele><time>2026-05-03T08:11:12Z</time></trkpt><trkpt lat="50.13186530764358" lon="14.760236927862962"><ele>227.0</ele><time>2026-05-03T08:11:13Z</time></trkpt><trkpt lat="50.13178639564821" lon="14.759748902928683"><ele>227.0</ele><time>2026-05-03T08:11:14Z</time></trkpt><trkpt lat="50.1316967099043" lon="14.759206652755648"><ele>227.0</ele><time>2026-05-03T08:11:15Z</time></trkpt><trkpt lat="50.131598642677226" lon="14.75864077020488"><ele>227.0</ele><time>2026-05-03T08:11:16Z</time></trkpt><trkpt lat="50.13149827536533" lon="14.758093160354036"><ele>228.0</ele><time>2026-05-03T08:11:17Z</time></trkpt><trkpt lat="50.13140575532632" lon="14.757596265832163"><ele>229.0</ele><time>2026-05-03T08:11:18Z</time></trkpt><trkpt lat="50.131322050253395" lon="14.757123443587215"><ele>229.0</ele><time>2026-05-03T08:11:19Z</time></trkpt><trkpt lat="50.13123633610999" lon="14.756647192464182"><ele>229.0</ele><time>2026-05-03T08:11:20Z</time></trkpt><trkpt lat="50.13115151615961" lon="14.756183108083995"><ele>228.5</ele><time>2026-05-03T08:11:21Z</time></trkpt><trkpt lat="50.131053604979385" lon="14.755683239389453"><ele>228.0</ele><time>2026-05-03T08:11:22Z</time></trkpt><trkpt lat="50.130944534581616" lon="14.755138854039703"><ele>229.0</ele><time>2026-05-03T08:11:23Z</time></trkpt><trkpt lat="50.130837759654725" lon="14.754563402543736"><ele>230.0</ele><time>2026-05-03T08:11:24Z</time></trkpt><trkpt lat="50.13073807193488" lon="14.753962020843133"><ele>232.0</ele><time>2026-05-03T08:11:25Z</time></trkpt><trkpt lat="50.13063588971876" lon="14.753346495014817"><ele>234.0</ele><time>2026-05-03T08:11:26Z</time></trkpt><trkpt lat="50.13052018262201" lon="14.752728025704801"><ele>234.5</ele><time>2026-05-03T08:11:27Z</time></trkpt><trkpt lat="50.130396208637315" lon="14.752128268992344"><ele>235.0</ele><time>2026-05-03T08:11:28Z</time></trkpt><trkpt lat="50.13027962380799" lon="14.751576200112586"><ele>236.0</ele><time>2026-05-03T08:11:29Z</time></trkpt><trkpt lat="50.130165510114566" lon="14.75101381064307"><ele>237.0</ele><time>2026-05-03T08:11:30Z</time></trkpt><trkpt lat="50.13004514637451" lon="14.750407418038506"><ele>237.0</ele><time>2026-05-03T08:11:31Z</time></trkpt><trkpt lat="50.12991384388474" lon="14.749785152357708"><ele>237.0</ele><time>2026-05-03T08:11:32Z</time></trkpt><trkpt lat="50.12977913313189" lon="14.749150612964064"><ele>238.5</ele><time>2026-05-03T08:11:33Z</time></trkpt><trkpt lat="50.129645790582025" lon="14.748516417558834"><ele>240.0</ele><time>2026-05-03T08:11:34Z</time></trkpt><trkpt lat="50.12951048000521" lon="14.747876678244893"><ele>240.0</ele><time>2026-05-03T08:11:35Z</time></trkpt><trkpt lat="50.12937448790212" lon="14.74723952386303"><ele>240.0</ele><time>2026-05-03T08:11:36Z</time></trkpt><trkpt lat="50.12923626516433" lon="14.746605107319361"><ele>240.0</ele><time>2026-05-03T08:11:37Z</time></trkpt><trkpt lat="50.12909700691546" lon="14.745968034854684"><ele>240.0</ele><time>2026-05-03T08:11:38Z</time></trkpt><trkpt lat="50.128958738118186" lon="14.745333185575731"><ele>240.0</ele><time>2026-05-03T08:11:39Z</time></trkpt><trkpt lat="50.12882155570793" lon="14.744698485097635"><ele>240.0</ele><time>2026-05-03T08:11:40Z</time></trkpt><trkpt lat="50.128685711135155" lon="14.744067210325971"><ele>241.0</ele><time>2026-05-03T08:11:41Z</time></trkpt><trkpt lat="50.12855179594033" lon="14.743433132768113"><ele>242.0</ele><time>2026-05-03T08:11:42Z</time></trkpt><trkpt lat="50.12841735266415" lon="14.742799938274437"><ele>242.0</ele><time>2026-05-03T08:11:43Z</time></trkpt><trkpt lat="50.12828395166124" lon="14.742164417352512"><ele>242.0</ele><time>2026-05-03T08:11:44Z</time></trkpt><trkpt lat="50.128148004303554" lon="14.74152896116789"><ele>242.0</ele><time>2026-05-03T08:11:45Z</time></trkpt><trkpt lat="50.128013267174204" lon="14.740894732655478"><ele>242.0</ele><time>2026-05-03T08:11:46Z</time></trkpt><trkpt lat="50.12787911628083" lon="14.740257501008445"><ele>242.5</ele><time>2026-05-03T08:11:47Z</time></trkpt><trkpt lat="50.127742472052226" lon="14.739614502564372"><ele>243.0</ele><time>2026-05-03T08:11:48Z</time></trkpt><trkpt lat="50.12760733053959" lon="14.738964111674628"><ele>242.0</ele><time>2026-05-03T08:11:49Z</time></trkpt><trkpt lat="50.12747049445103" lon="14.738311231145998"><ele>241.0</ele><time>2026-05-03T08:11:50Z</time></trkpt><trkpt lat="50.12733413451647" lon="14.737659809580549"><ele>241.0</ele><time>2026-05-03T08:11:51Z</time></trkpt><trkpt lat="50.12719879834171" lon="14.737004481361895"><ele>241.0</ele><time>2026-05-03T08:11:52Z</time></trkpt><trkpt lat="50.127063465077846" lon="14.73634493921639"><ele>243.0</ele><time>2026-05-03T08:11:53Z</time></trkpt><trkpt lat="50.12692865497123" lon="14.735673740313892"><ele>243.0</ele><time>2026-05-03T08:11:54Z</time></trkpt><trkpt lat="50.12679356272286" lon="14.735002075551604"><ele>242.0</ele><time>2026-05-03T08:11:55Z</time></trkpt><trkpt lat="50.12665971959108" lon="14.734332014685338"><ele>243.5</ele><time>2026-05-03T08:11:56Z</time></trkpt><trkpt lat="50.12652359964491" lon="14.733673260352242"><ele>245.0</ele><time>2026-05-03T08:11:57Z</time></trkpt><trkpt lat="50.12638654985663" lon="14.73305090287207"><ele>244.5</ele><time>2026-05-03T08:11:58Z</time></trkpt><trkpt lat="50.126256608039895" lon="14.732457110307099"><ele>244.0</ele><time>2026-05-03T08:11:59Z</time></trkpt><trkpt lat="50.12613350960591" lon="14.731865485858563"><ele>244.0</ele><time>2026-05-03T08:12:00Z</time></trkpt><trkpt lat="50.12601536546538" lon="14.731269263082556"><ele>244.0</ele><time>2026-05-03T08:12:01Z</time></trkpt><trkpt lat="50.12589878358522" lon="14.730669077441616"><ele>243.5</ele><time>2026-05-03T08:12:02Z</time></trkpt><trkpt lat="50.125779201580734" lon="14.730043755453327"><ele>243.0</ele><time>2026-05-03T08:12:03Z</time></trkpt><trkpt lat="50.12566073174926" lon="14.729397312046316"><ele>245.5</ele><time>2026-05-03T08:12:04Z</time></trkpt><trkpt lat="50.12554293893849" lon="14.728749445540947"><ele>248.0</ele><time>2026-05-03T08:12:05Z</time></trkpt><trkpt lat="50.12542655017113" lon="14.728092261016046"><ele>248.0</ele><time>2026-05-03T08:12:06Z</time></trkpt><trkpt lat="50.12531096596913" lon="14.727431426952155"><ele>248.0</ele><time>2026-05-03T08:12:07Z</time></trkpt><trkpt lat="50.125194282170206" lon="14.72678056754722"><ele>247.5</ele><time>2026-05-03T08:12:08Z</time></trkpt><trkpt lat="50.12508605912014" lon="14.726143061056355"><ele>247.0</ele><time>2026-05-03T08:12:09Z</time></trkpt><trkpt lat="50.12498083930446" lon="14.725523668543794"><ele>248.5</ele><time>2026-05-03T08:12:10Z</time></trkpt><trkpt lat="50.124875489039525" lon="14.724913151536319"><ele>250.0</ele><time>2026-05-03T08:12:11Z</time></trkpt><trkpt lat="50.12477341052561" lon="14.724298499283654"><ele>250.0</ele><time>2026-05-03T08:12:12Z</time></trkpt><trkpt lat="50.124671524631026" lon="14.723679452966897"><ele>250.0</ele><time>2026-05-03T08:12:13Z</time></trkpt><trkpt lat="50.12457386223115" lon="14.723059166440592"><ele>250.0</ele><time>2026-05-03T08:12:14Z</time></trkpt><trkpt lat="50.12447946536727" lon="14.722440803857813"><ele>250.0</ele><time>2026-05-03T08:12:15Z</time></trkpt><trkpt lat="50.12439594837641" lon="14.721813932294127"><ele>250.0</ele><time>2026-05-03T08:12:16Z</time></trkpt><trkpt lat="50.12431092871384" lon="14.721184674519233"><ele>250.0</ele><time>2026-05-03T08:12:17Z</time></trkpt><trkpt lat="50.124226035490956" lon="14.720564323673196"><ele>249.5</ele><time>2026-05-03T08:12:18Z</time></trkpt><trkpt lat="50.1241380793435" lon="14.719938912033708"><ele>249.0</ele><time>2026-05-03T08:12:19Z</time></trkpt><trkpt lat="50.1240483981658" lon="14.719318796044181"><ele>250.0</ele><time>2026-05-03T08:12:20Z</time></trkpt><trkpt lat="50.12395558737016" lon="14.718696427198584"><ele>251.0</ele><time>2026-05-03T08:12:21Z</time></trkpt><trkpt lat="50.12386608117195" lon="14.718066512914405"><ele>251.0</ele><time>2026-05-03T08:12:22Z</time></trkpt><trkpt lat="50.12377233702659" lon="14.717408440458033"><ele>251.0</ele><time>2026-05-03T08:12:23Z</time></trkpt><trkpt lat="50.12368398429561" lon="14.716724989378365"><ele>252.0</ele><time>2026-05-03T08:12:24Z</time></trkpt><trkpt lat="50.123597525368176" lon="14.716028756851138"><ele>252.0</ele><time>2026-05-03T08:12:25Z</time></trkpt><trkpt lat="50.123513194691995" lon="14.715327750911804"><ele>252.0</ele><time>2026-05-03T08:12:26Z</time></trkpt><trkpt lat="50.12343050521363" lon="14.714625911543216"><ele>252.0</ele><time>2026-05-03T08:12:27Z</time></trkpt><trkpt lat="50.123353878332765" lon="14.713923611395156"><ele>252.0</ele><time>2026-05-03T08:12:28Z</time></trkpt><trkpt lat="50.12327859815935" lon="14.713216174124065"><ele>254.0</ele><time>2026-05-03T08:12:29Z</time></trkpt><trkpt lat="50.12320465182191" lon="14.712513879529675"><ele>253.5</ele><time>2026-05-03T08:12:30Z</time></trkpt><trkpt lat="50.12313447528136" lon="14.71182195035571"><ele>253.0</ele><time>2026-05-03T08:12:31Z</time></trkpt><trkpt lat="50.12306781357825" lon="14.711133322445868"><ele>253.0</ele><time>2026-05-03T08:12:32Z</time></trkpt><trkpt lat="50.12300505716357" lon="14.71044299538566"><ele>253.0</ele><time>2026-05-03T08:12:33Z</time></trkpt><trkpt lat="50.12294613109997" lon="14.70978026131546"><ele>253.0</ele><time>2026-05-03T08:12:34Z</time></trkpt><trkpt lat="50.12289108765515" lon="14.70917869578771"><ele>253.0</ele><time>2026-05-03T08:12:35Z</time></trkpt><trkpt lat="50.12282820444314" lon="14.708586077031185"><ele>252.5</ele><time>2026-05-03T08:12:36Z</time></trkpt><trkpt lat="50.12276509110434" lon="14.707973870302345"><ele>252.0</ele><time>2026-05-03T08:12:37Z</time></trkpt><trkpt lat="50.12271327504869" lon="14.707359477966786"><ele>252.0</ele><time>2026-05-03T08:12:38Z</time></trkpt><trkpt lat="50.12267809763142" lon="14.706756490728123"><ele>252.0</ele><time>2026-05-03T08:12:39Z</time></trkpt><trkpt lat="50.12264947300231" lon="14.706158427105565"><ele>252.0</ele><time>2026-05-03T08:12:40Z</time></trkpt><trkpt lat="50.122618241370496" lon="14.705564169097475"><ele>252.0</ele><time>2026-05-03T08:12:41Z</time></trkpt><trkpt lat="50.12258713925319" lon="14.704988368597155"><ele>252.0</ele><time>2026-05-03T08:12:42Z</time></trkpt><trkpt lat="50.12255852466737" lon="14.70442400864684"><ele>252.0</ele><time>2026-05-03T08:12:43Z</time></trkpt><trkpt lat="50.12253014212753" lon="14.703869544326475"><ele>251.5</ele><time>2026-05-03T08:12:44Z</time></trkpt><trkpt lat="50.12250040947117" lon="14.703330873753965"><ele>251.0</ele><time>2026-05-03T08:12:45Z</time></trkpt><trkpt lat="50.12247455126931" lon="14.702781934857807"><ele>251.5</ele><time>2026-05-03T08:12:46Z</time></trkpt><trkpt lat="50.122455966388536" lon="14.702224498573557"><ele>252.0</ele><time>2026-05-03T08:12:47Z</time></trkpt><trkpt lat="50.12243976624922" lon="14.701659995790957"><ele>252.5</ele><time>2026-05-03T08:12:48Z</time></trkpt><trkpt lat="50.12241965333995" lon="14.701096285983754"><ele>253.0</ele><time>2026-05-03T08:12:49Z</time></trkpt><trkpt lat="50.122393039095954" lon="14.70052710248621"><ele>253.0</ele><time>2026-05-03T08:12:50Z</time></trkpt><trkpt lat="50.12236919282158" lon="14.699953068170002"><ele>253.0</ele><time>2026-05-03T08:12:51Z</time></trkpt><trkpt lat="50.12235304138522" lon="14.699370233884023"><ele>253.0</ele><time>2026-05-03T08:12:52Z</time></trkpt><trkpt lat="50.12234042735252" lon="14.698780815669776"><ele>253.0</ele><time>2026-05-03T08:12:53Z</time></trkpt><trkpt lat="50.12232742931149" lon="14.698153934122315"><ele>252.0</ele><time>2026-05-03T08:12:54Z</time></trkpt><trkpt lat="50.122308353274605" lon="14.697508693779874"><ele>251.0</ele><time>2026-05-03T08:12:55Z</time></trkpt><trkpt lat="50.122287315885316" lon="14.696840802278109"><ele>250.5</ele><time>2026-05-03T08:12:56Z</time></trkpt><trkpt lat="50.122255250397814" lon="14.696158359386157"><ele>250.0</ele><time>2026-05-03T08:12:57Z</time></trkpt><trkpt lat="50.12222507387503" lon="14.695468889470934"><ele>249.0</ele><time>2026-05-03T08:12:58Z</time></trkpt><trkpt lat="50.12219115487555" lon="14.69476272582194"><ele>250.0</ele><time>2026-05-03T08:12:59Z</time></trkpt><trkpt lat="50.12215663182227" lon="14.69404934133203"><ele>250.0</ele><time>2026-05-03T08:13:00Z</time></trkpt><trkpt lat="50.12212066001209" lon="14.693332900146567"><ele>250.0</ele><time>2026-05-03T08:13:01Z</time></trkpt><trkpt lat="50.12208310623358" lon="14.69261079501793"><ele>249.0</ele><time>2026-05-03T08:13:02Z</time></trkpt><trkpt lat="50.122040841182375" lon="14.69189295034423"><ele>249.0</ele><time>2026-05-03T08:13:03Z</time></trkpt><trkpt lat="50.12199355498556" lon="14.69118241165862"><ele>249.0</ele><time>2026-05-03T08:13:04Z</time></trkpt><trkpt lat="50.1219475084422" lon="14.690475444740416"><ele>250.0</ele><time>2026-05-03T08:13:05Z</time></trkpt><trkpt lat="50.12188776978269" lon="14.689758039575654"><ele>250.0</ele><time>2026-05-03T08:13:06Z</time></trkpt><trkpt lat="50.12181785093081" lon="14.689035368155242"><ele>251.0</ele><time>2026-05-03T08:13:07Z</time></trkpt><trkpt lat="50.12173711299354" lon="14.68830299973798"><ele>250.0</ele><time>2026-05-03T08:13:08Z</time></trkpt><trkpt lat="50.12165744663053" lon="14.687578946888188"><ele>250.0</ele><time>2026-05-03T08:13:09Z</time></trkpt><trkpt lat="50.12158401629892" lon="14.686937124797971"><ele>250.0</ele><time>2026-05-03T08:13:10Z</time></trkpt><trkpt lat="50.12151856513345" lon="14.686328273445033"><ele>248.5</ele><time>2026-05-03T08:13:11Z</time></trkpt><trkpt lat="50.12144834983083" lon="14.685743003562017"><ele>247.0</ele><time>2026-05-03T08:13:12Z</time></trkpt><trkpt lat="50.12138161841548" lon="14.685184000733177"><ele>247.0</ele><time>2026-05-03T08:13:13Z</time></trkpt><trkpt lat="50.12130795547282" lon="14.684651046776967"><ele>247.0</ele><time>2026-05-03T08:13:14Z</time></trkpt><trkpt lat="50.12123479916763" lon="14.684155304838429"><ele>248.0</ele><time>2026-05-03T08:13:15Z</time></trkpt><trkpt lat="50.12116231300924" lon="14.683693196981254"><ele>249.0</ele><time>2026-05-03T08:13:16Z</time></trkpt><trkpt lat="50.121082560944906" lon="14.683236260420385"><ele>249.5</ele><time>2026-05-03T08:13:17Z</time></trkpt><trkpt lat="50.12100131037733" lon="14.682792382607598"><ele>250.0</ele><time>2026-05-03T08:13:18Z</time></trkpt><trkpt lat="50.12092849865042" lon="14.682330404134234"><ele>250.0</ele><time>2026-05-03T08:13:19Z</time></trkpt><trkpt lat="50.12085263073994" lon="14.681861773320222"><ele>250.0</ele><time>2026-05-03T08:13:20Z</time></trkpt><trkpt lat="50.120769690572736" lon="14.681394657490806"><ele>249.5</ele><time>2026-05-03T08:13:21Z</time></trkpt><trkpt lat="50.12068363065729" lon="14.680922103912488"><ele>249.0</ele><time>2026-05-03T08:13:22Z</time></trkpt><trkpt lat="50.12059950161412" lon="14.680451831486828"><ele>250.0</ele><time>2026-05-03T08:13:23Z</time></trkpt><trkpt lat="50.12051391114316" lon="14.679971457977299"><ele>251.0</ele><time>2026-05-03T08:13:24Z</time></trkpt><trkpt lat="50.12041705528741" lon="14.679476076503022"><ele>251.0</ele><time>2026-05-03T08:13:25Z</time></trkpt><trkpt lat="50.12031059218179" lon="14.678965683964456"><ele>251.0</ele><time>2026-05-03T08:13:26Z</time></trkpt><trkpt lat="50.12019733282292" lon="14.67844830070148"><ele>251.0</ele><time>2026-05-03T08:13:27Z</time></trkpt><trkpt lat="50.12008500824295" lon="14.677927261923855"><ele>251.0</ele><time>2026-05-03T08:13:28Z</time></trkpt><trkpt lat="50.11997144439747" lon="14.677406406871615"><ele>251.0</ele><time>2026-05-03T08:13:29Z</time></trkpt><trkpt lat="50.11986004085224" lon="14.676897472060345"><ele>251.0</ele><time>2026-05-03T08:13:30Z</time></trkpt><trkpt lat="50.11974785460188" lon="14.676391888898097"><ele>251.0</ele><time>2026-05-03T08:13:31Z</time></trkpt><trkpt lat="50.119623568891825" lon="14.675833888701433"><ele>251.0</ele><time>2026-05-03T08:13:32Z</time></trkpt><trkpt lat="50.119490935516154" lon="14.675287284517374"><ele>251.0</ele><time>2026-05-03T08:13:33Z</time></trkpt><trkpt lat="50.11934122859491" lon="14.674718047346596"><ele>251.0</ele><time>2026-05-03T08:13:34Z</time></trkpt><trkpt lat="50.119183811438994" lon="14.674138634580089"><ele>251.0</ele><time>2026-05-03T08:13:35Z</time></trkpt><trkpt lat="50.11902897534648" lon="14.67356552099146"><ele>251.0</ele><time>2026-05-03T08:13:36Z</time></trkpt><trkpt lat="50.11886804688241" lon="14.672971191292813"><ele>251.5</ele><time>2026-05-03T08:13:37Z</time></trkpt><trkpt lat="50.1186978848098" lon="14.672361561390638"><ele>252.0</ele><time>2026-05-03T08:13:38Z</time></trkpt><trkpt lat="50.11851707061561" lon="14.671738935360938"><ele>253.0</ele><time>2026-05-03T08:13:39Z</time></trkpt><trkpt lat="50.118328331333934" lon="14.671121747389066"><ele>254.0</ele><time>2026-05-03T08:13:40Z</time></trkpt><trkpt lat="50.11813731488048" lon="14.670503616649754"><ele>254.5</ele><time>2026-05-03T08:13:41Z</time></trkpt><trkpt lat="50.11794412512575" lon="14.669886887629202"><ele>255.0</ele><time>2026-05-03T08:13:42Z</time></trkpt><trkpt lat="50.11774540983016" lon="14.669277301112787"><ele>255.0</ele><time>2026-05-03T08:13:43Z</time></trkpt><trkpt lat="50.11753970893445" lon="14.668660740294364"><ele>255.0</ele><time>2026-05-03T08:13:44Z</time></trkpt><trkpt lat="50.117328608823364" lon="14.668044997318123"><ele>263.0</ele><time>2026-05-03T08:13:45Z</time></trkpt><trkpt lat="50.11711136913186" lon="14.667419343010732"><ele>263.0</ele><time>2026-05-03T08:13:46Z</time></trkpt><trkpt lat="50.116884319784056" lon="14.666788609137676"><ele>263.0</ele><time>2026-05-03T08:13:47Z</time></trkpt><trkpt lat="50.11666053610899" lon="14.666168584338346"><ele>264.0</ele><time>2026-05-03T08:13:48Z</time></trkpt><trkpt lat="50.116438545773065" lon="14.665541019424019"><ele>261.0</ele><time>2026-05-03T08:13:49Z</time></trkpt><trkpt lat="50.11621068889903" lon="14.664926437124011"><ele>262.0</ele><time>2026-05-03T08:13:50Z</time></trkpt><trkpt lat="50.115988844296865" lon="14.664303836663734"><ele>262.0</ele><time>2026-05-03T08:13:51Z</time></trkpt><trkpt lat="50.11576825359003" lon="14.663699806021558"><ele>262.0</ele><time>2026-05-03T08:13:52Z</time></trkpt><trkpt lat="50.115568521792355" lon="14.663159177474602"><ele>262.0</ele><time>2026-05-03T08:13:53Z</time></trkpt><trkpt lat="50.11538691388213" lon="14.66267270033226"><ele>262.0</ele><time>2026-05-03T08:13:54Z</time></trkpt><trkpt lat="50.115205663873304" lon="14.662190632716266"><ele>262.5</ele><time>2026-05-03T08:13:55Z</time></trkpt><trkpt lat="50.115020093514275" lon="14.661709103187327"><ele>263.0</ele><time>2026-05-03T08:13:56Z</time></trkpt><trkpt lat="50.11483157237361" lon="14.661199273415816"><ele>264.5</ele><time>2026-05-03T08:13:57Z</time></trkpt><trkpt lat="50.11464534455256" lon="14.660669619797165"><ele>266.0</ele><time>2026-05-03T08:13:58Z</time></trkpt><trkpt lat="50.11446199200402" lon="14.660136540886546"><ele>266.5</ele><time>2026-05-03T08:13:59Z</time></trkpt><trkpt lat="50.11427982129263" lon="14.65960335652907"><ele>267.0</ele><time>2026-05-03T08:14:00Z</time></trkpt><trkpt lat="50.11409354252766" lon="14.65906938019691"><ele>267.0</ele><time>2026-05-03T08:14:01Z</time></trkpt><trkpt lat="50.11390864107785" lon="14.658540596700442"><ele>267.0</ele><time>2026-05-03T08:14:02Z</time></trkpt><trkpt lat="50.11371506310202" lon="14.657993737600478"><ele>267.0</ele><time>2026-05-03T08:14:03Z</time></trkpt><trkpt lat="50.11353179095599" lon="14.657479295608288"><ele>267.0</ele><time>2026-05-03T08:14:04Z</time></trkpt><trkpt lat="50.11335144559169" lon="14.656947392557324"><ele>267.5</ele><time>2026-05-03T08:14:05Z</time></trkpt><trkpt lat="50.11320037675305" lon="14.656433699542834"><ele>268.0</ele><time>2026-05-03T08:14:06Z</time></trkpt><trkpt lat="50.11305056232778" lon="14.655934993489048"><ele>268.0</ele><time>2026-05-03T08:14:07Z</time></trkpt><trkpt lat="50.112870875021066" lon="14.655377949434802"><ele>268.0</ele><time>2026-05-03T08:14:08Z</time></trkpt><trkpt lat="50.112709367949684" lon="14.654846911840153"><ele>267.5</ele><time>2026-05-03T08:14:09Z</time></trkpt><trkpt lat="50.112556420316906" lon="14.654326788316922"><ele>267.0</ele><time>2026-05-03T08:14:10Z</time></trkpt><trkpt lat="50.11241049841047" lon="14.653812644617249"><ele>268.0</ele><time>2026-05-03T08:14:11Z</time></trkpt><trkpt lat="50.11226510165973" lon="14.653282969839893"><ele>269.0</ele><time>2026-05-03T08:14:12Z</time></trkpt><trkpt lat="50.112123121696754" lon="14.652732307113657"><ele>269.0</ele><time>2026-05-03T08:14:13Z</time></trkpt><trkpt lat="50.11196764122311" lon="14.652159312924049"><ele>269.0</ele><time>2026-05-03T08:14:14Z</time></trkpt><trkpt lat="50.11179839285373" lon="14.65154755132682"><ele>269.0</ele><time>2026-05-03T08:14:15Z</time></trkpt><trkpt lat="50.111631759090265" lon="14.650907806793159"><ele>269.0</ele><time>2026-05-03T08:14:16Z</time></trkpt><trkpt lat="50.1114667093233" lon="14.65023399496978"><ele>268.5</ele><time>2026-05-03T08:14:17Z</time></trkpt><trkpt lat="50.11131284150111" lon="14.649603386766866"><ele>268.0</ele><time>2026-05-03T08:14:18Z</time></trkpt><trkpt lat="50.111178268591615" lon="14.649026695683068"><ele>268.0</ele><time>2026-05-03T08:14:19Z</time></trkpt><trkpt lat="50.1110565189531" lon="14.648490803339305"><ele>268.0</ele><time>2026-05-03T08:14:20Z</time></trkpt><trkpt lat="50.11093257998458" lon="14.647953364499854"><ele>267.5</ele><time>2026-05-03T08:14:21Z</time></trkpt><trkpt lat="50.11080508900497" lon="14.64740455871772"><ele>267.0</ele><time>2026-05-03T08:14:22Z</time></trkpt><trkpt lat="50.110681550850394" lon="14.646846848998194"><ele>268.0</ele><time>2026-05-03T08:14:23Z</time></trkpt><trkpt lat="50.11056318210833" lon="14.646296411157694"><ele>269.0</ele><time>2026-05-03T08:14:24Z</time></trkpt><trkpt lat="50.11045093194991" lon="14.64577448982977"><ele>269.0</ele><time>2026-05-03T08:14:25Z</time></trkpt><trkpt lat="50.11034668519013" lon="14.645293032371749"><ele>269.0</ele><time>2026-05-03T08:14:26Z</time></trkpt><trkpt lat="50.11024552961149" lon="14.644821788261606"><ele>268.5</ele><time>2026-05-03T08:14:27Z</time></trkpt><trkpt lat="50.110141636465954" lon="14.64431963004096"><ele>268.0</ele><time>2026-05-03T08:14:28Z</time></trkpt><trkpt lat="50.11002367889497" lon="14.643802431721824"><ele>267.5</ele><time>2026-05-03T08:14:29Z</time></trkpt><trkpt lat="50.10989332207867" lon="14.64324190073361"><ele>267.0</ele><time>2026-05-03T08:14:30Z</time></trkpt><trkpt lat="50.10976642696707" lon="14.642640371658596"><ele>267.0</ele><time>2026-05-03T08:14:31Z</time></trkpt><trkpt lat="50.109641628186495" lon="14.642003042900198"><ele>267.0</ele><time>2026-05-03T08:14:32Z</time></trkpt><trkpt lat="50.10951891240475" lon="14.641353667985825"><ele>266.5</ele><time>2026-05-03T08:14:33Z</time></trkpt><trkpt lat="50.109386450549025" lon="14.640686017323137"><ele>266.0</ele><time>2026-05-03T08:14:34Z</time></trkpt><trkpt lat="50.10924073988942" lon="14.639993590146746"><ele>267.0</ele><time>2026-05-03T08:14:35Z</time></trkpt><trkpt lat="50.109092535611644" lon="14.63927788001633"><ele>269.0</ele><time>2026-05-03T08:14:36Z</time></trkpt><trkpt lat="50.10893575297125" lon="14.638555279247615"><ele>269.0</ele><time>2026-05-03T08:14:37Z</time></trkpt><trkpt lat="50.10877414050921" lon="14.637822608695801"><ele>269.0</ele><time>2026-05-03T08:14:38Z</time></trkpt><trkpt lat="50.10861032788954" lon="14.637081376282739"><ele>269.0</ele><time>2026-05-03T08:14:39Z</time></trkpt><trkpt lat="50.10844986116867" lon="14.636345750574687"><ele>269.0</ele><time>2026-05-03T08:14:40Z</time></trkpt><trkpt lat="50.10829371472284" lon="14.635616297066488"><ele>267.0</ele><time>2026-05-03T08:14:41Z</time></trkpt><trkpt lat="50.108143254711266" lon="14.634882870973966"><ele>266.0</ele><time>2026-05-03T08:14:42Z</time></trkpt><trkpt lat="50.10797904355047" lon="14.634137965951268"><ele>266.0</ele><time>2026-05-03T08:14:43Z</time></trkpt><trkpt lat="50.1078177343718" lon="14.633394406678018"><ele>265.0</ele><time>2026-05-03T08:14:44Z</time></trkpt><trkpt lat="50.10765812534354" lon="14.632649762603638"><ele>265.0</ele><time>2026-05-03T08:14:45Z</time></trkpt><trkpt lat="50.107496260322186" lon="14.631898834513684"><ele>264.0</ele><time>2026-05-03T08:14:46Z</time></trkpt><trkpt lat="50.10733169085298" lon="14.631136856871942"><ele>264.0</ele><time>2026-05-03T08:14:47Z</time></trkpt><trkpt lat="50.107162610705736" lon="14.630357609234698"><ele>264.0</ele><time>2026-05-03T08:14:48Z</time></trkpt><trkpt lat="50.10699479964988" lon="14.6295736859199"><ele>265.0</ele><time>2026-05-03T08:14:49Z</time></trkpt><trkpt lat="50.106823710137405" lon="14.628794819532411"><ele>267.0</ele><time>2026-05-03T08:14:50Z</time></trkpt><trkpt lat="50.10665948752594" lon="14.628071503351826"><ele>266.5</ele><time>2026-05-03T08:14:51Z</time></trkpt><trkpt lat="50.10651029252639" lon="14.627426527958146"><ele>266.0</ele><time>2026-05-03T08:14:52Z</time></trkpt><trkpt lat="50.10636780957629" lon="14.626825159372611"><ele>266.0</ele><time>2026-05-03T08:14:53Z</time></trkpt><trkpt lat="50.10622751304296" lon="14.626247029814323"><ele>266.0</ele><time>2026-05-03T08:14:54Z</time></trkpt><trkpt lat="50.10608359117958" lon="14.625675063072693"><ele>266.5</ele><time>2026-05-03T08:14:55Z</time></trkpt><trkpt lat="50.10593205882994" lon="14.625106629287743"><ele>267.0</ele><time>2026-05-03T08:14:56Z</time></trkpt><trkpt lat="50.10576857963431" lon="14.624541886502602"><ele>266.0</ele><time>2026-05-03T08:14:57Z</time></trkpt><trkpt lat="50.10560345441335" lon="14.623982351980182"><ele>265.0</ele><time>2026-05-03T08:14:58Z</time></trkpt><trkpt lat="50.1054399906329" lon="14.6234214458152"><ele>265.0</ele><time>2026-05-03T08:14:59Z</time></trkpt><trkpt lat="50.10527599437558" lon="14.622862788335702"><ele>265.0</ele><time>2026-05-03T08:15:00Z</time></trkpt><trkpt lat="50.10510919409484" lon="14.622304662381126"><ele>265.0</ele><time>2026-05-03T08:15:01Z</time></trkpt><trkpt lat="50.10493789231111" lon="14.621750365511499"><ele>265.0</ele><time>2026-05-03T08:15:02Z</time></trkpt><trkpt lat="50.10476242040016" lon="14.621199690929993"><ele>264.0</ele><time>2026-05-03T08:15:03Z</time></trkpt><trkpt lat="50.10458574533818" lon="14.620664027225967"><ele>263.0</ele><time>2026-05-03T08:15:04Z</time></trkpt><trkpt lat="50.10440458625404" lon="14.620139266708211"><ele>263.0</ele><time>2026-05-03T08:15:05Z</time></trkpt><trkpt lat="50.104223480713706" lon="14.619635362283203"><ele>263.0</ele><time>2026-05-03T08:15:06Z</time></trkpt><trkpt lat="50.10403719970525" lon="14.619131834279715"><ele>262.5</ele><time>2026-05-03T08:15:07Z</time></trkpt><trkpt lat="50.103843998477885" lon="14.618620008467891"><ele>262.0</ele><time>2026-05-03T08:15:08Z</time></trkpt><trkpt lat="50.10364879606081" lon="14.618114006922065"><ele>262.5</ele><time>2026-05-03T08:15:09Z</time></trkpt><trkpt lat="50.10345086920324" lon="14.617608280782715"><ele>263.0</ele><time>2026-05-03T08:15:10Z</time></trkpt><trkpt lat="50.103247314430526" lon="14.617095591420913"><ele>263.0</ele><time>2026-05-03T08:15:11Z</time></trkpt><trkpt lat="50.10303788300583" lon="14.616578642876526"><ele>263.0</ele><time>2026-05-03T08:15:12Z</time></trkpt><trkpt lat="50.10282040247434" lon="14.616063433065746"><ele>263.0</ele><time>2026-05-03T08:15:13Z</time></trkpt><trkpt lat="50.102603441988485" lon="14.615556378043154"><ele>263.0</ele><time>2026-05-03T08:15:14Z</time></trkpt><trkpt lat="50.10238744149995" lon="14.615064546528565"><ele>263.0</ele><time>2026-05-03T08:15:15Z</time></trkpt><trkpt lat="50.102196726672105" lon="14.614614738362638"><ele>263.0</ele><time>2026-05-03T08:15:16Z</time></trkpt><trkpt lat="50.10201414677947" lon="14.614189541062496"><ele>263.0</ele><time>2026-05-03T08:15:17Z</time></trkpt><trkpt lat="50.10183346876853" lon="14.613764310350533"><ele>263.0</ele><time>2026-05-03T08:15:18Z</time></trkpt><trkpt lat="50.101650415610614" lon="14.613336077486984"><ele>263.0</ele><time>2026-05-03T08:15:19Z</time></trkpt><trkpt lat="50.10146644267966" lon="14.612900412637195"><ele>263.0</ele><time>2026-05-03T08:15:20Z</time></trkpt><trkpt lat="50.10128172408339" lon="14.612462132947147"><ele>262.0</ele><time>2026-05-03T08:15:21Z</time></trkpt><trkpt lat="50.101099951534174" lon="14.612020062159754"><ele>261.0</ele><time>2026-05-03T08:15:22Z</time></trkpt><trkpt lat="50.10092151624561" lon="14.61157554537016"><ele>258.0</ele><time>2026-05-03T08:15:23Z</time></trkpt><trkpt lat="50.100752417696555" lon="14.611122002068122"><ele>255.0</ele><time>2026-05-03T08:15:24Z</time></trkpt><trkpt lat="50.10058885028811" lon="14.610669590728632"><ele>252.5</ele><time>2026-05-03T08:15:25Z</time></trkpt><trkpt lat="50.1004359512929" lon="14.61021763383066"><ele>250.0</ele><time>2026-05-03T08:15:26Z</time></trkpt><trkpt lat="50.100283480133314" lon="14.609766620156464"><ele>250.0</ele><time>2026-05-03T08:15:27Z</time></trkpt><trkpt lat="50.10013734069131" lon="14.609317520699713"><ele>250.0</ele><time>2026-05-03T08:15:28Z</time></trkpt><trkpt lat="50.09999701812002" lon="14.608863260473493"><ele>247.5</ele><time>2026-05-03T08:15:29Z</time></trkpt><trkpt lat="50.09986537605267" lon="14.608401738376992"><ele>245.0</ele><time>2026-05-03T08:15:30Z</time></trkpt><trkpt lat="50.09974046025386" lon="14.607933947106192"><ele>244.0</ele><time>2026-05-03T08:15:31Z</time></trkpt><trkpt lat="50.09961918238936" lon="14.607441791039838"><ele>243.0</ele><time>2026-05-03T08:15:32Z</time></trkpt><trkpt lat="50.099500285569434" lon="14.606945076765086"><ele>243.0</ele><time>2026-05-03T08:15:33Z</time></trkpt><trkpt lat="50.099389244849796" lon="14.606439571643671"><ele>243.0</ele><time>2026-05-03T08:15:34Z</time></trkpt><trkpt lat="50.099283666722656" lon="14.605939276011568"><ele>243.0</ele><time>2026-05-03T08:15:35Z</time></trkpt><trkpt lat="50.09920011139" lon="14.605431177150617"><ele>243.0</ele><time>2026-05-03T08:15:36Z</time></trkpt><trkpt lat="50.099114433284946" lon="14.604941268817711"><ele>243.5</ele><time>2026-05-03T08:15:37Z</time></trkpt><trkpt lat="50.09904829196914" lon="14.604468046176615"><ele>244.0</ele><time>2026-05-03T08:15:38Z</time></trkpt><trkpt lat="50.098987068446654" lon="14.603991012873088"><ele>243.0</ele><time>2026-05-03T08:15:39Z</time></trkpt><trkpt lat="50.09893580975584" lon="14.603523191707117"><ele>242.0</ele><time>2026-05-03T08:15:40Z</time></trkpt><trkpt lat="50.09889147116762" lon="14.603061049606264"><ele>242.0</ele><time>2026-05-03T08:15:41Z</time></trkpt><trkpt lat="50.0988568049488" lon="14.602598256990824"><ele>242.0</ele><time>2026-05-03T08:15:42Z</time></trkpt><trkpt lat="50.09883003944878" lon="14.602140611628817"><ele>241.5</ele><time>2026-05-03T08:15:43Z</time></trkpt><trkpt lat="50.098807016471554" lon="14.601705492652469"><ele>241.0</ele><time>2026-05-03T08:15:44Z</time></trkpt><trkpt lat="50.0987965788118" lon="14.6012821037987"><ele>240.0</ele><time>2026-05-03T08:15:45Z</time></trkpt><trkpt lat="50.09879624107539" lon="14.600870602492238"><ele>239.0</ele><time>2026-05-03T08:15:46Z</time></trkpt><trkpt lat="50.098795944878816" lon="14.600452722751216"><ele>238.0</ele><time>2026-05-03T08:15:47Z</time></trkpt><trkpt lat="50.0987953665901" lon="14.600036128117946"><ele>237.0</ele><time>2026-05-03T08:15:48Z</time></trkpt><trkpt lat="50.09879028247234" lon="14.599642887771974"><ele>236.5</ele><time>2026-05-03T08:15:49Z</time></trkpt><trkpt lat="50.098795530661945" lon="14.599265650251592"><ele>236.0</ele><time>2026-05-03T08:15:50Z</time></trkpt><trkpt lat="50.09881267764724" lon="14.598902867677634"><ele>236.0</ele><time>2026-05-03T08:15:51Z</time></trkpt><trkpt lat="50.09883674974212" lon="14.598543123223289"><ele>236.0</ele><time>2026-05-03T08:15:52Z</time></trkpt><trkpt lat="50.09886408664174" lon="14.59817849815803"><ele>236.0</ele><time>2026-05-03T08:15:53Z</time></trkpt><trkpt lat="50.098891356086334" lon="14.597815732129341"><ele>236.0</ele><time>2026-05-03T08:15:54Z</time></trkpt><trkpt lat="50.098924989512035" lon="14.597456247629186"><ele>236.0</ele><time>2026-05-03T08:15:55Z</time></trkpt><trkpt lat="50.0989806248554" lon="14.597090496141504"><ele>236.0</ele><time>2026-05-03T08:15:56Z</time></trkpt><trkpt lat="50.09906054562024" lon="14.596737463525974"><ele>235.5</ele><time>2026-05-03T08:15:57Z</time></trkpt><trkpt lat="50.09915827899123" lon="14.596403235028413"><ele>235.0</ele><time>2026-05-03T08:15:58Z</time></trkpt><trkpt lat="50.09927306138765" lon="14.596049312897469"><ele>234.5</ele><time>2026-05-03T08:15:59Z</time></trkpt><trkpt lat="50.09940856589512" lon="14.59567748634162"><ele>234.0</ele><time>2026-05-03T08:16:00Z</time></trkpt><trkpt lat="50.09956771901916" lon="14.59529822217211"><ele>233.5</ele><time>2026-05-03T08:16:01Z</time></trkpt><trkpt lat="50.09975467339186" lon="14.594919501900488"><ele>233.0</ele><time>2026-05-03T08:16:02Z</time></trkpt><trkpt lat="50.09996822499921" lon="14.594559856337915"><ele>233.0</ele><time>2026-05-03T08:16:03Z</time></trkpt><trkpt lat="50.10018612155493" lon="14.594245692247625"><ele>233.0</ele><time>2026-05-03T08:16:04Z</time></trkpt><trkpt lat="50.10038448515652" lon="14.593962004240659"><ele>233.5</ele><time>2026-05-03T08:16:05Z</time></trkpt><trkpt lat="50.1005993796233" lon="14.593602908078385"><ele>234.0</ele><time>2026-05-03T08:16:06Z</time></trkpt><trkpt lat="50.100835538798044" lon="14.593227090238333"><ele>234.0</ele><time>2026-05-03T08:16:07Z</time></trkpt><trkpt lat="50.10106775481352" lon="14.592907509621515"><ele>234.0</ele><time>2026-05-03T08:16:08Z</time></trkpt><trkpt lat="50.10126473893047" lon="14.592602493705005"><ele>234.66666666666669</ele><time>2026-05-03T08:16:09Z</time></trkpt><trkpt lat="50.10142457146464" lon="14.592332347778655"><ele>235.33333333333334</ele><time>2026-05-03T08:16:10Z</time></trkpt><trkpt lat="50.10155566462707" lon="14.592106592136915"><ele>236.0</ele><time>2026-05-03T08:16:11Z</time></trkpt><trkpt lat="50.10168188450096" lon="14.59189960930772"><ele>236.0</ele><time>2026-05-03T08:16:12Z</time></trkpt><trkpt lat="50.10181171071065" lon="14.59170072185918"><ele>236.0</ele><time>2026-05-03T08:16:13Z</time></trkpt><trkpt lat="50.10192785282935" lon="14.591533280704635"><ele>236.0</ele><time>2026-05-03T08:16:14Z</time></trkpt><trkpt lat="50.10203342020184" lon="14.591390820343697"><ele>236.0</ele><time>2026-05-03T08:16:15Z</time></trkpt><trkpt lat="50.10213269085949" lon="14.591269489306274"><ele>236.0</ele><time>2026-05-03T08:16:16Z</time></trkpt><trkpt lat="50.10223436692745" lon="14.591155179344492"><ele>236.0</ele><time>2026-05-03T08:16:17Z</time></trkpt><trkpt lat="50.10234865229282" lon="14.59104509819339"><ele>236.0</ele><time>2026-05-03T08:16:18Z</time></trkpt><trkpt lat="50.10247190256663" lon="14.590949245758704"><ele>237.25</ele><time>2026-05-03T08:16:19Z</time></trkpt><trkpt lat="50.10259740688953" lon="14.590860084930625"><ele>238.5</ele><time>2026-05-03T08:16:20Z</time></trkpt><trkpt lat="50.10272603954673" lon="14.590774239030809"><ele>239.75</ele><time>2026-05-03T08:16:21Z</time></trkpt><trkpt lat="50.102852989026395" lon="14.590669788208771"><ele>241.0</ele><time>2026-05-03T08:16:22Z</time></trkpt><trkpt lat="50.10299979917108" lon="14.590560407223132"><ele>241.0</ele><time>2026-05-03T08:16:23Z</time></trkpt><trkpt lat="50.103212205820526" lon="14.590426668860648"><ele>241.0</ele><time>2026-05-03T08:16:24Z</time></trkpt><trkpt lat="50.103462982990465" lon="14.590269742544601"><ele>240.5</ele><time>2026-05-03T08:16:25Z</time></trkpt><trkpt lat="50.10375306991639" lon="14.59011103723478"><ele>240.0</ele><time>2026-05-03T08:16:26Z</time></trkpt><trkpt lat="50.10407457538792" lon="14.589940132996755"><ele>242.0</ele><time>2026-05-03T08:16:27Z</time></trkpt><trkpt lat="50.104414164107794" lon="14.589753399186707"><ele>244.0</ele><time>2026-05-03T08:16:28Z</time></trkpt><trkpt lat="50.104784359024414" lon="14.589566380579521"><ele>245.0</ele><time>2026-05-03T08:16:29Z</time></trkpt><trkpt lat="50.10513546713314" lon="14.58941531417422"><ele>246.0</ele><time>2026-05-03T08:16:30Z</time></trkpt><trkpt lat="50.105424468353974" lon="14.589290478222363"><ele>246.0</ele><time>2026-05-03T08:16:31Z</time></trkpt><trkpt lat="50.10569951527099" lon="14.5891681284534"><ele>246.0</ele><time>2026-05-03T08:16:32Z</time></trkpt><trkpt lat="50.106000505026834" lon="14.589050977962737"><ele>247.0</ele><time>2026-05-03T08:16:33Z</time></trkpt><trkpt lat="50.106331489383706" lon="14.588913918947824"><ele>248.0</ele><time>2026-05-03T08:16:34Z</time></trkpt><trkpt lat="50.10669372031182" lon="14.588794368127036"><ele>249.5</ele><time>2026-05-03T08:16:35Z</time></trkpt><trkpt lat="50.10707125849731" lon="14.588697679583186"><ele>251.0</ele><time>2026-05-03T08:16:36Z</time></trkpt><trkpt lat="50.10739983245503" lon="14.58861868194905"><ele>252.5</ele><time>2026-05-03T08:16:37Z</time></trkpt><trkpt lat="50.10768390173861" lon="14.588545928804573"><ele>254.0</ele><time>2026-05-03T08:16:38Z</time></trkpt><trkpt lat="50.1079559477177" lon="14.58847922042345"><ele>254.0</ele><time>2026-05-03T08:16:39Z</time></trkpt><trkpt lat="50.10823343026282" lon="14.588414423021241"><ele>254.0</ele><time>2026-05-03T08:16:40Z</time></trkpt><trkpt lat="50.108515940278764" lon="14.588352281830737"><ele>255.5</ele><time>2026-05-03T08:16:41Z</time></trkpt><trkpt lat="50.108791905078796" lon="14.58829760138009"><ele>257.0</ele><time>2026-05-03T08:16:42Z</time></trkpt><trkpt lat="50.10905915028038" lon="14.588228298778043"><ele>259.5</ele><time>2026-05-03T08:16:43Z</time></trkpt><trkpt lat="50.109362911299115" lon="14.588155694031013"><ele>262.0</ele><time>2026-05-03T08:16:44Z</time></trkpt><trkpt lat="50.10971131024768" lon="14.588092151652564"><ele>263.0</ele><time>2026-05-03T08:16:45Z</time></trkpt><trkpt lat="50.11008365025327" lon="14.588063755568909"><ele>264.0</ele><time>2026-05-03T08:16:46Z</time></trkpt><trkpt lat="50.110460272449586" lon="14.588051040885404"><ele>265.0</ele><time>2026-05-03T08:16:47Z</time></trkpt><trkpt lat="50.11079897668476" lon="14.588061115961056"><ele>266.0</ele><time>2026-05-03T08:16:48Z</time></trkpt><trkpt lat="50.11107110670899" lon="14.588069351219191"><ele>266.0</ele><time>2026-05-03T08:16:49Z</time></trkpt><trkpt lat="50.11130305026342" lon="14.58807381977638"><ele>266.0</ele><time>2026-05-03T08:16:50Z</time></trkpt><trkpt lat="50.11151876788497" lon="14.588072688532227"><ele>266.0</ele><time>2026-05-03T08:16:51Z</time></trkpt><trkpt lat="50.11171482884227" lon="14.588087306610893"><ele>267.33333333333337</ele><time>2026-05-03T08:16:52Z</time></trkpt><trkpt lat="50.111880920665065" lon="14.588129445415131"><ele>268.6666666666667</ele><time>2026-05-03T08:16:53Z</time></trkpt><trkpt lat="50.11200686483365" lon="14.588224560028165"><ele>270.0</ele><time>2026-05-03T08:16:54Z</time></trkpt><trkpt lat="50.11210264256811" lon="14.588404306487831"><ele>270.0</ele><time>2026-05-03T08:16:55Z</time></trkpt><trkpt lat="50.112163186820645" lon="14.58865652937361"><ele>270.0</ele><time>2026-05-03T08:16:56Z</time></trkpt><trkpt lat="50.11216777314609" lon="14.58891033286184"><ele>270.0</ele><time>2026-05-03T08:16:57Z</time></trkpt><trkpt lat="50.11210381567694" lon="14.589130206294886"><ele>270.0</ele><time>2026-05-03T08:16:58Z</time></trkpt><trkpt lat="50.11199052079116" lon="14.589313191453625"><ele>270.0</ele><time>2026-05-03T08:16:59Z</time></trkpt><trkpt lat="50.111847739946874" lon="14.589413499219472"><ele>270.0</ele><time>2026-05-03T08:17:00Z</time></trkpt><trkpt lat="50.11168633642077" lon="14.58945080547099"><ele>268.0</ele><time>2026-05-03T08:17:01Z</time></trkpt><trkpt lat="50.111529191624584" lon="14.589383029236958"><ele>266.0</ele><time>2026-05-03T08:17:02Z</time></trkpt><trkpt lat="50.111376792831145" lon="14.589223998409878"><ele>264.0</ele><time>2026-05-03T08:17:03Z</time></trkpt><trkpt lat="50.11124043666905" lon="14.589009144809541"><ele>264.0</ele><time>2026-05-03T08:17:04Z</time></trkpt><trkpt lat="50.111114010084904" lon="14.58879677943035"><ele>264.0</ele><time>2026-05-03T08:17:05Z</time></trkpt><trkpt lat="50.11102235889493" lon="14.588581072492683"><ele>264.0</ele><time>2026-05-03T08:17:06Z</time></trkpt><trkpt lat="50.110940578558974" lon="14.588326968128158"><ele>264.6666666666667</ele><time>2026-05-03T08:17:07Z</time></trkpt><trkpt lat="50.110881700072895" lon="14.588060962570276"><ele>265.33333333333337</ele><time>2026-05-03T08:17:08Z</time></trkpt><trkpt lat="50.11083426086421" lon="14.587788365511992"><ele>266.0</ele><time>2026-05-03T08:17:09Z</time></trkpt><trkpt lat="50.1107885511106" lon="14.587440420412527"><ele>264.5</ele><time>2026-05-03T08:17:10Z</time></trkpt><trkpt lat="50.110736012682594" lon="14.587024966232512"><ele>263.0</ele><time>2026-05-03T08:17:11Z</time></trkpt><trkpt lat="50.11068068383831" lon="14.58653545429753"><ele>262.5</ele><time>2026-05-03T08:17:12Z</time></trkpt><trkpt lat="50.11061772545229" lon="14.586079003291006"><ele>262.0</ele><time>2026-05-03T08:17:13Z</time></trkpt><trkpt lat="50.11056308342638" lon="14.585699658125387"><ele>261.5</ele><time>2026-05-03T08:17:14Z</time></trkpt><trkpt lat="50.110508839177925" lon="14.585339573601534"><ele>261.0</ele><time>2026-05-03T08:17:15Z</time></trkpt><trkpt lat="50.11045788616516" lon="14.584998683445908"><ele>261.0</ele><time>2026-05-03T08:17:16Z</time></trkpt><trkpt lat="50.11039116306224" lon="14.584651701656837"><ele>261.0</ele><time>2026-05-03T08:17:17Z</time></trkpt><trkpt lat="50.11034353349717" lon="14.584265161483778"><ele>261.5</ele><time>2026-05-03T08:17:18Z</time></trkpt><trkpt lat="50.11029260725956" lon="14.583837302128671"><ele>262.0</ele><time>2026-05-03T08:17:19Z</time></trkpt><trkpt lat="50.11022656569114" lon="14.583385294401019"><ele>262.5</ele><time>2026-05-03T08:17:20Z</time></trkpt><trkpt lat="50.11016966317966" lon="14.58294402686194"><ele>263.0</ele><time>2026-05-03T08:17:21Z</time></trkpt><trkpt lat="50.11010375128439" lon="14.582451344167316"><ele>262.0</ele><time>2026-05-03T08:17:22Z</time></trkpt><trkpt lat="50.1100312391748" lon="14.581900992962705"><ele>261.0</ele><time>2026-05-03T08:17:23Z</time></trkpt><trkpt lat="50.10996196779729" lon="14.581322346644361"><ele>260.0</ele><time>2026-05-03T08:17:24Z</time></trkpt><trkpt lat="50.109889766899855" lon="14.580758662392455"><ele>259.0</ele><time>2026-05-03T08:17:25Z</time></trkpt><trkpt lat="50.10983022493637" lon="14.580268787018985"><ele>258.5</ele><time>2026-05-03T08:17:26Z</time></trkpt><trkpt lat="50.10978281556202" lon="14.579815887624038"><ele>258.0</ele><time>2026-05-03T08:17:27Z</time></trkpt><trkpt lat="50.109743867541425" lon="14.57938827885799"><ele>258.0</ele><time>2026-05-03T08:17:28Z</time></trkpt><trkpt lat="50.10970094779349" lon="14.57898485669619"><ele>258.0</ele><time>2026-05-03T08:17:29Z</time></trkpt><trkpt lat="50.10965945027969" lon="14.578603047730079"><ele>258.5</ele><time>2026-05-03T08:17:30Z</time></trkpt><trkpt lat="50.109619147382645" lon="14.578237672172499"><ele>259.0</ele><time>2026-05-03T08:17:31Z</time></trkpt><trkpt lat="50.10958192195019" lon="14.577894905483921"><ele>258.66666666666663</ele><time>2026-05-03T08:17:32Z</time></trkpt><trkpt lat="50.109545907636736" lon="14.577592411693027"><ele>258.3333333333333</ele><time>2026-05-03T08:17:33Z</time></trkpt><trkpt lat="50.10950564281492" lon="14.57734648258153"><ele>258.0</ele><time>2026-05-03T08:17:34Z</time></trkpt><trkpt lat="50.10947091412878" lon="14.577085853509429"><ele>257.3333333333333</ele><time>2026-05-03T08:17:35Z</time></trkpt><trkpt lat="50.10945191107086" lon="14.576848546199539"><ele>256.66666666666663</ele><time>2026-05-03T08:17:36Z</time></trkpt><trkpt lat="50.109452823971175" lon="14.576608427751761"><ele>256.0</ele><time>2026-05-03T08:17:37Z</time></trkpt><trkpt lat="50.10948290164328" lon="14.57638127989684"><ele>256.0</ele><time>2026-05-03T08:17:38Z</time></trkpt><trkpt lat="50.10954668076192" lon="14.57616313726747"><ele>256.0</ele><time>2026-05-03T08:17:39Z</time></trkpt><trkpt lat="50.109643302042294" lon="14.57595704719152"><ele>256.0</ele><time>2026-05-03T08:17:40Z</time></trkpt><trkpt lat="50.10975031499252" lon="14.575801353733514"><ele>256.0</ele><time>2026-05-03T08:17:41Z</time></trkpt><trkpt lat="50.109844101964605" lon="14.575676690807837"><ele>256.0</ele><time>2026-05-03T08:17:42Z</time></trkpt><trkpt lat="50.10989882831259" lon="14.57552825804185"><ele>256.0</ele><time>2026-05-03T08:17:43Z</time></trkpt><trkpt lat="50.10990669672869" lon="14.575362611851522"><ele>256.0</ele><time>2026-05-03T08:17:44Z</time></trkpt><trkpt lat="50.10988053836062" lon="14.575202827393923"><ele>256.0</ele><time>2026-05-03T08:17:45Z</time></trkpt><trkpt lat="50.10985181010961" lon="14.575100231094355"><ele>255.49999999999997</ele><time>2026-05-03T08:17:46Z</time></trkpt><trkpt lat="50.1098369309366" lon="14.575001855942118"><ele>255.0</ele><time>2026-05-03T08:17:49Z</time></trkpt><trkpt lat="50.109807107785606" lon="14.574904444871443"><ele>254.5</ele><time>2026-05-03T08:18:03Z</time></trkpt><trkpt lat="50.10975615195027" lon="14.574831422179306"><ele>254.0</ele><time>2026-05-03T08:18:04Z</time></trkpt><trkpt lat="50.109658979558915" lon="14.574786365037646"><ele>253.49999999999997</ele><time>2026-05-03T08:18:05Z</time></trkpt><trkpt lat="50.10953686076536" lon="14.574803082672842"><ele>253.0</ele><time>2026-05-03T08:18:06Z</time></trkpt><trkpt lat="50.10940064971013" lon="14.574872466215654"><ele>253.0</ele><time>2026-05-03T08:18:07Z</time></trkpt><trkpt lat="50.10926152842782" lon="14.574931145786548"><ele>253.0</ele><time>2026-05-03T08:18:08Z</time></trkpt><trkpt lat="50.10911695625061" lon="14.574978627176128"><ele>253.0</ele><time>2026-05-03T08:18:09Z</time></trkpt><trkpt lat="50.10899416077486" lon="14.57500205457746"><ele>253.0</ele><time>2026-05-03T08:18:10Z</time></trkpt><trkpt lat="50.1088901710343" lon="14.57502590289516"><ele>252.8</ele><time>2026-05-03T08:18:11Z</time></trkpt><trkpt lat="50.1087829668823" lon="14.575060675427727"><ele>252.60000000000002</ele><time>2026-05-03T08:18:12Z</time></trkpt><trkpt lat="50.108667922528895" lon="14.575074943280486"><ele>252.39999999999998</ele><time>2026-05-03T08:18:13Z</time></trkpt><trkpt lat="50.108588403611776" lon="14.575112277929708"><ele>252.2</ele><time>2026-05-03T08:18:14Z</time></trkpt><trkpt lat="50.108481018587845" lon="14.57511202144457"><ele>252.0</ele><time>2026-05-03T08:18:17Z</time></trkpt><trkpt lat="50.108326898656394" lon="14.574975034632233"><ele>252.0</ele><time>2026-05-03T08:18:19Z</time></trkpt><trkpt lat="50.10822900588848" lon="14.574839550849587"><ele>252.0</ele><time>2026-05-03T08:18:20Z</time></trkpt><trkpt lat="50.10812318559837" lon="14.574643805949522"><ele>252.0</ele><time>2026-05-03T08:18:21Z</time></trkpt><trkpt lat="50.10801201198963" lon="14.574416554059432"><ele>252.0</ele><time>2026-05-03T08:18:22Z</time></trkpt><trkpt lat="50.10788608966997" lon="14.574170175361905"><ele>252.0</ele><time>2026-05-03T08:18:23Z</time></trkpt><trkpt lat="50.10772475883973" lon="14.573873527350692"><ele>251.33333333333331</ele><time>2026-05-03T08:18:24Z</time></trkpt><trkpt lat="50.10757170811455" lon="14.573617313441229"><ele>250.66666666666666</ele><time>2026-05-03T08:18:25Z</time></trkpt><trkpt lat="50.10742315265996" lon="14.573437911318903"><ele>250.0</ele><time>2026-05-03T08:18:26Z</time></trkpt><trkpt lat="50.107271242288085" lon="14.573321459303283"><ele>251.0</ele><time>2026-05-03T08:18:27Z</time></trkpt><trkpt lat="50.10712122260561" lon="14.57326682461117"><ele>252.0</ele><time>2026-05-03T08:18:28Z</time></trkpt><trkpt lat="50.1069749359961" lon="14.573284066421612"><ele>253.0</ele><time>2026-05-03T08:18:29Z</time></trkpt><trkpt lat="50.106836666411596" lon="14.57336233443169"><ele>254.0</ele><time>2026-05-03T08:18:30Z</time></trkpt><trkpt lat="50.106705462912174" lon="14.573487065199574"><ele>254.0</ele><time>2026-05-03T08:18:31Z</time></trkpt><trkpt lat="50.10658998959686" lon="14.573656804244266"><ele>254.0</ele><time>2026-05-03T08:18:32Z</time></trkpt><trkpt lat="50.10648009228958" lon="14.573846597976601"><ele>254.0</ele><time>2026-05-03T08:18:33Z</time></trkpt><trkpt lat="50.106360815311184" lon="14.574005722815604"><ele>254.6</ele><time>2026-05-03T08:18:34Z</time></trkpt><trkpt lat="50.10626138091868" lon="14.574120858263566"><ele>255.2</ele><time>2026-05-03T08:18:35Z</time></trkpt><trkpt lat="50.106176802337224" lon="14.57424883548603"><ele>255.79999999999998</ele><time>2026-05-03T08:18:36Z</time></trkpt><trkpt lat="50.106112542374994" lon="14.574345758578565"><ele>256.4</ele><time>2026-05-03T08:18:37Z</time></trkpt><trkpt lat="50.106013325564085" lon="14.574338942000551"><ele>257.0</ele><time>2026-05-03T08:18:39Z</time></trkpt><trkpt lat="50.10594770270287" lon="14.574261752656898"><ele>257.0</ele><time>2026-05-03T08:18:40Z</time></trkpt><trkpt lat="50.10590423177237" lon="14.57411662868752"><ele>257.0</ele><time>2026-05-03T08:18:41Z</time></trkpt><trkpt lat="50.10583703991924" lon="14.574067688529261"><ele>257.0</ele><time>2026-05-03T08:18:42Z</time></trkpt><trkpt lat="50.10575520749257" lon="14.573936220134552"><ele>257.0</ele><time>2026-05-03T08:18:44Z</time></trkpt><trkpt lat="50.10568597827594" lon="14.573859953260598"><ele>257.0</ele><time>2026-05-03T08:18:45Z</time></trkpt><trkpt lat="50.105607252492355" lon="14.573772318566293"><ele>258.2</ele><time>2026-05-03T08:18:46Z</time></trkpt><trkpt lat="50.105505426711716" lon="14.573689128863188"><ele>259.4</ele><time>2026-05-03T08:18:47Z</time></trkpt><trkpt lat="50.1054109726314" lon="14.57357723911481"><ele>260.6</ele><time>2026-05-03T08:18:48Z</time></trkpt><trkpt lat="50.1053100606828" lon="14.573459156371046"><ele>261.8</ele><time>2026-05-03T08:18:49Z</time></trkpt><trkpt lat="50.10523547129755" lon="14.573384277606078"><ele>263.0</ele><time>2026-05-03T08:18:50Z</time></trkpt><trkpt lat="50.105101992877614" lon="14.57340568148263"><ele>263.0</ele><time>2026-05-03T08:18:52Z</time></trkpt><trkpt lat="50.10500456312946" lon="14.57347071032602"><ele>263.0</ele><time>2026-05-03T08:18:53Z</time></trkpt><trkpt lat="50.104877188088146" lon="14.573519328057616"><ele>263.0</ele><time>2026-05-03T08:18:54Z</time></trkpt><trkpt lat="50.10470503484569" lon="14.573543281591517"><ele>263.0</ele><time>2026-05-03T08:18:55Z</time></trkpt><trkpt lat="50.104583813571665" lon="14.573568798858386"><ele>263.6</ele><time>2026-05-03T08:18:56Z</time></trkpt><trkpt lat="50.104466474434986" lon="14.573601108483805"><ele>264.20000000000005</ele><time>2026-05-03T08:18:57Z</time></trkpt><trkpt lat="50.10436460100359" lon="14.573661993813852"><ele>264.8</ele><time>2026-05-03T08:18:58Z</time></trkpt><trkpt lat="50.10428688260333" lon="14.573667676821207"><ele>265.40000000000003</ele><time>2026-05-03T08:18:59Z</time></trkpt><trkpt lat="50.10419278644333" lon="14.57368298057451"><ele>266.0</ele><time>2026-05-03T08:19:01Z</time></trkpt><trkpt lat="50.10420717601763" lon="14.573470081838934"><ele>266.0</ele><time>2026-05-03T08:19:03Z</time></trkpt><trkpt lat="50.10418893055224" lon="14.573338143591068"><ele>266.0</ele><time>2026-05-03T08:19:04Z</time></trkpt><trkpt lat="50.10416625237632" lon="14.573180702249491"><ele>266.0</ele><time>2026-05-03T08:19:05Z</time></trkpt><trkpt lat="50.10414053900981" lon="14.573003366391346"><ele>266.0</ele><time>2026-05-03T08:19:06Z</time></trkpt><trkpt lat="50.10410399313505" lon="14.57282931414616"><ele>266.0</ele><time>2026-05-03T08:19:07Z</time></trkpt><trkpt lat="50.10408104400792" lon="14.572662214779038"><ele>264.6666666666667</ele><time>2026-05-03T08:19:08Z</time></trkpt><trkpt lat="50.10407528465776" lon="14.57252971151283"><ele>263.33333333333337</ele><time>2026-05-03T08:19:09Z</time></trkpt><trkpt lat="50.10406027205787" lon="14.572415167920829"><ele>262.0</ele><time>2026-05-03T08:19:10Z</time></trkpt><trkpt lat="50.10404359841656" lon="14.572285609948374"><ele>260.6666666666667</ele><time>2026-05-03T08:19:11Z</time></trkpt><trkpt lat="50.104017111839056" lon="14.572194850738743"><ele>259.3333333333333</ele><time>2026-05-03T08:19:12Z</time></trkpt><trkpt lat="50.10396294238669" lon="14.572269836266498"><ele>258.0</ele><time>2026-05-03T08:20:13.999Z</time></trkpt><trkpt lat="50.10388872783476" lon="14.57230896374392"><ele>257.99999999999994</ele><time>2026-05-03T08:20:28.999Z</time></trkpt><trkpt lat="50.10390300551965" lon="14.572207268108265"><ele>258.0</ele><time>2026-05-03T08:23:05.999Z</time></trkpt><trkpt lat="50.10393753375917" lon="14.572117027258152"><ele>258.0</ele><time>2026-05-03T08:23:12Z</time></trkpt><trkpt lat="50.10396298939243" lon="14.572018556731908"><ele>258.0</ele><time>2026-05-03T08:23:17Z</time></trkpt><trkpt lat="50.10401142135259" lon="14.57195241614377"><ele>258.0</ele><time>2026-05-03T08:23:28Z</time></trkpt><trkpt lat="50.10401087270867" lon="14.572062179457065"><ele>257.99999999999994</ele><time>2026-05-03T08:24:27Z</time></trkpt><trkpt lat="50.10402887019883" lon="14.572158777817112"><ele>258.0</ele><time>2026-05-03T08:24:35Z</time></trkpt><trkpt lat="50.1040098890916" lon="14.572377992147128"><ele>258.0</ele><time>2026-05-03T08:29:48Z</time></trkpt><trkpt lat="50.104034694822715" lon="14.572529121918704"><ele>258.0</ele><time>2026-05-03T08:29:49Z</time></trkpt><trkpt lat="50.10410322164181" lon="14.572840378239514"><ele>258.0</ele><time>2026-05-03T08:30:34.999Z</time></trkpt><trkpt lat="50.10414408442231" lon="14.57305659946589"><ele>259.6</ele><time>2026-05-03T08:30:35.999Z</time></trkpt><trkpt lat="50.104144516087395" lon="14.573265953631445"><ele>261.20000000000005</ele><time>2026-05-03T08:30:36.999Z</time></trkpt><trkpt lat="50.104164435786075" lon="14.573406975003078"><ele>262.8</ele><time>2026-05-03T08:30:37.999Z</time></trkpt><trkpt lat="50.10417976470175" lon="14.573518046477812"><ele>264.40000000000003</ele><time>2026-05-03T08:30:38.999Z</time></trkpt><trkpt lat="50.10420123594745" lon="14.573676207901082"><ele>266.0</ele><time>2026-05-03T08:30:40.999Z</time></trkpt><trkpt lat="50.10437143269791" lon="14.57368554957098"><ele>266.0</ele><time>2026-05-03T08:30:44.999Z</time></trkpt><trkpt lat="50.10447098262874" lon="14.573649153163878"><ele>266.0</ele><time>2026-05-03T08:30:46.999Z</time></trkpt><trkpt lat="50.10454877408813" lon="14.573623610647877"><ele>266.0</ele><time>2026-05-03T08:30:48.999Z</time></trkpt><trkpt lat="50.104628673194334" lon="14.57360847762988"><ele>266.0</ele><time>2026-05-03T08:30:50.999Z</time></trkpt><trkpt lat="50.104743408334535" lon="14.573561027279954"><ele>266.0</ele><time>2026-05-03T08:30:52.999Z</time></trkpt><trkpt lat="50.10480640466388" lon="14.573535320305483"><ele>266.0</ele><time>2026-05-03T08:30:53.999Z</time></trkpt><trkpt lat="50.10487050929173" lon="14.573516021731022"><ele>265.40000000000003</ele><time>2026-05-03T08:30:54.999Z</time></trkpt><trkpt lat="50.10499059544649" lon="14.573477263984545"><ele>264.8</ele><time>2026-05-03T08:30:56.999Z</time></trkpt><trkpt lat="50.10505320939275" lon="14.573459599256365"><ele>264.20000000000005</ele><time>2026-05-03T08:30:57.999Z</time></trkpt><trkpt lat="50.10515174816033" lon="14.573430679072565"><ele>263.6</ele><time>2026-05-03T08:30:59.999Z</time></trkpt><trkpt lat="50.10523321305983" lon="14.573451567852535"><ele>263.0</ele><time>2026-05-03T08:31:01.999Z</time></trkpt><trkpt lat="50.10531319536914" lon="14.573542891371815"><ele>263.0</ele><time>2026-05-03T08:31:03.999Z</time></trkpt><trkpt lat="50.10540142288882" lon="14.5736440595849"><ele>263.0</ele><time>2026-05-03T08:31:05.999Z</time></trkpt><trkpt lat="50.10548946791066" lon="14.573740505692935"><ele>263.0</ele><time>2026-05-03T08:31:07.999Z</time></trkpt><trkpt lat="50.10557539508063" lon="14.573842067819637"><ele>263.0</ele><time>2026-05-03T08:31:09.999Z</time></trkpt><trkpt lat="50.105661282319986" lon="14.573918125182612"><ele>263.0</ele><time>2026-05-03T08:31:11.999Z</time></trkpt><trkpt lat="50.10572263431925" lon="14.573980928592947"><ele>261.8</ele><time>2026-05-03T08:31:13.999Z</time></trkpt><trkpt lat="50.10578168434045" lon="14.574050493919875"><ele>260.6</ele><time>2026-05-03T08:31:15.999Z</time></trkpt><trkpt lat="50.10585285494872" lon="14.57414143138406"><ele>259.4</ele><time>2026-05-03T08:31:17.999Z</time></trkpt><trkpt lat="50.10597138157215" lon="14.574269612043715"><ele>258.2</ele><time>2026-05-03T08:31:19.999Z</time></trkpt><trkpt lat="50.10604292848982" lon="14.57435212266074"><ele>257.0</ele><time>2026-05-03T08:31:20.999Z</time></trkpt><trkpt lat="50.10609354286005" lon="14.574432300373113"><ele>257.0</ele><time>2026-05-03T08:31:21.999Z</time></trkpt><trkpt lat="50.10614308371389" lon="14.574497607780007"><ele>257.0</ele><time>2026-05-03T08:31:22.999Z</time></trkpt><trkpt lat="50.10620498786963" lon="14.574557200468593"><ele>257.0</ele><time>2026-05-03T08:31:24.999Z</time></trkpt><trkpt lat="50.1062965537019" lon="14.574448024137336"><ele>257.0</ele><time>2026-05-03T08:31:25.999Z</time></trkpt><trkpt lat="50.10634499862913" lon="14.574372802356812"><ele>257.0</ele><time>2026-05-03T08:31:26.999Z</time></trkpt><trkpt lat="50.10638370219299" lon="14.574283940859862"><ele>257.0</ele><time>2026-05-03T08:31:27.999Z</time></trkpt><trkpt lat="50.10644120100611" lon="14.574182469449312"><ele>257.0</ele><time>2026-05-03T08:31:28.999Z</time></trkpt><trkpt lat="50.106510843318475" lon="14.574064892021328"><ele>257.0</ele><time>2026-05-03T08:31:29.999Z</time></trkpt><trkpt lat="50.10657723272749" lon="14.573955313229328"><ele>257.0</ele><time>2026-05-03T08:31:30.999Z</time></trkpt><trkpt lat="50.106646759394124" lon="14.573851432442204"><ele>257.0</ele><time>2026-05-03T08:31:31.999Z</time></trkpt><trkpt lat="50.10671822262783" lon="14.573759219670846"><ele>257.0</ele><time>2026-05-03T08:31:32.999Z</time></trkpt><trkpt lat="50.10679622803228" lon="14.573641608659363"><ele>256.5</ele><time>2026-05-03T08:31:33.999Z</time></trkpt><trkpt lat="50.10687140157627" lon="14.573549448650004"><ele>256.0</ele><time>2026-05-03T08:31:35Z</time></trkpt><trkpt lat="50.106946643099484" lon="14.573490990680641"><ele>255.5</ele><time>2026-05-03T08:31:36Z</time></trkpt><trkpt lat="50.10703385739748" lon="14.573460899704715"><ele>255.0</ele><time>2026-05-03T08:31:37Z</time></trkpt><trkpt lat="50.10712266081504" lon="14.573453492027486"><ele>254.50000000000003</ele><time>2026-05-03T08:31:38Z</time></trkpt><trkpt lat="50.10720198710201" lon="14.573460989790268"><ele>254.0</ele><time>2026-05-03T08:31:39Z</time></trkpt><trkpt lat="50.10727847573282" lon="14.573481194884744"><ele>254.0</ele><time>2026-05-03T08:31:40Z</time></trkpt><trkpt lat="50.10733932843629" lon="14.573521336873526"><ele>253.99999999999997</ele><time>2026-05-03T08:31:41Z</time></trkpt><trkpt lat="50.10740050702288" lon="14.573560377724515"><ele>253.99999999999997</ele><time>2026-05-03T08:31:42Z</time></trkpt><trkpt lat="50.107503753637594" lon="14.573620862021603"><ele>254.0</ele><time>2026-05-03T08:31:44Z</time></trkpt><trkpt lat="50.10758308184992" lon="14.573699943867414"><ele>254.0</ele><time>2026-05-03T08:31:46Z</time></trkpt><trkpt lat="50.10767438062672" lon="14.57385056634335"><ele>253.6</ele><time>2026-05-03T08:31:48Z</time></trkpt><trkpt lat="50.10773388555813" lon="14.573950111118563"><ele>253.2</ele><time>2026-05-03T08:31:50Z</time></trkpt><trkpt lat="50.10778916804775" lon="14.574051350222861"><ele>252.79999999999998</ele><time>2026-05-03T08:31:56Z</time></trkpt><trkpt lat="50.107911800998224" lon="14.573911109186023"><ele>252.39999999999998</ele><time>2026-05-03T08:31:57Z</time></trkpt><trkpt lat="50.107984273972285" lon="14.573793005039308"><ele>252.0</ele><time>2026-05-03T08:31:58Z</time></trkpt><trkpt lat="50.10804309508258" lon="14.573688097483215"><ele>251.8</ele><time>2026-05-03T08:31:59Z</time></trkpt><trkpt lat="50.108100294234816" lon="14.573607161392744"><ele>251.6</ele><time>2026-05-03T08:32:00Z</time></trkpt><trkpt lat="50.10816819567057" lon="14.57352817684123"><ele>251.40000000000003</ele><time>2026-05-03T08:32:01Z</time></trkpt><trkpt lat="50.10824433529851" lon="14.57344105564373"><ele>251.20000000000002</ele><time>2026-05-03T08:32:02Z</time></trkpt><trkpt lat="50.10832637091655" lon="14.573367702498084"><ele>251.0</ele><time>2026-05-03T08:32:03Z</time></trkpt><trkpt lat="50.108422996125284" lon="14.57332548972963"><ele>251.0</ele><time>2026-05-03T08:32:04Z</time></trkpt><trkpt lat="50.10851856759293" lon="14.573341455710354"><ele>251.00000000000003</ele><time>2026-05-03T08:32:05Z</time></trkpt><trkpt lat="50.10861275187623" lon="14.573400713001895"><ele>251.00000000000003</ele><time>2026-05-03T08:32:06Z</time></trkpt><trkpt lat="50.108674552337895" lon="14.5735156250789"><ele>251.0</ele><time>2026-05-03T08:32:07Z</time></trkpt><trkpt lat="50.108714429311114" lon="14.573666418401169"><ele>251.0</ele><time>2026-05-03T08:32:08Z</time></trkpt><trkpt lat="50.10874441430187" lon="14.573830317388042"><ele>250.75</ele><time>2026-05-03T08:32:09Z</time></trkpt><trkpt lat="50.10877718440569" lon="14.573995447865178"><ele>250.5</ele><time>2026-05-03T08:32:10Z</time></trkpt><trkpt lat="50.10881624070871" lon="14.574169099956576"><ele>250.25</ele><time>2026-05-03T08:32:11Z</time></trkpt><trkpt lat="50.10885010118785" lon="14.574361119456668"><ele>250.0</ele><time>2026-05-03T08:32:12Z</time></trkpt><trkpt lat="50.108879898504355" lon="14.57456186183896"><ele>250.5</ele><time>2026-05-03T08:32:13Z</time></trkpt><trkpt lat="50.10891031695936" lon="14.57474733029925"><ele>251.0</ele><time>2026-05-03T08:32:14Z</time></trkpt><trkpt lat="50.108945996803286" lon="14.574913577771802"><ele>251.5</ele><time>2026-05-03T08:32:15Z</time></trkpt><trkpt lat="50.108990246466114" lon="14.575104890135268"><ele>252.0</ele><time>2026-05-03T08:32:16Z</time></trkpt><trkpt lat="50.10903136154929" lon="14.575306506412504"><ele>252.75</ele><time>2026-05-03T08:32:17Z</time></trkpt><trkpt lat="50.10907081392737" lon="14.575513706633215"><ele>253.5</ele><time>2026-05-03T08:32:18Z</time></trkpt><trkpt lat="50.10911472892557" lon="14.575723822290136"><ele>254.25</ele><time>2026-05-03T08:32:19Z</time></trkpt><trkpt lat="50.10913381895727" lon="14.575945469517778"><ele>255.0</ele><time>2026-05-03T08:32:20Z</time></trkpt><trkpt lat="50.109209926139066" lon="14.57618044109715"><ele>255.5</ele><time>2026-05-03T08:32:21Z</time></trkpt><trkpt lat="50.10926350601705" lon="14.576491651111356"><ele>256.0</ele><time>2026-05-03T08:32:22Z</time></trkpt><trkpt lat="50.109314954519064" lon="14.576866173022838"><ele>257.0</ele><time>2026-05-03T08:32:23Z</time></trkpt><trkpt lat="50.10936634678515" lon="14.577279459783666"><ele>258.0</ele><time>2026-05-03T08:32:24Z</time></trkpt><trkpt lat="50.10941920112264" lon="14.5777269536155"><ele>258.0</ele><time>2026-05-03T08:32:25Z</time></trkpt><trkpt lat="50.10947736225693" lon="14.578200039263436"><ele>258.0</ele><time>2026-05-03T08:32:26Z</time></trkpt><trkpt lat="50.10953905527681" lon="14.578690543422978"><ele>258.0</ele><time>2026-05-03T08:32:27Z</time></trkpt><trkpt lat="50.109602297325054" lon="14.579156567889294"><ele>258.0</ele><time>2026-05-03T08:32:28Z</time></trkpt><trkpt lat="50.10966026956742" lon="14.579587671644594"><ele>257.5</ele><time>2026-05-03T08:32:29Z</time></trkpt><trkpt lat="50.10971856264837" lon="14.580040118317822"><ele>257.0</ele><time>2026-05-03T08:32:30Z</time></trkpt><trkpt lat="50.10977563700955" lon="14.580461740059395"><ele>258.0</ele><time>2026-05-03T08:32:31Z</time></trkpt><trkpt lat="50.109827940001765" lon="14.580833499041299"><ele>259.0</ele><time>2026-05-03T08:32:32Z</time></trkpt><trkpt lat="50.109873266055764" lon="14.581184745452948"><ele>260.0</ele><time>2026-05-03T08:32:33Z</time></trkpt><trkpt lat="50.109915559826035" lon="14.581527873253702"><ele>261.0</ele><time>2026-05-03T08:32:34Z</time></trkpt><trkpt lat="50.10995934084897" lon="14.581878549165747"><ele>262.0</ele><time>2026-05-03T08:32:35Z</time></trkpt><trkpt lat="50.11000905196673" lon="14.58223598354218"><ele>263.0</ele><time>2026-05-03T08:32:36Z</time></trkpt><trkpt lat="50.110058554722926" lon="14.58260095377976"><ele>263.0</ele><time>2026-05-03T08:32:37Z</time></trkpt><trkpt lat="50.11010624347938" lon="14.58297068951391"><ele>263.0</ele><time>2026-05-03T08:32:38Z</time></trkpt><trkpt lat="50.11015268354751" lon="14.583357276112178"><ele>262.5</ele><time>2026-05-03T08:32:39Z</time></trkpt><trkpt lat="50.11020344792517" lon="14.58377010169424"><ele>262.0</ele><time>2026-05-03T08:32:40Z</time></trkpt><trkpt lat="50.11025281142127" lon="14.584204338855768"><ele>261.5</ele><time>2026-05-03T08:32:41Z</time></trkpt><trkpt lat="50.110303131077515" lon="14.584661063893677"><ele>261.0</ele><time>2026-05-03T08:32:42Z</time></trkpt><trkpt lat="50.11034576494426" lon="14.585136573244966"><ele>261.5</ele><time>2026-05-03T08:32:43Z</time></trkpt><trkpt lat="50.110391429948855" lon="14.585603734873155"><ele>262.0</ele><time>2026-05-03T08:32:44Z</time></trkpt><trkpt lat="50.110440984997624" lon="14.586071973111192"><ele>261.5</ele><time>2026-05-03T08:32:45Z</time></trkpt><trkpt lat="50.11049350917223" lon="14.586528032272062"><ele>261.0</ele><time>2026-05-03T08:32:46Z</time></trkpt><trkpt lat="50.11058965130221" lon="14.586946863583712"><ele>262.0</ele><time>2026-05-03T08:32:47Z</time></trkpt><trkpt lat="50.110647849635455" lon="14.587391064339947"><ele>263.0</ele><time>2026-05-03T08:32:48Z</time></trkpt><trkpt lat="50.11070227241973" lon="14.587806737168854"><ele>264.5</ele><time>2026-05-03T08:32:49Z</time></trkpt><trkpt lat="50.11075075998255" lon="14.588179469840458"><ele>266.0</ele><time>2026-05-03T08:32:50Z</time></trkpt><trkpt lat="50.11079882900048" lon="14.588511154748545"><ele>265.33333333333337</ele><time>2026-05-03T08:32:51Z</time></trkpt><trkpt lat="50.11084964502478" lon="14.588813849466174"><ele>264.6666666666667</ele><time>2026-05-03T08:32:52Z</time></trkpt><trkpt lat="50.11089371263983" lon="14.58906985607917"><ele>264.0</ele><time>2026-05-03T08:32:53Z</time></trkpt><trkpt lat="50.110781332430726" lon="14.589359438731167"><ele>264.0</ele><time>2026-05-03T08:32:54Z</time></trkpt><trkpt lat="50.110716135579764" lon="14.58957347671766"><ele>264.0</ele><time>2026-05-03T08:32:55Z</time></trkpt><trkpt lat="50.11061697711967" lon="14.589734592645318"><ele>264.0</ele><time>2026-05-03T08:32:56Z</time></trkpt><trkpt lat="50.11050277536527" lon="14.589857212265334"><ele>264.0</ele><time>2026-05-03T08:32:57Z</time></trkpt><trkpt lat="50.11036343042199" lon="14.589930165624114"><ele>264.0</ele><time>2026-05-03T08:32:58Z</time></trkpt><trkpt lat="50.11019190534837" lon="14.589952725547212"><ele>264.0</ele><time>2026-05-03T08:32:59Z</time></trkpt><trkpt lat="50.11002614594314" lon="14.589899546152386"><ele>264.0</ele><time>2026-05-03T08:33:00Z</time></trkpt><trkpt lat="50.10986736379825" lon="14.589776939791886"><ele>263.0</ele><time>2026-05-03T08:33:01Z</time></trkpt><trkpt lat="50.10972359113703" lon="14.589600628456472"><ele>262.0</ele><time>2026-05-03T08:33:02Z</time></trkpt><trkpt lat="50.10961233955127" lon="14.589389144021935"><ele>261.0</ele><time>2026-05-03T08:33:03Z</time></trkpt><trkpt lat="50.109558960897566" lon="14.589142505694623"><ele>261.0</ele><time>2026-05-03T08:33:04Z</time></trkpt><trkpt lat="50.109537952794305" lon="14.588899110336136"><ele>261.0</ele><time>2026-05-03T08:33:05Z</time></trkpt><trkpt lat="50.10957518886834" lon="14.588658464503316"><ele>261.0</ele><time>2026-05-03T08:33:06Z</time></trkpt><trkpt lat="50.10966459575183" lon="14.58844289048711"><ele>261.3333333333333</ele><time>2026-05-03T08:33:07Z</time></trkpt><trkpt lat="50.10978438725305" lon="14.588265012883387"><ele>261.66666666666663</ele><time>2026-05-03T08:33:08Z</time></trkpt><trkpt lat="50.10994435202441" lon="14.58816895534412"><ele>262.0</ele><time>2026-05-03T08:33:09Z</time></trkpt><trkpt lat="50.110117570297454" lon="14.588139291758432"><ele>262.66666666666663</ele><time>2026-05-03T08:33:10Z</time></trkpt><trkpt lat="50.11031156469274" lon="14.588138791609177"><ele>263.3333333333333</ele><time>2026-05-03T08:33:11Z</time></trkpt><trkpt lat="50.110526553156056" lon="14.58812630149563"><ele>264.0</ele><time>2026-05-03T08:33:12Z</time></trkpt><trkpt lat="50.11074999888544" lon="14.58810404307102"><ele>264.6666666666667</ele><time>2026-05-03T08:33:13Z</time></trkpt><trkpt lat="50.11095612187599" lon="14.588076711739726"><ele>265.33333333333337</ele><time>2026-05-03T08:33:14Z</time></trkpt><trkpt lat="50.111166653224956" lon="14.588037890334512"><ele>266.0</ele><time>2026-05-03T08:33:15Z</time></trkpt><trkpt lat="50.11139654461302" lon="14.588008937910708"><ele>268.0</ele><time>2026-05-03T08:33:16Z</time></trkpt><trkpt lat="50.111646054632374" lon="14.58800771318249"><ele>270.0</ele><time>2026-05-03T08:33:17Z</time></trkpt><trkpt lat="50.11191467507204" lon="14.588016740121693"><ele>270.0</ele><time>2026-05-03T08:33:18Z</time></trkpt><trkpt lat="50.11219848827985" lon="14.588026211179809"><ele>270.0</ele><time>2026-05-03T08:33:19Z</time></trkpt><trkpt lat="50.1125013465002" lon="14.588038697563176"><ele>274.5</ele><time>2026-05-03T08:33:20Z</time></trkpt><trkpt lat="50.112829359777216" lon="14.588067931556257"><ele>279.0</ele><time>2026-05-03T08:33:21Z</time></trkpt><trkpt lat="50.113170989596014" lon="14.588109572982214"><ele>280.0</ele><time>2026-05-03T08:33:22Z</time></trkpt><trkpt lat="50.11351216177222" lon="14.588152440790395"><ele>281.0</ele><time>2026-05-03T08:33:23Z</time></trkpt><trkpt lat="50.11384878440447" lon="14.588203708866766"><ele>282.5</ele><time>2026-05-03T08:33:24Z</time></trkpt><trkpt lat="50.11417128231094" lon="14.58827224814086"><ele>284.0</ele><time>2026-05-03T08:33:25Z</time></trkpt><trkpt lat="50.11448452262776" lon="14.588338949975434"><ele>284.0</ele><time>2026-05-03T08:33:26Z</time></trkpt><trkpt lat="50.1147997156384" lon="14.588392990707936"><ele>284.0</ele><time>2026-05-03T08:33:27Z</time></trkpt><trkpt lat="50.115115061365906" lon="14.588453107197939"><ele>285.0</ele><time>2026-05-03T08:33:28Z</time></trkpt><trkpt lat="50.11540539908129" lon="14.588522297641708"><ele>286.0</ele><time>2026-05-03T08:33:29Z</time></trkpt><trkpt lat="50.11568077060837" lon="14.588615323410336"><ele>286.5</ele><time>2026-05-03T08:33:30Z</time></trkpt><trkpt lat="50.11595696674325" lon="14.58872404854701"><ele>287.0</ele><time>2026-05-03T08:33:31Z</time></trkpt><trkpt lat="50.116227400783316" lon="14.588856844651222"><ele>287.0</ele><time>2026-05-03T08:33:32Z</time></trkpt><trkpt lat="50.11650706133659" lon="14.589031476587992"><ele>287.0</ele><time>2026-05-03T08:33:33Z</time></trkpt><trkpt lat="50.11680681555419" lon="14.589238424348773"><ele>288.0</ele><time>2026-05-03T08:33:34Z</time></trkpt><trkpt lat="50.11712374093838" lon="14.58945664087629"><ele>289.0</ele><time>2026-05-03T08:33:35Z</time></trkpt><trkpt lat="50.1174500612398" lon="14.589686177860928"><ele>287.0</ele><time>2026-05-03T08:33:36Z</time></trkpt><trkpt lat="50.11776755614903" lon="14.589946949627953"><ele>285.0</ele><time>2026-05-03T08:33:37Z</time></trkpt><trkpt lat="50.11807880437739" lon="14.59024943081159"><ele>285.5</ele><time>2026-05-03T08:33:38Z</time></trkpt><trkpt lat="50.118389932570906" lon="14.590610580540408"><ele>286.0</ele><time>2026-05-03T08:33:39Z</time></trkpt><trkpt lat="50.11869814173056" lon="14.590969364427439"><ele>286.0</ele><time>2026-05-03T08:33:40Z</time></trkpt><trkpt lat="50.119002467418255" lon="14.591382243009532"><ele>286.0</ele><time>2026-05-03T08:33:41Z</time></trkpt><trkpt lat="50.11928174629221" lon="14.591808489469228"><ele>285.5</ele><time>2026-05-03T08:33:42Z</time></trkpt><trkpt lat="50.119523947861595" lon="14.592221390409378"><ele>285.0</ele><time>2026-05-03T08:33:43Z</time></trkpt><trkpt lat="50.11974724744244" lon="14.59262927330756"><ele>284.5</ele><time>2026-05-03T08:33:44Z</time></trkpt><trkpt lat="50.119960175361406" lon="14.593048879712669"><ele>284.0</ele><time>2026-05-03T08:33:45Z</time></trkpt><trkpt lat="50.12016268075983" lon="14.593485050877632"><ele>284.0</ele><time>2026-05-03T08:33:46Z</time></trkpt><trkpt lat="50.120350670535764" lon="14.593953443506662"><ele>284.0</ele><time>2026-05-03T08:33:47Z</time></trkpt><trkpt lat="50.120529807114714" lon="14.594434535347405"><ele>284.0</ele><time>2026-05-03T08:33:48Z</time></trkpt><trkpt lat="50.12069488569204" lon="14.59492811995621"><ele>284.0</ele><time>2026-05-03T08:33:49Z</time></trkpt><trkpt lat="50.12084771954834" lon="14.595441566302089"><ele>284.0</ele><time>2026-05-03T08:33:50Z</time></trkpt><trkpt lat="50.12098732976844" lon="14.595974480874007"><ele>284.0</ele><time>2026-05-03T08:33:51Z</time></trkpt><trkpt lat="50.12111927799143" lon="14.596527605993309"><ele>283.0</ele><time>2026-05-03T08:33:52Z</time></trkpt><trkpt lat="50.12125583719667" lon="14.597097401387806"><ele>282.0</ele><time>2026-05-03T08:33:53Z</time></trkpt><trkpt lat="50.12139573032156" lon="14.597679803540913"><ele>282.0</ele><time>2026-05-03T08:33:54Z</time></trkpt><trkpt lat="50.121540332468186" lon="14.598266459831676"><ele>282.0</ele><time>2026-05-03T08:33:55Z</time></trkpt><trkpt lat="50.12168987223957" lon="14.598865475925997"><ele>282.0</ele><time>2026-05-03T08:33:56Z</time></trkpt><trkpt lat="50.12184284438775" lon="14.599487965843851"><ele>282.0</ele><time>2026-05-03T08:33:57Z</time></trkpt><trkpt lat="50.12198735618388" lon="14.600125104000643"><ele>282.5</ele><time>2026-05-03T08:33:58Z</time></trkpt><trkpt lat="50.12211939362702" lon="14.600783283424189"><ele>283.0</ele><time>2026-05-03T08:33:59Z</time></trkpt><trkpt lat="50.12224650845735" lon="14.601449455127788"><ele>283.0</ele><time>2026-05-03T08:34:00Z</time></trkpt><trkpt lat="50.12237007087563" lon="14.602066668614691"><ele>283.0</ele><time>2026-05-03T08:34:01Z</time></trkpt><trkpt lat="50.12249508740981" lon="14.602640582668457"><ele>282.0</ele><time>2026-05-03T08:34:02Z</time></trkpt><trkpt lat="50.12261951155521" lon="14.603212282682943"><ele>281.0</ele><time>2026-05-03T08:34:03Z</time></trkpt><trkpt lat="50.12274397575808" lon="14.603774512033446"><ele>280.5</ele><time>2026-05-03T08:34:04Z</time></trkpt><trkpt lat="50.12285978760109" lon="14.604315109035305"><ele>280.0</ele><time>2026-05-03T08:34:05Z</time></trkpt><trkpt lat="50.122972589654104" lon="14.604842477002588"><ele>280.0</ele><time>2026-05-03T08:34:06Z</time></trkpt><trkpt lat="50.12308039862639" lon="14.60534814456038"><ele>280.0</ele><time>2026-05-03T08:34:07Z</time></trkpt><trkpt lat="50.12318699083096" lon="14.605852569359113"><ele>278.5</ele><time>2026-05-03T08:34:08Z</time></trkpt><trkpt lat="50.12329351753557" lon="14.606350117796987"><ele>277.0</ele><time>2026-05-03T08:34:09Z</time></trkpt><trkpt lat="50.1234001250878" lon="14.606848397549262"><ele>277.0</ele><time>2026-05-03T08:34:10Z</time></trkpt><trkpt lat="50.12350860685174" lon="14.607357954154654"><ele>277.0</ele><time>2026-05-03T08:34:11Z</time></trkpt><trkpt lat="50.12361792901009" lon="14.607871661976326"><ele>277.0</ele><time>2026-05-03T08:34:12Z</time></trkpt><trkpt lat="50.123728999088875" lon="14.60839031525745"><ele>277.0</ele><time>2026-05-03T08:34:13Z</time></trkpt><trkpt lat="50.123845603702556" lon="14.608911233258546"><ele>277.5</ele><time>2026-05-03T08:34:14Z</time></trkpt><trkpt lat="50.12396460668489" lon="14.609426102367086"><ele>278.0</ele><time>2026-05-03T08:34:15Z</time></trkpt><trkpt lat="50.12408548235745" lon="14.609946721264885"><ele>277.0</ele><time>2026-05-03T08:34:16Z</time></trkpt><trkpt lat="50.12420635320681" lon="14.610474703326485"><ele>276.0</ele><time>2026-05-03T08:34:17Z</time></trkpt><trkpt lat="50.12432732810901" lon="14.611001504203966"><ele>276.5</ele><time>2026-05-03T08:34:18Z</time></trkpt><trkpt lat="50.124450966455136" lon="14.611533391030566"><ele>277.0</ele><time>2026-05-03T08:34:19Z</time></trkpt><trkpt lat="50.12457354887303" lon="14.612056290539218"><ele>276.0</ele><time>2026-05-03T08:34:20Z</time></trkpt><trkpt lat="50.124694048327605" lon="14.612563456709006"><ele>275.0</ele><time>2026-05-03T08:34:21Z</time></trkpt><trkpt lat="50.124810429886224" lon="14.613047777614591"><ele>275.0</ele><time>2026-05-03T08:34:22Z</time></trkpt><trkpt lat="50.124924550480884" lon="14.613510022235944"><ele>275.0</ele><time>2026-05-03T08:34:23Z</time></trkpt><trkpt lat="50.125036991031145" lon="14.613962199658008"><ele>275.0</ele><time>2026-05-03T08:34:24Z</time></trkpt><trkpt lat="50.12515228307497" lon="14.614412994109042"><ele>275.0</ele><time>2026-05-03T08:34:25Z</time></trkpt><trkpt lat="50.12526533982175" lon="14.61486344261655"><ele>275.0</ele><time>2026-05-03T08:34:26Z</time></trkpt><trkpt lat="50.125378159215" lon="14.615311582114105"><ele>275.0</ele><time>2026-05-03T08:34:27Z</time></trkpt><trkpt lat="50.125495371987746" lon="14.615758459848553"><ele>273.5</ele><time>2026-05-03T08:34:28Z</time></trkpt><trkpt lat="50.12561776177114" lon="14.616200621851387"><ele>272.0</ele><time>2026-05-03T08:34:29Z</time></trkpt><trkpt lat="50.125734446505305" lon="14.616626940271583"><ele>271.0</ele><time>2026-05-03T08:34:30Z</time></trkpt><trkpt lat="50.125849491793026" lon="14.617034891281348"><ele>270.0</ele><time>2026-05-03T08:34:31Z</time></trkpt><trkpt lat="50.12596178483793" lon="14.6174337568215"><ele>271.0</ele><time>2026-05-03T08:34:32Z</time></trkpt><trkpt lat="50.126076133929494" lon="14.617838002909906"><ele>272.0</ele><time>2026-05-03T08:34:33Z</time></trkpt><trkpt lat="50.12619648454296" lon="14.618253679079995"><ele>272.5</ele><time>2026-05-03T08:34:34Z</time></trkpt><trkpt lat="50.126324838543695" lon="14.618696267938892"><ele>273.0</ele><time>2026-05-03T08:34:35Z</time></trkpt><trkpt lat="50.12646242217005" lon="14.619165643798324"><ele>273.0</ele><time>2026-05-03T08:34:36Z</time></trkpt><trkpt lat="50.126607350684445" lon="14.619653199331863"><ele>273.0</ele><time>2026-05-03T08:34:37Z</time></trkpt><trkpt lat="50.12675782327251" lon="14.620151892613151"><ele>272.5</ele><time>2026-05-03T08:34:38Z</time></trkpt><trkpt lat="50.126914983882116" lon="14.620661709681245"><ele>272.0</ele><time>2026-05-03T08:34:39Z</time></trkpt><trkpt lat="50.12707768963432" lon="14.621178294530061"><ele>271.5</ele><time>2026-05-03T08:34:40Z</time></trkpt><trkpt lat="50.12724707359003" lon="14.621701625493184"><ele>271.0</ele><time>2026-05-03T08:34:41Z</time></trkpt><trkpt lat="50.12742245698792" lon="14.622227933084488"><ele>271.0</ele><time>2026-05-03T08:34:42Z</time></trkpt><trkpt lat="50.12760267321346" lon="14.622759767926048"><ele>271.0</ele><time>2026-05-03T08:34:43Z</time></trkpt><trkpt lat="50.127770907578146" lon="14.623262560215126"><ele>268.5</ele><time>2026-05-03T08:34:44Z</time></trkpt><trkpt lat="50.12794484929143" lon="14.623752524339313"><ele>266.0</ele><time>2026-05-03T08:34:45Z</time></trkpt><trkpt lat="50.12811799375712" lon="14.624237265768926"><ele>265.5</ele><time>2026-05-03T08:34:46Z</time></trkpt><trkpt lat="50.12829384634629" lon="14.624727261508456"><ele>265.0</ele><time>2026-05-03T08:34:47Z</time></trkpt><trkpt lat="50.12847898538337" lon="14.625237242919399"><ele>265.0</ele><time>2026-05-03T08:34:48Z</time></trkpt><trkpt lat="50.128670650606004" lon="14.625755278257742"><ele>265.0</ele><time>2026-05-03T08:34:49Z</time></trkpt><trkpt lat="50.1288661722116" lon="14.626278003051395"><ele>264.5</ele><time>2026-05-03T08:34:50Z</time></trkpt><trkpt lat="50.12906841142505" lon="14.626799364042032"><ele>264.0</ele><time>2026-05-03T08:34:51Z</time></trkpt><trkpt lat="50.129281373310455" lon="14.627323307278514"><ele>265.0</ele><time>2026-05-03T08:34:52Z</time></trkpt><trkpt lat="50.12949584856416" lon="14.627846219526951"><ele>266.0</ele><time>2026-05-03T08:34:53Z</time></trkpt><trkpt lat="50.12971425164099" lon="14.628376966667984"><ele>265.5</ele><time>2026-05-03T08:34:54Z</time></trkpt><trkpt lat="50.129944744018935" lon="14.628929666115079"><ele>265.0</ele><time>2026-05-03T08:34:55Z</time></trkpt><trkpt lat="50.130183644960574" lon="14.629505759128293"><ele>265.0</ele><time>2026-05-03T08:34:56Z</time></trkpt><trkpt lat="50.130432872254616" lon="14.630094749237276"><ele>265.0</ele><time>2026-05-03T08:34:57Z</time></trkpt><trkpt lat="50.13068942621347" lon="14.630692733125684"><ele>263.5</ele><time>2026-05-03T08:34:58Z</time></trkpt><trkpt lat="50.13093227615832" lon="14.631224680428202"><ele>262.0</ele><time>2026-05-03T08:34:59Z</time></trkpt><trkpt lat="50.13115168449961" lon="14.63170200119459"><ele>262.5</ele><time>2026-05-03T08:35:00Z</time></trkpt><trkpt lat="50.131367884401456" lon="14.6321819627267"><ele>263.0</ele><time>2026-05-03T08:35:01Z</time></trkpt><trkpt lat="50.131589486397345" lon="14.632658140594483"><ele>263.0</ele><time>2026-05-03T08:35:02Z</time></trkpt><trkpt lat="50.13181983560094" lon="14.633165825705053"><ele>263.0</ele><time>2026-05-03T08:35:03Z</time></trkpt><trkpt lat="50.132066293991564" lon="14.633701248349471"><ele>263.0</ele><time>2026-05-03T08:35:04Z</time></trkpt><trkpt lat="50.1322998098219" lon="14.6341797169662"><ele>263.0</ele><time>2026-05-03T08:35:05Z</time></trkpt><trkpt lat="50.13250433787629" lon="14.634585148877328"><ele>262.5</ele><time>2026-05-03T08:35:06Z</time></trkpt><trkpt lat="50.13268713815338" lon="14.634935236663614"><ele>262.0</ele><time>2026-05-03T08:35:07Z</time></trkpt><trkpt lat="50.13284868589824" lon="14.635239544867469"><ele>262.5</ele><time>2026-05-03T08:35:08Z</time></trkpt><trkpt lat="50.1330023690542" lon="14.635516712729695"><ele>263.0</ele><time>2026-05-03T08:35:09Z</time></trkpt><trkpt lat="50.13316807076439" lon="14.635794193253087"><ele>261.5</ele><time>2026-05-03T08:35:10Z</time></trkpt><trkpt lat="50.133353645484085" lon="14.636108971008253"><ele>260.0</ele><time>2026-05-03T08:35:11Z</time></trkpt><trkpt lat="50.13353261617295" lon="14.636443105258227"><ele>260.0</ele><time>2026-05-03T08:35:12Z</time></trkpt><trkpt lat="50.133717705797245" lon="14.636791916392344"><ele>260.0</ele><time>2026-05-03T08:35:13Z</time></trkpt><trkpt lat="50.13392160722304" lon="14.637144857299582"><ele>258.5</ele><time>2026-05-03T08:35:14Z</time></trkpt><trkpt lat="50.13410820322588" lon="14.63748650061413"><ele>257.0</ele><time>2026-05-03T08:35:15Z</time></trkpt><trkpt lat="50.134295849611725" lon="14.637833770193817"><ele>257.0</ele><time>2026-05-03T08:35:16Z</time></trkpt><trkpt lat="50.13449200317365" lon="14.638178141096894"><ele>257.0</ele><time>2026-05-03T08:35:17Z</time></trkpt><trkpt lat="50.13469012782849" lon="14.638523012906584"><ele>257.0</ele><time>2026-05-03T08:35:18Z</time></trkpt><trkpt lat="50.134886686931274" lon="14.638854928318354"><ele>257.0</ele><time>2026-05-03T08:35:19Z</time></trkpt><trkpt lat="50.135095164392055" lon="14.639202848389886"><ele>257.0</ele><time>2026-05-03T08:35:20Z</time></trkpt><trkpt lat="50.1352971741342" lon="14.639544560797995"><ele>257.0</ele><time>2026-05-03T08:35:21Z</time></trkpt><trkpt lat="50.135502835744624" lon="14.639876395886626"><ele>257.0</ele><time>2026-05-03T08:35:22Z</time></trkpt><trkpt lat="50.13571261481683" lon="14.640207815190697"><ele>257.0</ele><time>2026-05-03T08:35:23Z</time></trkpt><trkpt lat="50.13592521895302" lon="14.64056758096144"><ele>255.0</ele><time>2026-05-03T08:35:24Z</time></trkpt><trkpt lat="50.13614001600512" lon="14.640939494016225"><ele>253.0</ele><time>2026-05-03T08:35:25Z</time></trkpt><trkpt lat="50.13636191765064" lon="14.64129429381269"><ele>253.0</ele><time>2026-05-03T08:35:26Z</time></trkpt><trkpt lat="50.13658510938811" lon="14.641634419279914"><ele>253.0</ele><time>2026-05-03T08:35:27Z</time></trkpt><trkpt lat="50.13681681370772" lon="14.641981714747278"><ele>252.0</ele><time>2026-05-03T08:35:28Z</time></trkpt><trkpt lat="50.13705517986032" lon="14.642330897922513"><ele>251.0</ele><time>2026-05-03T08:35:29Z</time></trkpt><trkpt lat="50.13729825825349" lon="14.642678126801718"><ele>250.5</ele><time>2026-05-03T08:35:30Z</time></trkpt><trkpt lat="50.1375427385509" lon="14.643034860806672"><ele>250.0</ele><time>2026-05-03T08:35:31Z</time></trkpt><trkpt lat="50.13779304388359" lon="14.643399357042187"><ele>249.5</ele><time>2026-05-03T08:35:32Z</time></trkpt><trkpt lat="50.13804831692457" lon="14.643760325750604"><ele>249.0</ele><time>2026-05-03T08:35:33Z</time></trkpt><trkpt lat="50.138305576343285" lon="14.644129374567273"><ele>250.0</ele><time>2026-05-03T08:35:34Z</time></trkpt><trkpt lat="50.138574501933384" lon="14.644508235142638"><ele>251.0</ele><time>2026-05-03T08:35:35Z</time></trkpt><trkpt lat="50.13884741075357" lon="14.644865875348856"><ele>250.5</ele><time>2026-05-03T08:35:36Z</time></trkpt><trkpt lat="50.13912181376652" lon="14.64522653571922"><ele>250.0</ele><time>2026-05-03T08:35:37Z</time></trkpt><trkpt lat="50.13940141998378" lon="14.645601195997594"><ele>250.5</ele><time>2026-05-03T08:35:38Z</time></trkpt><trkpt lat="50.139688029612515" lon="14.64597788695509"><ele>251.0</ele><time>2026-05-03T08:35:39Z</time></trkpt><trkpt lat="50.13997292329239" lon="14.64634043069373"><ele>251.0</ele><time>2026-05-03T08:35:40Z</time></trkpt><trkpt lat="50.14025476206091" lon="14.64670048522167"><ele>251.0</ele><time>2026-05-03T08:35:41Z</time></trkpt><trkpt lat="50.14053335931479" lon="14.64705200865725"><ele>250.0</ele><time>2026-05-03T08:35:42Z</time></trkpt><trkpt lat="50.14081180345143" lon="14.647393929522451"><ele>249.0</ele><time>2026-05-03T08:35:43Z</time></trkpt><trkpt lat="50.14109167844508" lon="14.647731810915163"><ele>248.5</ele><time>2026-05-03T08:35:44Z</time></trkpt><trkpt lat="50.14138437385199" lon="14.648086821393806"><ele>248.0</ele><time>2026-05-03T08:35:45.001Z</time></trkpt><trkpt lat="50.141696665550064" lon="14.648451900562359"><ele>247.0</ele><time>2026-05-03T08:35:46.001Z</time></trkpt><trkpt lat="50.14202715715585" lon="14.648825884298185"><ele>246.0</ele><time>2026-05-03T08:35:47.001Z</time></trkpt><trkpt lat="50.142372343793866" lon="14.649207317756375"><ele>245.5</ele><time>2026-05-03T08:35:48.001Z</time></trkpt><trkpt lat="50.14272277664911" lon="14.649598487326518"><ele>245.0</ele><time>2026-05-03T08:35:49.001Z</time></trkpt><trkpt lat="50.14308485444664" lon="14.649998895001751"><ele>245.0</ele><time>2026-05-03T08:35:50.001Z</time></trkpt><trkpt lat="50.14344899553941" lon="14.650398409441042"><ele>245.0</ele><time>2026-05-03T08:35:51.001Z</time></trkpt><trkpt lat="50.14380752558615" lon="14.650783328825908"><ele>244.5</ele><time>2026-05-03T08:35:52.001Z</time></trkpt><trkpt lat="50.14415360952241" lon="14.651152410968848"><ele>244.0</ele><time>2026-05-03T08:35:53.001Z</time></trkpt><trkpt lat="50.144502692132676" lon="14.651514030819662"><ele>244.0</ele><time>2026-05-03T08:35:54.001Z</time></trkpt><trkpt lat="50.14487783181692" lon="14.651874125880102"><ele>244.0</ele><time>2026-05-03T08:35:55.001Z</time></trkpt><trkpt lat="50.14523937420367" lon="14.652225239448885"><ele>243.0</ele><time>2026-05-03T08:35:56.001Z</time></trkpt><trkpt lat="50.14556819081328" lon="14.652538438155114"><ele>242.0</ele><time>2026-05-03T08:35:57.001Z</time></trkpt><trkpt lat="50.14586659249859" lon="14.652831688788174"><ele>242.0</ele><time>2026-05-03T08:35:58.001Z</time></trkpt><trkpt lat="50.146161536525874" lon="14.653109626963182"><ele>242.0</ele><time>2026-05-03T08:35:59.001Z</time></trkpt><trkpt lat="50.146459564732545" lon="14.653384739589413"><ele>242.5</ele><time>2026-05-03T08:36:00Z</time></trkpt><trkpt lat="50.14676479283735" lon="14.653662902494492"><ele>243.0</ele><time>2026-05-03T08:36:01Z</time></trkpt><trkpt lat="50.14707838337368" lon="14.653945287705499"><ele>242.5</ele><time>2026-05-03T08:36:02Z</time></trkpt><trkpt lat="50.14739949381979" lon="14.654237885113096"><ele>242.0</ele><time>2026-05-03T08:36:03Z</time></trkpt><trkpt lat="50.14771563386445" lon="14.654526064565896"><ele>242.0</ele><time>2026-05-03T08:36:04Z</time></trkpt><trkpt lat="50.14803148574246" lon="14.654812722019807"><ele>242.0</ele><time>2026-05-03T08:36:05Z</time></trkpt><trkpt lat="50.14835181548893" lon="14.655089886054743"><ele>239.5</ele><time>2026-05-03T08:36:06Z</time></trkpt><trkpt lat="50.14866546236708" lon="14.655359582344138"><ele>237.0</ele><time>2026-05-03T08:36:07Z</time></trkpt><trkpt lat="50.14897126061172" lon="14.65561908148414"><ele>234.0</ele><time>2026-05-03T08:36:08Z</time></trkpt><trkpt lat="50.14927558679605" lon="14.655875706953418"><ele>231.0</ele><time>2026-05-03T08:36:09Z</time></trkpt><trkpt lat="50.149573080849095" lon="14.65613308796103"><ele>231.0</ele><time>2026-05-03T08:36:10Z</time></trkpt><trkpt lat="50.1498645418041" lon="14.656385922046706"><ele>231.0</ele><time>2026-05-03T08:36:11Z</time></trkpt><trkpt lat="50.15014300217054" lon="14.65662404505244"><ele>231.0</ele><time>2026-05-03T08:36:12Z</time></trkpt><trkpt lat="50.15041241651313" lon="14.656849019968629"><ele>231.0</ele><time>2026-05-03T08:36:13Z</time></trkpt><trkpt lat="50.15067253572781" lon="14.657062807378765"><ele>231.0</ele><time>2026-05-03T08:36:14Z</time></trkpt><trkpt lat="50.150914338067786" lon="14.657263257520135"><ele>231.0</ele><time>2026-05-03T08:36:15Z</time></trkpt><trkpt lat="50.15113829567544" lon="14.657453221563653"><ele>231.0</ele><time>2026-05-03T08:36:16Z</time></trkpt><trkpt lat="50.15135878997798" lon="14.657642934205137"><ele>231.0</ele><time>2026-05-03T08:36:17Z</time></trkpt><trkpt lat="50.15157111594167" lon="14.657821636583467"><ele>230.0</ele><time>2026-05-03T08:36:18Z</time></trkpt><trkpt lat="50.151791359781434" lon="14.65799280848255"><ele>229.0</ele><time>2026-05-03T08:36:19Z</time></trkpt><trkpt lat="50.152012656053316" lon="14.658172026046897"><ele>229.0</ele><time>2026-05-03T08:36:20Z</time></trkpt><trkpt lat="50.15221925989599" lon="14.658341365370617"><ele>229.0</ele><time>2026-05-03T08:36:21Z</time></trkpt><trkpt lat="50.15242401430908" lon="14.65850558157941"><ele>227.66666666666666</ele><time>2026-05-03T08:36:22Z</time></trkpt><trkpt lat="50.15262257791896" lon="14.658665846630205"><ele>226.33333333333331</ele><time>2026-05-03T08:36:23Z</time></trkpt><trkpt lat="50.15281798494628" lon="14.658825268178854"><ele>225.0</ele><time>2026-05-03T08:36:24Z</time></trkpt><trkpt lat="50.1529965644643" lon="14.65897183407941"><ele>225.0</ele><time>2026-05-03T08:36:25Z</time></trkpt><trkpt lat="50.15317388043575" lon="14.65911607770064"><ele>225.0</ele><time>2026-05-03T08:36:26Z</time></trkpt><trkpt lat="50.1533489170368" lon="14.6592607149302"><ele>225.0</ele><time>2026-05-03T08:36:27Z</time></trkpt><trkpt lat="50.153527468405265" lon="14.659402487075239"><ele>224.5</ele><time>2026-05-03T08:36:28Z</time></trkpt><trkpt lat="50.153722953684856" lon="14.659557443794634"><ele>224.0</ele><time>2026-05-03T08:36:29Z</time></trkpt><trkpt lat="50.1539394010457" lon="14.65973701994266"><ele>225.0</ele><time>2026-05-03T08:36:30Z</time></trkpt><trkpt lat="50.1541668495133" lon="14.65992727334259"><ele>226.0</ele><time>2026-05-03T08:36:31Z</time></trkpt><trkpt lat="50.15442612657433" lon="14.66013553134746"><ele>225.5</ele><time>2026-05-03T08:36:32Z</time></trkpt><trkpt lat="50.154721123229585" lon="14.660341788596902"><ele>225.0</ele><time>2026-05-03T08:36:33Z</time></trkpt><trkpt lat="50.15503222086812" lon="14.66058412857239"><ele>225.0</ele><time>2026-05-03T08:36:34Z</time></trkpt><trkpt lat="50.15534253415394" lon="14.660826056078978"><ele>225.0</ele><time>2026-05-03T08:36:35Z</time></trkpt><trkpt lat="50.15561894843061" lon="14.661038067497534"><ele>225.5</ele><time>2026-05-03T08:36:36Z</time></trkpt><trkpt lat="50.155875045343926" lon="14.661228350416941"><ele>226.0</ele><time>2026-05-03T08:36:37Z</time></trkpt><trkpt lat="50.15612804485255" lon="14.661413081406112"><ele>226.0</ele><time>2026-05-03T08:36:38Z</time></trkpt><trkpt lat="50.156382979441965" lon="14.661597726815845"><ele>226.0</ele><time>2026-05-03T08:36:39Z</time></trkpt><trkpt lat="50.15664145272497" lon="14.661793242383855"><ele>225.5</ele><time>2026-05-03T08:36:40Z</time></trkpt><trkpt lat="50.156899628037486" lon="14.661992978162852"><ele>225.0</ele><time>2026-05-03T08:36:41Z</time></trkpt><trkpt lat="50.157154514940636" lon="14.662189817235683"><ele>224.0</ele><time>2026-05-03T08:36:42Z</time></trkpt><trkpt lat="50.157408720960525" lon="14.662385086801642"><ele>223.0</ele><time>2026-05-03T08:36:43Z</time></trkpt><trkpt lat="50.1576602123929" lon="14.6625769311621"><ele>223.0</ele><time>2026-05-03T08:36:44Z</time></trkpt><trkpt lat="50.15789846191295" lon="14.6627619569836"><ele>223.0</ele><time>2026-05-03T08:36:45Z</time></trkpt><trkpt lat="50.158123120065696" lon="14.662942184980677"><ele>223.0</ele><time>2026-05-03T08:36:46Z</time></trkpt><trkpt lat="50.15833620448852" lon="14.663118172097624"><ele>223.0</ele><time>2026-05-03T08:36:47Z</time></trkpt><trkpt lat="50.158561895992925" lon="14.663282832059501"><ele>223.0</ele><time>2026-05-03T08:36:48Z</time></trkpt><trkpt lat="50.15877874369274" lon="14.663452447628758"><ele>223.0</ele><time>2026-05-03T08:36:49Z</time></trkpt><trkpt lat="50.15898500714242" lon="14.663616612950563"><ele>222.0</ele><time>2026-05-03T08:36:50Z</time></trkpt><trkpt lat="50.15919730715673" lon="14.663783924746022"><ele>221.0</ele><time>2026-05-03T08:36:51Z</time></trkpt><trkpt lat="50.15941453636622" lon="14.663958790296695"><ele>221.0</ele><time>2026-05-03T08:36:52Z</time></trkpt><trkpt lat="50.15963410605441" lon="14.66413327411506"><ele>221.0</ele><time>2026-05-03T08:36:53Z</time></trkpt><trkpt lat="50.15985460685752" lon="14.66430759915627"><ele>219.5</ele><time>2026-05-03T08:36:54Z</time></trkpt><trkpt lat="50.160070638948795" lon="14.664483262498806"><ele>218.0</ele><time>2026-05-03T08:36:55Z</time></trkpt><trkpt lat="50.16028458698054" lon="14.664657044308045"><ele>218.0</ele><time>2026-05-03T08:36:56Z</time></trkpt><trkpt lat="50.16050199396762" lon="14.664834551177632"><ele>218.0</ele><time>2026-05-03T08:36:57Z</time></trkpt><trkpt lat="50.16071999074221" lon="14.665012061259572"><ele>218.5</ele><time>2026-05-03T08:36:58Z</time></trkpt><trkpt lat="50.1609402785539" lon="14.665190773190096"><ele>219.0</ele><time>2026-05-03T08:36:59Z</time></trkpt><trkpt lat="50.161158048192405" lon="14.665375318130756"><ele>219.0</ele><time>2026-05-03T08:37:00Z</time></trkpt><trkpt lat="50.16137626805287" lon="14.665560836302136"><ele>219.0</ele><time>2026-05-03T08:37:01Z</time></trkpt><trkpt lat="50.161591205942685" lon="14.665744105469846"><ele>217.5</ele><time>2026-05-03T08:37:02Z</time></trkpt><trkpt lat="50.161804996179505" lon="14.665925688834502"><ele>216.0</ele><time>2026-05-03T08:37:03Z</time></trkpt><trkpt lat="50.162014698604835" lon="14.666103220477206"><ele>215.5</ele><time>2026-05-03T08:37:04Z</time></trkpt><trkpt lat="50.16221433355292" lon="14.666271643521732"><ele>215.0</ele><time>2026-05-03T08:37:05Z</time></trkpt><trkpt lat="50.16241430916856" lon="14.666442159349497"><ele>215.0</ele><time>2026-05-03T08:37:06Z</time></trkpt><trkpt lat="50.16261554611444" lon="14.666616263429274"><ele>215.0</ele><time>2026-05-03T08:37:07Z</time></trkpt><trkpt lat="50.16281801231038" lon="14.666800060001501"><ele>215.0</ele><time>2026-05-03T08:37:08Z</time></trkpt><trkpt lat="50.16302501660838" lon="14.666986194527063"><ele>215.0</ele><time>2026-05-03T08:37:09Z</time></trkpt><trkpt lat="50.16323879649125" lon="14.66717883347623"><ele>215.0</ele><time>2026-05-03T08:37:10Z</time></trkpt><trkpt lat="50.163452887346956" lon="14.667374391878978"><ele>215.0</ele><time>2026-05-03T08:37:11Z</time></trkpt><trkpt lat="50.16366933550847" lon="14.667572616006881"><ele>215.0</ele><time>2026-05-03T08:37:12Z</time></trkpt><trkpt lat="50.16389245195523" lon="14.667778863881626"><ele>215.0</ele><time>2026-05-03T08:37:13Z</time></trkpt><trkpt lat="50.16411984017658" lon="14.66799318423689"><ele>215.0</ele><time>2026-05-03T08:37:14Z</time></trkpt><trkpt lat="50.16435555364221" lon="14.668209893456586"><ele>215.0</ele><time>2026-05-03T08:37:15Z</time></trkpt><trkpt lat="50.164590753994034" lon="14.668437840043412"><ele>215.0</ele><time>2026-05-03T08:37:16Z</time></trkpt><trkpt lat="50.164822360126145" lon="14.668661104048999"><ele>215.0</ele><time>2026-05-03T08:37:17Z</time></trkpt><trkpt lat="50.16505145501116" lon="14.668882957681246"><ele>214.0</ele><time>2026-05-03T08:37:18Z</time></trkpt><trkpt lat="50.165280071853914" lon="14.669112887903406"><ele>213.0</ele><time>2026-05-03T08:37:19Z</time></trkpt><trkpt lat="50.165510231845616" lon="14.669340846322175"><ele>213.5</ele><time>2026-05-03T08:37:20Z</time></trkpt><trkpt lat="50.16573390753305" lon="14.669570477734247"><ele>214.0</ele><time>2026-05-03T08:37:21Z</time></trkpt><trkpt lat="50.165959123109" lon="14.669802308231409"><ele>214.0</ele><time>2026-05-03T08:37:22Z</time></trkpt><trkpt lat="50.16618327387433" lon="14.6700368367419"><ele>214.0</ele><time>2026-05-03T08:37:23Z</time></trkpt><trkpt lat="50.1664080210191" lon="14.670272376108985"><ele>215.0</ele><time>2026-05-03T08:37:24Z</time></trkpt><trkpt lat="50.16661638443608" lon="14.670492707318354"><ele>216.0</ele><time>2026-05-03T08:37:25Z</time></trkpt><trkpt lat="50.16681867281887" lon="14.67071162350509"><ele>216.0</ele><time>2026-05-03T08:37:26Z</time></trkpt><trkpt lat="50.167027301240644" lon="14.670939854251637"><ele>216.0</ele><time>2026-05-03T08:37:27Z</time></trkpt><trkpt lat="50.16723564350281" lon="14.671177398367144"><ele>215.5</ele><time>2026-05-03T08:37:28Z</time></trkpt><trkpt lat="50.167449275078035" lon="14.67140563860222"><ele>215.0</ele><time>2026-05-03T08:37:29Z</time></trkpt><trkpt lat="50.16766351987993" lon="14.671652672935299"><ele>215.0</ele><time>2026-05-03T08:37:30Z</time></trkpt><trkpt lat="50.167877248075634" lon="14.671902010375897"><ele>215.0</ele><time>2026-05-03T08:37:31Z</time></trkpt><trkpt lat="50.1680846454383" lon="14.672146410085196"><ele>214.5</ele><time>2026-05-03T08:37:32Z</time></trkpt><trkpt lat="50.168289877813216" lon="14.672395049083043"><ele>214.0</ele><time>2026-05-03T08:37:33Z</time></trkpt><trkpt lat="50.16849277682362" lon="14.672642195723522"><ele>215.5</ele><time>2026-05-03T08:37:34Z</time></trkpt><trkpt lat="50.16869830754344" lon="14.672888833198526"><ele>217.0</ele><time>2026-05-03T08:37:35Z</time></trkpt><trkpt lat="50.16889941143489" lon="14.673142521828144"><ele>215.5</ele><time>2026-05-03T08:37:36Z</time></trkpt><trkpt lat="50.16910018771645" lon="14.673395035019382"><ele>214.0</ele><time>2026-05-03T08:37:37Z</time></trkpt><trkpt lat="50.169300330291335" lon="14.67366538839365"><ele>213.0</ele><time>2026-05-03T08:37:38Z</time></trkpt><trkpt lat="50.16949748600963" lon="14.67393430026699"><ele>212.0</ele><time>2026-05-03T08:37:39Z</time></trkpt><trkpt lat="50.169693375319696" lon="14.674193680394886"><ele>211.5</ele><time>2026-05-03T08:37:40Z</time></trkpt><trkpt lat="50.169881241463536" lon="14.674445100907706"><ele>211.0</ele><time>2026-05-03T08:37:41Z</time></trkpt><trkpt lat="50.1700750189071" lon="14.674728342763839"><ele>211.0</ele><time>2026-05-03T08:37:42Z</time></trkpt><trkpt lat="50.17027583939467" lon="14.674997213629087"><ele>211.0</ele><time>2026-05-03T08:37:43Z</time></trkpt><trkpt lat="50.17045299933951" lon="14.675254724343976"><ele>210.5</ele><time>2026-05-03T08:37:44Z</time></trkpt><trkpt lat="50.17064501706037" lon="14.675528739159057"><ele>210.0</ele><time>2026-05-03T08:37:45Z</time></trkpt><trkpt lat="50.17082200048838" lon="14.675790337179969"><ele>210.0</ele><time>2026-05-03T08:37:46Z</time></trkpt><trkpt lat="50.17099749749355" lon="14.676055786097052"><ele>210.0</ele><time>2026-05-03T08:37:47Z</time></trkpt><trkpt lat="50.17117025087017" lon="14.676324006931077"><ele>210.0</ele><time>2026-05-03T08:37:48Z</time></trkpt><trkpt lat="50.17134730636334" lon="14.676606657957414"><ele>210.0</ele><time>2026-05-03T08:37:49Z</time></trkpt><trkpt lat="50.17152905280917" lon="14.67689560136336"><ele>209.0</ele><time>2026-05-03T08:37:50Z</time></trkpt><trkpt lat="50.171713847369126" lon="14.677191485996175"><ele>208.0</ele><time>2026-05-03T08:37:51.001Z</time></trkpt><trkpt lat="50.17189585066807" lon="14.677484298148913"><ele>208.0</ele><time>2026-05-03T08:37:52.001Z</time></trkpt><trkpt lat="50.17207358131285" lon="14.677773975193691"><ele>208.0</ele><time>2026-05-03T08:37:53.001Z</time></trkpt><trkpt lat="50.17225017201141" lon="14.67806733817315"><ele>206.5</ele><time>2026-05-03T08:37:54.001Z</time></trkpt><trkpt lat="50.172425378847244" lon="14.67836530728418"><ele>205.0</ele><time>2026-05-03T08:37:55.001Z</time></trkpt><trkpt lat="50.17259769526716" lon="14.678661768256104"><ele>205.0</ele><time>2026-05-03T08:37:56.001Z</time></trkpt><trkpt lat="50.17276990994475" lon="14.678958232249082"><ele>205.0</ele><time>2026-05-03T08:37:57.001Z</time></trkpt><trkpt lat="50.17294021698142" lon="14.679257625718096"><ele>206.0</ele><time>2026-05-03T08:37:58.001Z</time></trkpt><trkpt lat="50.17310499226185" lon="14.67955498919446"><ele>207.0</ele><time>2026-05-03T08:37:59.001Z</time></trkpt><trkpt lat="50.17327112343921" lon="14.67985389144169"><ele>206.0</ele><time>2026-05-03T08:38:00.001Z</time></trkpt><trkpt lat="50.17343587050583" lon="14.680153692903168"><ele>205.0</ele><time>2026-05-03T08:38:01.001Z</time></trkpt><trkpt lat="50.17359962058682" lon="14.680452122043338"><ele>205.0</ele><time>2026-05-03T08:38:02.001Z</time></trkpt><trkpt lat="50.173768908715694" lon="14.680764989164118"><ele>205.0</ele><time>2026-05-03T08:38:03.001Z</time></trkpt><trkpt lat="50.173939260662735" lon="14.681086037448992"><ele>202.5</ele><time>2026-05-03T08:38:04.001Z</time></trkpt><trkpt lat="50.17411485806946" lon="14.681413851232406"><ele>200.0</ele><time>2026-05-03T08:38:05.001Z</time></trkpt><trkpt lat="50.174292451238756" lon="14.681748047566712"><ele>201.0</ele><time>2026-05-03T08:38:06.001Z</time></trkpt><trkpt lat="50.174467718244756" lon="14.682081626583695"><ele>202.0</ele><time>2026-05-03T08:38:07.001Z</time></trkpt><trkpt lat="50.17463900723434" lon="14.682409219482066"><ele>202.0</ele><time>2026-05-03T08:38:08.001Z</time></trkpt><trkpt lat="50.17481098598074" lon="14.682735751067705"><ele>202.0</ele><time>2026-05-03T08:38:09.001Z</time></trkpt><trkpt lat="50.17498125667493" lon="14.683063404232193"><ele>199.0</ele><time>2026-05-03T08:38:10.001Z</time></trkpt><trkpt lat="50.17515078245763" lon="14.68339057819402"><ele>196.0</ele><time>2026-05-03T08:38:11.001Z</time></trkpt><trkpt lat="50.1753184057847" lon="14.683721671773716"><ele>196.0</ele><time>2026-05-03T08:38:12.001Z</time></trkpt><trkpt lat="50.17548374549124" lon="14.684049436837794"><ele>196.0</ele><time>2026-05-03T08:38:13.001Z</time></trkpt><trkpt lat="50.17565285669517" lon="14.684378991457443"><ele>193.0</ele><time>2026-05-03T08:38:14.001Z</time></trkpt><trkpt lat="50.175825046765986" lon="14.684710878763491"><ele>190.0</ele><time>2026-05-03T08:38:15.001Z</time></trkpt><trkpt lat="50.175999920470296" lon="14.685052174998733"><ele>191.5</ele><time>2026-05-03T08:38:16.001Z</time></trkpt><trkpt lat="50.17617611295557" lon="14.685398820616541"><ele>193.0</ele><time>2026-05-03T08:38:17.001Z</time></trkpt><trkpt lat="50.17635340935206" lon="14.685746454607699"><ele>190.0</ele><time>2026-05-03T08:38:18.001Z</time></trkpt><trkpt lat="50.17652141320891" lon="14.686077652833335"><ele>187.0</ele><time>2026-05-03T08:38:19.001Z</time></trkpt><trkpt lat="50.17669428215878" lon="14.68642352668732"><ele>187.0</ele><time>2026-05-03T08:38:20.001Z</time></trkpt><trkpt lat="50.17687537106317" lon="14.68678109645433"><ele>187.0</ele><time>2026-05-03T08:38:21.001Z</time></trkpt><trkpt lat="50.177058640569896" lon="14.687138557074238"><ele>188.5</ele><time>2026-05-03T08:38:22.001Z</time></trkpt><trkpt lat="50.1772424330669" lon="14.687499705462177"><ele>190.0</ele><time>2026-05-03T08:38:23.001Z</time></trkpt><trkpt lat="50.17743099943362" lon="14.68786457110658"><ele>186.0</ele><time>2026-05-03T08:38:24.001Z</time></trkpt><trkpt lat="50.177619804443935" lon="14.688220687018473"><ele>182.0</ele><time>2026-05-03T08:38:25.001Z</time></trkpt><trkpt lat="50.1778149727564" lon="14.688577263453647"><ele>181.5</ele><time>2026-05-03T08:38:26.001Z</time></trkpt><trkpt lat="50.1780086899781" lon="14.688924781938487"><ele>181.0</ele><time>2026-05-03T08:38:27.001Z</time></trkpt><trkpt lat="50.17819487889811" lon="14.689257731647993"><ele>178.5</ele><time>2026-05-03T08:38:28.001Z</time></trkpt><trkpt lat="50.178380454761026" lon="14.68958277693349"><ele>176.0</ele><time>2026-05-03T08:38:29.001Z</time></trkpt><trkpt lat="50.17856711365897" lon="14.689903216277951"><ele>176.0</ele><time>2026-05-03T08:38:30.001Z</time></trkpt><trkpt lat="50.178758744226" lon="14.690217821340031"><ele>176.0</ele><time>2026-05-03T08:38:31.001Z</time></trkpt><trkpt lat="50.178953026309394" lon="14.690520057184958"><ele>174.5</ele><time>2026-05-03T08:38:32.001Z</time></trkpt><trkpt lat="50.17914665456201" lon="14.690811154206356"><ele>173.0</ele><time>2026-05-03T08:38:33.001Z</time></trkpt><trkpt lat="50.17933483010787" lon="14.691082180838762"><ele>172.0</ele><time>2026-05-03T08:38:34.001Z</time></trkpt><trkpt lat="50.17952215192603" lon="14.691348662238937"><ele>171.0</ele><time>2026-05-03T08:38:35.001Z</time></trkpt><trkpt lat="50.17971551297911" lon="14.691610529048706"><ele>172.0</ele><time>2026-05-03T08:38:36.001Z</time></trkpt><trkpt lat="50.17991458736077" lon="14.691874249731109"><ele>173.0</ele><time>2026-05-03T08:38:37.001Z</time></trkpt><trkpt lat="50.18012036173385" lon="14.692135382385885"><ele>173.0</ele><time>2026-05-03T08:38:38Z</time></trkpt><trkpt lat="50.180330190258466" lon="14.692391765197772"><ele>173.0</ele><time>2026-05-03T08:38:39Z</time></trkpt><trkpt lat="50.18053967782249" lon="14.692639663984835"><ele>174.0</ele><time>2026-05-03T08:38:40Z</time></trkpt><trkpt lat="50.180742817413616" lon="14.692876476206393"><ele>175.0</ele><time>2026-05-03T08:38:41Z</time></trkpt><trkpt lat="50.18094942309441" lon="14.693108048792313"><ele>175.0</ele><time>2026-05-03T08:38:42Z</time></trkpt><trkpt lat="50.181161012885894" lon="14.693334464950398"><ele>175.0</ele><time>2026-05-03T08:38:43Z</time></trkpt><trkpt lat="50.18137385640701" lon="14.693556910822542"><ele>173.0</ele><time>2026-05-03T08:38:44Z</time></trkpt><trkpt lat="50.18158600885032" lon="14.69377060324998"><ele>171.0</ele><time>2026-05-03T08:38:45Z</time></trkpt><trkpt lat="50.18179532488724" lon="14.693968559667098"><ele>171.0</ele><time>2026-05-03T08:38:46Z</time></trkpt><trkpt lat="50.18201217120865" lon="14.694158492088976"><ele>171.0</ele><time>2026-05-03T08:38:47Z</time></trkpt><trkpt lat="50.182233811472834" lon="14.69434165527897"><ele>171.0</ele><time>2026-05-03T08:38:48Z</time></trkpt><trkpt lat="50.18245850283944" lon="14.694524444756935"><ele>171.0</ele><time>2026-05-03T08:38:49Z</time></trkpt><trkpt lat="50.18268203439873" lon="14.694701971283134"><ele>171.0</ele><time>2026-05-03T08:38:50Z</time></trkpt><trkpt lat="50.18290197637588" lon="14.69486624146282"><ele>171.0</ele><time>2026-05-03T08:38:51Z</time></trkpt><trkpt lat="50.183127175862126" lon="14.69501980579819"><ele>171.0</ele><time>2026-05-03T08:38:52Z</time></trkpt><trkpt lat="50.18337093165795" lon="14.695172239019216"><ele>171.0</ele><time>2026-05-03T08:38:53Z</time></trkpt><trkpt lat="50.18360099663815" lon="14.695307607081476"><ele>171.0</ele><time>2026-05-03T08:38:54Z</time></trkpt><trkpt lat="50.18382980785481" lon="14.695437592438793"><ele>171.0</ele><time>2026-05-03T08:38:55Z</time></trkpt><trkpt lat="50.1840596798315" lon="14.695560093306593"><ele>171.0</ele><time>2026-05-03T08:38:56Z</time></trkpt><trkpt lat="50.18429427499501" lon="14.695673048587548"><ele>171.0</ele><time>2026-05-03T08:38:57Z</time></trkpt><trkpt lat="50.18453372586766" lon="14.69578259099165"><ele>171.0</ele><time>2026-05-03T08:38:58Z</time></trkpt><trkpt lat="50.18477596833893" lon="14.695886345174019"><ele>171.0</ele><time>2026-05-03T08:38:59Z</time></trkpt><trkpt lat="50.185021171994165" lon="14.695978497008078"><ele>171.0</ele><time>2026-05-03T08:39:00Z</time></trkpt><trkpt lat="50.185269062259195" lon="14.696060580987389"><ele>171.0</ele><time>2026-05-03T08:39:01Z</time></trkpt><trkpt lat="50.185520583188236" lon="14.696138534745518"><ele>170.5</ele><time>2026-05-03T08:39:02Z</time></trkpt><trkpt lat="50.18577387028653" lon="14.696206855496568"><ele>170.0</ele><time>2026-05-03T08:39:03Z</time></trkpt><trkpt lat="50.18602363094441" lon="14.696263636883177"><ele>170.0</ele><time>2026-05-03T08:39:04Z</time></trkpt><trkpt lat="50.18627369897981" lon="14.696315054287089"><ele>170.0</ele><time>2026-05-03T08:39:05Z</time></trkpt><trkpt lat="50.186522207884295" lon="14.69635862224093"><ele>170.5</ele><time>2026-05-03T08:39:06Z</time></trkpt><trkpt lat="50.18676881326065" lon="14.696392730290325"><ele>171.0</ele><time>2026-05-03T08:39:07Z</time></trkpt><trkpt lat="50.18701718277488" lon="14.696416963717803"><ele>171.0</ele><time>2026-05-03T08:39:08Z</time></trkpt><trkpt lat="50.187267144334996" lon="14.696428330714053"><ele>171.0</ele><time>2026-05-03T08:39:09Z</time></trkpt><trkpt lat="50.18752082437962" lon="14.696430307248988"><ele>171.5</ele><time>2026-05-03T08:39:10Z</time></trkpt><trkpt lat="50.18777306481478" lon="14.696425169414733"><ele>172.0</ele><time>2026-05-03T08:39:11Z</time></trkpt><trkpt lat="50.188025834052794" lon="14.696415053659278"><ele>172.0</ele><time>2026-05-03T08:39:12Z</time></trkpt><trkpt lat="50.188275862699214" lon="14.696394596123891"><ele>172.0</ele><time>2026-05-03T08:39:13Z</time></trkpt><trkpt lat="50.18852848564964" lon="14.696365555920586"><ele>172.0</ele><time>2026-05-03T08:39:14Z</time></trkpt><trkpt lat="50.188786533392424" lon="14.696325037886531"><ele>172.0</ele><time>2026-05-03T08:39:15Z</time></trkpt><trkpt lat="50.18904659951359" lon="14.69627280379168"><ele>172.0</ele><time>2026-05-03T08:39:16Z</time></trkpt><trkpt lat="50.189311846350385" lon="14.696212991347704"><ele>172.0</ele><time>2026-05-03T08:39:17Z</time></trkpt><trkpt lat="50.18958290262756" lon="14.696142013266737"><ele>173.5</ele><time>2026-05-03T08:39:18Z</time></trkpt><trkpt lat="50.18986009950407" lon="14.696065983833721"><ele>175.0</ele><time>2026-05-03T08:39:19Z</time></trkpt><trkpt lat="50.19015701751082" lon="14.695982661100482"><ele>175.0</ele><time>2026-05-03T08:39:20Z</time></trkpt><trkpt lat="50.19045209619605" lon="14.69589054502331"><ele>175.0</ele><time>2026-05-03T08:39:21Z</time></trkpt><trkpt lat="50.19075164376107" lon="14.69576893647887"><ele>177.0</ele><time>2026-05-03T08:39:22Z</time></trkpt><trkpt lat="50.191028596205854" lon="14.69563901184817"><ele>179.0</ele><time>2026-05-03T08:39:23Z</time></trkpt><trkpt lat="50.19128709336985" lon="14.69550590512271"><ele>180.0</ele><time>2026-05-03T08:39:24Z</time></trkpt><trkpt lat="50.19154555749581" lon="14.695360967818742"><ele>181.0</ele><time>2026-05-03T08:39:25Z</time></trkpt><trkpt lat="50.19178996027019" lon="14.695209591508998"><ele>181.0</ele><time>2026-05-03T08:39:26Z</time></trkpt><trkpt lat="50.19202574054544" lon="14.695058948161702"><ele>181.0</ele><time>2026-05-03T08:39:27Z</time></trkpt><trkpt lat="50.192256457829096" lon="14.694902852478537"><ele>180.5</ele><time>2026-05-03T08:39:28Z</time></trkpt><trkpt lat="50.19248592713637" lon="14.694730999428003"><ele>180.0</ele><time>2026-05-03T08:39:29Z</time></trkpt><trkpt lat="50.19273724379705" lon="14.694518104117574"><ele>179.0</ele><time>2026-05-03T08:39:30Z</time></trkpt><trkpt lat="50.19298710201555" lon="14.694296049695653"><ele>178.0</ele><time>2026-05-03T08:39:31Z</time></trkpt><trkpt lat="50.19321552939381" lon="14.69409984988688"><ele>178.0</ele><time>2026-05-03T08:39:32Z</time></trkpt><trkpt lat="50.19343813055413" lon="14.693905855883576"><ele>178.0</ele><time>2026-05-03T08:39:33Z</time></trkpt><trkpt lat="50.19366120364287" lon="14.69371378203635"><ele>178.5</ele><time>2026-05-03T08:39:34Z</time></trkpt><trkpt lat="50.19388791220587" lon="14.693523918623463"><ele>179.0</ele><time>2026-05-03T08:39:35Z</time></trkpt><trkpt lat="50.19411910298129" lon="14.693329733561812"><ele>179.0</ele><time>2026-05-03T08:39:36Z</time></trkpt><trkpt lat="50.19435453804507" lon="14.693128567147031"><ele>179.0</ele><time>2026-05-03T08:39:37Z</time></trkpt><trkpt lat="50.1946165779995" lon="14.692908973092944"><ele>178.5</ele><time>2026-05-03T08:39:38Z</time></trkpt><trkpt lat="50.19488240342006" lon="14.692694728839296"><ele>178.0</ele><time>2026-05-03T08:39:39Z</time></trkpt><trkpt lat="50.1951435428015" lon="14.692491191420423"><ele>178.0</ele><time>2026-05-03T08:39:40Z</time></trkpt><trkpt lat="50.19539663002488" lon="14.692304859174884"><ele>178.0</ele><time>2026-05-03T08:39:41Z</time></trkpt><trkpt lat="50.195650613906324" lon="14.692143451093488"><ele>177.5</ele><time>2026-05-03T08:39:42Z</time></trkpt><trkpt lat="50.1959063466446" lon="14.691993655932453"><ele>177.0</ele><time>2026-05-03T08:39:43Z</time></trkpt><trkpt lat="50.196165124089426" lon="14.691859825855321"><ele>176.5</ele><time>2026-05-03T08:39:44Z</time></trkpt><trkpt lat="50.196422025926246" lon="14.69173194153061"><ele>176.0</ele><time>2026-05-03T08:39:45Z</time></trkpt><trkpt lat="50.196694387375764" lon="14.691604109461407"><ele>176.0</ele><time>2026-05-03T08:39:46Z</time></trkpt><trkpt lat="50.197001847079676" lon="14.69148413416327"><ele>176.0</ele><time>2026-05-03T08:39:47Z</time></trkpt><trkpt lat="50.19733215287756" lon="14.691376053054942"><ele>176.5</ele><time>2026-05-03T08:39:48Z</time></trkpt><trkpt lat="50.19765490926569" lon="14.691290393680044"><ele>177.0</ele><time>2026-05-03T08:39:49Z</time></trkpt><trkpt lat="50.19796083449917" lon="14.691230655133"><ele>176.5</ele><time>2026-05-03T08:39:50Z</time></trkpt><trkpt lat="50.19826847349862" lon="14.691183687375398"><ele>176.0</ele><time>2026-05-03T08:39:51Z</time></trkpt><trkpt lat="50.19857461224422" lon="14.69116198717567"><ele>176.0</ele><time>2026-05-03T08:39:52Z</time></trkpt><trkpt lat="50.19888002003252" lon="14.691165268892476"><ele>176.0</ele><time>2026-05-03T08:39:53Z</time></trkpt><trkpt lat="50.19917706749332" lon="14.691181613030189"><ele>176.0</ele><time>2026-05-03T08:39:54Z</time></trkpt><trkpt lat="50.19945124456084" lon="14.691201744482138"><ele>176.0</ele><time>2026-05-03T08:39:55Z</time></trkpt><trkpt lat="50.199717400426714" lon="14.691226104392642"><ele>176.5</ele><time>2026-05-03T08:39:56Z</time></trkpt><trkpt lat="50.19998389974597" lon="14.691264941932706"><ele>177.0</ele><time>2026-05-03T08:39:57.001Z</time></trkpt><trkpt lat="50.20025274488418" lon="14.691322659615121"><ele>177.0</ele><time>2026-05-03T08:39:58.001Z</time></trkpt><trkpt lat="50.200539631204464" lon="14.6913986691867"><ele>177.0</ele><time>2026-05-03T08:39:59.001Z</time></trkpt><trkpt lat="50.20083882878293" lon="14.691490119874642"><ele>175.5</ele><time>2026-05-03T08:40:00.001Z</time></trkpt><trkpt lat="50.20110323072535" lon="14.691584391034253"><ele>174.0</ele><time>2026-05-03T08:40:01.001Z</time></trkpt><trkpt lat="50.20134879980898" lon="14.691683227482466"><ele>175.0</ele><time>2026-05-03T08:40:02.001Z</time></trkpt><trkpt lat="50.201580915112395" lon="14.691789002335385"><ele>176.0</ele><time>2026-05-03T08:40:03.001Z</time></trkpt><trkpt lat="50.20179202637041" lon="14.691894459760121"><ele>175.66666666666666</ele><time>2026-05-03T08:40:04.001Z</time></trkpt><trkpt lat="50.20197915099602" lon="14.691998294567812"><ele>175.33333333333334</ele><time>2026-05-03T08:40:05.001Z</time></trkpt><trkpt lat="50.20214497528573" lon="14.692107623412342"><ele>175.0</ele><time>2026-05-03T08:40:06.001Z</time></trkpt><trkpt lat="50.20230876467004" lon="14.692211816145353"><ele>175.0</ele><time>2026-05-03T08:40:07.001Z</time></trkpt><trkpt lat="50.20243832333301" lon="14.692417926481932"><ele>175.0</ele><time>2026-05-03T08:40:08.001Z</time></trkpt><trkpt lat="50.20254623668779" lon="14.692633366581823"><ele>175.0</ele><time>2026-05-03T08:40:09.001Z</time></trkpt><trkpt lat="50.2026244746273" lon="14.692907572610359"><ele>175.0</ele><time>2026-05-03T08:40:10.001Z</time></trkpt><trkpt lat="50.20266711431429" lon="14.69322157653746"><ele>175.0</ele><time>2026-05-03T08:40:11.001Z</time></trkpt><trkpt lat="50.20271431613739" lon="14.693542673005366"><ele>175.0</ele><time>2026-05-03T08:40:12.001Z</time></trkpt><trkpt lat="50.20272211198296" lon="14.693878167756978"><ele>175.0</ele><time>2026-05-03T08:40:13.001Z</time></trkpt><trkpt lat="50.202794435653004" lon="14.694168807055156"><ele>175.0</ele><time>2026-05-03T08:40:14.001Z</time></trkpt><trkpt lat="50.20287848704722" lon="14.69441520861507"><ele>175.0</ele><time>2026-05-03T08:40:15.001Z</time></trkpt><trkpt lat="50.20297116621321" lon="14.694631550542143"><ele>174.66666666666669</ele><time>2026-05-03T08:40:16.001Z</time></trkpt><trkpt lat="50.20308060521192" lon="14.694834808118104"><ele>174.33333333333334</ele><time>2026-05-03T08:40:17.001Z</time></trkpt><trkpt lat="50.20320369882515" lon="14.695033190983985"><ele>174.0</ele><time>2026-05-03T08:40:18.001Z</time></trkpt><trkpt lat="50.20332131570439" lon="14.69519675065252"><ele>174.25</ele><time>2026-05-03T08:40:19.001Z</time></trkpt><trkpt lat="50.203438037717234" lon="14.695330602092856"><ele>174.5</ele><time>2026-05-03T08:40:20.001Z</time></trkpt><trkpt lat="50.203538792812154" lon="14.695434720227786"><ele>174.75</ele><time>2026-05-03T08:40:21.001Z</time></trkpt><trkpt lat="50.20363066227705" lon="14.69549003572983"><ele>175.0</ele><time>2026-05-03T08:40:22.001Z</time></trkpt><trkpt lat="50.20370979567236" lon="14.695543629308819"><ele>175.0</ele><time>2026-05-03T08:40:23.001Z</time></trkpt><trkpt lat="50.20377324661818" lon="14.695589708665617"><ele>175.0</ele><time>2026-05-03T08:40:24.001Z</time></trkpt><trkpt lat="50.20387157666548" lon="14.695648157026376"><ele>175.0</ele><time>2026-05-03T08:40:26.001Z</time></trkpt><trkpt lat="50.20397504412026" lon="14.695454025375518"><ele>175.0</ele><time>2026-05-03T08:40:28.001Z</time></trkpt><trkpt lat="50.204024091358534" lon="14.695288403303486"><ele>176.66666666666669</ele><time>2026-05-03T08:40:29.001Z</time></trkpt><trkpt lat="50.204087628798185" lon="14.695062088428427"><ele>178.33333333333334</ele><time>2026-05-03T08:40:30.001Z</time></trkpt><trkpt lat="50.20417643505345" lon="14.694781278834506"><ele>180.0</ele><time>2026-05-03T08:40:31.001Z</time></trkpt><trkpt lat="50.20429195481705" lon="14.694431872196803"><ele>179.5</ele><time>2026-05-03T08:40:32.001Z</time></trkpt><trkpt lat="50.204403040889844" lon="14.694082181681006"><ele>179.0</ele><time>2026-05-03T08:40:33.001Z</time></trkpt><trkpt lat="50.204497314091846" lon="14.693748208765003"><ele>178.33333333333331</ele><time>2026-05-03T08:40:34.001Z</time></trkpt><trkpt lat="50.20454482826634" lon="14.693403559298744"><ele>177.66666666666666</ele><time>2026-05-03T08:40:35.001Z</time></trkpt><trkpt lat="50.20457295000551" lon="14.69305853558287"><ele>177.0</ele><time>2026-05-03T08:40:36.001Z</time></trkpt><trkpt lat="50.20448936078479" lon="14.693370126986045"><ele>177.0</ele><time>2026-05-03T08:40:37.001Z</time></trkpt><trkpt lat="50.20450998702007" lon="14.69317698993699"><ele>177.0</ele><time>2026-05-03T08:40:38.001Z</time></trkpt><trkpt lat="50.20452565402519" lon="14.692952805892837"><ele>177.0</ele><time>2026-05-03T08:40:39.001Z</time></trkpt><trkpt lat="50.204533462827854" lon="14.69271269538918"><ele>177.0</ele><time>2026-05-03T08:40:40.001Z</time></trkpt><trkpt lat="50.204537537174936" lon="14.692462044986708"><ele>177.0</ele><time>2026-05-03T08:40:41.001Z</time></trkpt><trkpt lat="50.20453084772044" lon="14.69216358640761"><ele>177.0</ele><time>2026-05-03T08:40:42.001Z</time></trkpt><trkpt lat="50.204514665467194" lon="14.69183217737692"><ele>177.0</ele><time>2026-05-03T08:40:43Z</time></trkpt><trkpt lat="50.20449244937927" lon="14.69154808126857"><ele>177.0</ele><time>2026-05-03T08:40:44Z</time></trkpt><trkpt lat="50.20450473129248" lon="14.691316476795578"><ele>177.0</ele><time>2026-05-03T08:40:45Z</time></trkpt><trkpt lat="50.20450307324292" lon="14.691141104385132"><ele>177.0</ele><time>2026-05-03T08:40:46Z</time></trkpt><trkpt lat="50.204507756611164" lon="14.690994551314516"><ele>177.0</ele><time>2026-05-03T08:40:47Z</time></trkpt><trkpt lat="50.20454730813326" lon="14.690873530670682"><ele>177.0</ele><time>2026-05-03T08:40:48Z</time></trkpt><trkpt lat="50.20458534687693" lon="14.690792841025596"><ele>176.66666666666666</ele><time>2026-05-03T08:40:49Z</time></trkpt><trkpt lat="50.204668654506655" lon="14.690766128586182"><ele>176.33333333333334</ele><time>2026-05-03T08:40:50Z</time></trkpt><trkpt lat="50.204712685216734" lon="14.690685693670742"><ele>176.0</ele><time>2026-05-03T08:40:51Z</time></trkpt><trkpt lat="50.20476544021945" lon="14.69052693001063"><ele>175.66666666666669</ele><time>2026-05-03T08:40:53Z</time></trkpt><trkpt lat="50.20476887331641" lon="14.690422880602751"><ele>175.33333333333334</ele><time>2026-05-03T08:40:54Z</time></trkpt><trkpt lat="50.20477391243551" lon="14.69031831061041"><ele>175.0</ele><time>2026-05-03T08:40:55Z</time></trkpt><trkpt lat="50.20480526421321" lon="14.690212426844278"><ele>175.16666666666669</ele><time>2026-05-03T08:40:56Z</time></trkpt><trkpt lat="50.20485412739855" lon="14.690113386238151"><ele>175.33333333333334</ele><time>2026-05-03T08:40:57Z</time></trkpt><trkpt lat="50.20491197194292" lon="14.690015599762244"><ele>175.5</ele><time>2026-05-03T08:40:58Z</time></trkpt><trkpt lat="50.20497019315739" lon="14.689916795174504"><ele>175.66666666666666</ele><time>2026-05-03T08:40:59Z</time></trkpt><trkpt lat="50.20503646654578" lon="14.689812544405408"><ele>175.83333333333331</ele><time>2026-05-03T08:41:00Z</time></trkpt><trkpt lat="50.20509128946583" lon="14.689686092487754"><ele>176.0</ele><time>2026-05-03T08:41:01Z</time></trkpt><trkpt lat="50.205163310457536" lon="14.689562023804859"><ele>176.0</ele><time>2026-05-03T08:41:02Z</time></trkpt><trkpt lat="50.20524247381599" lon="14.689426291528209"><ele>176.0</ele><time>2026-05-03T08:41:03Z</time></trkpt><trkpt lat="50.205345972164224" lon="14.689260420396481"><ele>176.0</ele><time>2026-05-03T08:41:04Z</time></trkpt><trkpt lat="50.205468018217964" lon="14.689041764685772"><ele>176.0</ele><time>2026-05-03T08:41:05Z</time></trkpt><trkpt lat="50.205587296754445" lon="14.688776053055275"><ele>176.0</ele><time>2026-05-03T08:41:06Z</time></trkpt><trkpt lat="50.20570016250175" lon="14.688553998849523"><ele>176.0</ele><time>2026-05-03T08:41:07Z</time></trkpt><trkpt lat="50.205803588654966" lon="14.688345262431188"><ele>176.0</ele><time>2026-05-03T08:41:08Z</time></trkpt><trkpt lat="50.20588616823955" lon="14.688105849082461"><ele>176.0</ele><time>2026-05-03T08:41:09Z</time></trkpt><trkpt lat="50.20595385157666" lon="14.687840423393824"><ele>176.0</ele><time>2026-05-03T08:41:10Z</time></trkpt><trkpt lat="50.20602181242621" lon="14.687515024503139"><ele>175.0</ele><time>2026-05-03T08:41:11Z</time></trkpt><trkpt lat="50.20608606427826" lon="14.687151372729701"><ele>174.0</ele><time>2026-05-03T08:41:12Z</time></trkpt><trkpt lat="50.206186646722266" lon="14.686786875645284"><ele>173.5</ele><time>2026-05-03T08:41:13Z</time></trkpt><trkpt lat="50.2062661227291" lon="14.686374297813302"><ele>173.0</ele><time>2026-05-03T08:41:14Z</time></trkpt><trkpt lat="50.206381736166435" lon="14.68593535571884"><ele>172.5</ele><time>2026-05-03T08:41:15Z</time></trkpt><trkpt lat="50.20648546299578" lon="14.68550103431066"><ele>172.0</ele><time>2026-05-03T08:41:16Z</time></trkpt><trkpt lat="50.20658121666122" lon="14.685048555611687"><ele>172.5</ele><time>2026-05-03T08:41:17Z</time></trkpt><trkpt lat="50.20669246656904" lon="14.684594292534928"><ele>173.0</ele><time>2026-05-03T08:41:18Z</time></trkpt><trkpt lat="50.206756252115646" lon="14.684111737787449"><ele>173.0</ele><time>2026-05-03T08:41:19Z</time></trkpt><trkpt lat="50.206823123614754" lon="14.683623729401765"><ele>173.0</ele><time>2026-05-03T08:41:20Z</time></trkpt><trkpt lat="50.20687090164518" lon="14.68315122245166"><ele>174.5</ele><time>2026-05-03T08:41:21Z</time></trkpt><trkpt lat="50.206901545407426" lon="14.682676299768461"><ele>176.0</ele><time>2026-05-03T08:41:22Z</time></trkpt><trkpt lat="50.2069084696811" lon="14.682204275428717"><ele>176.5</ele><time>2026-05-03T08:41:23Z</time></trkpt><trkpt lat="50.20689179342523" lon="14.681715269737719"><ele>177.0</ele><time>2026-05-03T08:41:24Z</time></trkpt><trkpt lat="50.206852903279646" lon="14.681215660597777"><ele>176.5</ele><time>2026-05-03T08:41:25Z</time></trkpt><trkpt lat="50.206790772875515" lon="14.68071578111984"><ele>176.0</ele><time>2026-05-03T08:41:26Z</time></trkpt><trkpt lat="50.20670954680464" lon="14.68022242843465"><ele>175.0</ele><time>2026-05-03T08:41:27Z</time></trkpt><trkpt lat="50.2066585918823" lon="14.679730557477171"><ele>174.0</ele><time>2026-05-03T08:41:28Z</time></trkpt><trkpt lat="50.20660179184414" lon="14.679288467298958"><ele>174.0</ele><time>2026-05-03T08:41:29Z</time></trkpt><trkpt lat="50.20653928329412" lon="14.678879156523106"><ele>174.0</ele><time>2026-05-03T08:41:30Z</time></trkpt><trkpt lat="50.20649411275906" lon="14.678492608345175"><ele>174.0</ele><time>2026-05-03T08:41:31Z</time></trkpt><trkpt lat="50.20645256304874" lon="14.678130192113613"><ele>174.0</ele><time>2026-05-03T08:41:32Z</time></trkpt><trkpt lat="50.206419086378965" lon="14.677772508634616"><ele>174.5</ele><time>2026-05-03T08:41:33Z</time></trkpt><trkpt lat="50.206397339557185" lon="14.677395380860334"><ele>175.0</ele><time>2026-05-03T08:41:34Z</time></trkpt><trkpt lat="50.2063882767323" lon="14.676993932281684"><ele>175.0</ele><time>2026-05-03T08:41:35Z</time></trkpt><trkpt lat="50.206392422537334" lon="14.676558406636897"><ele>175.0</ele><time>2026-05-03T08:41:36Z</time></trkpt><trkpt lat="50.20643078020098" lon="14.676106021422592"><ele>175.0</ele><time>2026-05-03T08:41:37Z</time></trkpt><trkpt lat="50.20646776779088" lon="14.675650124369385"><ele>175.0</ele><time>2026-05-03T08:41:38Z</time></trkpt><trkpt lat="50.20651462228963" lon="14.675246666750455"><ele>174.0</ele><time>2026-05-03T08:41:39Z</time></trkpt><trkpt lat="50.20657363752618" lon="14.67488156185757"><ele>173.0</ele><time>2026-05-03T08:41:40Z</time></trkpt><trkpt lat="50.20662419138814" lon="14.674538255203053"><ele>172.66666666666666</ele><time>2026-05-03T08:41:41Z</time></trkpt><trkpt lat="50.206710713336506" lon="14.674234360497863"><ele>172.33333333333334</ele><time>2026-05-03T08:41:42Z</time></trkpt><trkpt lat="50.20679425191799" lon="14.673919341401085"><ele>172.0</ele><time>2026-05-03T08:41:43Z</time></trkpt><trkpt lat="50.20688699439486" lon="14.67360115248713"><ele>172.0</ele><time>2026-05-03T08:41:44Z</time></trkpt><trkpt lat="50.20698469439113" lon="14.673286027205755"><ele>172.0</ele><time>2026-05-03T08:41:45Z</time></trkpt><trkpt lat="50.207076248614065" lon="14.672959199095066"><ele>171.5</ele><time>2026-05-03T08:41:46Z</time></trkpt><trkpt lat="50.20722744262783" lon="14.672668596024222"><ele>171.0</ele><time>2026-05-03T08:41:47Z</time></trkpt><trkpt lat="50.20737012990973" lon="14.672359950996391"><ele>171.0</ele><time>2026-05-03T08:41:48Z</time></trkpt><trkpt lat="50.2075089350399" lon="14.672047823739629"><ele>171.0</ele><time>2026-05-03T08:41:49Z</time></trkpt><trkpt lat="50.20764504665445" lon="14.671733605021556"><ele>170.5</ele><time>2026-05-03T08:41:50Z</time></trkpt><trkpt lat="50.20778741724214" lon="14.671403763768005"><ele>170.0</ele><time>2026-05-03T08:41:51Z</time></trkpt><trkpt lat="50.20793697025989" lon="14.671042885983686"><ele>170.0</ele><time>2026-05-03T08:41:52Z</time></trkpt><trkpt lat="50.208079720590725" lon="14.67065707639177"><ele>170.0</ele><time>2026-05-03T08:41:53Z</time></trkpt><trkpt lat="50.20819922246783" lon="14.670252537555879"><ele>170.5</ele><time>2026-05-03T08:41:54Z</time></trkpt><trkpt lat="50.208305074635845" lon="14.669833667163253"><ele>171.0</ele><time>2026-05-03T08:41:55Z</time></trkpt><trkpt lat="50.2083976766333" lon="14.66938689860331"><ele>171.0</ele><time>2026-05-03T08:41:56Z</time></trkpt><trkpt lat="50.2084831270384" lon="14.668917895800716"><ele>171.0</ele><time>2026-05-03T08:41:57Z</time></trkpt><trkpt lat="50.20856183060038" lon="14.66843544292965"><ele>170.5</ele><time>2026-05-03T08:41:58Z</time></trkpt><trkpt lat="50.20864666110959" lon="14.667960746271252"><ele>170.0</ele><time>2026-05-03T08:41:59Z</time></trkpt><trkpt lat="50.20873841304847" lon="14.667507214035881"><ele>169.5</ele><time>2026-05-03T08:42:00Z</time></trkpt><trkpt lat="50.20882066435897" lon="14.667073469911028"><ele>169.0</ele><time>2026-05-03T08:42:01Z</time></trkpt><trkpt lat="50.20889910724825" lon="14.666640836635077"><ele>171.0</ele><time>2026-05-03T08:42:02Z</time></trkpt><trkpt lat="50.20916906672859" lon="14.666301448046289"><ele>173.0</ele><time>2026-05-03T08:42:03.001Z</time></trkpt><trkpt lat="50.20934254630036" lon="14.665953634643673"><ele>173.0</ele><time>2026-05-03T08:42:04.001Z</time></trkpt><trkpt lat="50.209538516973794" lon="14.665631243026796"><ele>173.0</ele><time>2026-05-03T08:42:05.001Z</time></trkpt><trkpt lat="50.20975579219995" lon="14.665331341489797"><ele>172.5</ele><time>2026-05-03T08:42:06.001Z</time></trkpt><trkpt lat="50.20999029789129" lon="14.665049373757455"><ele>172.0</ele><time>2026-05-03T08:42:07.001Z</time></trkpt><trkpt lat="50.21023818569768" lon="14.664797279459169"><ele>172.0</ele><time>2026-05-03T08:42:08.001Z</time></trkpt><trkpt lat="50.2105120823336" lon="14.664563505292731"><ele>172.0</ele><time>2026-05-03T08:42:09.001Z</time></trkpt><trkpt lat="50.21080716913974" lon="14.664349933189962"><ele>171.0</ele><time>2026-05-03T08:42:10.001Z</time></trkpt><trkpt lat="50.21110368005242" lon="14.664142271753448"><ele>170.0</ele><time>2026-05-03T08:42:11.001Z</time></trkpt><trkpt lat="50.211389640395886" lon="14.66392067515516"><ele>170.0</ele><time>2026-05-03T08:42:12.001Z</time></trkpt><trkpt lat="50.21165991190393" lon="14.663678747982633"><ele>170.0</ele><time>2026-05-03T08:42:13.001Z</time></trkpt><trkpt lat="50.211913377901865" lon="14.663418150903343"><ele>170.0</ele><time>2026-05-03T08:42:14.001Z</time></trkpt><trkpt lat="50.212145650041236" lon="14.66313805150723"><ele>170.0</ele><time>2026-05-03T08:42:15.001Z</time></trkpt><trkpt lat="50.21235836837074" lon="14.662825873046664"><ele>169.5</ele><time>2026-05-03T08:42:16.001Z</time></trkpt><trkpt lat="50.21256135811521" lon="14.662481653129975"><ele>169.0</ele><time>2026-05-03T08:42:17.001Z</time></trkpt><trkpt lat="50.212762178847974" lon="14.662129647155123"><ele>169.0</ele><time>2026-05-03T08:42:18.001Z</time></trkpt><trkpt lat="50.21294899415118" lon="14.661810503510228"><ele>169.0</ele><time>2026-05-03T08:42:19.001Z</time></trkpt><trkpt lat="50.21312437389656" lon="14.661515935404802"><ele>169.0</ele><time>2026-05-03T08:42:20.001Z</time></trkpt><trkpt lat="50.21329784502663" lon="14.661223238049066"><ele>169.0</ele><time>2026-05-03T08:42:21.001Z</time></trkpt><trkpt lat="50.21346481485581" lon="14.660918874306123"><ele>169.0</ele><time>2026-05-03T08:42:22.001Z</time></trkpt><trkpt lat="50.21363781574104" lon="14.660572694870073"><ele>169.0</ele><time>2026-05-03T08:42:23.001Z</time></trkpt><trkpt lat="50.21383743880929" lon="14.660190490842933"><ele>169.5</ele><time>2026-05-03T08:42:24.001Z</time></trkpt><trkpt lat="50.214051433202165" lon="14.659795854959734"><ele>170.0</ele><time>2026-05-03T08:42:25.001Z</time></trkpt><trkpt lat="50.21424665112716" lon="14.659416435424438"><ele>170.0</ele><time>2026-05-03T08:42:26.001Z</time></trkpt><trkpt lat="50.214416484713674" lon="14.659072824014423"><ele>170.0</ele><time>2026-05-03T08:42:27.001Z</time></trkpt><trkpt lat="50.21457129919761" lon="14.658753549561448"><ele>170.0</ele><time>2026-05-03T08:42:28.001Z</time></trkpt><trkpt lat="50.21471777893342" lon="14.65845539362344"><ele>170.0</ele><time>2026-05-03T08:42:29.001Z</time></trkpt><trkpt lat="50.21485597194513" lon="14.658173844911664"><ele>170.0</ele><time>2026-05-03T08:42:30.001Z</time></trkpt><trkpt lat="50.21499102236476" lon="14.657893351710552"><ele>170.0</ele><time>2026-05-03T08:42:31.001Z</time></trkpt><trkpt lat="50.21511652023318" lon="14.657642670849295"><ele>170.0</ele><time>2026-05-03T08:42:32.001Z</time></trkpt><trkpt lat="50.21523826835541" lon="14.657415806680174"><ele>169.66666666666666</ele><time>2026-05-03T08:42:33.001Z</time></trkpt><trkpt lat="50.21535482105297" lon="14.657191066590139"><ele>169.33333333333334</ele><time>2026-05-03T08:42:34.001Z</time></trkpt><trkpt lat="50.21547442905176" lon="14.656949076973929"><ele>169.0</ele><time>2026-05-03T08:42:35.001Z</time></trkpt><trkpt lat="50.215603320657266" lon="14.656713431852525"><ele>168.66666666666669</ele><time>2026-05-03T08:42:36.001Z</time></trkpt><trkpt lat="50.21574622659144" lon="14.656485336674033"><ele>168.33333333333334</ele><time>2026-05-03T08:42:37.001Z</time></trkpt><trkpt lat="50.21592054501632" lon="14.656301698046281"><ele>168.0</ele><time>2026-05-03T08:42:38.001Z</time></trkpt><trkpt lat="50.21612626732735" lon="14.656166142177915"><ele>168.0</ele><time>2026-05-03T08:42:39.001Z</time></trkpt><trkpt lat="50.21635271902127" lon="14.656056184400304"><ele>168.0</ele><time>2026-05-03T08:42:40.001Z</time></trkpt><trkpt lat="50.21659085314895" lon="14.655935476215873"><ele>168.5</ele><time>2026-05-03T08:42:41.001Z</time></trkpt><trkpt lat="50.21684491181094" lon="14.655798142652818"><ele>169.0</ele><time>2026-05-03T08:42:42.001Z</time></trkpt><trkpt lat="50.21713621462378" lon="14.655626557245036"><ele>168.5</ele><time>2026-05-03T08:42:43.001Z</time></trkpt><trkpt lat="50.21745974902238" lon="14.655448754624915"><ele>168.0</ele><time>2026-05-03T08:42:44.001Z</time></trkpt><trkpt lat="50.21779391069415" lon="14.655294449768407"><ele>167.5</ele><time>2026-05-03T08:42:45.001Z</time></trkpt><trkpt lat="50.21811138937813" lon="14.655144615616381"><ele>167.0</ele><time>2026-05-03T08:42:46.001Z</time></trkpt><trkpt lat="50.21838644354273" lon="14.654988303110176"><ele>168.0</ele><time>2026-05-03T08:42:47.001Z</time></trkpt><trkpt lat="50.21863718852466" lon="14.654857805234132"><ele>169.0</ele><time>2026-05-03T08:42:48.001Z</time></trkpt><trkpt lat="50.218846345056654" lon="14.654732307956797"><ele>170.0</ele><time>2026-05-03T08:42:49Z</time></trkpt><trkpt lat="50.21903331737996" lon="14.654629183518868"><ele>171.0</ele><time>2026-05-03T08:42:50Z</time></trkpt><trkpt lat="50.219213702534866" lon="14.654522559857352"><ele>172.0</ele><time>2026-05-03T08:42:51Z</time></trkpt><trkpt lat="50.21938378410619" lon="14.654427225805236"><ele>172.0</ele><time>2026-05-03T08:42:52Z</time></trkpt><trkpt lat="50.21955203697207" lon="14.654346032516694"><ele>172.0</ele><time>2026-05-03T08:42:53Z</time></trkpt><trkpt lat="50.21972635263246" lon="14.654272010424588"><ele>172.0</ele><time>2026-05-03T08:42:54Z</time></trkpt><trkpt lat="50.21990327679897" lon="14.654203742959195"><ele>173.66666666666669</ele><time>2026-05-03T08:42:55Z</time></trkpt><trkpt lat="50.220079988939375" lon="14.654126972059556"><ele>175.33333333333334</ele><time>2026-05-03T08:42:56Z</time></trkpt><trkpt lat="50.22025053064359" lon="14.654026037327691"><ele>177.0</ele><time>2026-05-03T08:42:57Z</time></trkpt><trkpt lat="50.22042004389205" lon="14.65392602376091"><ele>177.0</ele><time>2026-05-03T08:42:58Z</time></trkpt><trkpt lat="50.22059645436602" lon="14.653854178296392"><ele>177.0</ele><time>2026-05-03T08:42:59Z</time></trkpt><trkpt lat="50.22077222281218" lon="14.653789169461852"><ele>177.0</ele><time>2026-05-03T08:43:00Z</time></trkpt><trkpt lat="50.22094455448922" lon="14.653724622206223"><ele>177.0</ele><time>2026-05-03T08:43:01Z</time></trkpt><trkpt lat="50.22111759856357" lon="14.653663468407954"><ele>177.0</ele><time>2026-05-03T08:43:02Z</time></trkpt><trkpt lat="50.22129442842386" lon="14.653606245586706"><ele>177.0</ele><time>2026-05-03T08:43:03Z</time></trkpt><trkpt lat="50.22146817223626" lon="14.65354532063195"><ele>177.66666666666666</ele><time>2026-05-03T08:43:04Z</time></trkpt><trkpt lat="50.221646398391826" lon="14.653482590498452"><ele>178.33333333333331</ele><time>2026-05-03T08:43:05Z</time></trkpt><trkpt lat="50.22182300722514" lon="14.65341652306854"><ele>179.0</ele><time>2026-05-03T08:43:06Z</time></trkpt><trkpt lat="50.222006179991375" lon="14.653357847220656"><ele>179.0</ele><time>2026-05-03T08:43:07Z</time></trkpt><trkpt lat="50.22221768601553" lon="14.653303875394112"><ele>179.0</ele><time>2026-05-03T08:43:08Z</time></trkpt><trkpt lat="50.22246035734025" lon="14.653250796926123"><ele>178.0</ele><time>2026-05-03T08:43:09Z</time></trkpt><trkpt lat="50.22271774451206" lon="14.653197113904367"><ele>177.0</ele><time>2026-05-03T08:43:10Z</time></trkpt><trkpt lat="50.22299064836425" lon="14.653139225886584"><ele>177.5</ele><time>2026-05-03T08:43:11Z</time></trkpt><trkpt lat="50.22330315874997" lon="14.653070600240898"><ele>178.0</ele><time>2026-05-03T08:43:12Z</time></trkpt><trkpt lat="50.22360482920626" lon="14.653010806912837"><ele>178.0</ele><time>2026-05-03T08:43:13Z</time></trkpt><trkpt lat="50.22386378713975" lon="14.652950880155446"><ele>178.0</ele><time>2026-05-03T08:43:14Z</time></trkpt><trkpt lat="50.224099503050034" lon="14.652897143273394"><ele>179.0</ele><time>2026-05-03T08:43:15Z</time></trkpt><trkpt lat="50.22434560500729" lon="14.652842339791139"><ele>180.0</ele><time>2026-05-03T08:43:16Z</time></trkpt><trkpt lat="50.22463804446713" lon="14.652781103299581"><ele>176.5</ele><time>2026-05-03T08:43:17Z</time></trkpt><trkpt lat="50.2249726063676" lon="14.652709959524403"><ele>173.0</ele><time>2026-05-03T08:43:18Z</time></trkpt><trkpt lat="50.225339264194474" lon="14.652633253993944"><ele>174.5</ele><time>2026-05-03T08:43:19Z</time></trkpt><trkpt lat="50.22572926210863" lon="14.65255421995112"><ele>176.0</ele><time>2026-05-03T08:43:20Z</time></trkpt><trkpt lat="50.22613216013831" lon="14.652475842785009"><ele>175.5</ele><time>2026-05-03T08:43:21Z</time></trkpt><trkpt lat="50.22654887997663" lon="14.652394013110703"><ele>175.0</ele><time>2026-05-03T08:43:22Z</time></trkpt><trkpt lat="50.2269427534607" lon="14.652320098415352"><ele>175.0</ele><time>2026-05-03T08:43:23Z</time></trkpt><trkpt lat="50.2272907618371" lon="14.65225973295514"><ele>175.0</ele><time>2026-05-03T08:43:24Z</time></trkpt><trkpt lat="50.22760230021338" lon="14.652209436071606"><ele>176.0</ele><time>2026-05-03T08:43:25Z</time></trkpt><trkpt lat="50.22791706395348" lon="14.652153011329025"><ele>177.0</ele><time>2026-05-03T08:43:26Z</time></trkpt><trkpt lat="50.22823674848232" lon="14.652089493301265"><ele>178.0</ele><time>2026-05-03T08:43:27Z</time></trkpt><trkpt lat="50.228570557078505" lon="14.652032344363667"><ele>179.0</ele><time>2026-05-03T08:43:28Z</time></trkpt><trkpt lat="50.22892865597658" lon="14.652012395144299"><ele>176.0</ele><time>2026-05-03T08:43:29Z</time></trkpt><trkpt lat="50.22929408899338" lon="14.651948941534892"><ele>173.0</ele><time>2026-05-03T08:43:30Z</time></trkpt><trkpt lat="50.22962033958151" lon="14.651916783509765"><ele>173.5</ele><time>2026-05-03T08:43:31Z</time></trkpt><trkpt lat="50.22992869583628" lon="14.651877626025604"><ele>174.0</ele><time>2026-05-03T08:43:32Z</time></trkpt><trkpt lat="50.230236849775885" lon="14.651827074059648"><ele>174.0</ele><time>2026-05-03T08:43:33Z</time></trkpt><trkpt lat="50.23051817062192" lon="14.65177736392048"><ele>174.0</ele><time>2026-05-03T08:43:34Z</time></trkpt><trkpt lat="50.230768337544895" lon="14.651748951910795"><ele>175.0</ele><time>2026-05-03T08:43:35Z</time></trkpt><trkpt lat="50.23098921124518" lon="14.651652080974944"><ele>176.0</ele><time>2026-05-03T08:43:36Z</time></trkpt><trkpt lat="50.23120550526723" lon="14.651583070291258"><ele>176.0</ele><time>2026-05-03T08:43:37Z</time></trkpt><trkpt lat="50.23139940676203" lon="14.651415110211062"><ele>176.0</ele><time>2026-05-03T08:43:38Z</time></trkpt><trkpt lat="50.2315834857627" lon="14.651235789089997"><ele>176.0</ele><time>2026-05-03T08:43:39Z</time></trkpt><trkpt lat="50.23176400698395" lon="14.651033098880283"><ele>174.33333333333331</ele><time>2026-05-03T08:43:40Z</time></trkpt><trkpt lat="50.23193880818012" lon="14.650792343678193"><ele>172.66666666666666</ele><time>2026-05-03T08:43:41Z</time></trkpt><trkpt lat="50.232085762381615" lon="14.650547762146667"><ele>171.0</ele><time>2026-05-03T08:43:42Z</time></trkpt><trkpt lat="50.23221878428175" lon="14.650257226027467"><ele>170.5</ele><time>2026-05-03T08:43:43Z</time></trkpt><trkpt lat="50.23235617472545" lon="14.649896582460736"><ele>170.0</ele><time>2026-05-03T08:43:44Z</time></trkpt><trkpt lat="50.232509815493" lon="14.64948372196929"><ele>170.0</ele><time>2026-05-03T08:43:45Z</time></trkpt><trkpt lat="50.23270124789985" lon="14.649052164956421"><ele>170.0</ele><time>2026-05-03T08:43:46Z</time></trkpt><trkpt lat="50.23289555292443" lon="14.648585523964005"><ele>169.5</ele><time>2026-05-03T08:43:47Z</time></trkpt><trkpt lat="50.23309134504971" lon="14.648071053537283"><ele>169.0</ele><time>2026-05-03T08:43:48Z</time></trkpt><trkpt lat="50.233317888193284" lon="14.64756385975299"><ele>169.0</ele><time>2026-05-03T08:43:49Z</time></trkpt><trkpt lat="50.233552797860554" lon="14.647070932102782"><ele>169.0</ele><time>2026-05-03T08:43:50Z</time></trkpt><trkpt lat="50.23376677374461" lon="14.646649414824438"><ele>169.0</ele><time>2026-05-03T08:43:51Z</time></trkpt><trkpt lat="50.23396530383504" lon="14.646257053675338"><ele>169.0</ele><time>2026-05-03T08:43:52Z</time></trkpt><trkpt lat="50.234154326159626" lon="14.64588354862268"><ele>168.5</ele><time>2026-05-03T08:43:53Z</time></trkpt><trkpt lat="50.23432914559902" lon="14.645541013040217"><ele>168.0</ele><time>2026-05-03T08:43:54Z</time></trkpt><trkpt lat="50.234502032390914" lon="14.645239633508707"><ele>168.0</ele><time>2026-05-03T08:43:55Z</time></trkpt><trkpt lat="50.23470860856313" lon="14.644962422442365"><ele>168.0</ele><time>2026-05-03T08:43:56Z</time></trkpt><trkpt lat="50.234948938942" lon="14.644695847934429"><ele>168.0</ele><time>2026-05-03T08:43:57Z</time></trkpt><trkpt lat="50.23522391174763" lon="14.644437825132218"><ele>168.0</ele><time>2026-05-03T08:43:58Z</time></trkpt><trkpt lat="50.235510628276174" lon="14.644168446822913"><ele>168.5</ele><time>2026-05-03T08:43:59Z</time></trkpt><trkpt lat="50.23575631162497" lon="14.643894702770183"><ele>169.0</ele><time>2026-05-03T08:44:00Z</time></trkpt><trkpt lat="50.2359957621238" lon="14.643564952957258"><ele>169.5</ele><time>2026-05-03T08:44:01Z</time></trkpt><trkpt lat="50.236253247776354" lon="14.643177451630214"><ele>170.0</ele><time>2026-05-03T08:44:02Z</time></trkpt><trkpt lat="50.23651020940587" lon="14.642776191755816"><ele>170.5</ele><time>2026-05-03T08:44:03Z</time></trkpt><trkpt lat="50.23673185854968" lon="14.642391343790463"><ele>171.0</ele><time>2026-05-03T08:44:04Z</time></trkpt><trkpt lat="50.236955007502466" lon="14.641952230879351"><ele>171.0</ele><time>2026-05-03T08:44:05Z</time></trkpt><trkpt lat="50.237154322245246" lon="14.641534275862197"><ele>171.0</ele><time>2026-05-03T08:44:06Z</time></trkpt><trkpt lat="50.237347812030045" lon="14.641167096969614"><ele>170.5</ele><time>2026-05-03T08:44:07Z</time></trkpt><trkpt lat="50.237522208240314" lon="14.640830863978373"><ele>170.0</ele><time>2026-05-03T08:44:08Z</time></trkpt><trkpt lat="50.237681402552596" lon="14.640512044007815"><ele>171.0</ele><time>2026-05-03T08:44:09.001Z</time></trkpt><trkpt lat="50.23783677043499" lon="14.64021562069441"><ele>172.0</ele><time>2026-05-03T08:44:10.001Z</time></trkpt><trkpt lat="50.23798587375466" lon="14.63993690754458"><ele>172.0</ele><time>2026-05-03T08:44:11.001Z</time></trkpt><trkpt lat="50.238123925629644" lon="14.6396808787168"><ele>172.0</ele><time>2026-05-03T08:44:12.001Z</time></trkpt><trkpt lat="50.23825964734044" lon="14.639433866100996"><ele>172.0</ele><time>2026-05-03T08:44:13.001Z</time></trkpt><trkpt lat="50.23840097252869" lon="14.639186537155211"><ele>172.0</ele><time>2026-05-03T08:44:14.001Z</time></trkpt><trkpt lat="50.238543282960805" lon="14.638944520022106"><ele>172.0</ele><time>2026-05-03T08:44:15.001Z</time></trkpt><trkpt lat="50.23868414166922" lon="14.638702687713709"><ele>172.0</ele><time>2026-05-03T08:44:16.001Z</time></trkpt><trkpt lat="50.238818354729915" lon="14.638477447982165"><ele>172.0</ele><time>2026-05-03T08:44:17.001Z</time></trkpt><trkpt lat="50.23894836622177" lon="14.638260023646717"><ele>172.0</ele><time>2026-05-03T08:44:18.001Z</time></trkpt><trkpt lat="50.23908402219313" lon="14.638023925480447"><ele>172.0</ele><time>2026-05-03T08:44:19.001Z</time></trkpt><trkpt lat="50.23922087536569" lon="14.637797755557584"><ele>171.0</ele><time>2026-05-03T08:44:20.001Z</time></trkpt><trkpt lat="50.23935178224542" lon="14.63760536067048"><ele>170.0</ele><time>2026-05-03T08:44:21.001Z</time></trkpt><trkpt lat="50.23946971901221" lon="14.637418911581626"><ele>169.0</ele><time>2026-05-03T08:44:22.001Z</time></trkpt><trkpt lat="50.239575449263285" lon="14.637239425223655"><ele>169.0</ele><time>2026-05-03T08:44:23.001Z</time></trkpt><trkpt lat="50.23968568336048" lon="14.637072830352794"><ele>169.0</ele><time>2026-05-03T08:44:24.001Z</time></trkpt><trkpt lat="50.239793392186826" lon="14.636908636158466"><ele>169.0</ele><time>2026-05-03T08:44:25.001Z</time></trkpt><trkpt lat="50.23989648106368" lon="14.636731021580173"><ele>169.0</ele><time>2026-05-03T08:44:26.001Z</time></trkpt><trkpt lat="50.239998324175005" lon="14.636567487129238"><ele>169.0</ele><time>2026-05-03T08:44:27.001Z</time></trkpt><trkpt lat="50.24009214785035" lon="14.636420934233627"><ele>169.0</ele><time>2026-05-03T08:44:28.001Z</time></trkpt><trkpt lat="50.240172993251164" lon="14.63628342885881"><ele>169.0</ele><time>2026-05-03T08:44:29.001Z</time></trkpt><trkpt lat="50.24024987834118" lon="14.636153112914332"><ele>169.0</ele><time>2026-05-03T08:44:30.001Z</time></trkpt><trkpt lat="50.2403301095125" lon="14.636033856569563"><ele>169.0</ele><time>2026-05-03T08:44:31.001Z</time></trkpt><trkpt lat="50.24040405202747" lon="14.635918305059866"><ele>169.0</ele><time>2026-05-03T08:44:32.001Z</time></trkpt><trkpt lat="50.24046377408026" lon="14.6358509235846"><ele>169.0</ele><time>2026-05-03T08:44:33.001Z</time></trkpt><trkpt lat="50.24052919094776" lon="14.63583182388915"><ele>169.0</ele><time>2026-05-03T08:44:34.001Z</time></trkpt><trkpt lat="50.240595136187444" lon="14.635868808462163"><ele>169.0</ele><time>2026-05-03T08:44:35.001Z</time></trkpt><trkpt lat="50.24066329747614" lon="14.635947620677845"><ele>169.2</ele><time>2026-05-03T08:44:36.001Z</time></trkpt><trkpt lat="50.2407215055913" lon="14.636020005585031"><ele>169.39999999999998</ele><time>2026-05-03T08:44:37.001Z</time></trkpt><trkpt lat="50.240812502905165" lon="14.636132204434112"><ele>169.6</ele><time>2026-05-03T08:44:39.001Z</time></trkpt><trkpt lat="50.24089654236753" lon="14.63625538004758"><ele>169.8</ele><time>2026-05-03T08:44:41Z</time></trkpt><trkpt lat="50.24097418925092" lon="14.63637760800138"><ele>170.0</ele><time>2026-05-03T08:44:43Z</time></trkpt><trkpt lat="50.24105637165458" lon="14.636500531842023"><ele>170.16666666666666</ele><time>2026-05-03T08:44:45Z</time></trkpt><trkpt lat="50.24113622940247" lon="14.6366022869108"><ele>170.33333333333331</ele><time>2026-05-03T08:44:47Z</time></trkpt><trkpt lat="50.24118415088819" lon="14.636671658405893"><ele>170.5</ele><time>2026-05-03T08:44:49Z</time></trkpt><trkpt lat="50.241229998372155" lon="14.636745401978326"><ele>170.66666666666666</ele><time>2026-05-03T08:45:11.999Z</time></trkpt><trkpt lat="50.241290006053156" lon="14.63684657792348"><ele>170.83333333333334</ele><time>2026-05-03T08:45:13.999Z</time></trkpt><trkpt lat="50.241354336142464" lon="14.636925619521143"><ele>171.0</ele><time>2026-05-03T08:45:15.999Z</time></trkpt><trkpt lat="50.24144366394885" lon="14.637051682875324"><ele>170.8</ele><time>2026-05-03T08:45:17.999Z</time></trkpt><trkpt lat="50.2415077954727" lon="14.637129689136426"><ele>170.60000000000002</ele><time>2026-05-03T08:45:18.999Z</time></trkpt><trkpt lat="50.241585449717604" lon="14.637178390855969"><ele>170.4</ele><time>2026-05-03T08:45:19.999Z</time></trkpt><trkpt lat="50.24167984113377" lon="14.637150791998256"><ele>170.2</ele><time>2026-05-03T08:45:20.999Z</time></trkpt><trkpt lat="50.24176983013513" lon="14.637055663078323"><ele>170.0</ele><time>2026-05-03T08:45:21.999Z</time></trkpt><trkpt lat="50.241864766605644" lon="14.636895634001887"><ele>170.0</ele><time>2026-05-03T08:45:22.999Z</time></trkpt><trkpt lat="50.24198326082934" lon="14.636717478334761"><ele>170.0</ele><time>2026-05-03T08:45:23.999Z</time></trkpt><trkpt lat="50.24213704178399" lon="14.636462013711112"><ele>170.0</ele><time>2026-05-03T08:45:24.999Z</time></trkpt><trkpt lat="50.242270973286374" lon="14.636136035563528"><ele>170.33333333333331</ele><time>2026-05-03T08:45:25.999Z</time></trkpt><trkpt lat="50.242430471959956" lon="14.635901252220044"><ele>170.66666666666666</ele><time>2026-05-03T08:45:26.999Z</time></trkpt><trkpt lat="50.24255291513506" lon="14.635722786269167"><ele>171.0</ele><time>2026-05-03T08:45:27.999Z</time></trkpt><trkpt lat="50.24266599233435" lon="14.635549598015277"><ele>171.0</ele><time>2026-05-03T08:45:28.999Z</time></trkpt><trkpt lat="50.2427689118205" lon="14.635410310320982"><ele>171.0</ele><time>2026-05-03T08:45:29.999Z</time></trkpt><trkpt lat="50.24284137753198" lon="14.63525289164507"><ele>171.0</ele><time>2026-05-03T08:45:30.999Z</time></trkpt><trkpt lat="50.24293460312711" lon="14.635168307745639"><ele>171.0</ele><time>2026-05-03T08:45:31.999Z</time></trkpt><trkpt lat="50.243014484709796" lon="14.635091269830616"><ele>171.0</ele><time>2026-05-03T08:45:32.999Z</time></trkpt><trkpt lat="50.24312393426237" lon="14.635077868037179"><ele>171.0</ele><time>2026-05-03T08:45:33.999Z</time></trkpt><trkpt lat="50.24323059655506" lon="14.635130187942053"><ele>171.0</ele><time>2026-05-03T08:45:34.999Z</time></trkpt><trkpt lat="50.24332794207239" lon="14.635251294719954"><ele>171.0</ele><time>2026-05-03T08:45:35.999Z</time></trkpt><trkpt lat="50.24342706878712" lon="14.635430486982305"><ele>170.33333333333334</ele><time>2026-05-03T08:45:36.999Z</time></trkpt><trkpt lat="50.24353203501193" lon="14.635652582968865"><ele>169.66666666666669</ele><time>2026-05-03T08:45:37.999Z</time></trkpt><trkpt lat="50.243648867717106" lon="14.635866029231165"><ele>169.0</ele><time>2026-05-03T08:45:38.999Z</time></trkpt><trkpt lat="50.243742616648774" lon="14.63604030358657"><ele>169.0</ele><time>2026-05-03T08:45:39.999Z</time></trkpt><trkpt lat="50.24382494627987" lon="14.636193720548356"><ele>169.0</ele><time>2026-05-03T08:45:40.999Z</time></trkpt><trkpt lat="50.2438936818082" lon="14.636316027040658"><ele>169.0</ele><time>2026-05-03T08:45:41.999Z</time></trkpt><trkpt lat="50.243947361733255" lon="14.636401947073248"><ele>169.0</ele><time>2026-05-03T08:45:42.999Z</time></trkpt><trkpt lat="50.24399030455339" lon="14.636507971652572"><ele>169.0</ele><time>2026-05-03T08:45:44.999Z</time></trkpt><trkpt lat="50.24392118095533" lon="14.636680823657487"><ele>169.0</ele><time>2026-05-03T08:45:46.999Z</time></trkpt><trkpt lat="50.243862460141735" lon="14.636797838358413"><ele>169.0</ele><time>2026-05-03T08:45:47.999Z</time></trkpt><trkpt lat="50.243793309749066" lon="14.636941625641033"><ele>169.0</ele><time>2026-05-03T08:45:48.999Z</time></trkpt><trkpt lat="50.24372010926612" lon="14.637117612159804"><ele>169.0</ele><time>2026-05-03T08:45:49.999Z</time></trkpt><trkpt lat="50.24365547293865" lon="14.637280532736009"><ele>169.0</ele><time>2026-05-03T08:45:50.999Z</time></trkpt><trkpt lat="50.243602280229915" lon="14.637414997816244"><ele>169.0</ele><time>2026-05-03T08:45:51.999Z</time></trkpt><trkpt lat="50.24355249650975" lon="14.637545394691358"><ele>169.0</ele><time>2026-05-03T08:45:52.999Z</time></trkpt><trkpt lat="50.24348953362936" lon="14.63767419976765"><ele>169.0</ele><time>2026-05-03T08:45:53.999Z</time></trkpt><trkpt lat="50.24342195093544" lon="14.637808798828482"><ele>169.0</ele><time>2026-05-03T08:45:54.999Z</time></trkpt><trkpt lat="50.243367009444036" lon="14.637927340886538"><ele>169.0</ele><time>2026-05-03T08:45:55.999Z</time></trkpt><trkpt lat="50.24332221056052" lon="14.638032200039975"><ele>169.0</ele><time>2026-05-03T08:45:56.999Z</time></trkpt><trkpt lat="50.24327719230506" lon="14.638129409920356"><ele>169.0</ele><time>2026-05-03T08:45:57.999Z</time></trkpt><trkpt lat="50.24323407999323" lon="14.638219136292657"><ele>169.0</ele><time>2026-05-03T08:45:58.999Z</time></trkpt><trkpt lat="50.24318097182495" lon="14.638333986943326"><ele>169.0</ele><time>2026-05-03T08:46:00.999Z</time></trkpt><trkpt lat="50.24333685618426" lon="14.638540559898946"><ele>169.0</ele><time>2026-05-03T08:46:03.999Z</time></trkpt><trkpt lat="50.243459316341706" lon="14.638655848819623"><ele>169.0</ele><time>2026-05-03T08:46:04.999Z</time></trkpt><trkpt lat="50.24357458234568" lon="14.638777834438343"><ele>169.0</ele><time>2026-05-03T08:46:05.999Z</time></trkpt><trkpt lat="50.243651219399524" lon="14.638880234848052"><ele>169.0</ele><time>2026-05-03T08:46:06.999Z</time></trkpt><trkpt lat="50.243737082104474" lon="14.638977613001309"><ele>169.0</ele><time>2026-05-03T08:46:08.999Z</time></trkpt><trkpt lat="50.24379479877524" lon="14.639038448701928"><ele>169.0</ele><time>2026-05-03T08:46:11.999Z</time></trkpt><trkpt lat="50.24388971505539" lon="14.638896937874517"><ele>169.0</ele><time>2026-05-03T08:49:35.999Z</time></trkpt><trkpt lat="50.24392176559026" lon="14.638788753182292"><ele>169.0</ele><time>2026-05-03T08:50:05.999Z</time></trkpt><trkpt lat="50.24396492862387" lon="14.638701317787016"><ele>169.0</ele><time>2026-05-03T08:50:12.999Z</time></trkpt><trkpt lat="50.24400547177324" lon="14.63861627681712"><ele>169.0</ele><time>2026-05-03T08:50:19.999Z</time></trkpt><trkpt lat="50.24395543513149" lon="14.638693450012903"><ele>169.0</ele><time>2026-05-03T08:50:36.999Z</time></trkpt><trkpt lat="50.243895849525515" lon="14.638616968118429"><ele>169.0</ele><time>2026-05-03T08:50:43.999Z</time></trkpt><trkpt lat="50.24390642157347" lon="14.638717676756"><ele>169.0</ele><time>2026-05-03T08:51:04Z</time></trkpt><trkpt lat="50.24387909194805" lon="14.638826562115142"><ele>169.0</ele><time>2026-05-03T08:51:10Z</time></trkpt><trkpt lat="50.24386109346937" lon="14.63894859281008"><ele>169.0</ele><time>2026-05-03T08:51:27Z</time></trkpt><trkpt lat="50.243898774499804" lon="14.638861612458067"><ele>169.0</ele><time>2026-05-03T08:52:16.999Z</time></trkpt><trkpt lat="50.24391424024584" lon="14.638744420538538"><ele>169.0</ele><time>2026-05-03T08:52:23.999Z</time></trkpt><trkpt lat="50.243906205053825" lon="14.638635176718022"><ele>169.0</ele><time>2026-05-03T08:52:31.999Z</time></trkpt><trkpt lat="50.24381012219475" lon="14.638662008645626"><ele>169.0</ele><time>2026-05-03T08:52:43Z</time></trkpt><trkpt lat="50.24386818077348" lon="14.638588372658933"><ele>169.0</ele><time>2026-05-03T08:53:33Z</time></trkpt><trkpt lat="50.24396078470656" lon="14.638590462408253"><ele>169.0</ele><time>2026-05-03T08:56:10.14Z</time></trkpt><trkpt lat="50.243979751658266" lon="14.638472829242989"><ele>169.0</ele><time>2026-05-03T08:56:15.012Z</time></trkpt><trkpt lat="50.24412064510447" lon="14.638510321036078"><ele>169.0</ele><time>2026-05-03T08:59:17.069Z</time></trkpt><trkpt lat="50.244052700752746" lon="14.63860002673693"><ele>169.0</ele><time>2026-05-03T08:59:24.072Z</time></trkpt><trkpt lat="50.24399304910014" lon="14.638536789609727"><ele>169.0</ele><time>2026-05-03T08:59:29.071Z</time></trkpt><trkpt lat="50.24398313594606" lon="14.638419553366877"><ele>169.0</ele><time>2026-05-03T08:59:32Z</time></trkpt><trkpt lat="50.24391478342007" lon="14.638427448937504"><ele>169.0</ele><time>2026-05-03T08:59:49Z</time></trkpt><trkpt lat="50.24400467729334" lon="14.638545977560904"><ele>169.0</ele><time>2026-05-03T09:00:04Z</time></trkpt><trkpt lat="50.24392750138071" lon="14.638751189092481"><ele>169.0</ele><time>2026-05-03T09:00:05Z</time></trkpt><trkpt lat="50.24396731372789" lon="14.638491761758338"><ele>169.0</ele><time>2026-05-03T09:00:50Z</time></trkpt><trkpt lat="50.243976966394804" lon="14.63837179104443"><ele>169.0</ele><time>2026-05-03T09:03:58Z</time></trkpt><trkpt lat="50.24399967146192" lon="14.638270257262251"><ele>169.0</ele><time>2026-05-03T09:04:01.068Z</time></trkpt><trkpt lat="50.2439359379421" lon="14.638643192457888"><ele>169.0</ele><time>2026-05-03T09:04:17.676Z</time></trkpt><trkpt lat="50.24396469029778" lon="14.638351482295828"><ele>169.0</ele><time>2026-05-03T09:04:24Z</time></trkpt><trkpt lat="50.243999272831026" lon="14.638260646578672"><ele>169.0</ele><time>2026-05-03T09:12:51Z</time></trkpt><trkpt lat="50.24401692361491" lon="14.638099506630947"><ele>169.0</ele><time>2026-05-03T09:16:50Z</time></trkpt><trkpt lat="50.24398990618561" lon="14.638191126931767"><ele>169.0</ele><time>2026-05-03T09:16:52Z</time></trkpt><trkpt lat="50.24393675293422" lon="14.638256978588078"><ele>169.0</ele><time>2026-05-03T09:16:55Z</time></trkpt><trkpt lat="50.24392504625133" lon="14.638381231843763"><ele>169.0</ele><time>2026-05-03T09:18:46.011Z</time></trkpt><trkpt lat="50.243992871719286" lon="14.6384256889241"><ele>169.0</ele><time>2026-05-03T09:19:24.012Z</time></trkpt><trkpt lat="50.2439359379421" lon="14.638643192457888"><ele>169.0</ele><time>2026-05-03T09:19:24.651Z</time></trkpt><trkpt lat="50.244005537442476" lon="14.638472538711046"><ele>169.0</ele><time>2026-05-03T09:19:29.013Z</time></trkpt><trkpt lat="50.24395968891217" lon="14.638573000433347"><ele>169.0</ele><time>2026-05-03T09:20:43.01Z</time></trkpt><trkpt lat="50.24388971871348" lon="14.638539415997025"><ele>169.0</ele><time>2026-05-03T09:21:23.013Z</time></trkpt><trkpt lat="50.2438859800735" lon="14.638637903456068"><ele>169.0</ele><time>2026-05-03T09:30:01Z</time></trkpt><trkpt lat="50.24389327338564" lon="14.638745405790132"><ele>169.0</ele><time>2026-05-03T09:30:07Z</time></trkpt><trkpt lat="50.243962142025254" lon="14.63871940569719"><ele>169.0</ele><time>2026-05-03T09:30:34Z</time></trkpt><trkpt lat="50.24392691155103" lon="14.638637287132141"><ele>169.0</ele><time>2026-05-03T09:30:39Z</time></trkpt><trkpt lat="50.243871086148935" lon="14.638570683803522"><ele>169.0</ele><time>2026-05-03T09:32:16Z</time></trkpt><trkpt lat="50.24389653705293" lon="14.638669894633777"><ele>169.0</ele><time>2026-05-03T09:34:26Z</time></trkpt><trkpt lat="50.24383262180912" lon="14.638682338955103"><ele>169.0</ele><time>2026-05-03T09:38:23.999Z</time></trkpt><trkpt lat="50.243759290435314" lon="14.638723027036182"><ele>169.0</ele><time>2026-05-03T09:38:28.999Z</time></trkpt><trkpt lat="50.24382864296688" lon="14.638746894042667"><ele>169.0</ele><time>2026-05-03T09:39:06.999Z</time></trkpt><trkpt lat="50.24390130296548" lon="14.638693295092075"><ele>169.0</ele><time>2026-05-03T09:39:12.999Z</time></trkpt><trkpt lat="50.24390122116713" lon="14.638584913539123"><ele>169.0</ele><time>2026-05-03T09:39:20.999Z</time></trkpt><trkpt lat="50.24385138388771" lon="14.63864648813574"><ele>169.0</ele><time>2026-05-03T09:39:42.999Z</time></trkpt><trkpt lat="50.243800001111154" lon="14.638736718644932"><ele>169.0</ele><time>2026-05-03T09:39:45.999Z</time></trkpt><trkpt lat="50.24373774372686" lon="14.638756954959597"><ele>169.0</ele><time>2026-05-03T09:39:46.999Z</time></trkpt><trkpt lat="50.243670441975674" lon="14.63880161545575"><ele>169.0</ele><time>2026-05-03T09:39:48.999Z</time></trkpt><trkpt lat="50.24360482345321" lon="14.638863372817985"><ele>169.0</ele><time>2026-05-03T09:39:51.999Z</time></trkpt><trkpt lat="50.24373314353911" lon="14.638737639240356"><ele>169.0</ele><time>2026-05-03T09:39:52.999Z</time></trkpt><trkpt lat="50.2439359379421" lon="14.638643192457888"><ele>169.0</ele><time>2026-05-03T09:40:08.7Z</time></trkpt><trkpt lat="50.243846774011615" lon="14.638512975253523"><ele>169.0</ele><time>2026-05-03T09:41:35.012Z</time></trkpt><trkpt lat="50.243827950609074" lon="14.63862456328981"><ele>169.0</ele><time>2026-05-03T09:42:32.999Z</time></trkpt><trkpt lat="50.24386307805497" lon="14.638525441085822"><ele>169.0</ele><time>2026-05-03T09:43:42Z</time></trkpt><trkpt lat="50.24383435387177" lon="14.63861710971866"><ele>169.0</ele><time>2026-05-03T09:51:02.001Z</time></trkpt><trkpt lat="50.2437843789331" lon="14.638686581248198"><ele>169.0</ele><time>2026-05-03T09:52:42.002Z</time></trkpt><trkpt lat="50.24371928358633" lon="14.63876336545453"><ele>169.0</ele><time>2026-05-03T09:52:49Z</time></trkpt><trkpt lat="50.24376827697107" lon="14.638700086963494"><ele>169.0</ele><time>2026-05-03T09:53:23Z</time></trkpt><trkpt lat="50.24382401875386" lon="14.638646397364228"><ele>169.0</ele><time>2026-05-03T09:53:29Z</time></trkpt><trkpt lat="50.24389063352044" lon="14.638666772334126"><ele>169.0</ele><time>2026-05-03T09:53:53.001Z</time></trkpt><trkpt lat="50.24387745171328" lon="14.638563554952956"><ele>169.0</ele><time>2026-05-03T09:53:59.001Z</time></trkpt><trkpt lat="50.24389296549079" lon="14.638446749000051"><ele>169.0</ele><time>2026-05-03T10:12:20Z</time></trkpt><trkpt lat="50.2438746081019" lon="14.638332659681671"><ele>169.0</ele><time>2026-05-03T10:12:24Z</time></trkpt><trkpt lat="50.2439359379421" lon="14.638643192457888"><ele>169.0</ele><time>2026-05-03T10:12:45.067Z</time></trkpt><trkpt lat="50.24392325214171" lon="14.638528336064907"><ele>169.0</ele><time>2026-05-03T10:13:47Z</time></trkpt><trkpt lat="50.24391909899806" lon="14.638628003993663"><ele>169.0</ele><time>2026-05-03T10:14:02.999Z</time></trkpt><trkpt lat="50.24391006753581" lon="14.638527565329863"><ele>169.0</ele><time>2026-05-03T10:14:19Z</time></trkpt><trkpt lat="50.243959087929305" lon="14.638605163138406"><ele>169.0</ele><time>2026-05-03T10:14:35Z</time></trkpt><trkpt lat="50.24401617119527" lon="14.638650574312805"><ele>169.0</ele><time>2026-05-03T10:14:41Z</time></trkpt><trkpt lat="50.24396133684358" lon="14.638720671628576"><ele>169.0</ele><time>2026-05-03T10:18:12.999Z</time></trkpt><trkpt lat="50.243896733454854" lon="14.638749670099191"><ele>169.0</ele><time>2026-05-03T10:18:20.999Z</time></trkpt><trkpt lat="50.24395677951084" lon="14.638705472011674"><ele>169.0</ele><time>2026-05-03T10:18:26.999Z</time></trkpt><trkpt lat="50.244006173084266" lon="14.638642544480305"><ele>169.0</ele><time>2026-05-03T10:18:33Z</time></trkpt><trkpt lat="50.24395920992211" lon="14.638719102900572"><ele>169.0</ele><time>2026-05-03T10:18:43Z</time></trkpt><trkpt lat="50.24389479891755" lon="14.638749074621138"><ele>169.0</ele><time>2026-05-03T10:19:09Z</time></trkpt><trkpt lat="50.243840626133746" lon="14.638816267162124"><ele>169.0</ele><time>2026-05-03T10:19:15Z</time></trkpt><trkpt lat="50.24380306041837" lon="14.638727444470138"><ele>169.0</ele><time>2026-05-03T10:19:25Z</time></trkpt><trkpt lat="50.243818077583896" lon="14.63882483997376"><ele>169.0</ele><time>2026-05-03T10:19:52Z</time></trkpt><trkpt lat="50.243850507294724" lon="14.63872921861445"><ele>169.0</ele><time>2026-05-03T10:27:33Z</time></trkpt><trkpt lat="50.24391640047533" lon="14.638742520505991"><ele>169.0</ele><time>2026-05-03T10:27:51Z</time></trkpt><trkpt lat="50.24385278258352" lon="14.638775009523213"><ele>169.0</ele><time>2026-05-03T10:28:14Z</time></trkpt><trkpt lat="50.243787443377244" lon="14.638720091339046"><ele>169.0</ele><time>2026-05-03T10:29:05Z</time></trkpt><trkpt lat="50.24382285836799" lon="14.638802714923546"><ele>169.0</ele><time>2026-05-03T10:29:13Z</time></trkpt><trkpt lat="50.24388526267085" lon="14.638821906179327"><ele>169.0</ele><time>2026-05-03T10:29:19Z</time></trkpt><trkpt lat="50.243938346379174" lon="14.638759959746933"><ele>169.0</ele><time>2026-05-03T10:29:24Z</time></trkpt><trkpt lat="50.24398920126208" lon="14.63869057669085"><ele>169.0</ele><time>2026-05-03T10:29:30Z</time></trkpt><trkpt lat="50.24392361170712" lon="14.638757806651077"><ele>169.0</ele><time>2026-05-03T10:29:50Z</time></trkpt><trkpt lat="50.24385867728449" lon="14.638745905730358"><ele>169.0</ele><time>2026-05-03T10:29:55Z</time></trkpt><trkpt lat="50.243791741651684" lon="14.638710945761366"><ele>169.0</ele><time>2026-05-03T10:30:00Z</time></trkpt><trkpt lat="50.24386119415422" lon="14.638774979198322"><ele>169.0</ele><time>2026-05-03T10:30:41Z</time></trkpt><trkpt lat="50.243939221746466" lon="14.63876910262741"><ele>169.0</ele><time>2026-05-03T10:30:46Z</time></trkpt><trkpt lat="50.24399468454742" lon="14.638697685944416"><ele>169.0</ele><time>2026-05-03T10:30:52Z</time></trkpt><trkpt lat="50.243925888236795" lon="14.638725276644273"><ele>169.0</ele><time>2026-05-03T10:31:11Z</time></trkpt><trkpt lat="50.243858808344925" lon="14.638724364531548"><ele>169.0</ele><time>2026-05-03T10:31:17Z</time></trkpt><trkpt lat="50.24378925492867" lon="14.638739437586299"><ele>169.0</ele><time>2026-05-03T10:31:24Z</time></trkpt><trkpt lat="50.24385099983936" lon="14.638776996715334"><ele>169.0</ele><time>2026-05-03T10:32:12Z</time></trkpt><trkpt lat="50.243924911507484" lon="14.638782597263706"><ele>169.0</ele><time>2026-05-03T10:32:17Z</time></trkpt><trkpt lat="50.243976963011974" lon="14.638714109124678"><ele>169.0</ele><time>2026-05-03T10:32:22Z</time></trkpt><trkpt lat="50.244031656281706" lon="14.638644381971067"><ele>169.0</ele><time>2026-05-03T10:32:28Z</time></trkpt><trkpt lat="50.24397371990823" lon="14.63871738099631"><ele>169.0</ele><time>2026-05-03T10:32:38Z</time></trkpt><trkpt lat="50.24391133768139" lon="14.638741727834633"><ele>169.0</ele><time>2026-05-03T10:32:43Z</time></trkpt><trkpt lat="50.243843909654075" lon="14.63878809631883"><ele>169.0</ele><time>2026-05-03T10:32:49Z</time></trkpt><trkpt lat="50.24391093565586" lon="14.638798580573942"><ele>169.0</ele><time>2026-05-03T10:33:41Z</time></trkpt><trkpt lat="50.24396129704866" lon="14.638729299356465"><ele>169.0</ele><time>2026-05-03T10:33:46Z</time></trkpt><trkpt lat="50.24401748654277" lon="14.638660495332092"><ele>169.0</ele><time>2026-05-03T10:34:00Z</time></trkpt><trkpt lat="50.24395322738489" lon="14.638687860713768"><ele>169.0</ele><time>2026-05-03T10:39:02Z</time></trkpt><trkpt lat="50.24388962809497" lon="14.63874928604261"><ele>169.0</ele><time>2026-05-03T10:39:07Z</time></trkpt><trkpt lat="50.24383096012921" lon="14.638790532632704"><ele>169.0</ele><time>2026-05-03T10:39:12Z</time></trkpt><trkpt lat="50.243897275981084" lon="14.638817390984617"><ele>169.0</ele><time>2026-05-03T10:39:51Z</time></trkpt><trkpt lat="50.24395474818918" lon="14.638750441412753"><ele>169.0</ele><time>2026-05-03T10:39:57Z</time></trkpt><trkpt lat="50.24400111522922" lon="14.638678734449194"><ele>169.0</ele><time>2026-05-03T10:40:04Z</time></trkpt><trkpt lat="50.243934981586904" lon="14.63868953311714"><ele>169.0</ele><time>2026-05-03T10:40:19Z</time></trkpt><trkpt lat="50.24386879752398" lon="14.638738824338372"><ele>169.0</ele><time>2026-05-03T10:40:25Z</time></trkpt><trkpt lat="50.243796728929475" lon="14.638705832575416"><ele>169.0</ele><time>2026-05-03T10:40:31Z</time></trkpt><trkpt lat="50.24380881770365" lon="14.638815447268637"><ele>169.0</ele><time>2026-05-03T10:40:41Z</time></trkpt><trkpt lat="50.24387534041907" lon="14.638781199633769"><ele>169.0</ele><time>2026-05-03T10:41:30Z</time></trkpt><trkpt lat="50.24394307510289" lon="14.638760382659802"><ele>169.0</ele><time>2026-05-03T10:41:34Z</time></trkpt><trkpt lat="50.24398604736109" lon="14.638678451356428"><ele>169.0</ele><time>2026-05-03T10:41:39Z</time></trkpt><trkpt lat="50.243920129817084" lon="14.638718112375788"><ele>169.0</ele><time>2026-05-03T10:41:55Z</time></trkpt><trkpt lat="50.24385458753646" lon="14.638725891218865"><ele>169.0</ele><time>2026-05-03T10:42:01Z</time></trkpt><trkpt lat="50.24378307040058" lon="14.638747765758502"><ele>169.0</ele><time>2026-05-03T10:42:51Z</time></trkpt><trkpt lat="50.24385226896065" lon="14.638790156546301"><ele>169.0</ele><time>2026-05-03T10:42:57Z</time></trkpt><trkpt lat="50.2439198409631" lon="14.638758359224497"><ele>169.0</ele><time>2026-05-03T10:43:02Z</time></trkpt><trkpt lat="50.243974197996636" lon="14.638706065047982"><ele>169.0</ele><time>2026-05-03T10:43:07Z</time></trkpt><trkpt lat="50.243903501518396" lon="14.638733390534275"><ele>169.0</ele><time>2026-05-03T10:43:40.999Z</time></trkpt><trkpt lat="50.24383762304415" lon="14.63878902022808"><ele>169.0</ele><time>2026-05-03T10:43:46.999Z</time></trkpt><trkpt lat="50.24390399435284" lon="14.638790651999898"><ele>169.0</ele><time>2026-05-03T10:44:57.999Z</time></trkpt><trkpt lat="50.24396589197894" lon="14.638725711553539"><ele>169.0</ele><time>2026-05-03T10:45:02.999Z</time></trkpt><trkpt lat="50.244015446240574" lon="14.63865997048831"><ele>169.0</ele><time>2026-05-03T10:45:07.999Z</time></trkpt><trkpt lat="50.243952386122444" lon="14.638702614203243"><ele>169.0</ele><time>2026-05-03T10:50:14Z</time></trkpt><trkpt lat="50.2438859499447" lon="14.638735980864839"><ele>169.0</ele><time>2026-05-03T10:50:20Z</time></trkpt><trkpt lat="50.24382070162632" lon="14.638717205956102"><ele>169.0</ele><time>2026-05-03T10:50:26Z</time></trkpt><trkpt lat="50.24388614431838" lon="14.638698126695465"><ele>169.0</ele><time>2026-05-03T10:50:53Z</time></trkpt><trkpt lat="50.24390080774291" lon="14.638601746357962"><ele>169.0</ele><time>2026-05-03T10:51:00Z</time></trkpt></trkseg></trk></gpx>